<?xml version="1.0" encoding="utf-8"?>
<gpx xmlns:xsi="http://www.w3.org/2001/XMLSchema-instance" xmlns:xsd="http://www.w3.org/2001/XMLSchema" version="1.1" creator="Shapelink.com" xmlns="http://www.topografix.com/GPX/1/1" xmlns:gpxtpx="http://www.garmin.com/xmlschemas/TrackPointExtension/v1">
  <metadata>
    <name>Löpning 8.09 km, 2018-02-05</name>
    <desc></desc>
    <author><name>Bengt-Åke Forslund</name></author> 
    <time>2018-02-05T18:01:08Z</time>
  </metadata>
  <trk>
    <name>Löpning 8.09 km, 2018-02-05</name>
    <trkseg>
      <trkpt lat="62.637233027839" lon="17.96627324133">
        <ele>71.8</ele>
        <time>2018-02-05T18:01:08Z</time>
      </trkpt>
      <trkpt lat="62.637239481902" lon="17.966323113635">
        <ele>71.8</ele>
        <time>2018-02-05T18:01:09Z</time>
      </trkpt>
      <trkpt lat="62.637284157429" lon="17.966386732256">
        <ele>71.8</ele>
        <time>2018-02-05T18:01:10Z</time>
      </trkpt>
      <trkpt lat="62.637305195998" lon="17.966392767224">
        <ele>71.8</ele>
        <time>2018-02-05T18:01:11Z</time>
      </trkpt>
      <trkpt lat="62.637334784105" lon="17.966402657866">
        <ele>72</ele>
        <time>2018-02-05T18:01:12Z</time>
      </trkpt>
      <trkpt lat="62.637368144067" lon="17.966421852417">
        <ele>72.2</ele>
        <time>2018-02-05T18:01:13Z</time>
      </trkpt>
      <trkpt lat="62.63742321315" lon="17.966492511834">
        <ele>72.2</ele>
        <time>2018-02-05T18:01:14Z</time>
      </trkpt>
      <trkpt lat="62.637447101565" lon="17.966519501552">
        <ele>72.4</ele>
        <time>2018-02-05T18:01:15Z</time>
      </trkpt>
      <trkpt lat="62.637482305545" lon="17.966545988356">
        <ele>72.4</ele>
        <time>2018-02-05T18:01:16Z</time>
      </trkpt>
      <trkpt lat="62.637520359371" lon="17.96654816765">
        <ele>72.4</ele>
        <time>2018-02-05T18:01:17Z</time>
      </trkpt>
      <trkpt lat="62.637523628312" lon="17.966546072175">
        <ele>72.4</ele>
        <time>2018-02-05T18:01:18Z</time>
      </trkpt>
      <trkpt lat="62.637550366573" lon="17.966541965044">
        <ele>72.4</ele>
        <time>2018-02-05T18:01:19Z</time>
      </trkpt>
      <trkpt lat="62.637575344635" lon="17.966519166276">
        <ele>72.4</ele>
        <time>2018-02-05T18:01:20Z</time>
      </trkpt>
      <trkpt lat="62.637579535585" lon="17.966491757463">
        <ele>72.4</ele>
        <time>2018-02-05T18:01:21Z</time>
      </trkpt>
      <trkpt lat="62.637572243332" lon="17.966479938984">
        <ele>72.4</ele>
        <time>2018-02-05T18:01:22Z</time>
      </trkpt>
      <trkpt lat="62.63756067631" lon="17.966460912071">
        <ele>72.4</ele>
        <time>2018-02-05T18:01:23Z</time>
      </trkpt>
      <trkpt lat="62.637563861432" lon="17.966464600107">
        <ele>72.4</ele>
        <time>2018-02-05T18:01:24Z</time>
      </trkpt>
      <trkpt lat="62.637559167568" lon="17.966464600107">
        <ele>72.2</ele>
        <time>2018-02-05T18:01:25Z</time>
      </trkpt>
      <trkpt lat="62.637539134827" lon="17.966439454407">
        <ele>72.2</ele>
        <time>2018-02-05T18:01:26Z</time>
      </trkpt>
      <trkpt lat="62.637533602773" lon="17.966432665068">
        <ele>72</ele>
        <time>2018-02-05T18:01:27Z</time>
      </trkpt>
      <trkpt lat="62.637281726678" lon="17.96639142612">
        <ele>72.4</ele>
        <time>2018-02-05T18:01:38Z</time>
      </trkpt>
      <trkpt lat="62.637285163257" lon="17.966358988167">
        <ele>72.4</ele>
        <time>2018-02-05T18:01:39Z</time>
      </trkpt>
      <trkpt lat="62.637292874605" lon="17.966328645689">
        <ele>72.4</ele>
        <time>2018-02-05T18:01:40Z</time>
      </trkpt>
      <trkpt lat="62.637305698912" lon="17.966317078667">
        <ele>72.4</ele>
        <time>2018-02-05T18:01:41Z</time>
      </trkpt>
      <trkpt lat="62.637334700286" lon="17.96614332188">
        <ele>72.8</ele>
        <time>2018-02-05T18:02:13Z</time>
      </trkpt>
      <trkpt lat="62.637332604811" lon="17.966146004088">
        <ele>72.6</ele>
        <time>2018-02-05T18:02:14Z</time>
      </trkpt>
      <trkpt lat="62.637345345299" lon="17.966155140359">
        <ele>72.6</ele>
        <time>2018-02-05T18:02:15Z</time>
      </trkpt>
      <trkpt lat="62.637362528194" lon="17.966283886343">
        <ele>72.6</ele>
        <time>2018-02-05T18:02:16Z</time>
      </trkpt>
      <trkpt lat="62.637398821821" lon="17.966319509418">
        <ele>72.6</ele>
        <time>2018-02-05T18:02:17Z</time>
      </trkpt>
      <trkpt lat="62.637399827649" lon="17.966324454739">
        <ele>72.4</ele>
        <time>2018-02-05T18:02:18Z</time>
      </trkpt>
      <trkpt lat="62.63739639107" lon="17.966317330124">
        <ele>72.4</ele>
        <time>2018-02-05T18:02:19Z</time>
      </trkpt>
      <trkpt lat="62.637412651956" lon="17.966321185798">
        <ele>72</ele>
        <time>2018-02-05T18:02:20Z</time>
      </trkpt>
      <trkpt lat="62.637385159324" lon="17.966292352062">
        <ele>72</ele>
        <time>2018-02-05T18:02:21Z</time>
      </trkpt>
      <trkpt lat="62.637367724972" lon="17.966245664879">
        <ele>71.8</ele>
        <time>2018-02-05T18:02:22Z</time>
      </trkpt>
      <trkpt lat="62.637357415235" lon="17.966190428158">
        <ele>71.6</ele>
        <time>2018-02-05T18:02:23Z</time>
      </trkpt>
      <trkpt lat="62.637340902892" lon="17.966136197265">
        <ele>71.4</ele>
        <time>2018-02-05T18:02:24Z</time>
      </trkpt>
      <trkpt lat="62.637336711942" lon="17.96612571989">
        <ele>71.4</ele>
        <time>2018-02-05T18:02:25Z</time>
      </trkpt>
      <trkpt lat="62.63735112881" lon="17.966123792053">
        <ele>71.4</ele>
        <time>2018-02-05T18:02:26Z</time>
      </trkpt>
      <trkpt lat="62.637351380267" lon="17.966130581392">
        <ele>71.4</ele>
        <time>2018-02-05T18:02:27Z</time>
      </trkpt>
      <trkpt lat="62.637359929805" lon="17.966102669665">
        <ele>71.6</ele>
        <time>2018-02-05T18:02:28Z</time>
      </trkpt>
      <trkpt lat="62.637359929805" lon="17.966102669665">
        <ele>71.6</ele>
        <time>2018-02-05T18:02:29Z</time>
      </trkpt>
      <trkpt lat="62.637256078064" lon="17.966220100084">
        <ele>71.4</ele>
        <time>2018-02-05T18:02:44Z</time>
      </trkpt>
      <trkpt lat="62.637240403911" lon="17.966263685964">
        <ele>71.2</ele>
        <time>2018-02-05T18:02:45Z</time>
      </trkpt>
      <trkpt lat="62.637299663944" lon="17.966393270138">
        <ele>71.2</ele>
        <time>2018-02-05T18:02:49Z</time>
      </trkpt>
      <trkpt lat="62.637299496306" lon="17.966386229342">
        <ele>71.6</ele>
        <time>2018-02-05T18:02:50Z</time>
      </trkpt>
      <trkpt lat="62.637308884034" lon="17.966397544907">
        <ele>72</ele>
        <time>2018-02-05T18:02:51Z</time>
      </trkpt>
      <trkpt lat="62.637339897064" lon="17.966399640382">
        <ele>72.4</ele>
        <time>2018-02-05T18:02:54Z</time>
      </trkpt>
      <trkpt lat="62.637338472141" lon="17.966368543533">
        <ele>72.4</ele>
        <time>2018-02-05T18:02:55Z</time>
      </trkpt>
      <trkpt lat="62.637340567616" lon="17.966350438629">
        <ele>72.2</ele>
        <time>2018-02-05T18:02:56Z</time>
      </trkpt>
      <trkpt lat="62.637345680575" lon="17.966279863031">
        <ele>72.4</ele>
        <time>2018-02-05T18:03:00Z</time>
      </trkpt>
      <trkpt lat="62.637352386095" lon="17.966284221619">
        <ele>72.4</ele>
        <time>2018-02-05T18:03:01Z</time>
      </trkpt>
      <trkpt lat="62.637375352501" lon="17.9663428111">
        <ele>72.2</ele>
        <time>2018-02-05T18:03:02Z</time>
      </trkpt>
      <trkpt lat="62.637400079106" lon="17.966385055876">
        <ele>72.2</ele>
        <time>2018-02-05T18:03:03Z</time>
      </trkpt>
      <trkpt lat="62.637425140987" lon="17.966422103874">
        <ele>72</ele>
        <time>2018-02-05T18:03:04Z</time>
      </trkpt>
      <trkpt lat="62.637435366905" lon="17.966449596506">
        <ele>72.2</ele>
        <time>2018-02-05T18:03:05Z</time>
      </trkpt>
      <trkpt lat="62.637448442669" lon="17.966479938984">
        <ele>72.2</ele>
        <time>2018-02-05T18:03:06Z</time>
      </trkpt>
      <trkpt lat="62.637454645275" lon="17.966468958695">
        <ele>72.4</ele>
        <time>2018-02-05T18:03:07Z</time>
      </trkpt>
      <trkpt lat="62.637454142361" lon="17.966476837681">
        <ele>72.4</ele>
        <time>2018-02-05T18:03:08Z</time>
      </trkpt>
      <trkpt lat="62.637449783773" lon="17.96647273055">
        <ele>72.6</ele>
        <time>2018-02-05T18:03:09Z</time>
      </trkpt>
      <trkpt lat="62.637463865365" lon="17.966421433322">
        <ele>72.6</ele>
        <time>2018-02-05T18:03:10Z</time>
      </trkpt>
      <trkpt lat="62.637470235609" lon="17.96645512856">
        <ele>72.6</ele>
        <time>2018-02-05T18:03:11Z</time>
      </trkpt>
      <trkpt lat="62.637451879248" lon="17.966461750261">
        <ele>72.4</ele>
        <time>2018-02-05T18:03:12Z</time>
      </trkpt>
      <trkpt lat="62.637437881475" lon="17.966368627352">
        <ele>72.4</ele>
        <time>2018-02-05T18:03:13Z</time>
      </trkpt>
      <trkpt lat="62.637155746721" lon="17.966580689422">
        <ele>72</ele>
        <time>2018-02-05T18:04:15Z</time>
      </trkpt>
      <trkpt lat="62.637120123646" lon="17.966579264499">
        <ele>72</ele>
        <time>2018-02-05T18:04:16Z</time>
      </trkpt>
      <trkpt lat="62.637074945205" lon="17.96656828421">
        <ele>72</ele>
        <time>2018-02-05T18:04:17Z</time>
      </trkpt>
      <trkpt lat="62.637025156719" lon="17.966560489043">
        <ele>72</ele>
        <time>2018-02-05T18:04:18Z</time>
      </trkpt>
      <trkpt lat="62.636976122604" lon="17.966553364428">
        <ele>72</ele>
        <time>2018-02-05T18:04:19Z</time>
      </trkpt>
      <trkpt lat="62.636951060723" lon="17.966546742727">
        <ele>72</ele>
        <time>2018-02-05T18:04:20Z</time>
      </trkpt>
      <trkpt lat="62.636910827603" lon="17.966534672791">
        <ele>72</ele>
        <time>2018-02-05T18:04:21Z</time>
      </trkpt>
      <trkpt lat="62.636883837885" lon="17.966517908991">
        <ele>72</ele>
        <time>2018-02-05T18:04:22Z</time>
      </trkpt>
      <trkpt lat="62.636857770176" lon="17.966503156847">
        <ele>72</ele>
        <time>2018-02-05T18:04:23Z</time>
      </trkpt>
      <trkpt lat="62.636835306684" lon="17.966491254549">
        <ele>72</ele>
        <time>2018-02-05T18:04:24Z</time>
      </trkpt>
      <trkpt lat="62.63681803997" lon="17.966471305627">
        <ele>72</ele>
        <time>2018-02-05T18:04:25Z</time>
      </trkpt>
      <trkpt lat="62.636808484604" lon="17.966445489375">
        <ele>72</ele>
        <time>2018-02-05T18:04:26Z</time>
      </trkpt>
      <trkpt lat="62.636804880387" lon="17.966443729176">
        <ele>71.8</ele>
        <time>2018-02-05T18:04:27Z</time>
      </trkpt>
      <trkpt lat="62.63676942495" lon="17.966399891839">
        <ele>72</ele>
        <time>2018-02-05T18:04:28Z</time>
      </trkpt>
      <trkpt lat="62.636740591214" lon="17.966364352583">
        <ele>72</ele>
        <time>2018-02-05T18:04:29Z</time>
      </trkpt>
      <trkpt lat="62.63672500088" lon="17.966340883263">
        <ele>72</ele>
        <time>2018-02-05T18:04:30Z</time>
      </trkpt>
      <trkpt lat="62.637206792492" lon="17.966331579354">
        <ele>71.4</ele>
        <time>2018-02-05T18:06:12Z</time>
      </trkpt>
      <trkpt lat="62.637300669772" lon="17.966423444978">
        <ele>72</ele>
        <time>2018-02-05T18:06:51Z</time>
      </trkpt>
      <trkpt lat="62.637300502134" lon="17.966422355331">
        <ele>72</ele>
        <time>2018-02-05T18:06:52Z</time>
      </trkpt>
      <trkpt lat="62.63730251379" lon="17.966426043367">
        <ele>72</ele>
        <time>2018-02-05T18:06:53Z</time>
      </trkpt>
      <trkpt lat="62.637301256505" lon="17.966428809394">
        <ele>72</ele>
        <time>2018-02-05T18:06:54Z</time>
      </trkpt>
      <trkpt lat="62.637304022532" lon="17.966427216833">
        <ele>72</ele>
        <time>2018-02-05T18:06:55Z</time>
      </trkpt>
      <trkpt lat="62.637298825754" lon="17.966381116383">
        <ele>72</ele>
        <time>2018-02-05T18:06:56Z</time>
      </trkpt>
      <trkpt lat="62.637288348379" lon="17.966324873834">
        <ele>72</ele>
        <time>2018-02-05T18:06:57Z</time>
      </trkpt>
      <trkpt lat="62.637285833809" lon="17.966299895772">
        <ele>72</ele>
        <time>2018-02-05T18:06:58Z</time>
      </trkpt>
      <trkpt lat="62.637275188796" lon="17.966263937421">
        <ele>72</ele>
        <time>2018-02-05T18:06:59Z</time>
      </trkpt>
      <trkpt lat="62.637272841864" lon="17.966257818634">
        <ele>71.8</ele>
        <time>2018-02-05T18:07:00Z</time>
      </trkpt>
      <trkpt lat="62.637257922082" lon="17.966225380681">
        <ele>71.8</ele>
        <time>2018-02-05T18:07:01Z</time>
      </trkpt>
      <trkpt lat="62.63724970782" lon="17.966205515578">
        <ele>71.8</ele>
        <time>2018-02-05T18:07:02Z</time>
      </trkpt>
      <trkpt lat="62.637243421395" lon="17.966184141733">
        <ele>71.6</ele>
        <time>2018-02-05T18:07:03Z</time>
      </trkpt>
      <trkpt lat="62.637238224617" lon="17.966163606078">
        <ele>71.6</ele>
        <time>2018-02-05T18:07:04Z</time>
      </trkpt>
      <trkpt lat="62.637241074463" lon="17.966132928324">
        <ele>71.4</ele>
        <time>2018-02-05T18:07:05Z</time>
      </trkpt>
      <trkpt lat="62.637240655368" lon="17.966107614986">
        <ele>71.4</ele>
        <time>2018-02-05T18:07:06Z</time>
      </trkpt>
      <trkpt lat="62.637239146626" lon="17.96608632496">
        <ele>71.2</ele>
        <time>2018-02-05T18:07:07Z</time>
      </trkpt>
      <trkpt lat="62.637236883513" lon="17.966066376038">
        <ele>71.2</ele>
        <time>2018-02-05T18:07:08Z</time>
      </trkpt>
      <trkpt lat="62.637234033667" lon="17.966045924202">
        <ele>71.2</ele>
        <time>2018-02-05T18:07:09Z</time>
      </trkpt>
      <trkpt lat="62.637230513269" lon="17.966025304728">
        <ele>71.2</ele>
        <time>2018-02-05T18:07:10Z</time>
      </trkpt>
      <trkpt lat="62.63722707669" lon="17.965986747988">
        <ele>71.2</ele>
        <time>2018-02-05T18:07:11Z</time>
      </trkpt>
      <trkpt lat="62.637220119713" lon="17.965954812949">
        <ele>71.2</ele>
        <time>2018-02-05T18:07:12Z</time>
      </trkpt>
      <trkpt lat="62.637211905451" lon="17.965926063032">
        <ele>71.2</ele>
        <time>2018-02-05T18:07:13Z</time>
      </trkpt>
      <trkpt lat="62.637204864655" lon="17.96590024678">
        <ele>71.2</ele>
        <time>2018-02-05T18:07:14Z</time>
      </trkpt>
      <trkpt lat="62.637196147479" lon="17.965869569026">
        <ele>71.2</ele>
        <time>2018-02-05T18:07:15Z</time>
      </trkpt>
      <trkpt lat="62.637186340656" lon="17.965845261516">
        <ele>71.2</ele>
        <time>2018-02-05T18:07:16Z</time>
      </trkpt>
      <trkpt lat="62.637171253236" lon="17.965814332305">
        <ele>71.2</ele>
        <time>2018-02-05T18:07:17Z</time>
      </trkpt>
      <trkpt lat="62.637156249635" lon="17.96578457656">
        <ele>71.2</ele>
        <time>2018-02-05T18:07:18Z</time>
      </trkpt>
      <trkpt lat="62.637145017889" lon="17.965752473883">
        <ele>71.2</ele>
        <time>2018-02-05T18:07:19Z</time>
      </trkpt>
      <trkpt lat="62.637135965437" lon="17.965713414229">
        <ele>71.2</ele>
        <time>2018-02-05T18:07:20Z</time>
      </trkpt>
      <trkpt lat="62.63712984665" lon="17.965677958792">
        <ele>71</ele>
        <time>2018-02-05T18:07:21Z</time>
      </trkpt>
      <trkpt lat="62.637123224949" lon="17.965642168079">
        <ele>71.2</ele>
        <time>2018-02-05T18:07:22Z</time>
      </trkpt>
      <trkpt lat="62.637113585764" lon="17.965603192244">
        <ele>71.2</ele>
        <time>2018-02-05T18:07:23Z</time>
      </trkpt>
      <trkpt lat="62.637104281855" lon="17.965570921929">
        <ele>71.2</ele>
        <time>2018-02-05T18:07:24Z</time>
      </trkpt>
      <trkpt lat="62.637093050109" lon="17.965537813424">
        <ele>71.2</ele>
        <time>2018-02-05T18:07:25Z</time>
      </trkpt>
      <trkpt lat="62.637082153639" lon="17.965501519797">
        <ele>71.4</ele>
        <time>2018-02-05T18:07:26Z</time>
      </trkpt>
      <trkpt lat="62.637070754255" lon="17.965471261138">
        <ele>71.4</ele>
        <time>2018-02-05T18:07:27Z</time>
      </trkpt>
      <trkpt lat="62.637059773966" lon="17.965437314443">
        <ele>71.2</ele>
        <time>2018-02-05T18:07:28Z</time>
      </trkpt>
      <trkpt lat="62.637048961315" lon="17.96539984735">
        <ele>71.4</ele>
        <time>2018-02-05T18:07:29Z</time>
      </trkpt>
      <trkpt lat="62.637038232483" lon="17.965359027497">
        <ele>71.4</ele>
        <time>2018-02-05T18:07:30Z</time>
      </trkpt>
      <trkpt lat="62.63702674928" lon="17.96532524844">
        <ele>71.4</ele>
        <time>2018-02-05T18:07:31Z</time>
      </trkpt>
      <trkpt lat="62.637017277733" lon="17.965294905962">
        <ele>71.2</ele>
        <time>2018-02-05T18:07:32Z</time>
      </trkpt>
      <trkpt lat="62.637006800358" lon="17.965266407502">
        <ele>71.2</ele>
        <time>2018-02-05T18:07:33Z</time>
      </trkpt>
      <trkpt lat="62.637000094838" lon="17.965233801911">
        <ele>71.4</ele>
        <time>2018-02-05T18:07:34Z</time>
      </trkpt>
      <trkpt lat="62.636988946911" lon="17.965194574619">
        <ele>71.4</ele>
        <time>2018-02-05T18:07:35Z</time>
      </trkpt>
      <trkpt lat="62.636974613862" lon="17.965155263508">
        <ele>71.4</ele>
        <time>2018-02-05T18:07:36Z</time>
      </trkpt>
      <trkpt lat="62.636960364632" lon="17.965115198026">
        <ele>71.4</ele>
        <time>2018-02-05T18:07:37Z</time>
      </trkpt>
      <trkpt lat="62.636948713791" lon="17.965079574951">
        <ele>71.4</ele>
        <time>2018-02-05T18:07:38Z</time>
      </trkpt>
      <trkpt lat="62.636936140941" lon="17.965043029867">
        <ele>71.2</ele>
        <time>2018-02-05T18:07:39Z</time>
      </trkpt>
      <trkpt lat="62.636923232815" lon="17.965004556946">
        <ele>71.4</ele>
        <time>2018-02-05T18:07:40Z</time>
      </trkpt>
      <trkpt lat="62.6369161082" lon="17.964958624134">
        <ele>71.4</ele>
        <time>2018-02-05T18:07:41Z</time>
      </trkpt>
      <trkpt lat="62.636907558662" lon="17.96491621172">
        <ele>71.2</ele>
        <time>2018-02-05T18:07:42Z</time>
      </trkpt>
      <trkpt lat="62.636900434047" lon="17.964873547849">
        <ele>71.2</ele>
        <time>2018-02-05T18:07:43Z</time>
      </trkpt>
      <trkpt lat="62.636892219785" lon="17.964836248394">
        <ele>71.2</ele>
        <time>2018-02-05T18:07:44Z</time>
      </trkpt>
      <trkpt lat="62.636879563116" lon="17.964790147944">
        <ele>71.2</ele>
        <time>2018-02-05T18:07:45Z</time>
      </trkpt>
      <trkpt lat="62.636865984438" lon="17.96474941191">
        <ele>71.2</ele>
        <time>2018-02-05T18:07:46Z</time>
      </trkpt>
      <trkpt lat="62.636850645561" lon="17.964708843514">
        <ele>71.2</ele>
        <time>2018-02-05T18:07:47Z</time>
      </trkpt>
      <trkpt lat="62.636835139046" lon="17.964669532403">
        <ele>71.2</ele>
        <time>2018-02-05T18:07:48Z</time>
      </trkpt>
      <trkpt lat="62.636820470721" lon="17.964634998975">
        <ele>71.2</ele>
        <time>2018-02-05T18:07:49Z</time>
      </trkpt>
      <trkpt lat="62.636806640586" lon="17.964600046452">
        <ele>71.4</ele>
        <time>2018-02-05T18:07:50Z</time>
      </trkpt>
      <trkpt lat="62.636793816279" lon="17.964566351214">
        <ele>71.2</ele>
        <time>2018-02-05T18:07:51Z</time>
      </trkpt>
      <trkpt lat="62.636781243429" lon="17.964534080899">
        <ele>71.2</ele>
        <time>2018-02-05T18:07:52Z</time>
      </trkpt>
      <trkpt lat="62.636768419122" lon="17.964496446168">
        <ele>71.2</ele>
        <time>2018-02-05T18:07:53Z</time>
      </trkpt>
      <trkpt lat="62.636755846272" lon="17.964461996559">
        <ele>71</ele>
        <time>2018-02-05T18:07:54Z</time>
      </trkpt>
      <trkpt lat="62.636742183775" lon="17.964428468959">
        <ele>71.2</ele>
        <time>2018-02-05T18:07:55Z</time>
      </trkpt>
      <trkpt lat="62.636727431631" lon="17.964392678246">
        <ele>71.2</ele>
        <time>2018-02-05T18:07:56Z</time>
      </trkpt>
      <trkpt lat="62.636713936772" lon="17.964358563913">
        <ele>71.2</ele>
        <time>2018-02-05T18:07:57Z</time>
      </trkpt>
      <trkpt lat="62.636700609551" lon="17.964323359933">
        <ele>71.2</ele>
        <time>2018-02-05T18:07:58Z</time>
      </trkpt>
      <trkpt lat="62.636686863235" lon="17.964284048822">
        <ele>71.2</ele>
        <time>2018-02-05T18:07:59Z</time>
      </trkpt>
      <trkpt lat="62.636673284557" lon="17.964241887865">
        <ele>71.2</ele>
        <time>2018-02-05T18:08:00Z</time>
      </trkpt>
      <trkpt lat="62.63666213663" lon="17.96420207384">
        <ele>71.2</ele>
        <time>2018-02-05T18:08:01Z</time>
      </trkpt>
      <trkpt lat="62.636650904884" lon="17.964164271471">
        <ele>71.2</ele>
        <time>2018-02-05T18:08:02Z</time>
      </trkpt>
      <trkpt lat="62.636636404197" lon="17.964124289808">
        <ele>71.2</ele>
        <time>2018-02-05T18:08:03Z</time>
      </trkpt>
      <trkpt lat="62.636621232958" lon="17.964084140507">
        <ele>71.2</ele>
        <time>2018-02-05T18:08:04Z</time>
      </trkpt>
      <trkpt lat="62.636608827746" lon="17.964043488292">
        <ele>71</ele>
        <time>2018-02-05T18:08:05Z</time>
      </trkpt>
      <trkpt lat="62.636594829973" lon="17.964005602104">
        <ele>71.2</ele>
        <time>2018-02-05T18:08:06Z</time>
      </trkpt>
      <trkpt lat="62.636580413105" lon="17.963964195518">
        <ele>71.2</ele>
        <time>2018-02-05T18:08:07Z</time>
      </trkpt>
      <trkpt lat="62.636565493323" lon="17.963921950742">
        <ele>71.2</ele>
        <time>2018-02-05T18:08:08Z</time>
      </trkpt>
      <trkpt lat="62.636552752835" lon="17.963882639631">
        <ele>71.2</ele>
        <time>2018-02-05T18:08:09Z</time>
      </trkpt>
      <trkpt lat="62.636540682899" lon="17.963840394855">
        <ele>71.2</ele>
        <time>2018-02-05T18:08:10Z</time>
      </trkpt>
      <trkpt lat="62.636520231063" lon="17.963802843943">
        <ele>71</ele>
        <time>2018-02-05T18:08:11Z</time>
      </trkpt>
      <trkpt lat="62.636501707064" lon="17.963778536433">
        <ele>71</ele>
        <time>2018-02-05T18:08:12Z</time>
      </trkpt>
      <trkpt lat="62.636481255228" lon="17.963763868108">
        <ele>71</ele>
        <time>2018-02-05T18:08:13Z</time>
      </trkpt>
      <trkpt lat="62.63645761827" lon="17.963757497864">
        <ele>71</ele>
        <time>2018-02-05T18:08:14Z</time>
      </trkpt>
      <trkpt lat="62.636429874181" lon="17.963754228923">
        <ele>71</ele>
        <time>2018-02-05T18:08:15Z</time>
      </trkpt>
      <trkpt lat="62.636407494508" lon="17.963752971638">
        <ele>71</ele>
        <time>2018-02-05T18:08:16Z</time>
      </trkpt>
      <trkpt lat="62.636381594437" lon="17.963754899475">
        <ele>71</ele>
        <time>2018-02-05T18:08:17Z</time>
      </trkpt>
      <trkpt lat="62.636356532556" lon="17.963755989122">
        <ele>71</ele>
        <time>2018-02-05T18:08:18Z</time>
      </trkpt>
      <trkpt lat="62.636334991073" lon="17.963773591112">
        <ele>71</ele>
        <time>2018-02-05T18:08:19Z</time>
      </trkpt>
      <trkpt lat="62.6363126114" lon="17.963795970785">
        <ele>70.8</ele>
        <time>2018-02-05T18:08:20Z</time>
      </trkpt>
      <trkpt lat="62.636293165392" lon="17.963816925535">
        <ele>71</ele>
        <time>2018-02-05T18:08:21Z</time>
      </trkpt>
      <trkpt lat="62.636274389936" lon="17.963838886113">
        <ele>71</ele>
        <time>2018-02-05T18:08:22Z</time>
      </trkpt>
      <trkpt lat="62.636253016091" lon="17.963863947994">
        <ele>71</ele>
        <time>2018-02-05T18:08:23Z</time>
      </trkpt>
      <trkpt lat="62.63623465973" lon="17.963887249676">
        <ele>71</ele>
        <time>2018-02-05T18:08:24Z</time>
      </trkpt>
      <trkpt lat="62.636214124075" lon="17.963910216082">
        <ele>71</ele>
        <time>2018-02-05T18:08:25Z</time>
      </trkpt>
      <trkpt lat="62.636192331135" lon="17.963929159176">
        <ele>71.2</ele>
        <time>2018-02-05T18:08:26Z</time>
      </trkpt>
      <trkpt lat="62.636171460204" lon="17.963950533021">
        <ele>71.2</ele>
        <time>2018-02-05T18:08:27Z</time>
      </trkpt>
      <trkpt lat="62.636151427463" lon="17.963973164151">
        <ele>71.4</ele>
        <time>2018-02-05T18:08:28Z</time>
      </trkpt>
      <trkpt lat="62.636148661436" lon="17.963975678721">
        <ele>71.4</ele>
        <time>2018-02-05T18:08:29Z</time>
      </trkpt>
      <trkpt lat="62.636113373637" lon="17.964019516058">
        <ele>71.4</ele>
        <time>2018-02-05T18:08:30Z</time>
      </trkpt>
      <trkpt lat="62.636093592353" lon="17.964041392817">
        <ele>71.6</ele>
        <time>2018-02-05T18:08:31Z</time>
      </trkpt>
      <trkpt lat="62.636075235992" lon="17.964064443042">
        <ele>71.6</ele>
        <time>2018-02-05T18:08:32Z</time>
      </trkpt>
      <trkpt lat="62.63605612526" lon="17.964087409448">
        <ele>71.6</ele>
        <time>2018-02-05T18:08:33Z</time>
      </trkpt>
      <trkpt lat="62.636037768899" lon="17.964107861284">
        <ele>71.8</ele>
        <time>2018-02-05T18:08:34Z</time>
      </trkpt>
      <trkpt lat="62.636016897968" lon="17.964130324776">
        <ele>71.8</ele>
        <time>2018-02-05T18:08:35Z</time>
      </trkpt>
      <trkpt lat="62.63599661377" lon="17.964149435508">
        <ele>71.8</ele>
        <time>2018-02-05T18:08:36Z</time>
      </trkpt>
      <trkpt lat="62.635975826658" lon="17.964169719706">
        <ele>72</ele>
        <time>2018-02-05T18:08:37Z</time>
      </trkpt>
      <trkpt lat="62.635956632107" lon="17.964190590637">
        <ele>72</ele>
        <time>2018-02-05T18:08:38Z</time>
      </trkpt>
      <trkpt lat="62.635937353737" lon="17.964210204283">
        <ele>71.8</ele>
        <time>2018-02-05T18:08:39Z</time>
      </trkpt>
      <trkpt lat="62.635917153358" lon="17.964230739938">
        <ele>72</ele>
        <time>2018-02-05T18:08:40Z</time>
      </trkpt>
      <trkpt lat="62.635893684038" lon="17.964255466543">
        <ele>72</ele>
        <time>2018-02-05T18:08:41Z</time>
      </trkpt>
      <trkpt lat="62.635872813107" lon="17.964274241999">
        <ele>72.2</ele>
        <time>2018-02-05T18:08:42Z</time>
      </trkpt>
      <trkpt lat="62.635853199461" lon="17.964290502885">
        <ele>72.2</ele>
        <time>2018-02-05T18:08:43Z</time>
      </trkpt>
      <trkpt lat="62.635833418177" lon="17.964306763771">
        <ele>72.2</ele>
        <time>2018-02-05T18:08:44Z</time>
      </trkpt>
      <trkpt lat="62.635810870866" lon="17.964324701037">
        <ele>72.4</ele>
        <time>2018-02-05T18:08:45Z</time>
      </trkpt>
      <trkpt lat="62.635791508677" lon="17.964339285543">
        <ele>72.4</ele>
        <time>2018-02-05T18:08:46Z</time>
      </trkpt>
      <trkpt lat="62.635769212823" lon="17.964358060999">
        <ele>72.4</ele>
        <time>2018-02-05T18:08:47Z</time>
      </trkpt>
      <trkpt lat="62.63574850953" lon="17.964376082084">
        <ele>72.6</ele>
        <time>2018-02-05T18:08:48Z</time>
      </trkpt>
      <trkpt lat="62.635729482617" lon="17.964391253323">
        <ele>72.6</ele>
        <time>2018-02-05T18:08:49Z</time>
      </trkpt>
      <trkpt lat="62.635706516211" lon="17.964411202245">
        <ele>72.8</ele>
        <time>2018-02-05T18:08:50Z</time>
      </trkpt>
      <trkpt lat="62.635684471814" lon="17.96442922333">
        <ele>72.8</ele>
        <time>2018-02-05T18:08:51Z</time>
      </trkpt>
      <trkpt lat="62.635665612539" lon="17.964445316578">
        <ele>72.8</ele>
        <time>2018-02-05T18:08:52Z</time>
      </trkpt>
      <trkpt lat="62.635642981409" lon="17.964462248016">
        <ele>72.8</ele>
        <time>2018-02-05T18:08:53Z</time>
      </trkpt>
      <trkpt lat="62.635622529573" lon="17.964477419255">
        <ele>73</ele>
        <time>2018-02-05T18:08:54Z</time>
      </trkpt>
      <trkpt lat="62.63560098809" lon="17.964493177227">
        <ele>73</ele>
        <time>2018-02-05T18:08:55Z</time>
      </trkpt>
      <trkpt lat="62.635578776055" lon="17.964512707054">
        <ele>72.8</ele>
        <time>2018-02-05T18:08:56Z</time>
      </trkpt>
      <trkpt lat="62.635557150753" lon="17.964531650148">
        <ele>73</ele>
        <time>2018-02-05T18:08:57Z</time>
      </trkpt>
      <trkpt lat="62.635535022537" lon="17.964549671233">
        <ele>73</ele>
        <time>2018-02-05T18:08:58Z</time>
      </trkpt>
      <trkpt lat="62.635511972312" lon="17.964565429205">
        <ele>73</ele>
        <time>2018-02-05T18:08:59Z</time>
      </trkpt>
      <trkpt lat="62.635488000078" lon="17.964582360643">
        <ele>73</ele>
        <time>2018-02-05T18:09:00Z</time>
      </trkpt>
      <trkpt lat="62.635465788043" lon="17.964600046452">
        <ele>73</ele>
        <time>2018-02-05T18:09:01Z</time>
      </trkpt>
      <trkpt lat="62.635443827465" lon="17.964616474976">
        <ele>73.2</ele>
        <time>2018-02-05T18:09:02Z</time>
      </trkpt>
      <trkpt lat="62.63542161543" lon="17.964630640387">
        <ele>73.2</ele>
        <time>2018-02-05T18:09:03Z</time>
      </trkpt>
      <trkpt lat="62.635399068119" lon="17.96464296178">
        <ele>73.2</ele>
        <time>2018-02-05T18:09:04Z</time>
      </trkpt>
      <trkpt lat="62.635378364826" lon="17.964657127191">
        <ele>73.2</ele>
        <time>2018-02-05T18:09:05Z</time>
      </trkpt>
      <trkpt lat="62.635356320429" lon="17.964671124964">
        <ele>73.2</ele>
        <time>2018-02-05T18:09:06Z</time>
      </trkpt>
      <trkpt lat="62.635333940756" lon="17.96468235671">
        <ele>73.4</ele>
        <time>2018-02-05T18:09:07Z</time>
      </trkpt>
      <trkpt lat="62.635310387617" lon="17.964689732782">
        <ele>73.4</ele>
        <time>2018-02-05T18:09:08Z</time>
      </trkpt>
      <trkpt lat="62.635288427039" lon="17.964697863225">
        <ele>73.6</ele>
        <time>2018-02-05T18:09:09Z</time>
      </trkpt>
      <trkpt lat="62.635267053194" lon="17.964707334772">
        <ele>73.6</ele>
        <time>2018-02-05T18:09:10Z</time>
      </trkpt>
      <trkpt lat="62.635240901666" lon="17.964717476871">
        <ele>73.8</ele>
        <time>2018-02-05T18:09:11Z</time>
      </trkpt>
      <trkpt lat="62.63521877345" lon="17.964723260382">
        <ele>74</ele>
        <time>2018-02-05T18:09:12Z</time>
      </trkpt>
      <trkpt lat="62.635195639406" lon="17.964728121884">
        <ele>73.8</ele>
        <time>2018-02-05T18:09:13Z</time>
      </trkpt>
      <trkpt lat="62.635174181742" lon="17.964735078861">
        <ele>74</ele>
        <time>2018-02-05T18:09:14Z</time>
      </trkpt>
      <trkpt lat="62.635149538956" lon="17.964745137141">
        <ele>74.2</ele>
        <time>2018-02-05T18:09:15Z</time>
      </trkpt>
      <trkpt lat="62.635127075464" lon="17.964752513213">
        <ele>74</ele>
        <time>2018-02-05T18:09:16Z</time>
      </trkpt>
      <trkpt lat="62.635102935592" lon="17.964759889285">
        <ele>74.2</ele>
        <time>2018-02-05T18:09:17Z</time>
      </trkpt>
      <trkpt lat="62.635079717729" lon="17.964761314208">
        <ele>74.2</ele>
        <time>2018-02-05T18:09:18Z</time>
      </trkpt>
      <trkpt lat="62.63505784097" lon="17.964763074407">
        <ele>74.4</ele>
        <time>2018-02-05T18:09:19Z</time>
      </trkpt>
      <trkpt lat="62.635033952555" lon="17.964767181538">
        <ele>74.2</ele>
        <time>2018-02-05T18:09:20Z</time>
      </trkpt>
      <trkpt lat="62.635009896502" lon="17.964771540126">
        <ele>74.2</ele>
        <time>2018-02-05T18:09:21Z</time>
      </trkpt>
      <trkpt lat="62.634988438838" lon="17.964776401628">
        <ele>74.2</ele>
        <time>2018-02-05T18:09:22Z</time>
      </trkpt>
      <trkpt lat="62.63496480188" lon="17.964780508759">
        <ele>74.4</ele>
        <time>2018-02-05T18:09:23Z</time>
      </trkpt>
      <trkpt lat="62.634942757483" lon="17.964783526243">
        <ele>74.4</ele>
        <time>2018-02-05T18:09:24Z</time>
      </trkpt>
      <trkpt lat="62.63492037781" lon="17.964787214279">
        <ele>74.4</ele>
        <time>2018-02-05T18:09:25Z</time>
      </trkpt>
      <trkpt lat="62.634896824671" lon="17.964792243419">
        <ele>74.4</ele>
        <time>2018-02-05T18:09:26Z</time>
      </trkpt>
      <trkpt lat="62.634872433342" lon="17.964797859292">
        <ele>74.6</ele>
        <time>2018-02-05T18:09:27Z</time>
      </trkpt>
      <trkpt lat="62.634849383117" lon="17.964801463509">
        <ele>74.6</ele>
        <time>2018-02-05T18:09:28Z</time>
      </trkpt>
      <trkpt lat="62.634824405055" lon="17.964801547328">
        <ele>74.6</ele>
        <time>2018-02-05T18:09:29Z</time>
      </trkpt>
      <trkpt lat="62.634798504984" lon="17.964801463509">
        <ele>74.6</ele>
        <time>2018-02-05T18:09:30Z</time>
      </trkpt>
      <trkpt lat="62.634774700388" lon="17.964803475165">
        <ele>74.8</ele>
        <time>2018-02-05T18:09:31Z</time>
      </trkpt>
      <trkpt lat="62.634750560516" lon="17.96480389426">
        <ele>74.8</ele>
        <time>2018-02-05T18:09:32Z</time>
      </trkpt>
      <trkpt lat="62.634726420644" lon="17.964803558984">
        <ele>74.8</ele>
        <time>2018-02-05T18:09:33Z</time>
      </trkpt>
      <trkpt lat="62.634702867505" lon="17.96480473245">
        <ele>74.8</ele>
        <time>2018-02-05T18:09:34Z</time>
      </trkpt>
      <trkpt lat="62.634678308538" lon="17.964805319183">
        <ele>75</ele>
        <time>2018-02-05T18:09:35Z</time>
      </trkpt>
      <trkpt lat="62.63465467158" lon="17.964808169029">
        <ele>75</ele>
        <time>2018-02-05T18:09:36Z</time>
      </trkpt>
      <trkpt lat="62.634630280251" lon="17.964808588124">
        <ele>75</ele>
        <time>2018-02-05T18:09:37Z</time>
      </trkpt>
      <trkpt lat="62.634608152035" lon="17.964810683599">
        <ele>75</ele>
        <time>2018-02-05T18:09:38Z</time>
      </trkpt>
      <trkpt lat="62.634586945828" lon="17.96481143797">
        <ele>75.2</ele>
        <time>2018-02-05T18:09:39Z</time>
      </trkpt>
      <trkpt lat="62.634562638318" lon="17.964809342495">
        <ele>75.2</ele>
        <time>2018-02-05T18:09:40Z</time>
      </trkpt>
      <trkpt lat="62.634537827894" lon="17.96480640883">
        <ele>75.2</ele>
        <time>2018-02-05T18:09:41Z</time>
      </trkpt>
      <trkpt lat="62.634513520384" lon="17.964806576468">
        <ele>75.2</ele>
        <time>2018-02-05T18:09:42Z</time>
      </trkpt>
      <trkpt lat="62.634489715788" lon="17.964807498477">
        <ele>75.2</ele>
        <time>2018-02-05T18:09:43Z</time>
      </trkpt>
      <trkpt lat="62.634468006667" lon="17.964809258676">
        <ele>75.2</ele>
        <time>2018-02-05T18:09:44Z</time>
      </trkpt>
      <trkpt lat="62.634443028605" lon="17.964811186513">
        <ele>75.2</ele>
        <time>2018-02-05T18:09:45Z</time>
      </trkpt>
      <trkpt lat="62.634421906217" lon="17.964812443798">
        <ele>75.4</ele>
        <time>2018-02-05T18:09:46Z</time>
      </trkpt>
      <trkpt lat="62.634397682526" lon="17.96481479073">
        <ele>75.4</ele>
        <time>2018-02-05T18:09:47Z</time>
      </trkpt>
      <trkpt lat="62.634374129387" lon="17.96481479073">
        <ele>75.6</ele>
        <time>2018-02-05T18:09:48Z</time>
      </trkpt>
      <trkpt lat="62.634352252628" lon="17.964814203997">
        <ele>75.6</ele>
        <time>2018-02-05T18:09:49Z</time>
      </trkpt>
      <trkpt lat="62.634326604014" lon="17.964810767418">
        <ele>75.8</ele>
        <time>2018-02-05T18:09:50Z</time>
      </trkpt>
      <trkpt lat="62.634302967056" lon="17.964809593952">
        <ele>75.6</ele>
        <time>2018-02-05T18:09:51Z</time>
      </trkpt>
      <trkpt lat="62.634281090297" lon="17.96481143797">
        <ele>75.8</ele>
        <time>2018-02-05T18:09:52Z</time>
      </trkpt>
      <trkpt lat="62.634254603493" lon="17.964811940884">
        <ele>75.8</ele>
        <time>2018-02-05T18:09:53Z</time>
      </trkpt>
      <trkpt lat="62.634232894372" lon="17.964813701083">
        <ele>75.8</ele>
        <time>2018-02-05T18:09:54Z</time>
      </trkpt>
      <trkpt lat="62.6342087545" lon="17.964815209825">
        <ele>75.8</ele>
        <time>2018-02-05T18:09:55Z</time>
      </trkpt>
      <trkpt lat="62.634183357343" lon="17.964815880377">
        <ele>76</ele>
        <time>2018-02-05T18:09:56Z</time>
      </trkpt>
      <trkpt lat="62.634160474756" lon="17.964816634748">
        <ele>76</ele>
        <time>2018-02-05T18:09:57Z</time>
      </trkpt>
      <trkpt lat="62.634137759807" lon="17.964817472938">
        <ele>76</ele>
        <time>2018-02-05T18:09:58Z</time>
      </trkpt>
      <trkpt lat="62.634113536116" lon="17.964819065499">
        <ele>76.2</ele>
        <time>2018-02-05T18:09:59Z</time>
      </trkpt>
      <trkpt lat="62.634089144787" lon="17.964820322784">
        <ele>76.2</ele>
        <time>2018-02-05T18:10:00Z</time>
      </trkpt>
      <trkpt lat="62.634065340191" lon="17.964821328612">
        <ele>76.2</ele>
        <time>2018-02-05T18:10:01Z</time>
      </trkpt>
      <trkpt lat="62.634042122328" lon="17.964823004992">
        <ele>76.4</ele>
        <time>2018-02-05T18:10:02Z</time>
      </trkpt>
      <trkpt lat="62.634016725171" lon="17.964823591725">
        <ele>76.4</ele>
        <time>2018-02-05T18:10:03Z</time>
      </trkpt>
      <trkpt lat="62.633990238367" lon="17.964823088811">
        <ele>76.4</ele>
        <time>2018-02-05T18:10:04Z</time>
      </trkpt>
      <trkpt lat="62.633968613065" lon="17.964824932829">
        <ele>76.4</ele>
        <time>2018-02-05T18:10:05Z</time>
      </trkpt>
      <trkpt lat="62.633945814297" lon="17.964829123779">
        <ele>76.6</ele>
        <time>2018-02-05T18:10:06Z</time>
      </trkpt>
      <trkpt lat="62.633922009701" lon="17.964837589498">
        <ele>76.6</ele>
        <time>2018-02-05T18:10:07Z</time>
      </trkpt>
      <trkpt lat="62.633899630028" lon="17.964841361353">
        <ele>76.6</ele>
        <time>2018-02-05T18:10:08Z</time>
      </trkpt>
      <trkpt lat="62.633878423821" lon="17.96484328919">
        <ele>76.6</ele>
        <time>2018-02-05T18:10:09Z</time>
      </trkpt>
      <trkpt lat="62.633855289777" lon="17.96484915652">
        <ele>76.6</ele>
        <time>2018-02-05T18:10:10Z</time>
      </trkpt>
      <trkpt lat="62.633842716927" lon="17.964879666636">
        <ele>76.6</ele>
        <time>2018-02-05T18:10:11Z</time>
      </trkpt>
      <trkpt lat="62.633832826285" lon="17.964920318851">
        <ele>76.8</ele>
        <time>2018-02-05T18:10:12Z</time>
      </trkpt>
      <trkpt lat="62.633827713326" lon="17.964966754577">
        <ele>76.8</ele>
        <time>2018-02-05T18:10:13Z</time>
      </trkpt>
      <trkpt lat="62.633827629507" lon="17.965010172819">
        <ele>76.8</ele>
        <time>2018-02-05T18:10:14Z</time>
      </trkpt>
      <trkpt lat="62.633832239552" lon="17.965056776183">
        <ele>77</ele>
        <time>2018-02-05T18:10:15Z</time>
      </trkpt>
      <trkpt lat="62.633836849597" lon="17.96509809895">
        <ele>77</ele>
        <time>2018-02-05T18:10:16Z</time>
      </trkpt>
      <trkpt lat="62.633845147678" lon="17.965142103925">
        <ele>77.2</ele>
        <time>2018-02-05T18:10:17Z</time>
      </trkpt>
      <trkpt lat="62.633850679732" lon="17.965184683977">
        <ele>77.2</ele>
        <time>2018-02-05T18:10:18Z</time>
      </trkpt>
      <trkpt lat="62.633853026664" lon="17.965226258201">
        <ele>77.2</ele>
        <time>2018-02-05T18:10:19Z</time>
      </trkpt>
      <trkpt lat="62.633856379424" lon="17.965268838253">
        <ele>77.4</ele>
        <time>2018-02-05T18:10:20Z</time>
      </trkpt>
      <trkpt lat="62.633858307261" lon="17.965307059717">
        <ele>77.4</ele>
        <time>2018-02-05T18:10:21Z</time>
      </trkpt>
      <trkpt lat="62.633860738012" lon="17.965345029724">
        <ele>77.6</ele>
        <time>2018-02-05T18:10:22Z</time>
      </trkpt>
      <trkpt lat="62.633864677505" lon="17.965388280328">
        <ele>77.8</ele>
        <time>2018-02-05T18:10:23Z</time>
      </trkpt>
      <trkpt lat="62.633866856799" lon="17.965429770733">
        <ele>78</ele>
        <time>2018-02-05T18:10:24Z</time>
      </trkpt>
      <trkpt lat="62.633868365541" lon="17.965475032993">
        <ele>78.2</ele>
        <time>2018-02-05T18:10:25Z</time>
      </trkpt>
      <trkpt lat="62.633871047749" lon="17.965521217262">
        <ele>78.6</ele>
        <time>2018-02-05T18:10:26Z</time>
      </trkpt>
      <trkpt lat="62.633870628654" lon="17.965567988264">
        <ele>79</ele>
        <time>2018-02-05T18:10:27Z</time>
      </trkpt>
      <trkpt lat="62.63386761117" lon="17.965611238868">
        <ele>79</ele>
        <time>2018-02-05T18:10:28Z</time>
      </trkpt>
      <trkpt lat="62.633863755496" lon="17.965656836404">
        <ele>79.2</ele>
        <time>2018-02-05T18:10:29Z</time>
      </trkpt>
      <trkpt lat="62.63386006746" lon="17.965704780872">
        <ele>79.4</ele>
        <time>2018-02-05T18:10:30Z</time>
      </trkpt>
      <trkpt lat="62.633857971985" lon="17.965751132779">
        <ele>79.6</ele>
        <time>2018-02-05T18:10:31Z</time>
      </trkpt>
      <trkpt lat="62.63385503832" lon="17.96580050217">
        <ele>79.6</ele>
        <time>2018-02-05T18:10:32Z</time>
      </trkpt>
      <trkpt lat="62.63385252375" lon="17.965847021715">
        <ele>79.8</ele>
        <time>2018-02-05T18:10:33Z</time>
      </trkpt>
      <trkpt lat="62.633851015008" lon="17.965890942871">
        <ele>80</ele>
        <time>2018-02-05T18:10:34Z</time>
      </trkpt>
      <trkpt lat="62.633849506266" lon="17.965939809348">
        <ele>80.2</ele>
        <time>2018-02-05T18:10:35Z</time>
      </trkpt>
      <trkpt lat="62.633847159334" lon="17.965983898142">
        <ele>80.2</ele>
        <time>2018-02-05T18:10:36Z</time>
      </trkpt>
      <trkpt lat="62.63384246547" lon="17.966030752963">
        <ele>80.4</ele>
        <time>2018-02-05T18:10:37Z</time>
      </trkpt>
      <trkpt lat="62.633836849597" lon="17.96607542849">
        <ele>80.6</ele>
        <time>2018-02-05T18:10:38Z</time>
      </trkpt>
      <trkpt lat="62.633830395534" lon="17.966116080705">
        <ele>80.6</ele>
        <time>2018-02-05T18:10:39Z</time>
      </trkpt>
      <trkpt lat="62.633820421073" lon="17.966157319653">
        <ele>80.6</ele>
        <time>2018-02-05T18:10:40Z</time>
      </trkpt>
      <trkpt lat="62.633805166015" lon="17.966196463126">
        <ele>80.8</ele>
        <time>2018-02-05T18:10:41Z</time>
      </trkpt>
      <trkpt lat="62.633788234577" lon="17.9662254645">
        <ele>81</ele>
        <time>2018-02-05T18:10:42Z</time>
      </trkpt>
      <trkpt lat="62.633766525456" lon="17.966253543865">
        <ele>81.4</ele>
        <time>2018-02-05T18:10:43Z</time>
      </trkpt>
      <trkpt lat="62.633746157439" lon="17.966271984045">
        <ele>81.6</ele>
        <time>2018-02-05T18:10:44Z</time>
      </trkpt>
      <trkpt lat="62.633721179377" lon="17.966284724533">
        <ele>81.8</ele>
        <time>2018-02-05T18:10:45Z</time>
      </trkpt>
      <trkpt lat="62.633697123324" lon="17.966294363718">
        <ele>82</ele>
        <time>2018-02-05T18:10:46Z</time>
      </trkpt>
      <trkpt lat="62.633675581841" lon="17.966299057582">
        <ele>82</ele>
        <time>2018-02-05T18:10:47Z</time>
      </trkpt>
      <trkpt lat="62.633650771417" lon="17.966304170541">
        <ele>82.2</ele>
        <time>2018-02-05T18:10:48Z</time>
      </trkpt>
      <trkpt lat="62.63362872702" lon="17.966306098378">
        <ele>82.2</ele>
        <time>2018-02-05T18:10:49Z</time>
      </trkpt>
      <trkpt lat="62.633604168053" lon="17.966309954052">
        <ele>82.2</ele>
        <time>2018-02-05T18:10:50Z</time>
      </trkpt>
      <trkpt lat="62.633579357629" lon="17.966307690939">
        <ele>82.2</ele>
        <time>2018-02-05T18:10:51Z</time>
      </trkpt>
      <trkpt lat="62.633556726499" lon="17.966307355663">
        <ele>82.2</ele>
        <time>2018-02-05T18:10:52Z</time>
      </trkpt>
      <trkpt lat="62.633532418989" lon="17.966307188025">
        <ele>82.2</ele>
        <time>2018-02-05T18:10:53Z</time>
      </trkpt>
      <trkpt lat="62.633509284945" lon="17.966307439482">
        <ele>82</ele>
        <time>2018-02-05T18:10:54Z</time>
      </trkpt>
      <trkpt lat="62.633483552512" lon="17.966305260188">
        <ele>82</ele>
        <time>2018-02-05T18:10:55Z</time>
      </trkpt>
      <trkpt lat="62.633458071536" lon="17.966307942396">
        <ele>82</ele>
        <time>2018-02-05T18:10:56Z</time>
      </trkpt>
      <trkpt lat="62.633432255284" lon="17.966314145002">
        <ele>82</ele>
        <time>2018-02-05T18:10:57Z</time>
      </trkpt>
      <trkpt lat="62.633408534507" lon="17.9663176654">
        <ele>82</ele>
        <time>2018-02-05T18:10:58Z</time>
      </trkpt>
      <trkpt lat="62.633383724083" lon="17.966322275445">
        <ele>82</ele>
        <time>2018-02-05T18:10:59Z</time>
      </trkpt>
      <trkpt lat="62.633355812356" lon="17.966325879662">
        <ele>81.8</ele>
        <time>2018-02-05T18:11:00Z</time>
      </trkpt>
      <trkpt lat="62.633331001932" lon="17.966327556042">
        <ele>81.8</ele>
        <time>2018-02-05T18:11:01Z</time>
      </trkpt>
      <trkpt lat="62.633305856232" lon="17.966329232422">
        <ele>81.8</ele>
        <time>2018-02-05T18:11:02Z</time>
      </trkpt>
      <trkpt lat="62.633279704704" lon="17.966330405888">
        <ele>81.8</ele>
        <time>2018-02-05T18:11:03Z</time>
      </trkpt>
      <trkpt lat="62.633254307547" lon="17.966331830811">
        <ele>81.6</ele>
        <time>2018-02-05T18:11:04Z</time>
      </trkpt>
      <trkpt lat="62.633230502951" lon="17.96634197291">
        <ele>81.6</ele>
        <time>2018-02-05T18:11:05Z</time>
      </trkpt>
      <trkpt lat="62.633205105794" lon="17.966347924059">
        <ele>81.6</ele>
        <time>2018-02-05T18:11:06Z</time>
      </trkpt>
      <trkpt lat="62.633180630646" lon="17.966355132493">
        <ele>81.6</ele>
        <time>2018-02-05T18:11:07Z</time>
      </trkpt>
      <trkpt lat="62.633155652584" lon="17.966363179117">
        <ele>81.4</ele>
        <time>2018-02-05T18:11:08Z</time>
      </trkpt>
      <trkpt lat="62.633131428893" lon="17.966368543533">
        <ele>81.4</ele>
        <time>2018-02-05T18:11:09Z</time>
      </trkpt>
      <trkpt lat="62.633106367012" lon="17.966371058103">
        <ele>81.4</ele>
        <time>2018-02-05T18:11:10Z</time>
      </trkpt>
      <trkpt lat="62.633079461113" lon="17.966361754194">
        <ele>81.2</ele>
        <time>2018-02-05T18:11:11Z</time>
      </trkpt>
      <trkpt lat="62.633055237422" lon="17.966351612095">
        <ele>81.2</ele>
        <time>2018-02-05T18:11:12Z</time>
      </trkpt>
      <trkpt lat="62.633031851921" lon="17.966343900747">
        <ele>81.2</ele>
        <time>2018-02-05T18:11:13Z</time>
      </trkpt>
      <trkpt lat="62.633007795868" lon="17.966339039245">
        <ele>81</ele>
        <time>2018-02-05T18:11:14Z</time>
      </trkpt>
      <trkpt lat="62.63298164434" lon="17.966338033417">
        <ele>81</ele>
        <time>2018-02-05T18:11:15Z</time>
      </trkpt>
      <trkpt lat="62.632958929391" lon="17.966339290702">
        <ele>81</ele>
        <time>2018-02-05T18:11:16Z</time>
      </trkpt>
      <trkpt lat="62.632932945501" lon="17.966338284874">
        <ele>81</ele>
        <time>2018-02-05T18:11:17Z</time>
      </trkpt>
      <trkpt lat="62.63290872181" lon="17.966337865779">
        <ele>81</ele>
        <time>2018-02-05T18:11:18Z</time>
      </trkpt>
      <trkpt lat="62.632885336309" lon="17.966339793616">
        <ele>80.8</ele>
        <time>2018-02-05T18:11:19Z</time>
      </trkpt>
      <trkpt lat="62.632857759858" lon="17.966345744765">
        <ele>80.8</ele>
        <time>2018-02-05T18:11:20Z</time>
      </trkpt>
      <trkpt lat="62.63283160833" lon="17.966353288475">
        <ele>80.8</ele>
        <time>2018-02-05T18:11:21Z</time>
      </trkpt>
      <trkpt lat="62.632806546449" lon="17.9663595749">
        <ele>80.8</ele>
        <time>2018-02-05T18:11:22Z</time>
      </trkpt>
      <trkpt lat="62.632778467084" lon="17.966363598212">
        <ele>80.6</ele>
        <time>2018-02-05T18:11:23Z</time>
      </trkpt>
      <trkpt lat="62.632754578669" lon="17.966366783334">
        <ele>80.6</ele>
        <time>2018-02-05T18:11:24Z</time>
      </trkpt>
      <trkpt lat="62.63272851096" lon="17.966369968456">
        <ele>80.4</ele>
        <time>2018-02-05T18:11:25Z</time>
      </trkpt>
      <trkpt lat="62.632700683052" lon="17.966370303732">
        <ele>80.2</ele>
        <time>2018-02-05T18:11:26Z</time>
      </trkpt>
      <trkpt lat="62.632676878456" lon="17.96636963318">
        <ele>80</ele>
        <time>2018-02-05T18:11:27Z</time>
      </trkpt>
      <trkpt lat="62.63265391205" lon="17.966363262936">
        <ele>80</ele>
        <time>2018-02-05T18:11:28Z</time>
      </trkpt>
      <trkpt lat="62.632629688359" lon="17.966352198828">
        <ele>80</ele>
        <time>2018-02-05T18:11:29Z</time>
      </trkpt>
      <trkpt lat="62.632603872107" lon="17.966339542159">
        <ele>80</ele>
        <time>2018-02-05T18:11:30Z</time>
      </trkpt>
      <trkpt lat="62.632577972036" lon="17.966329567698">
        <ele>80</ele>
        <time>2018-02-05T18:11:31Z</time>
      </trkpt>
      <trkpt lat="62.632553245431" lon="17.96632437092">
        <ele>79.8</ele>
        <time>2018-02-05T18:11:32Z</time>
      </trkpt>
      <trkpt lat="62.632528937921" lon="17.966321101979">
        <ele>79.8</ele>
        <time>2018-02-05T18:11:33Z</time>
      </trkpt>
      <trkpt lat="62.632505133325" lon="17.966317078667">
        <ele>79.8</ele>
        <time>2018-02-05T18:11:34Z</time>
      </trkpt>
      <trkpt lat="62.632479233254" lon="17.966305176369">
        <ele>79.8</ele>
        <time>2018-02-05T18:11:35Z</time>
      </trkpt>
      <trkpt lat="62.632454339011" lon="17.966300817781">
        <ele>79.8</ele>
        <time>2018-02-05T18:11:36Z</time>
      </trkpt>
      <trkpt lat="62.632429109492" lon="17.966293609347">
        <ele>79.6</ele>
        <time>2018-02-05T18:11:37Z</time>
      </trkpt>
      <trkpt lat="62.632405053439" lon="17.966285227447">
        <ele>79.6</ele>
        <time>2018-02-05T18:11:38Z</time>
      </trkpt>
      <trkpt lat="62.632382087033" lon="17.96627910866">
        <ele>79.6</ele>
        <time>2018-02-05T18:11:39Z</time>
      </trkpt>
      <trkpt lat="62.632357528066" lon="17.966273576606">
        <ele>79.4</ele>
        <time>2018-02-05T18:11:40Z</time>
      </trkpt>
      <trkpt lat="62.632330705986" lon="17.96627407952">
        <ele>79.4</ele>
        <time>2018-02-05T18:11:41Z</time>
      </trkpt>
      <trkpt lat="62.632305308829" lon="17.966286317094">
        <ele>79</ele>
        <time>2018-02-05T18:11:42Z</time>
      </trkpt>
      <trkpt lat="62.632281504233" lon="17.96631095988">
        <ele>79</ele>
        <time>2018-02-05T18:11:43Z</time>
      </trkpt>
      <trkpt lat="62.632262309682" lon="17.966343565471">
        <ele>78.8</ele>
        <time>2018-02-05T18:11:44Z</time>
      </trkpt>
      <trkpt lat="62.632245042968" lon="17.96639226431">
        <ele>78.6</ele>
        <time>2018-02-05T18:11:45Z</time>
      </trkpt>
      <trkpt lat="62.632235739059" lon="17.966438197122">
        <ele>78.4</ele>
        <time>2018-02-05T18:11:46Z</time>
      </trkpt>
      <trkpt lat="62.632231045195" lon="17.966494355852">
        <ele>78.4</ele>
        <time>2018-02-05T18:11:47Z</time>
      </trkpt>
      <trkpt lat="62.632226770426" lon="17.966546994184">
        <ele>78.4</ele>
        <time>2018-02-05T18:11:48Z</time>
      </trkpt>
      <trkpt lat="62.632224674951" lon="17.966595022471">
        <ele>78.2</ele>
        <time>2018-02-05T18:11:49Z</time>
      </trkpt>
      <trkpt lat="62.632221825105" lon="17.966651600296">
        <ele>78.4</ele>
        <time>2018-02-05T18:11:50Z</time>
      </trkpt>
      <trkpt lat="62.632217382698" lon="17.96670239461">
        <ele>78.6</ele>
        <time>2018-02-05T18:11:51Z</time>
      </trkpt>
      <trkpt lat="62.632212856472" lon="17.966749165612">
        <ele>78.6</ele>
        <time>2018-02-05T18:11:52Z</time>
      </trkpt>
      <trkpt lat="62.63220715678" lon="17.966804067057">
        <ele>78.8</ele>
        <time>2018-02-05T18:11:53Z</time>
      </trkpt>
      <trkpt lat="62.632203384925" lon="17.966848910222">
        <ele>78.8</ele>
        <time>2018-02-05T18:11:54Z</time>
      </trkpt>
      <trkpt lat="62.632198858699" lon="17.966898950165">
        <ele>79</ele>
        <time>2018-02-05T18:11:55Z</time>
      </trkpt>
      <trkpt lat="62.632194332473" lon="17.966951001764">
        <ele>79.2</ele>
        <time>2018-02-05T18:11:56Z</time>
      </trkpt>
      <trkpt lat="62.632190728256" lon="17.967002969544">
        <ele>79.4</ele>
        <time>2018-02-05T18:11:57Z</time>
      </trkpt>
      <trkpt lat="62.632185699116" lon="17.96705191984">
        <ele>79.6</ele>
        <time>2018-02-05T18:11:58Z</time>
      </trkpt>
      <trkpt lat="62.632180250881" lon="17.967100870136">
        <ele>80</ele>
        <time>2018-02-05T18:11:59Z</time>
      </trkpt>
      <trkpt lat="62.632173964456" lon="17.967152418821">
        <ele>80.2</ele>
        <time>2018-02-05T18:12:00Z</time>
      </trkpt>
      <trkpt lat="62.632166001651" lon="17.967203045497">
        <ele>80.4</ele>
        <time>2018-02-05T18:12:01Z</time>
      </trkpt>
      <trkpt lat="62.632158290303" lon="17.967250989965">
        <ele>80.8</ele>
        <time>2018-02-05T18:12:02Z</time>
      </trkpt>
      <trkpt lat="62.632148651118" lon="17.96729750951">
        <ele>81</ele>
        <time>2018-02-05T18:12:03Z</time>
      </trkpt>
      <trkpt lat="62.632138173743" lon="17.967344364331">
        <ele>81</ele>
        <time>2018-02-05T18:12:04Z</time>
      </trkpt>
      <trkpt lat="62.632124678884" lon="17.967385603279">
        <ele>81.4</ele>
        <time>2018-02-05T18:12:05Z</time>
      </trkpt>
      <trkpt lat="62.632112022215" lon="17.967431368453">
        <ele>81.6</ele>
        <time>2018-02-05T18:12:06Z</time>
      </trkpt>
      <trkpt lat="62.632099617003" lon="17.967472523582">
        <ele>81.8</ele>
        <time>2018-02-05T18:12:07Z</time>
      </trkpt>
      <trkpt lat="62.632084697221" lon="17.967511164141">
        <ele>82</ele>
        <time>2018-02-05T18:12:08Z</time>
      </trkpt>
      <trkpt lat="62.63206969362" lon="17.967547541587">
        <ele>82.2</ele>
        <time>2018-02-05T18:12:09Z</time>
      </trkpt>
      <trkpt lat="62.632054773838" lon="17.967589534906">
        <ele>82.4</ele>
        <time>2018-02-05T18:12:10Z</time>
      </trkpt>
      <trkpt lat="62.632039770237" lon="17.967636557365">
        <ele>82.4</ele>
        <time>2018-02-05T18:12:11Z</time>
      </trkpt>
      <trkpt lat="62.63202694593" lon="17.967677041942">
        <ele>82.6</ele>
        <time>2018-02-05T18:12:12Z</time>
      </trkpt>
      <trkpt lat="62.632013953985" lon="17.96771576632">
        <ele>82.8</ele>
        <time>2018-02-05T18:12:13Z</time>
      </trkpt>
      <trkpt lat="62.632002386963" lon="17.967754155422">
        <ele>83.2</ele>
        <time>2018-02-05T18:12:14Z</time>
      </trkpt>
      <trkpt lat="62.631990149389" lon="17.967795813465">
        <ele>83.2</ele>
        <time>2018-02-05T18:12:15Z</time>
      </trkpt>
      <trkpt lat="62.631976235435" lon="17.967833364377">
        <ele>83.4</ele>
        <time>2018-02-05T18:12:16Z</time>
      </trkpt>
      <trkpt lat="62.631962237662" lon="17.967875357696">
        <ele>83.6</ele>
        <time>2018-02-05T18:12:17Z</time>
      </trkpt>
      <trkpt lat="62.631948239889" lon="17.96791441735">
        <ele>83.8</ele>
        <time>2018-02-05T18:12:18Z</time>
      </trkpt>
      <trkpt lat="62.63193474503" lon="17.967950710977">
        <ele>84</ele>
        <time>2018-02-05T18:12:19Z</time>
      </trkpt>
      <trkpt lat="62.631922088361" lon="17.967988597165">
        <ele>84.4</ele>
        <time>2018-02-05T18:12:20Z</time>
      </trkpt>
      <trkpt lat="62.631908593502" lon="17.968028327371">
        <ele>84.6</ele>
        <time>2018-02-05T18:12:21Z</time>
      </trkpt>
      <trkpt lat="62.631896355928" lon="17.968066297378">
        <ele>84.8</ele>
        <time>2018-02-05T18:12:22Z</time>
      </trkpt>
      <trkpt lat="62.631884034535" lon="17.968109799439">
        <ele>85</ele>
        <time>2018-02-05T18:12:23Z</time>
      </trkpt>
      <trkpt lat="62.631872048418" lon="17.968149194369">
        <ele>85.4</ele>
        <time>2018-02-05T18:12:24Z</time>
      </trkpt>
      <trkpt lat="62.631859391749" lon="17.968188086385">
        <ele>85.4</ele>
        <time>2018-02-05T18:12:25Z</time>
      </trkpt>
      <trkpt lat="62.631845561614" lon="17.968227229858">
        <ele>85.8</ele>
        <time>2018-02-05T18:12:26Z</time>
      </trkpt>
      <trkpt lat="62.631832569669" lon="17.968266960064">
        <ele>86</ele>
        <time>2018-02-05T18:12:27Z</time>
      </trkpt>
      <trkpt lat="62.631820248276" lon="17.968304091881">
        <ele>86</ele>
        <time>2018-02-05T18:12:28Z</time>
      </trkpt>
      <trkpt lat="62.631804993218" lon="17.968343402992">
        <ele>86</ele>
        <time>2018-02-05T18:12:29Z</time>
      </trkpt>
      <trkpt lat="62.63179057635" lon="17.968387072691">
        <ele>86.4</ele>
        <time>2018-02-05T18:12:30Z</time>
      </trkpt>
      <trkpt lat="62.631776997672" lon="17.968430407114">
        <ele>86.6</ele>
        <time>2018-02-05T18:12:31Z</time>
      </trkpt>
      <trkpt lat="62.631765011555" lon="17.968474579727">
        <ele>86.6</ele>
        <time>2018-02-05T18:12:32Z</time>
      </trkpt>
      <trkpt lat="62.631754031266" lon="17.968520093444">
        <ele>86.8</ele>
        <time>2018-02-05T18:12:33Z</time>
      </trkpt>
      <trkpt lat="62.631743889167" lon="17.968565942437">
        <ele>86.8</ele>
        <time>2018-02-05T18:12:34Z</time>
      </trkpt>
      <trkpt lat="62.631732405964" lon="17.968603074254">
        <ele>87.2</ele>
        <time>2018-02-05T18:12:35Z</time>
      </trkpt>
      <trkpt lat="62.631723772607" lon="17.968642301546">
        <ele>87.2</ele>
        <time>2018-02-05T18:12:36Z</time>
      </trkpt>
      <trkpt lat="62.631716228897" lon="17.968684881598">
        <ele>87.4</ele>
        <time>2018-02-05T18:12:37Z</time>
      </trkpt>
      <trkpt lat="62.631709942472" lon="17.968725282356">
        <ele>87.6</ele>
        <time>2018-02-05T18:12:38Z</time>
      </trkpt>
      <trkpt lat="62.631705751522" lon="17.968766102209">
        <ele>87.8</ele>
        <time>2018-02-05T18:12:39Z</time>
      </trkpt>
      <trkpt lat="62.631702398762" lon="17.968811113012">
        <ele>88</ele>
        <time>2018-02-05T18:12:40Z</time>
      </trkpt>
      <trkpt lat="62.631700470925" lon="17.96886827757">
        <ele>88.4</ele>
        <time>2018-02-05T18:12:41Z</time>
      </trkpt>
      <trkpt lat="62.631701476753" lon="17.96892275992">
        <ele>88.8</ele>
        <time>2018-02-05T18:12:42Z</time>
      </trkpt>
      <trkpt lat="62.631706254436" lon="17.968969866198">
        <ele>89</ele>
        <time>2018-02-05T18:12:43Z</time>
      </trkpt>
      <trkpt lat="62.63171346287" lon="17.969015631372">
        <ele>89.2</ele>
        <time>2018-02-05T18:12:44Z</time>
      </trkpt>
      <trkpt lat="62.631723353512" lon="17.969066006591">
        <ele>89.4</ele>
        <time>2018-02-05T18:12:45Z</time>
      </trkpt>
      <trkpt lat="62.631732657421" lon="17.969108502824">
        <ele>89.8</ele>
        <time>2018-02-05T18:12:46Z</time>
      </trkpt>
      <trkpt lat="62.631743889167" lon="17.969158375129">
        <ele>89.8</ele>
        <time>2018-02-05T18:12:47Z</time>
      </trkpt>
      <trkpt lat="62.631752522524" lon="17.969200619905">
        <ele>90</ele>
        <time>2018-02-05T18:12:48Z</time>
      </trkpt>
      <trkpt lat="62.631760652967" lon="17.969243283776">
        <ele>90.2</ele>
        <time>2018-02-05T18:12:49Z</time>
      </trkpt>
      <trkpt lat="62.631770878885" lon="17.969292150253">
        <ele>90.4</ele>
        <time>2018-02-05T18:12:50Z</time>
      </trkpt>
      <trkpt lat="62.631782110631" lon="17.969334227391">
        <ele>90.4</ele>
        <time>2018-02-05T18:12:51Z</time>
      </trkpt>
      <trkpt lat="62.631792923282" lon="17.969376723624">
        <ele>90.8</ele>
        <time>2018-02-05T18:12:52Z</time>
      </trkpt>
      <trkpt lat="62.631804238847" lon="17.969419974228">
        <ele>90.8</ele>
        <time>2018-02-05T18:12:53Z</time>
      </trkpt>
      <trkpt lat="62.631817063154" lon="17.96945584876">
        <ele>91</ele>
        <time>2018-02-05T18:12:54Z</time>
      </trkpt>
      <trkpt lat="62.631834832782" lon="17.969489543998">
        <ele>91</ele>
        <time>2018-02-05T18:12:55Z</time>
      </trkpt>
      <trkpt lat="62.631851428944" lon="17.969511253119">
        <ele>91.2</ele>
        <time>2018-02-05T18:12:56Z</time>
      </trkpt>
      <trkpt lat="62.631867103097" lon="17.969530866765">
        <ele>91.4</ele>
        <time>2018-02-05T18:12:57Z</time>
      </trkpt>
      <trkpt lat="62.631884621268" lon="17.969547714384">
        <ele>91.8</ele>
        <time>2018-02-05T18:12:58Z</time>
      </trkpt>
      <trkpt lat="62.63190457019" lon="17.969557856483">
        <ele>91.8</ele>
        <time>2018-02-05T18:12:59Z</time>
      </trkpt>
      <trkpt lat="62.63192636313" lon="17.969562466528">
        <ele>92</ele>
        <time>2018-02-05T18:13:00Z</time>
      </trkpt>
      <trkpt lat="62.631947736975" lon="17.969562801804">
        <ele>92.2</ele>
        <time>2018-02-05T18:13:01Z</time>
      </trkpt>
      <trkpt lat="62.631969781372" lon="17.969560873967">
        <ele>92.4</ele>
        <time>2018-02-05T18:13:02Z</time>
      </trkpt>
      <trkpt lat="62.631993083054" lon="17.969557521207">
        <ele>92.6</ele>
        <time>2018-02-05T18:13:03Z</time>
      </trkpt>
      <trkpt lat="62.632017977297" lon="17.969554838999">
        <ele>92.6</ele>
        <time>2018-02-05T18:13:04Z</time>
      </trkpt>
      <trkpt lat="62.632041781893" lon="17.969545954185">
        <ele>92.8</ele>
        <time>2018-02-05T18:13:05Z</time>
      </trkpt>
      <trkpt lat="62.632066508498" lon="17.96954134414">
        <ele>93</ele>
        <time>2018-02-05T18:13:06Z</time>
      </trkpt>
      <trkpt lat="62.632090229275" lon="17.969539164846">
        <ele>93</ele>
        <time>2018-02-05T18:13:07Z</time>
      </trkpt>
      <trkpt lat="62.632112273672" lon="17.969531956412">
        <ele>93</ele>
        <time>2018-02-05T18:13:08Z</time>
      </trkpt>
      <trkpt lat="62.63213339606" lon="17.969523490693">
        <ele>93</ele>
        <time>2018-02-05T18:13:09Z</time>
      </trkpt>
      <trkpt lat="62.632157116837" lon="17.969515611707">
        <ele>93</ele>
        <time>2018-02-05T18:13:10Z</time>
      </trkpt>
      <trkpt lat="62.632182346356" lon="17.96950865473">
        <ele>93.2</ele>
        <time>2018-02-05T18:13:11Z</time>
      </trkpt>
      <trkpt lat="62.632207743513" lon="17.9695027874">
        <ele>93.2</ele>
        <time>2018-02-05T18:13:12Z</time>
      </trkpt>
      <trkpt lat="62.632233895041" lon="17.969494070224">
        <ele>93.2</ele>
        <time>2018-02-05T18:13:13Z</time>
      </trkpt>
      <trkpt lat="62.632258789284" lon="17.969483844306">
        <ele>93.2</ele>
        <time>2018-02-05T18:13:14Z</time>
      </trkpt>
      <trkpt lat="62.632286198097" lon="17.969476719691">
        <ele>93.2</ele>
        <time>2018-02-05T18:13:15Z</time>
      </trkpt>
      <trkpt lat="62.632308661589" lon="17.969472696379">
        <ele>93.2</ele>
        <time>2018-02-05T18:13:16Z</time>
      </trkpt>
      <trkpt lat="62.632334980755" lon="17.969468924524">
        <ele>93.2</ele>
        <time>2018-02-05T18:13:17Z</time>
      </trkpt>
      <trkpt lat="62.632361299921" lon="17.969469511257">
        <ele>93</ele>
        <time>2018-02-05T18:13:18Z</time>
      </trkpt>
      <trkpt lat="62.632385439793" lon="17.969469846533">
        <ele>93</ele>
        <time>2018-02-05T18:13:19Z</time>
      </trkpt>
      <trkpt lat="62.632412764787" lon="17.969468086334">
        <ele>93</ele>
        <time>2018-02-05T18:13:20Z</time>
      </trkpt>
      <trkpt lat="62.63243933541" lon="17.969467751058">
        <ele>93</ele>
        <time>2018-02-05T18:13:21Z</time>
      </trkpt>
      <trkpt lat="62.632461715083" lon="17.969468170153">
        <ele>93</ele>
        <time>2018-02-05T18:13:22Z</time>
      </trkpt>
      <trkpt lat="62.63248878862" lon="17.969471019999">
        <ele>93</ele>
        <time>2018-02-05T18:13:23Z</time>
      </trkpt>
      <trkpt lat="62.632513012311" lon="17.969473953664">
        <ele>93</ele>
        <time>2018-02-05T18:13:24Z</time>
      </trkpt>
      <trkpt lat="62.632537487459" lon="17.96947596532">
        <ele>93.2</ele>
        <time>2018-02-05T18:13:25Z</time>
      </trkpt>
      <trkpt lat="62.632563638987" lon="17.969479820994">
        <ele>93.2</ele>
        <time>2018-02-05T18:13:26Z</time>
      </trkpt>
      <trkpt lat="62.632588197954" lon="17.969488119075">
        <ele>93.2</ele>
        <time>2018-02-05T18:13:27Z</time>
      </trkpt>
      <trkpt lat="62.63261032617" lon="17.969496752432">
        <ele>93</ele>
        <time>2018-02-05T18:13:28Z</time>
      </trkpt>
      <trkpt lat="62.632635304232" lon="17.969503374133">
        <ele>93</ele>
        <time>2018-02-05T18:13:29Z</time>
      </trkpt>
      <trkpt lat="62.632662461588" lon="17.969508570911">
        <ele>93</ele>
        <time>2018-02-05T18:13:30Z</time>
      </trkpt>
      <trkpt lat="62.632687188193" lon="17.969510247291">
        <ele>93.2</ele>
        <time>2018-02-05T18:13:31Z</time>
      </trkpt>
      <trkpt lat="62.63271342354" lon="17.969513432413">
        <ele>93.2</ele>
        <time>2018-02-05T18:13:32Z</time>
      </trkpt>
      <trkpt lat="62.632737228136" lon="17.969517539544">
        <ele>93.2</ele>
        <time>2018-02-05T18:13:33Z</time>
      </trkpt>
      <trkpt lat="62.632760865094" lon="17.969521814313">
        <ele>93.2</ele>
        <time>2018-02-05T18:13:34Z</time>
      </trkpt>
      <trkpt lat="62.632781568387" lon="17.969525083254">
        <ele>93.2</ele>
        <time>2018-02-05T18:13:35Z</time>
      </trkpt>
      <trkpt lat="62.632804618612" lon="17.969530280032">
        <ele>93.2</ele>
        <time>2018-02-05T18:13:36Z</time>
      </trkpt>
      <trkpt lat="62.632827501199" lon="17.969532710783">
        <ele>93.4</ele>
        <time>2018-02-05T18:13:37Z</time>
      </trkpt>
      <trkpt lat="62.632852898356" lon="17.969532794602">
        <ele>93.4</ele>
        <time>2018-02-05T18:13:38Z</time>
      </trkpt>
      <trkpt lat="62.632875697124" lon="17.969534806258">
        <ele>93.4</ele>
        <time>2018-02-05T18:13:39Z</time>
      </trkpt>
      <trkpt lat="62.632898244435" lon="17.96953966776">
        <ele>93.6</ele>
        <time>2018-02-05T18:13:40Z</time>
      </trkpt>
      <trkpt lat="62.632925569429" lon="17.969540086855">
        <ele>93.6</ele>
        <time>2018-02-05T18:13:41Z</time>
      </trkpt>
      <trkpt lat="62.632950379853" lon="17.969544193986">
        <ele>93.8</ele>
        <time>2018-02-05T18:13:42Z</time>
      </trkpt>
      <trkpt lat="62.632974855001" lon="17.969550815687">
        <ele>93.8</ele>
        <time>2018-02-05T18:13:43Z</time>
      </trkpt>
      <trkpt lat="62.632999078692" lon="17.969560287234">
        <ele>93.8</ele>
        <time>2018-02-05T18:13:44Z</time>
      </trkpt>
      <trkpt lat="62.633024978763" lon="17.96957068079">
        <ele>93.8</ele>
        <time>2018-02-05T18:13:45Z</time>
      </trkpt>
      <trkpt lat="62.633047945169" lon="17.96957906269">
        <ele>94</ele>
        <time>2018-02-05T18:13:46Z</time>
      </trkpt>
      <trkpt lat="62.633075605439" lon="17.969588534237">
        <ele>94.2</ele>
        <time>2018-02-05T18:13:47Z</time>
      </trkpt>
      <trkpt lat="62.633100583501" lon="17.969594066291">
        <ele>94.2</ele>
        <time>2018-02-05T18:13:48Z</time>
      </trkpt>
      <trkpt lat="62.633124723373" lon="17.969599682164">
        <ele>94.2</ele>
        <time>2018-02-05T18:13:49Z</time>
      </trkpt>
      <trkpt lat="62.633152299824" lon="17.969608986073">
        <ele>94.2</ele>
        <time>2018-02-05T18:13:50Z</time>
      </trkpt>
      <trkpt lat="62.633176858791" lon="17.96961845762">
        <ele>94.4</ele>
        <time>2018-02-05T18:13:51Z</time>
      </trkpt>
      <trkpt lat="62.633200160473" lon="17.969630946651">
        <ele>94.4</ele>
        <time>2018-02-05T18:13:52Z</time>
      </trkpt>
      <trkpt lat="62.633226479639" lon="17.969645866433">
        <ele>94.4</ele>
        <time>2018-02-05T18:13:53Z</time>
      </trkpt>
      <trkpt lat="62.633248691674" lon="17.969658355464">
        <ele>94.4</ele>
        <time>2018-02-05T18:13:54Z</time>
      </trkpt>
      <trkpt lat="62.633272999184" lon="17.969674783988">
        <ele>94.4</ele>
        <time>2018-02-05T18:13:55Z</time>
      </trkpt>
      <trkpt lat="62.633295797952" lon="17.969693978539">
        <ele>94.4</ele>
        <time>2018-02-05T18:13:56Z</time>
      </trkpt>
      <trkpt lat="62.633316752702" lon="17.969714598013">
        <ele>94.4</ele>
        <time>2018-02-05T18:13:57Z</time>
      </trkpt>
      <trkpt lat="62.633338126547" lon="17.969739240799">
        <ele>94.4</ele>
        <time>2018-02-05T18:13:58Z</time>
      </trkpt>
      <trkpt lat="62.633357656374" lon="17.969769248001">
        <ele>94.4</ele>
        <time>2018-02-05T18:13:59Z</time>
      </trkpt>
      <trkpt lat="62.633374503993" lon="17.969805038714">
        <ele>94.6</ele>
        <time>2018-02-05T18:14:00Z</time>
      </trkpt>
      <trkpt lat="62.633387495938" lon="17.969850803888">
        <ele>94.4</ele>
        <time>2018-02-05T18:14:01Z</time>
      </trkpt>
      <trkpt lat="62.633395207286" lon="17.969899921822">
        <ele>94.6</ele>
        <time>2018-02-05T18:14:02Z</time>
      </trkpt>
      <trkpt lat="62.63340073934" lon="17.969948033928">
        <ele>94.6</ele>
        <time>2018-02-05T18:14:03Z</time>
      </trkpt>
      <trkpt lat="62.633406187575" lon="17.969995726939">
        <ele>94.6</ele>
        <time>2018-02-05T18:14:04Z</time>
      </trkpt>
      <trkpt lat="62.633408199231" lon="17.970052556221">
        <ele>94.8</ele>
        <time>2018-02-05T18:14:05Z</time>
      </trkpt>
      <trkpt lat="62.633410294706" lon="17.970105865105">
        <ele>94.8</ele>
        <time>2018-02-05T18:14:06Z</time>
      </trkpt>
      <trkpt lat="62.633412557819" lon="17.970161437102">
        <ele>95</ele>
        <time>2018-02-05T18:14:07Z</time>
      </trkpt>
      <trkpt lat="62.633414904751" lon="17.970212985787">
        <ele>95.2</ele>
        <time>2018-02-05T18:14:08Z</time>
      </trkpt>
      <trkpt lat="62.633417754597" lon="17.970264199196">
        <ele>95.2</ele>
        <time>2018-02-05T18:14:09Z</time>
      </trkpt>
      <trkpt lat="62.633421191176" lon="17.97032002265">
        <ele>95.2</ele>
        <time>2018-02-05T18:14:10Z</time>
      </trkpt>
      <trkpt lat="62.633425801221" lon="17.970372660982">
        <ele>95.4</ele>
        <time>2018-02-05T18:14:11Z</time>
      </trkpt>
      <trkpt lat="62.633428148153" lon="17.970428316798">
        <ele>95.6</ele>
        <time>2018-02-05T18:14:12Z</time>
      </trkpt>
      <trkpt lat="62.633429992171" lon="17.970482715329">
        <ele>95.6</ele>
        <time>2018-02-05T18:14:13Z</time>
      </trkpt>
      <trkpt lat="62.633433512569" lon="17.97053292291">
        <ele>95.8</ele>
        <time>2018-02-05T18:14:14Z</time>
      </trkpt>
      <trkpt lat="62.633436697691" lon="17.970590590382">
        <ele>96</ele>
        <time>2018-02-05T18:14:15Z</time>
      </trkpt>
      <trkpt lat="62.633438625528" lon="17.970644653637">
        <ele>96</ele>
        <time>2018-02-05T18:14:16Z</time>
      </trkpt>
      <trkpt lat="62.633441894469" lon="17.970692514286">
        <ele>96</ele>
        <time>2018-02-05T18:14:17Z</time>
      </trkpt>
      <trkpt lat="62.633445079591" lon="17.970743643876">
        <ele>96.2</ele>
        <time>2018-02-05T18:14:18Z</time>
      </trkpt>
      <trkpt lat="62.633446588333" lon="17.970791336887">
        <ele>96.4</ele>
        <time>2018-02-05T18:14:19Z</time>
      </trkpt>
      <trkpt lat="62.633448013256" lon="17.970849423454">
        <ele>96.4</ele>
        <time>2018-02-05T18:14:20Z</time>
      </trkpt>
      <trkpt lat="62.633450276369" lon="17.970903905804">
        <ele>96.4</ele>
        <time>2018-02-05T18:14:21Z</time>
      </trkpt>
      <trkpt lat="62.633452539482" lon="17.970953442833">
        <ele>96.6</ele>
        <time>2018-02-05T18:14:22Z</time>
      </trkpt>
      <trkpt lat="62.633453964405" lon="17.971013038142">
        <ele>96.8</ele>
        <time>2018-02-05T18:14:23Z</time>
      </trkpt>
      <trkpt lat="62.633455556966" lon="17.971062156076">
        <ele>96.8</ele>
        <time>2018-02-05T18:14:24Z</time>
      </trkpt>
      <trkpt lat="62.633456227518" lon="17.971114459132">
        <ele>96.8</ele>
        <time>2018-02-05T18:14:25Z</time>
      </trkpt>
      <trkpt lat="62.633455724604" lon="17.971171120776">
        <ele>97</ele>
        <time>2018-02-05T18:14:26Z</time>
      </trkpt>
      <trkpt lat="62.633454718776" lon="17.971223172375">
        <ele>97.2</ele>
        <time>2018-02-05T18:14:27Z</time>
      </trkpt>
      <trkpt lat="62.633453210034" lon="17.971277403268">
        <ele>97.2</ele>
        <time>2018-02-05T18:14:28Z</time>
      </trkpt>
      <trkpt lat="62.633452371844" lon="17.97133674712">
        <ele>97.4</ele>
        <time>2018-02-05T18:14:29Z</time>
      </trkpt>
      <trkpt lat="62.633452120387" lon="17.971395504239">
        <ele>97.4</ele>
        <time>2018-02-05T18:14:30Z</time>
      </trkpt>
      <trkpt lat="62.633450024912" lon="17.971451495331">
        <ele>97.6</ele>
        <time>2018-02-05T18:14:31Z</time>
      </trkpt>
      <trkpt lat="62.633446755971" lon="17.971504301301">
        <ele>97.6</ele>
        <time>2018-02-05T18:14:32Z</time>
      </trkpt>
      <trkpt lat="62.633444409039" lon="17.971558448375">
        <ele>97.8</ele>
        <time>2018-02-05T18:14:33Z</time>
      </trkpt>
      <trkpt lat="62.633443151754" lon="17.971614607105">
        <ele>98</ele>
        <time>2018-02-05T18:14:34Z</time>
      </trkpt>
      <trkpt lat="62.633438206433" lon="17.971667413075">
        <ele>98</ele>
        <time>2018-02-05T18:14:35Z</time>
      </trkpt>
      <trkpt lat="62.633433680207" lon="17.971722733615">
        <ele>98</ele>
        <time>2018-02-05T18:14:36Z</time>
      </trkpt>
      <trkpt lat="62.633428651067" lon="17.971778054155">
        <ele>98.2</ele>
        <time>2018-02-05T18:14:37Z</time>
      </trkpt>
      <trkpt lat="62.633424124841" lon="17.971834548161">
        <ele>98.2</ele>
        <time>2018-02-05T18:14:38Z</time>
      </trkpt>
      <trkpt lat="62.633418760425" lon="17.971887689407">
        <ele>98.2</ele>
        <time>2018-02-05T18:14:39Z</time>
      </trkpt>
      <trkpt lat="62.633412138724" lon="17.971942339395">
        <ele>98.2</ele>
        <time>2018-02-05T18:14:40Z</time>
      </trkpt>
      <trkpt lat="62.633405600842" lon="17.971999923048">
        <ele>98.4</ele>
        <time>2018-02-05T18:14:41Z</time>
      </trkpt>
      <trkpt lat="62.633397470399" lon="17.972053064294">
        <ele>98.6</ele>
        <time>2018-02-05T18:14:42Z</time>
      </trkpt>
      <trkpt lat="62.633387831214" lon="17.972105702626">
        <ele>98.6</ele>
        <time>2018-02-05T18:14:43Z</time>
      </trkpt>
      <trkpt lat="62.633377605296" lon="17.972159514424">
        <ele>98.6</ele>
        <time>2018-02-05T18:14:44Z</time>
      </trkpt>
      <trkpt lat="62.63336888812" lon="17.97221684662">
        <ele>98.8</ele>
        <time>2018-02-05T18:14:45Z</time>
      </trkpt>
      <trkpt lat="62.633362350238" lon="17.972267808572">
        <ele>98.8</ele>
        <time>2018-02-05T18:14:46Z</time>
      </trkpt>
      <trkpt lat="62.633353549243" lon="17.972324218759">
        <ele>99</ele>
        <time>2018-02-05T18:14:47Z</time>
      </trkpt>
      <trkpt lat="62.633345167343" lon="17.972375432168">
        <ele>99</ele>
        <time>2018-02-05T18:14:48Z</time>
      </trkpt>
      <trkpt lat="62.633336617805" lon="17.972424382464">
        <ele>99</ele>
        <time>2018-02-05T18:14:49Z</time>
      </trkpt>
      <trkpt lat="62.633326056611" lon="17.972479954461">
        <ele>99.2</ele>
        <time>2018-02-05T18:14:50Z</time>
      </trkpt>
      <trkpt lat="62.633318093806" lon="17.972534688268">
        <ele>99.4</ele>
        <time>2018-02-05T18:14:51Z</time>
      </trkpt>
      <trkpt lat="62.633308035526" lon="17.972586572229">
        <ele>99.4</ele>
        <time>2018-02-05T18:14:52Z</time>
      </trkpt>
      <trkpt lat="62.63329680378" lon="17.972642060407">
        <ele>99.4</ele>
        <time>2018-02-05T18:14:53Z</time>
      </trkpt>
      <trkpt lat="62.633287164595" lon="17.972691010703">
        <ele>99.8</ele>
        <time>2018-02-05T18:14:54Z</time>
      </trkpt>
      <trkpt lat="62.633276016668" lon="17.972743984311">
        <ele>99.8</ele>
        <time>2018-02-05T18:14:55Z</time>
      </trkpt>
      <trkpt lat="62.633264533465" lon="17.972796706462">
        <ele>99.8</ele>
        <time>2018-02-05T18:14:56Z</time>
      </trkpt>
      <trkpt lat="62.63325405609" lon="17.972847333138">
        <ele>100</ele>
        <time>2018-02-05T18:14:57Z</time>
      </trkpt>
      <trkpt lat="62.633244416905" lon="17.972895445244">
        <ele>100</ele>
        <time>2018-02-05T18:14:58Z</time>
      </trkpt>
      <trkpt lat="62.633234945358" lon="17.972946239558">
        <ele>100</ele>
        <time>2018-02-05T18:14:59Z</time>
      </trkpt>
      <trkpt lat="62.633222372508" lon="17.973002985021">
        <ele>100</ele>
        <time>2018-02-05T18:15:00Z</time>
      </trkpt>
      <trkpt lat="62.633210721667" lon="17.973057718828">
        <ele>100</ele>
        <time>2018-02-05T18:15:01Z</time>
      </trkpt>
      <trkpt lat="62.633200495749" lon="17.973112368816">
        <ele>100.2</ele>
        <time>2018-02-05T18:15:02Z</time>
      </trkpt>
      <trkpt lat="62.633189599279" lon="17.973166012976">
        <ele>100.4</ele>
        <time>2018-02-05T18:15:03Z</time>
      </trkpt>
      <trkpt lat="62.633178367533" lon="17.973218986584">
        <ele>100.4</ele>
        <time>2018-02-05T18:15:04Z</time>
      </trkpt>
      <trkpt lat="62.633164705036" lon="17.973270283812">
        <ele>100.4</ele>
        <time>2018-02-05T18:15:05Z</time>
      </trkpt>
      <trkpt lat="62.633153724747" lon="17.973322251592">
        <ele>100.6</ele>
        <time>2018-02-05T18:15:06Z</time>
      </trkpt>
      <trkpt lat="62.633143247372" lon="17.973372878268">
        <ele>100.6</ele>
        <time>2018-02-05T18:15:07Z</time>
      </trkpt>
      <trkpt lat="62.633131764169" lon="17.97342635479">
        <ele>100.8</ele>
        <time>2018-02-05T18:15:08Z</time>
      </trkpt>
      <trkpt lat="62.633121202975" lon="17.973474885991">
        <ele>100.8</ele>
        <time>2018-02-05T18:15:09Z</time>
      </trkpt>
      <trkpt lat="62.633109803591" lon="17.973523081916">
        <ele>100.8</ele>
        <time>2018-02-05T18:15:10Z</time>
      </trkpt>
      <trkpt lat="62.633097566017" lon="17.97357806718">
        <ele>101</ele>
        <time>2018-02-05T18:15:11Z</time>
      </trkpt>
      <trkpt lat="62.633087340099" lon="17.973625676372">
        <ele>101.2</ele>
        <time>2018-02-05T18:15:12Z</time>
      </trkpt>
      <trkpt lat="62.633076862724" lon="17.973673034107">
        <ele>101.4</ele>
        <time>2018-02-05T18:15:13Z</time>
      </trkpt>
      <trkpt lat="62.63306630153" lon="17.973718380186">
        <ele>101.4</ele>
        <time>2018-02-05T18:15:14Z</time>
      </trkpt>
      <trkpt lat="62.633053477223" lon="17.973771605251">
        <ele>101.6</ele>
        <time>2018-02-05T18:15:15Z</time>
      </trkpt>
      <trkpt lat="62.633040569097" lon="17.973821561375">
        <ele>101.6</ele>
        <time>2018-02-05T18:15:16Z</time>
      </trkpt>
      <trkpt lat="62.633026655143" lon="17.973871182223">
        <ele>101.8</ele>
        <time>2018-02-05T18:15:17Z</time>
      </trkpt>
      <trkpt lat="62.633013160284" lon="17.973920467795">
        <ele>101.8</ele>
        <time>2018-02-05T18:15:18Z</time>
      </trkpt>
      <trkpt lat="62.633000335977" lon="17.973970591557">
        <ele>102</ele>
        <time>2018-02-05T18:15:19Z</time>
      </trkpt>
      <trkpt lat="62.632986086747" lon="17.974025576821">
        <ele>102</ele>
        <time>2018-02-05T18:15:20Z</time>
      </trkpt>
      <trkpt lat="62.632972256612" lon="17.974077460782">
        <ele>102</ele>
        <time>2018-02-05T18:15:21Z</time>
      </trkpt>
      <trkpt lat="62.632959935219" lon="17.97412372887">
        <ele>102.2</ele>
        <time>2018-02-05T18:15:22Z</time>
      </trkpt>
      <trkpt lat="62.632946524179" lon="17.974175780469">
        <ele>102.2</ele>
        <time>2018-02-05T18:15:23Z</time>
      </trkpt>
      <trkpt lat="62.632933532234" lon="17.974222886747">
        <ele>102.2</ele>
        <time>2018-02-05T18:15:24Z</time>
      </trkpt>
      <trkpt lat="62.632919199185" lon="17.974272339957">
        <ele>102.2</ele>
        <time>2018-02-05T18:15:25Z</time>
      </trkpt>
      <trkpt lat="62.632905620507" lon="17.974324726832">
        <ele>102.2</ele>
        <time>2018-02-05T18:15:26Z</time>
      </trkpt>
      <trkpt lat="62.632891538915" lon="17.974374096223">
        <ele>102.2</ele>
        <time>2018-02-05T18:15:27Z</time>
      </trkpt>
      <trkpt lat="62.632875780943" lon="17.974417179189">
        <ele>102.4</ele>
        <time>2018-02-05T18:15:28Z</time>
      </trkpt>
      <trkpt lat="62.63285759222" lon="17.97445900487">
        <ele>102.4</ele>
        <time>2018-02-05T18:15:29Z</time>
      </trkpt>
      <trkpt lat="62.632835212547" lon="17.97449672342">
        <ele>102.4</ele>
        <time>2018-02-05T18:15:30Z</time>
      </trkpt>
      <trkpt lat="62.632811994684" lon="17.974522791129">
        <ele>102.6</ele>
        <time>2018-02-05T18:15:31Z</time>
      </trkpt>
      <trkpt lat="62.632788609183" lon="17.974533268504">
        <ele>102.6</ele>
        <time>2018-02-05T18:15:32Z</time>
      </trkpt>
      <trkpt lat="62.632763882578" lon="17.974529915744">
        <ele>102.6</ele>
        <time>2018-02-05T18:15:33Z</time>
      </trkpt>
      <trkpt lat="62.632739155973" lon="17.974522958767">
        <ele>102.6</ele>
        <time>2018-02-05T18:15:34Z</time>
      </trkpt>
      <trkpt lat="62.63271426173" lon="17.97449588523">
        <ele>102.6</ele>
        <time>2018-02-05T18:15:35Z</time>
      </trkpt>
      <trkpt lat="62.632690540953" lon="17.97446822496">
        <ele>102.6</ele>
        <time>2018-02-05T18:15:36Z</time>
      </trkpt>
      <trkpt lat="62.632668412737" lon="17.974443163079">
        <ele>102.6</ele>
        <time>2018-02-05T18:15:37Z</time>
      </trkpt>
      <trkpt lat="62.63264553015" lon="17.974419945216">
        <ele>102.6</ele>
        <time>2018-02-05T18:15:38Z</time>
      </trkpt>
      <trkpt lat="62.632621977011" lon="17.97439697881">
        <ele>102.6</ele>
        <time>2018-02-05T18:15:39Z</time>
      </trkpt>
      <trkpt lat="62.632598423872" lon="17.974372000748">
        <ele>102.6</ele>
        <time>2018-02-05T18:15:40Z</time>
      </trkpt>
      <trkpt lat="62.632572020887" lon="17.974338221691">
        <ele>102.6</ele>
        <time>2018-02-05T18:15:41Z</time>
      </trkpt>
      <trkpt lat="62.63254662373" lon="17.974311148154">
        <ele>102.6</ele>
        <time>2018-02-05T18:15:42Z</time>
      </trkpt>
      <trkpt lat="62.632521561849" lon="17.974288936119">
        <ele>102.6</ele>
        <time>2018-02-05T18:15:43Z</time>
      </trkpt>
      <trkpt lat="62.632499265995" lon="17.974265634437">
        <ele>102.6</ele>
        <time>2018-02-05T18:15:44Z</time>
      </trkpt>
      <trkpt lat="62.632471857182" lon="17.974251469026">
        <ele>102.6</ele>
        <time>2018-02-05T18:15:45Z</time>
      </trkpt>
      <trkpt lat="62.632451405346" lon="17.974233364122">
        <ele>102.6</ele>
        <time>2018-02-05T18:15:46Z</time>
      </trkpt>
      <trkpt lat="62.63242760075" lon="17.974210481535">
        <ele>102.6</ele>
        <time>2018-02-05T18:15:47Z</time>
      </trkpt>
      <trkpt lat="62.632404382887" lon="17.974188353319">
        <ele>102.6</ele>
        <time>2018-02-05T18:15:48Z</time>
      </trkpt>
      <trkpt lat="62.632383931051" lon="17.974166979474">
        <ele>102.6</ele>
        <time>2018-02-05T18:15:49Z</time>
      </trkpt>
      <trkpt lat="62.632362808663" lon="17.974143342516">
        <ele>102.6</ele>
        <time>2018-02-05T18:15:50Z</time>
      </trkpt>
      <trkpt lat="62.632341518637" lon="17.974119454101">
        <ele>102.6</ele>
        <time>2018-02-05T18:15:51Z</time>
      </trkpt>
      <trkpt lat="62.632319138964" lon="17.974097074428">
        <ele>102.8</ele>
        <time>2018-02-05T18:15:52Z</time>
      </trkpt>
      <trkpt lat="62.632294579997" lon="17.974071090538">
        <ele>102.6</ele>
        <time>2018-02-05T18:15:53Z</time>
      </trkpt>
      <trkpt lat="62.632271362134" lon="17.974046280114">
        <ele>102.6</ele>
        <time>2018-02-05T18:15:54Z</time>
      </trkpt>
      <trkpt lat="62.63224655171" lon="17.974021888785">
        <ele>102.6</ele>
        <time>2018-02-05T18:15:55Z</time>
      </trkpt>
      <trkpt lat="62.632222998571" lon="17.9740038677">
        <ele>102.6</ele>
        <time>2018-02-05T18:15:56Z</time>
      </trkpt>
      <trkpt lat="62.632200367441" lon="17.973983834959">
        <ele>102.4</ele>
        <time>2018-02-05T18:15:57Z</time>
      </trkpt>
      <trkpt lat="62.632178071587" lon="17.973962964028">
        <ele>102.4</ele>
        <time>2018-02-05T18:15:58Z</time>
      </trkpt>
      <trkpt lat="62.632154937543" lon="17.973940584355">
        <ele>102.4</ele>
        <time>2018-02-05T18:15:59Z</time>
      </trkpt>
      <trkpt lat="62.63213171968" lon="17.973911582981">
        <ele>102.4</ele>
        <time>2018-02-05T18:16:00Z</time>
      </trkpt>
      <trkpt lat="62.632110010559" lon="17.973883252159">
        <ele>102.4</ele>
        <time>2018-02-05T18:16:01Z</time>
      </trkpt>
      <trkpt lat="62.632087547067" lon="17.973855675708">
        <ele>102.4</ele>
        <time>2018-02-05T18:16:02Z</time>
      </trkpt>
      <trkpt lat="62.632062904281" lon="17.973824159764">
        <ele>102.2</ele>
        <time>2018-02-05T18:16:03Z</time>
      </trkpt>
      <trkpt lat="62.632039099685" lon="17.973793733467">
        <ele>102.2</ele>
        <time>2018-02-05T18:16:04Z</time>
      </trkpt>
      <trkpt lat="62.632016384736" lon="17.973757942754">
        <ele>102.4</ele>
        <time>2018-02-05T18:16:05Z</time>
      </trkpt>
      <trkpt lat="62.631991993407" lon="17.973722990231">
        <ele>102.4</ele>
        <time>2018-02-05T18:16:06Z</time>
      </trkpt>
      <trkpt lat="62.631965255146" lon="17.973687618613">
        <ele>102.4</ele>
        <time>2018-02-05T18:16:07Z</time>
      </trkpt>
      <trkpt lat="62.631936589048" lon="17.973655264479">
        <ele>102.4</ele>
        <time>2018-02-05T18:16:08Z</time>
      </trkpt>
      <trkpt lat="62.631911024253" lon="17.973625676372">
        <ele>102.4</ele>
        <time>2018-02-05T18:16:09Z</time>
      </trkpt>
      <trkpt lat="62.631886632924" lon="17.973597094093">
        <ele>102.4</ele>
        <time>2018-02-05T18:16:10Z</time>
      </trkpt>
      <trkpt lat="62.631860481396" lon="17.973565829606">
        <ele>102.4</ele>
        <time>2018-02-05T18:16:11Z</time>
      </trkpt>
      <trkpt lat="62.631835503334" lon="17.973536912051">
        <ele>102.4</ele>
        <time>2018-02-05T18:16:12Z</time>
      </trkpt>
      <trkpt lat="62.631810357634" lon="17.97351017379">
        <ele>102.2</ele>
        <time>2018-02-05T18:16:13Z</time>
      </trkpt>
      <trkpt lat="62.631786301581" lon="17.973483267891">
        <ele>102.2</ele>
        <time>2018-02-05T18:16:14Z</time>
      </trkpt>
      <trkpt lat="62.631760569148" lon="17.973448231549">
        <ele>102.2</ele>
        <time>2018-02-05T18:16:15Z</time>
      </trkpt>
      <trkpt lat="62.631739027665" lon="17.973419230175">
        <ele>102.2</ele>
        <time>2018-02-05T18:16:16Z</time>
      </trkpt>
      <trkpt lat="62.631716061259" lon="17.973381260168">
        <ele>102.2</ele>
        <time>2018-02-05T18:16:17Z</time>
      </trkpt>
      <trkpt lat="62.631695357966" lon="17.973344547446">
        <ele>102.2</ele>
        <time>2018-02-05T18:16:18Z</time>
      </trkpt>
      <trkpt lat="62.631675576682" lon="17.973312696226">
        <ele>102.2</ele>
        <time>2018-02-05T18:16:19Z</time>
      </trkpt>
      <trkpt lat="62.631652191181" lon="17.973274055667">
        <ele>102.2</ele>
        <time>2018-02-05T18:16:20Z</time>
      </trkpt>
      <trkpt lat="62.631630984974" lon="17.973237175307">
        <ele>102</ele>
        <time>2018-02-05T18:16:21Z</time>
      </trkpt>
      <trkpt lat="62.631611706604" lon="17.973202390422">
        <ele>102</ele>
        <time>2018-02-05T18:16:22Z</time>
      </trkpt>
      <trkpt lat="62.631589243112" lon="17.973160397103">
        <ele>102</ele>
        <time>2018-02-05T18:16:23Z</time>
      </trkpt>
      <trkpt lat="62.631569461828" lon="17.973124438752">
        <ele>101.8</ele>
        <time>2018-02-05T18:16:24Z</time>
      </trkpt>
      <trkpt lat="62.631550099639" lon="17.973089570048">
        <ele>101.8</ele>
        <time>2018-02-05T18:16:25Z</time>
      </trkpt>
      <trkpt lat="62.631530653631" lon="17.973047325272">
        <ele>101.8</ele>
        <time>2018-02-05T18:16:26Z</time>
      </trkpt>
      <trkpt lat="62.631511375261" lon="17.973003823211">
        <ele>101.8</ele>
        <time>2018-02-05T18:16:27Z</time>
      </trkpt>
      <trkpt lat="62.631493773271" lon="17.972963757729">
        <ele>101.6</ele>
        <time>2018-02-05T18:16:28Z</time>
      </trkpt>
      <trkpt lat="62.631475836005" lon="17.972910281207">
        <ele>101.6</ele>
        <time>2018-02-05T18:16:29Z</time>
      </trkpt>
      <trkpt lat="62.631457395825" lon="17.97285890016">
        <ele>101.4</ele>
        <time>2018-02-05T18:16:30Z</time>
      </trkpt>
      <trkpt lat="62.631439290921" lon="17.972813051167">
        <ele>101.4</ele>
        <time>2018-02-05T18:16:31Z</time>
      </trkpt>
      <trkpt lat="62.631419844913" lon="17.972764519966">
        <ele>101.2</ele>
        <time>2018-02-05T18:16:32Z</time>
      </trkpt>
      <trkpt lat="62.631403584027" lon="17.972721269362">
        <ele>100.8</ele>
        <time>2018-02-05T18:16:33Z</time>
      </trkpt>
      <trkpt lat="62.631389586254" lon="17.972677934939">
        <ele>100.8</ele>
        <time>2018-02-05T18:16:34Z</time>
      </trkpt>
      <trkpt lat="62.631367709495" lon="17.972627056806">
        <ele>100.4</ele>
        <time>2018-02-05T18:16:35Z</time>
      </trkpt>
      <trkpt lat="62.631347006202" lon="17.972579363795">
        <ele>100.2</ele>
        <time>2018-02-05T18:16:36Z</time>
      </trkpt>
      <trkpt lat="62.631327392556" lon="17.97253284425">
        <ele>100</ele>
        <time>2018-02-05T18:16:37Z</time>
      </trkpt>
      <trkpt lat="62.6313086171" lon="17.972485318877">
        <ele>99.8</ele>
        <time>2018-02-05T18:16:38Z</time>
      </trkpt>
      <trkpt lat="62.631292775309" lon="17.972441146264">
        <ele>99.6</ele>
        <time>2018-02-05T18:16:39Z</time>
      </trkpt>
      <trkpt lat="62.631277352613" lon="17.972396303099">
        <ele>99.4</ele>
        <time>2018-02-05T18:16:40Z</time>
      </trkpt>
      <trkpt lat="62.631261427003" lon="17.972338635627">
        <ele>99.2</ele>
        <time>2018-02-05T18:16:41Z</time>
      </trkpt>
      <trkpt lat="62.631248099782" lon="17.972287757494">
        <ele>99.2</ele>
        <time>2018-02-05T18:16:42Z</time>
      </trkpt>
      <trkpt lat="62.631234102009" lon="17.972232856049">
        <ele>99</ele>
        <time>2018-02-05T18:16:43Z</time>
      </trkpt>
      <trkpt lat="62.631220858607" lon="17.972178708975">
        <ele>99</ele>
        <time>2018-02-05T18:16:44Z</time>
      </trkpt>
      <trkpt lat="62.631205100635" lon="17.97212380753">
        <ele>98.8</ele>
        <time>2018-02-05T18:16:45Z</time>
      </trkpt>
      <trkpt lat="62.631190348491" lon="17.97207435432">
        <ele>98.6</ele>
        <time>2018-02-05T18:16:46Z</time>
      </trkpt>
      <trkpt lat="62.631173333234" lon="17.972018279409">
        <ele>98.6</ele>
        <time>2018-02-05T18:16:47Z</time>
      </trkpt>
      <trkpt lat="62.631158329633" lon="17.971964970525">
        <ele>98.4</ele>
        <time>2018-02-05T18:16:48Z</time>
      </trkpt>
      <trkpt lat="62.63114517005" lon="17.971911913098">
        <ele>98.4</ele>
        <time>2018-02-05T18:16:49Z</time>
      </trkpt>
      <trkpt lat="62.63113175901" lon="17.971852317789">
        <ele>98.4</ele>
        <time>2018-02-05T18:16:50Z</time>
      </trkpt>
      <trkpt lat="62.63111834797" lon="17.971799847095">
        <ele>98.2</ele>
        <time>2018-02-05T18:16:51Z</time>
      </trkpt>
      <trkpt lat="62.631104266378" lon="17.971745197107">
        <ele>98.2</ele>
        <time>2018-02-05T18:16:52Z</time>
      </trkpt>
      <trkpt lat="62.631092699356" lon="17.971683171047">
        <ele>98</ele>
        <time>2018-02-05T18:16:53Z</time>
      </trkpt>
      <trkpt lat="62.63108398218" lon="17.971629945982">
        <ele>97.8</ele>
        <time>2018-02-05T18:16:54Z</time>
      </trkpt>
      <trkpt lat="62.63107308571" lon="17.971571691777">
        <ele>97.6</ele>
        <time>2018-02-05T18:16:55Z</time>
      </trkpt>
      <trkpt lat="62.63106218924" lon="17.971510755364">
        <ele>97.4</ele>
        <time>2018-02-05T18:16:56Z</time>
      </trkpt>
      <trkpt lat="62.631052801512" lon="17.97145493191">
        <ele>97.2</ele>
        <time>2018-02-05T18:16:57Z</time>
      </trkpt>
      <trkpt lat="62.631045090164" lon="17.971397515895">
        <ele>97.2</ele>
        <time>2018-02-05T18:16:58Z</time>
      </trkpt>
      <trkpt lat="62.631035618617" lon="17.971338842595">
        <ele>97.2</ele>
        <time>2018-02-05T18:16:59Z</time>
      </trkpt>
      <trkpt lat="62.631026063251" lon="17.971273547594">
        <ele>97.2</ele>
        <time>2018-02-05T18:17:00Z</time>
      </trkpt>
      <trkpt lat="62.631016759342" lon="17.971214119923">
        <ele>97</ele>
        <time>2018-02-05T18:17:01Z</time>
      </trkpt>
      <trkpt lat="62.631006281967" lon="17.971154943709">
        <ele>97</ele>
        <time>2018-02-05T18:17:02Z</time>
      </trkpt>
      <trkpt lat="62.630996978058" lon="17.971097946789">
        <ele>96.8</ele>
        <time>2018-02-05T18:17:03Z</time>
      </trkpt>
      <trkpt lat="62.630988512339" lon="17.97103918967">
        <ele>96.8</ele>
        <time>2018-02-05T18:17:04Z</time>
      </trkpt>
      <trkpt lat="62.630979376068" lon="17.970973475574">
        <ele>96.6</ele>
        <time>2018-02-05T18:17:05Z</time>
      </trkpt>
      <trkpt lat="62.630971077987" lon="17.970913209713">
        <ele>96.4</ele>
        <time>2018-02-05T18:17:06Z</time>
      </trkpt>
      <trkpt lat="62.630963115182" lon="17.970853446766">
        <ele>96.2</ele>
        <time>2018-02-05T18:17:07Z</time>
      </trkpt>
      <trkpt lat="62.630955822929" lon="17.97079192362">
        <ele>96.2</ele>
        <time>2018-02-05T18:17:08Z</time>
      </trkpt>
      <trkpt lat="62.630949787961" lon="17.970735932528">
        <ele>96.4</ele>
        <time>2018-02-05T18:17:09Z</time>
      </trkpt>
      <trkpt lat="62.630942998622" lon="17.970677510685">
        <ele>96.2</ele>
        <time>2018-02-05T18:17:10Z</time>
      </trkpt>
      <trkpt lat="62.630940232595" lon="17.970603749965">
        <ele>96</ele>
        <time>2018-02-05T18:17:11Z</time>
      </trkpt>
      <trkpt lat="62.630934281446" lon="17.970538454964">
        <ele>96</ele>
        <time>2018-02-05T18:17:12Z</time>
      </trkpt>
      <trkpt lat="62.630927575926" lon="17.97047676418">
        <ele>96</ele>
        <time>2018-02-05T18:17:13Z</time>
      </trkpt>
      <trkpt lat="62.630923133519" lon="17.970423287658">
        <ele>95.8</ele>
        <time>2018-02-05T18:17:14Z</time>
      </trkpt>
      <trkpt lat="62.63091634418" lon="17.97036109396">
        <ele>95.8</ele>
        <time>2018-02-05T18:17:15Z</time>
      </trkpt>
      <trkpt lat="62.630909135746" lon="17.970309629094">
        <ele>95.6</ele>
        <time>2018-02-05T18:17:16Z</time>
      </trkpt>
      <trkpt lat="62.630898490733" lon="17.970252548355">
        <ele>95.2</ele>
        <time>2018-02-05T18:17:18Z</time>
      </trkpt>
      <trkpt lat="62.630893629231" lon="17.970233102347">
        <ele>95</ele>
        <time>2018-02-05T18:17:19Z</time>
      </trkpt>
      <trkpt lat="62.630890444109" lon="17.97020602881">
        <ele>94.8</ele>
        <time>2018-02-05T18:17:20Z</time>
      </trkpt>
      <trkpt lat="62.630886504616" lon="17.970200329118">
        <ele>94.6</ele>
        <time>2018-02-05T18:17:21Z</time>
      </trkpt>
      <trkpt lat="62.630882648942" lon="17.970205944991">
        <ele>94.8</ele>
        <time>2018-02-05T18:17:22Z</time>
      </trkpt>
      <trkpt lat="62.630880553467" lon="17.970209633027">
        <ele>94.8</ele>
        <time>2018-02-05T18:17:23Z</time>
      </trkpt>
      <trkpt lat="62.630879799096" lon="17.9702152489">
        <ele>94.8</ele>
        <time>2018-02-05T18:17:24Z</time>
      </trkpt>
      <trkpt lat="62.630864124943" lon="17.970220948592">
        <ele>94.8</ele>
        <time>2018-02-05T18:17:25Z</time>
      </trkpt>
      <trkpt lat="62.630852306464" lon="17.970218853117">
        <ele>94.6</ele>
        <time>2018-02-05T18:17:26Z</time>
      </trkpt>
      <trkpt lat="62.63084006889" lon="17.970221786782">
        <ele>94.6</ele>
        <time>2018-02-05T18:17:27Z</time>
      </trkpt>
      <trkpt lat="62.630831267895" lon="17.970221032411">
        <ele>94.4</ele>
        <time>2018-02-05T18:17:28Z</time>
      </trkpt>
      <trkpt lat="62.630814168819" lon="17.970224720447">
        <ele>94.4</ele>
        <time>2018-02-05T18:17:29Z</time>
      </trkpt>
      <trkpt lat="62.63079480663" lon="17.970232431795">
        <ele>94.2</ele>
        <time>2018-02-05T18:17:30Z</time>
      </trkpt>
      <trkpt lat="62.630774773889" lon="17.970243579722">
        <ele>94.2</ele>
        <time>2018-02-05T18:17:31Z</time>
      </trkpt>
      <trkpt lat="62.630751472207" lon="17.970248692681">
        <ele>94.4</ele>
        <time>2018-02-05T18:17:32Z</time>
      </trkpt>
      <trkpt lat="62.630727919068" lon="17.970252715993">
        <ele>94.4</ele>
        <time>2018-02-05T18:17:33Z</time>
      </trkpt>
      <trkpt lat="62.630705204119" lon="17.970258667142">
        <ele>94.6</ele>
        <time>2018-02-05T18:17:34Z</time>
      </trkpt>
      <trkpt lat="62.630683662636" lon="17.970266629947">
        <ele>94.8</ele>
        <time>2018-02-05T18:17:35Z</time>
      </trkpt>
      <trkpt lat="62.630661869696" lon="17.970278783702">
        <ele>94.8</ele>
        <time>2018-02-05T18:17:36Z</time>
      </trkpt>
      <trkpt lat="62.630640244394" lon="17.970290183086">
        <ele>95</ele>
        <time>2018-02-05T18:17:37Z</time>
      </trkpt>
      <trkpt lat="62.630619122006" lon="17.970297726796">
        <ele>95</ele>
        <time>2018-02-05T18:17:38Z</time>
      </trkpt>
      <trkpt lat="62.630599843636" lon="17.97029990609">
        <ele>95</ele>
        <time>2018-02-05T18:17:39Z</time>
      </trkpt>
      <trkpt lat="62.630579810895" lon="17.97029990609">
        <ele>95.2</ele>
        <time>2018-02-05T18:17:40Z</time>
      </trkpt>
      <trkpt lat="62.630562795638" lon="17.970293368208">
        <ele>95.2</ele>
        <time>2018-02-05T18:17:41Z</time>
      </trkpt>
      <trkpt lat="62.630550725702" lon="17.970275850037">
        <ele>95.4</ele>
        <time>2018-02-05T18:17:42Z</time>
      </trkpt>
      <trkpt lat="62.630539493956" lon="17.970253638002">
        <ele>95.4</ele>
        <time>2018-02-05T18:17:43Z</time>
      </trkpt>
      <trkpt lat="62.630531195875" lon="17.970226732103">
        <ele>95.4</ele>
        <time>2018-02-05T18:17:44Z</time>
      </trkpt>
      <trkpt lat="62.63052407126" lon="17.970190606114">
        <ele>95.6</ele>
        <time>2018-02-05T18:17:45Z</time>
      </trkpt>
      <trkpt lat="62.630518874482" lon="17.970156827057">
        <ele>95.6</ele>
        <time>2018-02-05T18:17:46Z</time>
      </trkpt>
      <trkpt lat="62.630521389052" lon="17.970105697467">
        <ele>95.6</ele>
        <time>2018-02-05T18:17:47Z</time>
      </trkpt>
      <trkpt lat="62.630520634681" lon="17.970056160438">
        <ele>95.6</ele>
        <time>2018-02-05T18:17:48Z</time>
      </trkpt>
      <trkpt lat="62.630520634681" lon="17.97001156873">
        <ele>95.6</ele>
        <time>2018-02-05T18:17:49Z</time>
      </trkpt>
      <trkpt lat="62.630520131767" lon="17.969959098036">
        <ele>95.6</ele>
        <time>2018-02-05T18:17:50Z</time>
      </trkpt>
      <trkpt lat="62.630518287749" lon="17.969914925423">
        <ele>95.4</ele>
        <time>2018-02-05T18:17:51Z</time>
      </trkpt>
      <trkpt lat="62.630518120111" lon="17.969883409479">
        <ele>95.4</ele>
        <time>2018-02-05T18:17:52Z</time>
      </trkpt>
      <trkpt lat="62.6305207185" lon="17.969857593227">
        <ele>95.2</ele>
        <time>2018-02-05T18:17:53Z</time>
      </trkpt>
      <trkpt lat="62.630521724328" lon="17.969850971526">
        <ele>95</ele>
        <time>2018-02-05T18:17:54Z</time>
      </trkpt>
      <trkpt lat="62.630523652165" lon="17.969862203272">
        <ele>94.8</ele>
        <time>2018-02-05T18:17:55Z</time>
      </trkpt>
      <trkpt lat="62.63062716863" lon="17.970216170909">
        <ele>95.6</ele>
        <time>2018-02-05T18:19:04Z</time>
      </trkpt>
      <trkpt lat="62.630638148919" lon="17.970212231416">
        <ele>95.6</ele>
        <time>2018-02-05T18:19:05Z</time>
      </trkpt>
      <trkpt lat="62.630655499452" lon="17.97020267605">
        <ele>95.8</ele>
        <time>2018-02-05T18:19:06Z</time>
      </trkpt>
      <trkpt lat="62.630670000139" lon="17.970201586403">
        <ele>95.8</ele>
        <time>2018-02-05T18:19:07Z</time>
      </trkpt>
      <trkpt lat="62.630682740627" lon="17.970191360485">
        <ele>95.8</ele>
        <time>2018-02-05T18:19:08Z</time>
      </trkpt>
      <trkpt lat="62.630691122527" lon="17.970178536178">
        <ele>95.8</ele>
        <time>2018-02-05T18:19:09Z</time>
      </trkpt>
      <trkpt lat="62.630706629042" lon="17.970174093771">
        <ele>95.6</ele>
        <time>2018-02-05T18:19:10Z</time>
      </trkpt>
      <trkpt lat="62.630726410326" lon="17.970162359111">
        <ele>95.4</ele>
        <time>2018-02-05T18:19:11Z</time>
      </trkpt>
      <trkpt lat="62.630747532714" lon="17.970157246152">
        <ele>95.2</ele>
        <time>2018-02-05T18:19:12Z</time>
      </trkpt>
      <trkpt lat="62.63076798455" lon="17.970150121537">
        <ele>95.2</ele>
        <time>2018-02-05T18:19:13Z</time>
      </trkpt>
      <trkpt lat="62.630785167445" lon="17.970147020234">
        <ele>95.2</ele>
        <time>2018-02-05T18:19:14Z</time>
      </trkpt>
      <trkpt lat="62.63080821767" lon="17.970146098225">
        <ele>95.2</ele>
        <time>2018-02-05T18:19:15Z</time>
      </trkpt>
      <trkpt lat="62.630829423877" lon="17.970142913103">
        <ele>95.2</ele>
        <time>2018-02-05T18:19:16Z</time>
      </trkpt>
      <trkpt lat="62.630846942048" lon="17.970136626678">
        <ele>95.2</ele>
        <time>2018-02-05T18:19:17Z</time>
      </trkpt>
      <trkpt lat="62.630868651169" lon="17.970131094624">
        <ele>95.4</ele>
        <time>2018-02-05T18:19:18Z</time>
      </trkpt>
      <trkpt lat="62.630884912055" lon="17.970127322769">
        <ele>95.4</ele>
        <time>2018-02-05T18:19:19Z</time>
      </trkpt>
      <trkpt lat="62.630901424398" lon="17.970122545086">
        <ele>95.4</ele>
        <time>2018-02-05T18:19:20Z</time>
      </trkpt>
      <trkpt lat="62.63091550599" lon="17.970121036344">
        <ele>95.2</ele>
        <time>2018-02-05T18:19:21Z</time>
      </trkpt>
      <trkpt lat="62.630924474623" lon="17.970115839566">
        <ele>95.2</ele>
        <time>2018-02-05T18:19:22Z</time>
      </trkpt>
      <trkpt lat="62.630929839039" lon="17.970122796543">
        <ele>95.2</ele>
        <time>2018-02-05T18:19:23Z</time>
      </trkpt>
      <trkpt lat="62.630931683057" lon="17.970133273918">
        <ele>95</ele>
        <time>2018-02-05T18:19:24Z</time>
      </trkpt>
      <trkpt lat="62.630930425772" lon="17.970128831511">
        <ele>95</ele>
        <time>2018-02-05T18:19:25Z</time>
      </trkpt>
      <trkpt lat="62.631189761758" lon="17.970020537363">
        <ele>94.4</ele>
        <time>2018-02-05T18:22:08Z</time>
      </trkpt>
      <trkpt lat="62.631213566354" lon="17.97000653959">
        <ele>94.4</ele>
        <time>2018-02-05T18:22:09Z</time>
      </trkpt>
      <trkpt lat="62.631244160289" lon="17.969989189057">
        <ele>94.2</ele>
        <time>2018-02-05T18:22:10Z</time>
      </trkpt>
      <trkpt lat="62.631273580758" lon="17.969972509076">
        <ele>94</ele>
        <time>2018-02-05T18:22:11Z</time>
      </trkpt>
      <trkpt lat="62.631299983743" lon="17.969956080552">
        <ele>93.8</ele>
        <time>2018-02-05T18:22:12Z</time>
      </trkpt>
      <trkpt lat="62.63132873366" lon="17.969943759159">
        <ele>94</ele>
        <time>2018-02-05T18:22:13Z</time>
      </trkpt>
      <trkpt lat="62.631353208808" lon="17.969931353947">
        <ele>94.2</ele>
        <time>2018-02-05T18:22:14Z</time>
      </trkpt>
      <trkpt lat="62.631383970381" lon="17.969917607631">
        <ele>94.2</ele>
        <time>2018-02-05T18:22:15Z</time>
      </trkpt>
      <trkpt lat="62.631410457185" lon="17.969903526039">
        <ele>94</ele>
        <time>2018-02-05T18:22:16Z</time>
      </trkpt>
      <trkpt lat="62.63143602198" lon="17.969889109171">
        <ele>94</ele>
        <time>2018-02-05T18:22:17Z</time>
      </trkpt>
      <trkpt lat="62.63146452044" lon="17.969876703959">
        <ele>94</ele>
        <time>2018-02-05T18:22:18Z</time>
      </trkpt>
      <trkpt lat="62.631487822122" lon="17.96986237091">
        <ele>94</ele>
        <time>2018-02-05T18:22:19Z</time>
      </trkpt>
      <trkpt lat="62.631517074953" lon="17.969846361481">
        <ele>94</ele>
        <time>2018-02-05T18:22:20Z</time>
      </trkpt>
      <trkpt lat="62.631542388291" lon="17.969831274061">
        <ele>93.6</ele>
        <time>2018-02-05T18:22:21Z</time>
      </trkpt>
      <trkpt lat="62.631567785448" lon="17.969816186641">
        <ele>93.8</ele>
        <time>2018-02-05T18:22:22Z</time>
      </trkpt>
      <trkpt lat="62.631595445718" lon="17.969800261031">
        <ele>93.8</ele>
        <time>2018-02-05T18:22:23Z</time>
      </trkpt>
      <trkpt lat="62.631618579762" lon="17.969779473919">
        <ele>93.6</ele>
        <time>2018-02-05T18:22:24Z</time>
      </trkpt>
      <trkpt lat="62.631647581136" lon="17.969759105902">
        <ele>93.6</ele>
        <time>2018-02-05T18:22:25Z</time>
      </trkpt>
      <trkpt lat="62.631675911958" lon="17.969732619098">
        <ele>93.6</ele>
        <time>2018-02-05T18:22:26Z</time>
      </trkpt>
      <trkpt lat="62.631704410418" lon="17.969703869181">
        <ele>93.6</ele>
        <time>2018-02-05T18:22:27Z</time>
      </trkpt>
      <trkpt lat="62.631729639937" lon="17.969676208911">
        <ele>93.4</ele>
        <time>2018-02-05T18:22:28Z</time>
      </trkpt>
      <trkpt lat="62.631755623827" lon="17.969642094578">
        <ele>93.2</ele>
        <time>2018-02-05T18:22:29Z</time>
      </trkpt>
      <trkpt lat="62.631786888314" lon="17.969611835919">
        <ele>93.2</ele>
        <time>2018-02-05T18:22:30Z</time>
      </trkpt>
      <trkpt lat="62.631814213308" lon="17.969589540065">
        <ele>93</ele>
        <time>2018-02-05T18:22:31Z</time>
      </trkpt>
      <trkpt lat="62.631842963225" lon="17.969579817061">
        <ele>92.8</ele>
        <time>2018-02-05T18:22:32Z</time>
      </trkpt>
      <trkpt lat="62.63186852802" lon="17.969577051034">
        <ele>92.6</ele>
        <time>2018-02-05T18:22:33Z</time>
      </trkpt>
      <trkpt lat="62.631889315132" lon="17.969578475957">
        <ele>92.8</ele>
        <time>2018-02-05T18:22:34Z</time>
      </trkpt>
      <trkpt lat="62.63191881942" lon="17.969574704102">
        <ele>92.8</ele>
        <time>2018-02-05T18:22:35Z</time>
      </trkpt>
      <trkpt lat="62.631945725319" lon="17.96957235717">
        <ele>92.8</ele>
        <time>2018-02-05T18:22:36Z</time>
      </trkpt>
      <trkpt lat="62.631974391417" lon="17.969567579487">
        <ele>92.8</ele>
        <time>2018-02-05T18:22:37Z</time>
      </trkpt>
      <trkpt lat="62.632000375307" lon="17.969558527035">
        <ele>92.8</ele>
        <time>2018-02-05T18:22:38Z</time>
      </trkpt>
      <trkpt lat="62.632029376681" lon="17.969551821515">
        <ele>92.8</ele>
        <time>2018-02-05T18:22:39Z</time>
      </trkpt>
      <trkpt lat="62.632054690019" lon="17.969549223126">
        <ele>92.8</ele>
        <time>2018-02-05T18:22:40Z</time>
      </trkpt>
      <trkpt lat="62.632083188479" lon="17.969540925045">
        <ele>92.6</ele>
        <time>2018-02-05T18:22:41Z</time>
      </trkpt>
      <trkpt lat="62.632110345835" lon="17.969530531489">
        <ele>93</ele>
        <time>2018-02-05T18:22:42Z</time>
      </trkpt>
      <trkpt lat="62.632136665001" lon="17.969520137933">
        <ele>93</ele>
        <time>2018-02-05T18:22:43Z</time>
      </trkpt>
      <trkpt lat="62.632164576728" lon="17.969517371906">
        <ele>93</ele>
        <time>2018-02-05T18:22:44Z</time>
      </trkpt>
      <trkpt lat="62.632196847043" lon="17.969503960866">
        <ele>93.2</ele>
        <time>2018-02-05T18:22:45Z</time>
      </trkpt>
      <trkpt lat="62.632226267512" lon="17.969489460179">
        <ele>93.4</ele>
        <time>2018-02-05T18:22:46Z</time>
      </trkpt>
      <trkpt lat="62.632257951094" lon="17.969482251745">
        <ele>93.2</ele>
        <time>2018-02-05T18:22:47Z</time>
      </trkpt>
      <trkpt lat="62.632283348251" lon="17.969472780198">
        <ele>93</ele>
        <time>2018-02-05T18:22:48Z</time>
      </trkpt>
      <trkpt lat="62.632309835055" lon="17.96946758342">
        <ele>93</ele>
        <time>2018-02-05T18:22:49Z</time>
      </trkpt>
      <trkpt lat="62.632339926076" lon="17.969465571764">
        <ele>93</ele>
        <time>2018-02-05T18:22:50Z</time>
      </trkpt>
      <trkpt lat="62.632366496699" lon="17.969467667239">
        <ele>92.8</ele>
        <time>2018-02-05T18:22:51Z</time>
      </trkpt>
      <trkpt lat="62.63239072039" lon="17.969469595076">
        <ele>92.8</ele>
        <time>2018-02-05T18:22:52Z</time>
      </trkpt>
      <trkpt lat="62.632417039556" lon="17.969472193465">
        <ele>93</ele>
        <time>2018-02-05T18:22:53Z</time>
      </trkpt>
      <trkpt lat="62.632443191084" lon="17.969477222605">
        <ele>93</ele>
        <time>2018-02-05T18:22:54Z</time>
      </trkpt>
      <trkpt lat="62.632470432259" lon="17.969476887329">
        <ele>93</ele>
        <time>2018-02-05T18:22:55Z</time>
      </trkpt>
      <trkpt lat="62.632500355642" lon="17.969476300596">
        <ele>93</ele>
        <time>2018-02-05T18:22:56Z</time>
      </trkpt>
      <trkpt lat="62.632530279025" lon="17.969484682496">
        <ele>92.8</ele>
        <time>2018-02-05T18:22:57Z</time>
      </trkpt>
      <trkpt lat="62.632553999802" lon="17.969489460179">
        <ele>93</ele>
        <time>2018-02-05T18:22:58Z</time>
      </trkpt>
      <trkpt lat="62.632582833538" lon="17.969497255346">
        <ele>93.2</ele>
        <time>2018-02-05T18:22:59Z</time>
      </trkpt>
      <trkpt lat="62.632613343654" lon="17.969503960866">
        <ele>93.2</ele>
        <time>2018-02-05T18:23:00Z</time>
      </trkpt>
      <trkpt lat="62.632641423019" lon="17.969507481264">
        <ele>93</ele>
        <time>2018-02-05T18:23:01Z</time>
      </trkpt>
      <trkpt lat="62.632671765497" lon="17.969511085481">
        <ele>93</ele>
        <time>2018-02-05T18:23:02Z</time>
      </trkpt>
      <trkpt lat="62.632697917025" lon="17.969512091309">
        <ele>93.2</ele>
        <time>2018-02-05T18:23:03Z</time>
      </trkpt>
      <trkpt lat="62.632720548155" lon="17.969518629191">
        <ele>93.2</ele>
        <time>2018-02-05T18:23:04Z</time>
      </trkpt>
      <trkpt lat="62.63274778933" lon="17.969524161245">
        <ele>93.2</ele>
        <time>2018-02-05T18:23:05Z</time>
      </trkpt>
      <trkpt lat="62.632770755736" lon="17.969528436014">
        <ele>93.2</ele>
        <time>2018-02-05T18:23:06Z</time>
      </trkpt>
      <trkpt lat="62.632797158721" lon="17.969537404647">
        <ele>93.2</ele>
        <time>2018-02-05T18:23:07Z</time>
      </trkpt>
      <trkpt lat="62.63282155005" lon="17.969534219525">
        <ele>93.2</ele>
        <time>2018-02-05T18:23:08Z</time>
      </trkpt>
      <trkpt lat="62.632846863388" lon="17.969534303344">
        <ele>93.4</ele>
        <time>2018-02-05T18:23:09Z</time>
      </trkpt>
      <trkpt lat="62.632871589993" lon="17.969535141534">
        <ele>93.6</ele>
        <time>2018-02-05T18:23:10Z</time>
      </trkpt>
      <trkpt lat="62.632897657702" lon="17.969535895905">
        <ele>93.4</ele>
        <time>2018-02-05T18:23:11Z</time>
      </trkpt>
      <trkpt lat="62.632925569429" lon="17.969544529262">
        <ele>93.6</ele>
        <time>2018-02-05T18:23:12Z</time>
      </trkpt>
      <trkpt lat="62.632950547491" lon="17.969548384936">
        <ele>93.8</ele>
        <time>2018-02-05T18:23:13Z</time>
      </trkpt>
      <trkpt lat="62.632977118114" lon="17.969548217298">
        <ele>93.8</ele>
        <time>2018-02-05T18:23:14Z</time>
      </trkpt>
      <trkpt lat="62.63300343728" lon="17.969553162619">
        <ele>93.8</ele>
        <time>2018-02-05T18:23:15Z</time>
      </trkpt>
      <trkpt lat="62.633024475849" lon="17.969558778492">
        <ele>93.8</ele>
        <time>2018-02-05T18:23:16Z</time>
      </trkpt>
      <trkpt lat="62.633052722852" lon="17.969570764609">
        <ele>93.8</ele>
        <time>2018-02-05T18:23:17Z</time>
      </trkpt>
      <trkpt lat="62.633078958199" lon="17.969581074346">
        <ele>94</ele>
        <time>2018-02-05T18:23:18Z</time>
      </trkpt>
      <trkpt lat="62.633106199374" lon="17.969590042979">
        <ele>94</ele>
        <time>2018-02-05T18:23:19Z</time>
      </trkpt>
      <trkpt lat="62.633134865472" lon="17.969605298037">
        <ele>94</ele>
        <time>2018-02-05T18:23:20Z</time>
      </trkpt>
      <trkpt lat="62.633162022828" lon="17.96961510486">
        <ele>94</ele>
        <time>2018-02-05T18:23:21Z</time>
      </trkpt>
      <trkpt lat="62.633186581795" lon="17.969632203936">
        <ele>94</ele>
        <time>2018-02-05T18:23:22Z</time>
      </trkpt>
      <trkpt lat="62.633211811314" lon="17.969645028243">
        <ele>94.2</ele>
        <time>2018-02-05T18:23:23Z</time>
      </trkpt>
      <trkpt lat="62.633232933702" lon="17.96965869074">
        <ele>94.2</ele>
        <time>2018-02-05T18:23:24Z</time>
      </trkpt>
      <trkpt lat="62.633257325031" lon="17.969677885291">
        <ele>94.2</ele>
        <time>2018-02-05T18:23:25Z</time>
      </trkpt>
      <trkpt lat="62.633280626713" lon="17.969693643263">
        <ele>94.2</ele>
        <time>2018-02-05T18:23:26Z</time>
      </trkpt>
      <trkpt lat="62.633304263671" lon="17.969716944945">
        <ele>94.2</ele>
        <time>2018-02-05T18:23:27Z</time>
      </trkpt>
      <trkpt lat="62.633325553697" lon="17.969745443405">
        <ele>94.4</ele>
        <time>2018-02-05T18:23:28Z</time>
      </trkpt>
      <trkpt lat="62.633345670257" lon="17.969777210806">
        <ele>94.4</ele>
        <time>2018-02-05T18:23:29Z</time>
      </trkpt>
      <trkpt lat="62.633364361894" lon="17.969826077283">
        <ele>94.4</ele>
        <time>2018-02-05T18:23:30Z</time>
      </trkpt>
      <trkpt lat="62.63337810821" lon="17.969869160249">
        <ele>94.6</ele>
        <time>2018-02-05T18:23:31Z</time>
      </trkpt>
      <trkpt lat="62.633390178146" lon="17.969918362002">
        <ele>94.6</ele>
        <time>2018-02-05T18:23:32Z</time>
      </trkpt>
      <trkpt lat="62.633395207286" lon="17.969973431085">
        <ele>94.6</ele>
        <time>2018-02-05T18:23:33Z</time>
      </trkpt>
      <trkpt lat="62.633398476227" lon="17.970018441888">
        <ele>94.6</ele>
        <time>2018-02-05T18:23:34Z</time>
      </trkpt>
      <trkpt lat="62.633399565874" lon="17.970077199007">
        <ele>94.8</ele>
        <time>2018-02-05T18:23:35Z</time>
      </trkpt>
      <trkpt lat="62.633402667177" lon="17.970126484579">
        <ele>95</ele>
        <time>2018-02-05T18:23:36Z</time>
      </trkpt>
      <trkpt lat="62.633404846471" lon="17.970180631653">
        <ele>95</ele>
        <time>2018-02-05T18:23:37Z</time>
      </trkpt>
      <trkpt lat="62.633409037421" lon="17.97023955641">
        <ele>95</ele>
        <time>2018-02-05T18:23:38Z</time>
      </trkpt>
      <trkpt lat="62.633412390181" lon="17.970288506706">
        <ele>95.2</ele>
        <time>2018-02-05T18:23:39Z</time>
      </trkpt>
      <trkpt lat="62.633416413493" lon="17.970344581617">
        <ele>95.4</ele>
        <time>2018-02-05T18:23:40Z</time>
      </trkpt>
      <trkpt lat="62.63342001771" lon="17.970403171098">
        <ele>95.4</ele>
        <time>2018-02-05T18:23:41Z</time>
      </trkpt>
      <trkpt lat="62.633424795393" lon="17.970456731439">
        <ele>95.4</ele>
        <time>2018-02-05T18:23:42Z</time>
      </trkpt>
      <trkpt lat="62.6334292378" lon="17.97051196816">
        <ele>95.6</ele>
        <time>2018-02-05T18:23:43Z</time>
      </trkpt>
      <trkpt lat="62.633435021311" lon="17.970583801043">
        <ele>95.6</ele>
        <time>2018-02-05T18:23:45Z</time>
      </trkpt>
      <trkpt lat="62.63343845789" lon="17.970625375267">
        <ele>95.6</ele>
        <time>2018-02-05T18:23:46Z</time>
      </trkpt>
      <trkpt lat="62.633438541709" lon="17.970682875101">
        <ele>95.8</ele>
        <time>2018-02-05T18:23:47Z</time>
      </trkpt>
      <trkpt lat="62.633442229745" lon="17.970736686899">
        <ele>95.8</ele>
        <time>2018-02-05T18:23:48Z</time>
      </trkpt>
      <trkpt lat="62.633446755971" lon="17.970792175077">
        <ele>96</ele>
        <time>2018-02-05T18:23:49Z</time>
      </trkpt>
      <trkpt lat="62.63344935436" lon="17.970837604975">
        <ele>96.4</ele>
        <time>2018-02-05T18:23:50Z</time>
      </trkpt>
      <trkpt lat="62.633453126215" lon="17.970895691542">
        <ele>96.4</ele>
        <time>2018-02-05T18:23:51Z</time>
      </trkpt>
      <trkpt lat="62.633452958577" lon="17.97095788524">
        <ele>96.6</ele>
        <time>2018-02-05T18:23:52Z</time>
      </trkpt>
      <trkpt lat="62.633453964405" lon="17.971004656242">
        <ele>96.8</ele>
        <time>2018-02-05T18:23:53Z</time>
      </trkpt>
      <trkpt lat="62.63345522169" lon="17.971069029234">
        <ele>97</ele>
        <time>2018-02-05T18:23:54Z</time>
      </trkpt>
      <trkpt lat="62.633454970233" lon="17.971114878227">
        <ele>97</ele>
        <time>2018-02-05T18:23:55Z</time>
      </trkpt>
      <trkpt lat="62.633460334649" lon="17.971168522387">
        <ele>97</ele>
        <time>2018-02-05T18:23:56Z</time>
      </trkpt>
      <trkpt lat="62.63346025083" lon="17.971233398293">
        <ele>97</ele>
        <time>2018-02-05T18:23:57Z</time>
      </trkpt>
      <trkpt lat="62.633461675753" lon="17.971281175123">
        <ele>97.2</ele>
        <time>2018-02-05T18:23:58Z</time>
      </trkpt>
      <trkpt lat="62.633461508115" lon="17.971331885618">
        <ele>97.2</ele>
        <time>2018-02-05T18:23:59Z</time>
      </trkpt>
      <trkpt lat="62.63346108902" lon="17.971386367968">
        <ele>97.2</ele>
        <time>2018-02-05T18:24:00Z</time>
      </trkpt>
      <trkpt lat="62.633460418468" lon="17.971441856146">
        <ele>97.4</ele>
        <time>2018-02-05T18:24:01Z</time>
      </trkpt>
      <trkpt lat="62.633458406812" lon="17.971500864722">
        <ele>97.6</ele>
        <time>2018-02-05T18:24:02Z</time>
      </trkpt>
      <trkpt lat="62.633455054052" lon="17.971550820846">
        <ele>97.6</ele>
        <time>2018-02-05T18:24:03Z</time>
      </trkpt>
      <trkpt lat="62.633449773455" lon="17.97160496792">
        <ele>97.8</ele>
        <time>2018-02-05T18:24:04Z</time>
      </trkpt>
      <trkpt lat="62.633444911953" lon="17.971655007863">
        <ele>98</ele>
        <time>2018-02-05T18:24:05Z</time>
      </trkpt>
      <trkpt lat="62.633439966632" lon="17.971716782466">
        <ele>98</ele>
        <time>2018-02-05T18:24:06Z</time>
      </trkpt>
      <trkpt lat="62.633433512569" lon="17.971777132146">
        <ele>98.2</ele>
        <time>2018-02-05T18:24:07Z</time>
      </trkpt>
      <trkpt lat="62.633430327447" lon="17.971828094098">
        <ele>98.2</ele>
        <time>2018-02-05T18:24:08Z</time>
      </trkpt>
      <trkpt lat="62.63342839961" lon="17.971883163181">
        <ele>98.4</ele>
        <time>2018-02-05T18:24:09Z</time>
      </trkpt>
      <trkpt lat="62.633420772081" lon="17.971938651359">
        <ele>98.4</ele>
        <time>2018-02-05T18:24:10Z</time>
      </trkpt>
      <trkpt lat="62.633418508968" lon="17.971986595827">
        <ele>98.4</ele>
        <time>2018-02-05T18:24:11Z</time>
      </trkpt>
      <trkpt lat="62.633409707973" lon="17.972051471733">
        <ele>98.6</ele>
        <time>2018-02-05T18:24:12Z</time>
      </trkpt>
      <trkpt lat="62.63340157753" lon="17.972105115893">
        <ele>98.8</ele>
        <time>2018-02-05T18:24:13Z</time>
      </trkpt>
      <trkpt lat="62.633393782363" lon="17.972158760053">
        <ele>98.6</ele>
        <time>2018-02-05T18:24:14Z</time>
      </trkpt>
      <trkpt lat="62.633385400463" lon="17.972209805824">
        <ele>98.8</ele>
        <time>2018-02-05T18:24:15Z</time>
      </trkpt>
      <trkpt lat="62.633377018563" lon="17.972263366165">
        <ele>99</ele>
        <time>2018-02-05T18:24:16Z</time>
      </trkpt>
      <trkpt lat="62.633366708826" lon="17.972316675049">
        <ele>99</ele>
        <time>2018-02-05T18:24:17Z</time>
      </trkpt>
      <trkpt lat="62.633357069641" lon="17.972363948965">
        <ele>99</ele>
        <time>2018-02-05T18:24:18Z</time>
      </trkpt>
      <trkpt lat="62.633350531759" lon="17.972415078555">
        <ele>99</ele>
        <time>2018-02-05T18:24:19Z</time>
      </trkpt>
      <trkpt lat="62.633340054384" lon="17.972467046335">
        <ele>99.2</ele>
        <time>2018-02-05T18:24:20Z</time>
      </trkpt>
      <trkpt lat="62.633332594493" lon="17.972516499545">
        <ele>99.2</ele>
        <time>2018-02-05T18:24:21Z</time>
      </trkpt>
      <trkpt lat="62.633320105462" lon="17.972569640791">
        <ele>99.4</ele>
        <time>2018-02-05T18:24:22Z</time>
      </trkpt>
      <trkpt lat="62.633311555924" lon="17.972615154508">
        <ele>99.4</ele>
        <time>2018-02-05T18:24:23Z</time>
      </trkpt>
      <trkpt lat="62.633301246187" lon="17.972662344605">
        <ele>99.6</ele>
        <time>2018-02-05T18:24:24Z</time>
      </trkpt>
      <trkpt lat="62.633289343889" lon="17.972712468367">
        <ele>99.6</ele>
        <time>2018-02-05T18:24:25Z</time>
      </trkpt>
      <trkpt lat="62.633281213446" lon="17.972759071731">
        <ele>99.8</ele>
        <time>2018-02-05T18:24:26Z</time>
      </trkpt>
      <trkpt lat="62.633269562605" lon="17.972815649556">
        <ele>100</ele>
        <time>2018-02-05T18:24:27Z</time>
      </trkpt>
      <trkpt lat="62.633257660307" lon="17.972861750006">
        <ele>100</ele>
        <time>2018-02-05T18:24:28Z</time>
      </trkpt>
      <trkpt lat="62.633251960615" lon="17.97289410414">
        <ele>100</ele>
        <time>2018-02-05T18:24:29Z</time>
      </trkpt>
      <trkpt lat="62.633237208471" lon="17.972957219847">
        <ele>100</ele>
        <time>2018-02-05T18:24:30Z</time>
      </trkpt>
      <trkpt lat="62.633227904562" lon="17.97300893617">
        <ele>100.2</ele>
        <time>2018-02-05T18:24:31Z</time>
      </trkpt>
      <trkpt lat="62.633218181558" lon="17.973055707172">
        <ele>100.2</ele>
        <time>2018-02-05T18:24:32Z</time>
      </trkpt>
      <trkpt lat="62.633208123278" lon="17.973110608617">
        <ele>100.4</ele>
        <time>2018-02-05T18:24:33Z</time>
      </trkpt>
      <trkpt lat="62.633197981179" lon="17.973157882533">
        <ele>100.6</ele>
        <time>2018-02-05T18:24:34Z</time>
      </trkpt>
      <trkpt lat="62.633185743605" lon="17.973203480069">
        <ele>100.6</ele>
        <time>2018-02-05T18:24:35Z</time>
      </trkpt>
      <trkpt lat="62.633173841307" lon="17.9732578786">
        <ele>100.6</ele>
        <time>2018-02-05T18:24:36Z</time>
      </trkpt>
      <trkpt lat="62.633162022828" lon="17.973305990706">
        <ele>100.6</ele>
        <time>2018-02-05T18:24:37Z</time>
      </trkpt>
      <trkpt lat="62.633147522141" lon="17.97335594683">
        <ele>100.8</ele>
        <time>2018-02-05T18:24:38Z</time>
      </trkpt>
      <trkpt lat="62.633136122757" lon="17.973403053108">
        <ele>101</ele>
        <time>2018-02-05T18:24:39Z</time>
      </trkpt>
      <trkpt lat="62.633124304278" lon="17.973447477178">
        <ele>101</ele>
        <time>2018-02-05T18:24:40Z</time>
      </trkpt>
      <trkpt lat="62.633113491627" lon="17.973494583456">
        <ele>101</ele>
        <time>2018-02-05T18:24:41Z</time>
      </trkpt>
      <trkpt lat="62.633102846614" lon="17.973546635055">
        <ele>101</ele>
        <time>2018-02-05T18:24:42Z</time>
      </trkpt>
      <trkpt lat="62.633089687031" lon="17.97359734555">
        <ele>101.2</ele>
        <time>2018-02-05T18:24:43Z</time>
      </trkpt>
      <trkpt lat="62.633080886036" lon="17.973644703285">
        <ele>101.4</ele>
        <time>2018-02-05T18:24:44Z</time>
      </trkpt>
      <trkpt lat="62.633066552987" lon="17.973692815391">
        <ele>101.4</ele>
        <time>2018-02-05T18:24:45Z</time>
      </trkpt>
      <trkpt lat="62.63305456687" lon="17.973747800655">
        <ele>101.4</ele>
        <time>2018-02-05T18:24:46Z</time>
      </trkpt>
      <trkpt lat="62.633042580753" lon="17.973795577485">
        <ele>101.8</ele>
        <time>2018-02-05T18:24:47Z</time>
      </trkpt>
      <trkpt lat="62.633028247704" lon="17.973850311292">
        <ele>101.8</ele>
        <time>2018-02-05T18:24:48Z</time>
      </trkpt>
      <trkpt lat="62.63301936289" lon="17.973898591036">
        <ele>101.8</ele>
        <time>2018-02-05T18:24:49Z</time>
      </trkpt>
      <trkpt lat="62.633003688737" lon="17.973949050074">
        <ele>102</ele>
        <time>2018-02-05T18:24:50Z</time>
      </trkpt>
      <trkpt lat="62.632990445335" lon="17.97400135313">
        <ele>102.2</ele>
        <time>2018-02-05T18:24:51Z</time>
      </trkpt>
      <trkpt lat="62.632977621028" lon="17.974053069453">
        <ele>102.2</ele>
        <time>2018-02-05T18:24:52Z</time>
      </trkpt>
      <trkpt lat="62.632963539436" lon="17.974101768292">
        <ele>102.2</ele>
        <time>2018-02-05T18:24:53Z</time>
      </trkpt>
      <trkpt lat="62.632951804776" lon="17.97415390371">
        <ele>102.2</ele>
        <time>2018-02-05T18:24:54Z</time>
      </trkpt>
      <trkpt lat="62.632939483383" lon="17.974201345264">
        <ele>102.4</ele>
        <time>2018-02-05T18:24:55Z</time>
      </trkpt>
      <trkpt lat="62.632925234153" lon="17.974249205913">
        <ele>102.4</ele>
        <time>2018-02-05T18:24:56Z</time>
      </trkpt>
      <trkpt lat="62.632911906932" lon="17.974297653295">
        <ele>102.4</ele>
        <time>2018-02-05T18:24:57Z</time>
      </trkpt>
      <trkpt lat="62.632896484236" lon="17.974348950523">
        <ele>102.4</ele>
        <time>2018-02-05T18:24:58Z</time>
      </trkpt>
      <trkpt lat="62.632886509775" lon="17.974392284946">
        <ele>102.6</ele>
        <time>2018-02-05T18:24:59Z</time>
      </trkpt>
      <trkpt lat="62.632871925269" lon="17.974444252726">
        <ele>102.6</ele>
        <time>2018-02-05T18:25:00Z</time>
      </trkpt>
      <trkpt lat="62.632858598048" lon="17.974499740904">
        <ele>102.6</ele>
        <time>2018-02-05T18:25:01Z</time>
      </trkpt>
      <trkpt lat="62.632847366302" lon="17.974546847182">
        <ele>102.6</ele>
        <time>2018-02-05T18:25:02Z</time>
      </trkpt>
      <trkpt lat="62.632830015769" lon="17.974600156066">
        <ele>102.6</ele>
        <time>2018-02-05T18:25:03Z</time>
      </trkpt>
      <trkpt lat="62.632818951661" lon="17.974648184353">
        <ele>102.8</ele>
        <time>2018-02-05T18:25:04Z</time>
      </trkpt>
      <trkpt lat="62.632808893381" lon="17.974689674758">
        <ele>102.8</ele>
        <time>2018-02-05T18:25:05Z</time>
      </trkpt>
      <trkpt lat="62.63279305159" lon="17.974748264239">
        <ele>102.6</ele>
        <time>2018-02-05T18:25:06Z</time>
      </trkpt>
      <trkpt lat="62.632781819844" lon="17.974796460164">
        <ele>102.8</ele>
        <time>2018-02-05T18:25:07Z</time>
      </trkpt>
      <trkpt lat="62.632769163175" lon="17.974851193971">
        <ele>102.8</ele>
        <time>2018-02-05T18:25:08Z</time>
      </trkpt>
      <trkpt lat="62.632755165402" lon="17.97489989281">
        <ele>102.8</ele>
        <time>2018-02-05T18:25:09Z</time>
      </trkpt>
      <trkpt lat="62.632744185113" lon="17.974946747631">
        <ele>103</ele>
        <time>2018-02-05T18:25:10Z</time>
      </trkpt>
      <trkpt lat="62.632729852064" lon="17.974998883049">
        <ele>103</ele>
        <time>2018-02-05T18:25:11Z</time>
      </trkpt>
      <trkpt lat="62.632719961422" lon="17.975052862485">
        <ele>103</ele>
        <time>2018-02-05T18:25:12Z</time>
      </trkpt>
      <trkpt lat="62.632707975305" lon="17.975111032871">
        <ele>103.2</ele>
        <time>2018-02-05T18:25:13Z</time>
      </trkpt>
      <trkpt lat="62.632695570093" lon="17.975164928488">
        <ele>103</ele>
        <time>2018-02-05T18:25:14Z</time>
      </trkpt>
      <trkpt lat="62.632685008899" lon="17.97521337587">
        <ele>103</ele>
        <time>2018-02-05T18:25:15Z</time>
      </trkpt>
      <trkpt lat="62.632669502384" lon="17.975268947867">
        <ele>103</ele>
        <time>2018-02-05T18:25:16Z</time>
      </trkpt>
      <trkpt lat="62.632659611742" lon="17.97531395867">
        <ele>103.2</ele>
        <time>2018-02-05T18:25:17Z</time>
      </trkpt>
      <trkpt lat="62.63264553015" lon="17.975368776296">
        <ele>103.2</ele>
        <time>2018-02-05T18:25:18Z</time>
      </trkpt>
      <trkpt lat="62.632632705843" lon="17.975419822067">
        <ele>103.2</ele>
        <time>2018-02-05T18:25:19Z</time>
      </trkpt>
      <trkpt lat="62.632623904848" lon="17.975466006336">
        <ele>103.2</ele>
        <time>2018-02-05T18:25:20Z</time>
      </trkpt>
      <trkpt lat="62.63261032617" lon="17.975524847274">
        <ele>103.4</ele>
        <time>2018-02-05T18:25:21Z</time>
      </trkpt>
      <trkpt lat="62.632600016433" lon="17.975571618276">
        <ele>103.4</ele>
        <time>2018-02-05T18:25:22Z</time>
      </trkpt>
      <trkpt lat="62.632592137447" lon="17.975626854997">
        <ele>103.2</ele>
        <time>2018-02-05T18:25:23Z</time>
      </trkpt>
      <trkpt lat="62.632578977864" lon="17.975684773926">
        <ele>103.4</ele>
        <time>2018-02-05T18:25:24Z</time>
      </trkpt>
      <trkpt lat="62.632571266516" lon="17.975734227136">
        <ele>103.4</ele>
        <time>2018-02-05T18:25:25Z</time>
      </trkpt>
      <trkpt lat="62.632559531856" lon="17.97579591792">
        <ele>103.4</ele>
        <time>2018-02-05T18:25:26Z</time>
      </trkpt>
      <trkpt lat="62.632548216291" lon="17.975844365302">
        <ele>103.4</ele>
        <time>2018-02-05T18:25:27Z</time>
      </trkpt>
      <trkpt lat="62.632535894898" lon="17.975900188756">
        <ele>103.4</ele>
        <time>2018-02-05T18:25:28Z</time>
      </trkpt>
      <trkpt lat="62.63252147803" lon="17.975951234527">
        <ele>103.6</ele>
        <time>2018-02-05T18:25:29Z</time>
      </trkpt>
      <trkpt lat="62.632508653723" lon="17.976000939194">
        <ele>103.4</ele>
        <time>2018-02-05T18:25:30Z</time>
      </trkpt>
      <trkpt lat="62.632492476656" lon="17.976058858123">
        <ele>103.4</ele>
        <time>2018-02-05T18:25:31Z</time>
      </trkpt>
      <trkpt lat="62.6324820831" lon="17.976109652437">
        <ele>103.4</ele>
        <time>2018-02-05T18:25:32Z</time>
      </trkpt>
      <trkpt lat="62.632472192458" lon="17.976166062624">
        <ele>103.6</ele>
        <time>2018-02-05T18:25:33Z</time>
      </trkpt>
      <trkpt lat="62.632458949056" lon="17.976219958241">
        <ele>103.6</ele>
        <time>2018-02-05T18:25:34Z</time>
      </trkpt>
      <trkpt lat="62.632450315699" lon="17.97626446613">
        <ele>103.6</ele>
        <time>2018-02-05T18:25:35Z</time>
      </trkpt>
      <trkpt lat="62.632436401745" lon="17.976324229077">
        <ele>103.8</ele>
        <time>2018-02-05T18:25:36Z</time>
      </trkpt>
      <trkpt lat="62.632424415628" lon="17.976375526305">
        <ele>104</ele>
        <time>2018-02-05T18:25:37Z</time>
      </trkpt>
      <trkpt lat="62.632410585493" lon="17.976427996999">
        <ele>104</ele>
        <time>2018-02-05T18:25:38Z</time>
      </trkpt>
      <trkpt lat="62.632399521385" lon="17.976481641159">
        <ele>103.8</ele>
        <time>2018-02-05T18:25:39Z</time>
      </trkpt>
      <trkpt lat="62.632390636571" lon="17.976533441301">
        <ele>104</ele>
        <time>2018-02-05T18:25:40Z</time>
      </trkpt>
      <trkpt lat="62.632378482816" lon="17.97658633109">
        <ele>104</ele>
        <time>2018-02-05T18:25:41Z</time>
      </trkpt>
      <trkpt lat="62.632365909966" lon="17.976640897259">
        <ele>104</ele>
        <time>2018-02-05T18:25:42Z</time>
      </trkpt>
      <trkpt lat="62.632352331288" lon="17.97669613398">
        <ele>104</ele>
        <time>2018-02-05T18:25:43Z</time>
      </trkpt>
      <trkpt lat="62.632340764266" lon="17.976749610502">
        <ele>104</ele>
        <time>2018-02-05T18:25:44Z</time>
      </trkpt>
      <trkpt lat="62.632331544176" lon="17.976798141703">
        <ele>104</ele>
        <time>2018-02-05T18:25:45Z</time>
      </trkpt>
      <trkpt lat="62.63231612148" lon="17.976853881338">
        <ele>104.2</ele>
        <time>2018-02-05T18:25:46Z</time>
      </trkpt>
      <trkpt lat="62.632306649933" lon="17.976898640684">
        <ele>104.2</ele>
        <time>2018-02-05T18:25:47Z</time>
      </trkpt>
      <trkpt lat="62.632290556685" lon="17.97695513469">
        <ele>104.2</ele>
        <time>2018-02-05T18:25:48Z</time>
      </trkpt>
      <trkpt lat="62.63227756474" lon="17.977004252624">
        <ele>104.2</ele>
        <time>2018-02-05T18:25:49Z</time>
      </trkpt>
      <trkpt lat="62.632268596107" lon="17.977053370558">
        <ele>104.4</ele>
        <time>2018-02-05T18:25:50Z</time>
      </trkpt>
      <trkpt lat="62.632254346877" lon="17.977111373306">
        <ele>104.4</ele>
        <time>2018-02-05T18:25:51Z</time>
      </trkpt>
      <trkpt lat="62.632244204778" lon="17.977159736869">
        <ele>104.4</ele>
        <time>2018-02-05T18:25:52Z</time>
      </trkpt>
      <trkpt lat="62.632230290824" lon="17.977208770984">
        <ele>104.4</ele>
        <time>2018-02-05T18:25:53Z</time>
      </trkpt>
      <trkpt lat="62.632217969431" lon="17.977262666601">
        <ele>104.6</ele>
        <time>2018-02-05T18:25:54Z</time>
      </trkpt>
      <trkpt lat="62.632205312762" lon="17.977310443431">
        <ele>104.6</ele>
        <time>2018-02-05T18:25:55Z</time>
      </trkpt>
      <trkpt lat="62.632190225342" lon="17.977362243573">
        <ele>104.6</ele>
        <time>2018-02-05T18:25:56Z</time>
      </trkpt>
      <trkpt lat="62.632180167062" lon="17.97741613919">
        <ele>104.8</ele>
        <time>2018-02-05T18:25:57Z</time>
      </trkpt>
      <trkpt lat="62.632167678031" lon="17.977468777522">
        <ele>105</ele>
        <time>2018-02-05T18:25:58Z</time>
      </trkpt>
      <trkpt lat="62.632156697742" lon="17.977513033954">
        <ele>105</ele>
        <time>2018-02-05T18:25:59Z</time>
      </trkpt>
      <trkpt lat="62.632142783788" lon="17.977567516304">
        <ele>104.8</ele>
        <time>2018-02-05T18:26:00Z</time>
      </trkpt>
      <trkpt lat="62.632126522902" lon="17.977627949803">
        <ele>105</ele>
        <time>2018-02-05T18:26:01Z</time>
      </trkpt>
      <trkpt lat="62.632118895373" lon="17.977681174868">
        <ele>105</ele>
        <time>2018-02-05T18:26:02Z</time>
      </trkpt>
      <trkpt lat="62.63210657398" lon="17.977741692186">
        <ele>105.2</ele>
        <time>2018-02-05T18:26:03Z</time>
      </trkpt>
      <trkpt lat="62.632095174596" lon="17.977787122084">
        <ele>105</ele>
        <time>2018-02-05T18:26:04Z</time>
      </trkpt>
      <trkpt lat="62.632084361945" lon="17.977828025756">
        <ele>105.2</ele>
        <time>2018-02-05T18:26:05Z</time>
      </trkpt>
      <trkpt lat="62.632067011412" lon="17.977894661861">
        <ele>105.2</ele>
        <time>2018-02-05T18:26:06Z</time>
      </trkpt>
      <trkpt lat="62.632056198761" lon="17.977943695976">
        <ele>105.2</ele>
        <time>2018-02-05T18:26:07Z</time>
      </trkpt>
      <trkpt lat="62.632043458273" lon="17.978002117819">
        <ele>105.4</ele>
        <time>2018-02-05T18:26:08Z</time>
      </trkpt>
      <trkpt lat="62.63203029869" lon="17.978052744495">
        <ele>105.2</ele>
        <time>2018-02-05T18:26:09Z</time>
      </trkpt>
      <trkpt lat="62.632015630365" lon="17.978102365343">
        <ele>105.4</ele>
        <time>2018-02-05T18:26:10Z</time>
      </trkpt>
      <trkpt lat="62.632002219325" lon="17.978157266788">
        <ele>105.4</ele>
        <time>2018-02-05T18:26:11Z</time>
      </trkpt>
      <trkpt lat="62.631991155217" lon="17.978215520993">
        <ele>105.6</ele>
        <time>2018-02-05T18:26:12Z</time>
      </trkpt>
      <trkpt lat="62.631977744177" lon="17.978270757714">
        <ele>105.6</ele>
        <time>2018-02-05T18:26:13Z</time>
      </trkpt>
      <trkpt lat="62.631967937354" lon="17.978322474037">
        <ele>105.6</ele>
        <time>2018-02-05T18:26:14Z</time>
      </trkpt>
      <trkpt lat="62.631957124703" lon="17.978371256695">
        <ele>105.8</ele>
        <time>2018-02-05T18:26:15Z</time>
      </trkpt>
      <trkpt lat="62.631942959292" lon="17.978429678538">
        <ele>105.8</ele>
        <time>2018-02-05T18:26:16Z</time>
      </trkpt>
      <trkpt lat="62.631933236288" lon="17.978472426228">
        <ele>106</ele>
        <time>2018-02-05T18:26:17Z</time>
      </trkpt>
      <trkpt lat="62.631920663438" lon="17.978530848071">
        <ele>106</ele>
        <time>2018-02-05T18:26:18Z</time>
      </trkpt>
      <trkpt lat="62.631911108072" lon="17.978578541082">
        <ele>106.2</ele>
        <time>2018-02-05T18:26:19Z</time>
      </trkpt>
      <trkpt lat="62.631898954317" lon="17.978629670672">
        <ele>106</ele>
        <time>2018-02-05T18:26:20Z</time>
      </trkpt>
      <trkpt lat="62.631885962372" lon="17.978682225185">
        <ele>106</ele>
        <time>2018-02-05T18:26:21Z</time>
      </trkpt>
      <trkpt lat="62.631876826101" lon="17.978732265128">
        <ele>106.2</ele>
        <time>2018-02-05T18:26:22Z</time>
      </trkpt>
      <trkpt lat="62.631864169432" lon="17.978787250392">
        <ele>106.2</ele>
        <time>2018-02-05T18:26:23Z</time>
      </trkpt>
      <trkpt lat="62.631852099496" lon="17.978840224">
        <ele>106.4</ele>
        <time>2018-02-05T18:26:24Z</time>
      </trkpt>
      <trkpt lat="62.631840616293" lon="17.978889258115">
        <ele>106.2</ele>
        <time>2018-02-05T18:26:25Z</time>
      </trkpt>
      <trkpt lat="62.631828462538" lon="17.978942986094">
        <ele>106.4</ele>
        <time>2018-02-05T18:26:26Z</time>
      </trkpt>
      <trkpt lat="62.631818152801" lon="17.978994786236">
        <ele>106.4</ele>
        <time>2018-02-05T18:26:27Z</time>
      </trkpt>
      <trkpt lat="62.63180482558" lon="17.97904809512">
        <ele>106.6</ele>
        <time>2018-02-05T18:26:28Z</time>
      </trkpt>
      <trkpt lat="62.631794683481" lon="17.979093944113">
        <ele>106.6</ele>
        <time>2018-02-05T18:26:29Z</time>
      </trkpt>
      <trkpt lat="62.631782278269" lon="17.979143984056">
        <ele>106.6</ele>
        <time>2018-02-05T18:26:30Z</time>
      </trkpt>
      <trkpt lat="62.631768029039" lon="17.979198885501">
        <ele>106.6</ele>
        <time>2018-02-05T18:26:31Z</time>
      </trkpt>
      <trkpt lat="62.63175704875" lon="17.979249679815">
        <ele>107</ele>
        <time>2018-02-05T18:26:32Z</time>
      </trkpt>
      <trkpt lat="62.63174196133" lon="17.979302569604">
        <ele>107</ele>
        <time>2018-02-05T18:26:33Z</time>
      </trkpt>
      <trkpt lat="62.631730059032" lon="17.97935235809">
        <ele>107</ele>
        <time>2018-02-05T18:26:34Z</time>
      </trkpt>
      <trkpt lat="62.631715642164" lon="17.979398207083">
        <ele>107.2</ele>
        <time>2018-02-05T18:26:35Z</time>
      </trkpt>
      <trkpt lat="62.631699046002" lon="17.979455204003">
        <ele>107.4</ele>
        <time>2018-02-05T18:26:36Z</time>
      </trkpt>
      <trkpt lat="62.631686137876" lon="17.979510189267">
        <ele>107.2</ele>
        <time>2018-02-05T18:26:37Z</time>
      </trkpt>
      <trkpt lat="62.63166820061" lon="17.979566850911">
        <ele>107.2</ele>
        <time>2018-02-05T18:26:38Z</time>
      </trkpt>
      <trkpt lat="62.631654705751" lon="17.979610688248">
        <ele>107.4</ele>
        <time>2018-02-05T18:26:39Z</time>
      </trkpt>
      <trkpt lat="62.631640707978" lon="17.979661147286">
        <ele>107.4</ele>
        <time>2018-02-05T18:26:40Z</time>
      </trkpt>
      <trkpt lat="62.6316271293" lon="17.979715964912">
        <ele>107.4</ele>
        <time>2018-02-05T18:26:41Z</time>
      </trkpt>
      <trkpt lat="62.631612125699" lon="17.979770195805">
        <ele>107.4</ele>
        <time>2018-02-05T18:26:42Z</time>
      </trkpt>
      <trkpt lat="62.631592176777" lon="17.979823253232">
        <ele>107.4</ele>
        <time>2018-02-05T18:26:43Z</time>
      </trkpt>
      <trkpt lat="62.631577592271" lon="17.979871113881">
        <ele>107.6</ele>
        <time>2018-02-05T18:26:44Z</time>
      </trkpt>
      <trkpt lat="62.63155923591" lon="17.9799131072">
        <ele>107.4</ele>
        <time>2018-02-05T18:26:45Z</time>
      </trkpt>
      <trkpt lat="62.631536353323" lon="17.979952669768">
        <ele>107.4</ele>
        <time>2018-02-05T18:26:46Z</time>
      </trkpt>
      <trkpt lat="62.631514476564" lon="17.979979910943">
        <ele>107.4</ele>
        <time>2018-02-05T18:26:47Z</time>
      </trkpt>
      <trkpt lat="62.631484804638" lon="17.980006565385">
        <ele>107.6</ele>
        <time>2018-02-05T18:26:48Z</time>
      </trkpt>
      <trkpt lat="62.631459156024" lon="17.980020479339">
        <ele>107.8</ele>
        <time>2018-02-05T18:26:49Z</time>
      </trkpt>
      <trkpt lat="62.631433004496" lon="17.980029447972">
        <ele>107.8</ele>
        <time>2018-02-05T18:26:50Z</time>
      </trkpt>
      <trkpt lat="62.63140417076" lon="17.980024754108">
        <ele>107.6</ele>
        <time>2018-02-05T18:26:51Z</time>
      </trkpt>
      <trkpt lat="62.631377181042" lon="17.980023496823">
        <ele>107.6</ele>
        <time>2018-02-05T18:26:52Z</time>
      </trkpt>
      <trkpt lat="62.631356561568" lon="17.980002458254">
        <ele>107.8</ele>
        <time>2018-02-05T18:26:53Z</time>
      </trkpt>
      <trkpt lat="62.631330829135" lon="17.979983263703">
        <ele>107.8</ele>
        <time>2018-02-05T18:26:54Z</time>
      </trkpt>
      <trkpt lat="62.631307108358" lon="17.979973121604">
        <ele>107.8</ele>
        <time>2018-02-05T18:26:55Z</time>
      </trkpt>
      <trkpt lat="62.631283052305" lon="17.979959291469">
        <ele>107.8</ele>
        <time>2018-02-05T18:26:56Z</time>
      </trkpt>
      <trkpt lat="62.63125916389" lon="17.979947137714">
        <ele>108</ele>
        <time>2018-02-05T18:26:57Z</time>
      </trkpt>
      <trkpt lat="62.63123820914" lon="17.979930960647">
        <ele>108</ele>
        <time>2018-02-05T18:26:58Z</time>
      </trkpt>
      <trkpt lat="62.631215997105" lon="17.979920399453">
        <ele>108.2</ele>
        <time>2018-02-05T18:26:59Z</time>
      </trkpt>
      <trkpt lat="62.631191354319" lon="17.979910424992">
        <ele>108.2</ele>
        <time>2018-02-05T18:27:00Z</time>
      </trkpt>
      <trkpt lat="62.631163274954" lon="17.979883267636">
        <ele>108.2</ele>
        <time>2018-02-05T18:27:01Z</time>
      </trkpt>
      <trkpt lat="62.631140727643" lon="17.979867761121">
        <ele>108.4</ele>
        <time>2018-02-05T18:27:02Z</time>
      </trkpt>
      <trkpt lat="62.631117677418" lon="17.97984689019">
        <ele>108.6</ele>
        <time>2018-02-05T18:27:03Z</time>
      </trkpt>
      <trkpt lat="62.631092783175" lon="17.979833311512">
        <ele>108.4</ele>
        <time>2018-02-05T18:27:04Z</time>
      </trkpt>
      <trkpt lat="62.631069230036" lon="17.979821995947">
        <ele>108.4</ele>
        <time>2018-02-05T18:27:05Z</time>
      </trkpt>
      <trkpt lat="62.631045090164" lon="17.979796514971">
        <ele>108.6</ele>
        <time>2018-02-05T18:27:06Z</time>
      </trkpt>
      <trkpt lat="62.631023213405" lon="17.979785869958">
        <ele>108.8</ele>
        <time>2018-02-05T18:27:07Z</time>
      </trkpt>
      <trkpt lat="62.630999911723" lon="17.979775811678">
        <ele>108.8</ele>
        <time>2018-02-05T18:27:08Z</time>
      </trkpt>
      <trkpt lat="62.630974346928" lon="17.97975888024">
        <ele>108.8</ele>
        <time>2018-02-05T18:27:09Z</time>
      </trkpt>
      <trkpt lat="62.630955236196" lon="17.979743709001">
        <ele>109</ele>
        <time>2018-02-05T18:27:10Z</time>
      </trkpt>
      <trkpt lat="62.630929168487" lon="17.979727699572">
        <ele>109</ele>
        <time>2018-02-05T18:27:11Z</time>
      </trkpt>
      <trkpt lat="62.630907459366" lon="17.979719150034">
        <ele>109.2</ele>
        <time>2018-02-05T18:27:12Z</time>
      </trkpt>
      <trkpt lat="62.630881810752" lon="17.979707415374">
        <ele>109.2</ele>
        <time>2018-02-05T18:27:13Z</time>
      </trkpt>
      <trkpt lat="62.630860269269" lon="17.97968176676">
        <ele>109.2</ele>
        <time>2018-02-05T18:27:14Z</time>
      </trkpt>
      <trkpt lat="62.630841074718" lon="17.97966332658">
        <ele>109.4</ele>
        <time>2018-02-05T18:27:15Z</time>
      </trkpt>
      <trkpt lat="62.63081659957" lon="17.979636001586">
        <ele>109.6</ele>
        <time>2018-02-05T18:27:16Z</time>
      </trkpt>
      <trkpt lat="62.630796231553" lon="17.979609011868">
        <ele>109.6</ele>
        <time>2018-02-05T18:27:17Z</time>
      </trkpt>
      <trkpt lat="62.630768236007" lon="17.979586464557">
        <ele>109.8</ele>
        <time>2018-02-05T18:27:18Z</time>
      </trkpt>
      <trkpt lat="62.630743928497" lon="17.979561654133">
        <ele>110</ele>
        <time>2018-02-05T18:27:19Z</time>
      </trkpt>
      <trkpt lat="62.630723225204" lon="17.979537514261">
        <ele>110</ele>
        <time>2018-02-05T18:27:20Z</time>
      </trkpt>
      <trkpt lat="62.630699672065" lon="17.979503483747">
        <ele>110</ele>
        <time>2018-02-05T18:27:21Z</time>
      </trkpt>
      <trkpt lat="62.630676873297" lon="17.979475236744">
        <ele>110.2</ele>
        <time>2018-02-05T18:27:22Z</time>
      </trkpt>
      <trkpt lat="62.630655080357" lon="17.979443469343">
        <ele>110.4</ele>
        <time>2018-02-05T18:27:23Z</time>
      </trkpt>
      <trkpt lat="62.630631611037" lon="17.979407008078">
        <ele>110.2</ele>
        <time>2018-02-05T18:27:24Z</time>
      </trkpt>
      <trkpt lat="62.630613170857" lon="17.97937750379">
        <ele>110.2</ele>
        <time>2018-02-05T18:27:25Z</time>
      </trkpt>
      <trkpt lat="62.630591210279" lon="17.979338444136">
        <ele>110.4</ele>
        <time>2018-02-05T18:27:26Z</time>
      </trkpt>
      <trkpt lat="62.630566483674" lon="17.979296618455">
        <ele>110.6</ele>
        <time>2018-02-05T18:27:27Z</time>
      </trkpt>
      <trkpt lat="62.630542343802" lon="17.97926099538">
        <ele>110.4</ele>
        <time>2018-02-05T18:27:28Z</time>
      </trkpt>
      <trkpt lat="62.630529184219" lon="17.979229730893">
        <ele>110.4</ele>
        <time>2018-02-05T18:27:29Z</time>
      </trkpt>
      <trkpt lat="62.630506804546" lon="17.979178517484">
        <ele>110.4</ele>
        <time>2018-02-05T18:27:30Z</time>
      </trkpt>
      <trkpt lat="62.63048551452" lon="17.979133841957">
        <ele>110.4</ele>
        <time>2018-02-05T18:27:31Z</time>
      </trkpt>
      <trkpt lat="62.630468080168" lon="17.979085646032">
        <ele>110.4</ele>
        <time>2018-02-05T18:27:32Z</time>
      </trkpt>
      <trkpt lat="62.630448885617" lon="17.979045161455">
        <ele>110.2</ele>
        <time>2018-02-05T18:27:33Z</time>
      </trkpt>
      <trkpt lat="62.630430110161" lon="17.978994618598">
        <ele>110.4</ele>
        <time>2018-02-05T18:27:34Z</time>
      </trkpt>
      <trkpt lat="62.63041426837" lon="17.978956229496">
        <ele>110.4</ele>
        <time>2018-02-05T18:27:35Z</time>
      </trkpt>
      <trkpt lat="62.630394487086" lon="17.978912392159">
        <ele>110.4</ele>
        <time>2018-02-05T18:27:36Z</time>
      </trkpt>
      <trkpt lat="62.630373280879" lon="17.978862436035">
        <ele>110.2</ele>
        <time>2018-02-05T18:27:37Z</time>
      </trkpt>
      <trkpt lat="62.630355678889" lon="17.978820526535">
        <ele>110.2</ele>
        <time>2018-02-05T18:27:38Z</time>
      </trkpt>
      <trkpt lat="62.630336903433" lon="17.978777611207">
        <ele>110</ele>
        <time>2018-02-05T18:27:39Z</time>
      </trkpt>
      <trkpt lat="62.630320307271" lon="17.978734695879">
        <ele>110</ele>
        <time>2018-02-05T18:27:40Z</time>
      </trkpt>
      <trkpt lat="62.630303711109" lon="17.978692032008">
        <ele>109.8</ele>
        <time>2018-02-05T18:27:41Z</time>
      </trkpt>
      <trkpt lat="62.630285522386" lon="17.978635538002">
        <ele>109.6</ele>
        <time>2018-02-05T18:27:42Z</time>
      </trkpt>
      <trkpt lat="62.630270434966" lon="17.978586000973">
        <ele>109.6</ele>
        <time>2018-02-05T18:27:43Z</time>
      </trkpt>
      <trkpt lat="62.630257275383" lon="17.978540654894">
        <ele>109.4</ele>
        <time>2018-02-05T18:27:44Z</time>
      </trkpt>
      <trkpt lat="62.63024746856" lon="17.978485921087">
        <ele>109.2</ele>
        <time>2018-02-05T18:27:45Z</time>
      </trkpt>
      <trkpt lat="62.630236488271" lon="17.978429343262">
        <ele>109.2</ele>
        <time>2018-02-05T18:27:46Z</time>
      </trkpt>
      <trkpt lat="62.630228274009" lon="17.978379135681">
        <ele>109</ele>
        <time>2018-02-05T18:27:47Z</time>
      </trkpt>
      <trkpt lat="62.630218299548" lon="17.978316187612">
        <ele>108.8</ele>
        <time>2018-02-05T18:27:48Z</time>
      </trkpt>
      <trkpt lat="62.630207570716" lon="17.978263716918">
        <ele>108.8</ele>
        <time>2018-02-05T18:27:49Z</time>
      </trkpt>
      <trkpt lat="62.630199440273" lon="17.978207809645">
        <ele>108.8</ele>
        <time>2018-02-05T18:27:50Z</time>
      </trkpt>
      <trkpt lat="62.630196171332" lon="17.97814284992">
        <ele>108.8</ele>
        <time>2018-02-05T18:27:51Z</time>
      </trkpt>
      <trkpt lat="62.63019550078" lon="17.978083003154">
        <ele>108.4</ele>
        <time>2018-02-05T18:27:52Z</time>
      </trkpt>
      <trkpt lat="62.630191561287" lon="17.978019300714">
        <ele>108.4</ele>
        <time>2018-02-05T18:27:53Z</time>
      </trkpt>
      <trkpt lat="62.630189298174" lon="17.977954089532">
        <ele>108.4</ele>
        <time>2018-02-05T18:27:54Z</time>
      </trkpt>
      <trkpt lat="62.630187035061" lon="17.977893153119">
        <ele>108.4</ele>
        <time>2018-02-05T18:27:55Z</time>
      </trkpt>
      <trkpt lat="62.630189968726" lon="17.977825595005">
        <ele>108.2</ele>
        <time>2018-02-05T18:27:56Z</time>
      </trkpt>
      <trkpt lat="62.630187873251" lon="17.977769520094">
        <ele>108</ele>
        <time>2018-02-05T18:27:57Z</time>
      </trkpt>
      <trkpt lat="62.630188627622" lon="17.977706823482">
        <ele>108</ele>
        <time>2018-02-05T18:27:58Z</time>
      </trkpt>
      <trkpt lat="62.630191477468" lon="17.977644881241">
        <ele>107.8</ele>
        <time>2018-02-05T18:27:59Z</time>
      </trkpt>
      <trkpt lat="62.630194327314" lon="17.977580592068">
        <ele>107.6</ele>
        <time>2018-02-05T18:28:00Z</time>
      </trkpt>
      <trkpt lat="62.630198434445" lon="17.977508675366">
        <ele>107.6</ele>
        <time>2018-02-05T18:28:01Z</time>
      </trkpt>
      <trkpt lat="62.630200697558" lon="17.977448744781">
        <ele>107.4</ele>
        <time>2018-02-05T18:28:02Z</time>
      </trkpt>
      <trkpt lat="62.630200194644" lon="17.977383617418">
        <ele>107.2</ele>
        <time>2018-02-05T18:28:03Z</time>
      </trkpt>
      <trkpt lat="62.630198434445" lon="17.977317568046">
        <ele>107.2</ele>
        <time>2018-02-05T18:28:04Z</time>
      </trkpt>
      <trkpt lat="62.630198182988" lon="17.977262247506">
        <ele>107</ele>
        <time>2018-02-05T18:28:05Z</time>
      </trkpt>
      <trkpt lat="62.630200362282" lon="17.97718815151">
        <ele>106.6</ele>
        <time>2018-02-05T18:28:06Z</time>
      </trkpt>
      <trkpt lat="62.630208828001" lon="17.977130232581">
        <ele>106.6</ele>
        <time>2018-02-05T18:28:07Z</time>
      </trkpt>
      <trkpt lat="62.630213773322" lon="17.977066194865">
        <ele>106.6</ele>
        <time>2018-02-05T18:28:08Z</time>
      </trkpt>
      <trkpt lat="62.630218215729" lon="17.976998972027">
        <ele>106.2</ele>
        <time>2018-02-05T18:28:09Z</time>
      </trkpt>
      <trkpt lat="62.630221568489" lon="17.976940214908">
        <ele>106.2</ele>
        <time>2018-02-05T18:28:10Z</time>
      </trkpt>
      <trkpt lat="62.630222658136" lon="17.976875925735">
        <ele>106.2</ele>
        <time>2018-02-05T18:28:11Z</time>
      </trkpt>
      <trkpt lat="62.630225256525" lon="17.976807864707">
        <ele>106.2</ele>
        <time>2018-02-05T18:28:12Z</time>
      </trkpt>
      <trkpt lat="62.63022819019" lon="17.976745503371">
        <ele>105.8</ele>
        <time>2018-02-05T18:28:13Z</time>
      </trkpt>
      <trkpt lat="62.630237158823" lon="17.976679621637">
        <ele>105.8</ele>
        <time>2018-02-05T18:28:14Z</time>
      </trkpt>
      <trkpt lat="62.630245456904" lon="17.976620529242">
        <ele>105.8</ele>
        <time>2018-02-05T18:28:15Z</time>
      </trkpt>
      <trkpt lat="62.630254425537" lon="17.976561436847">
        <ele>105.6</ele>
        <time>2018-02-05T18:28:16Z</time>
      </trkpt>
      <trkpt lat="62.630261550152" lon="17.976499326968">
        <ele>105.6</ele>
        <time>2018-02-05T18:28:17Z</time>
      </trkpt>
      <trkpt lat="62.630265657283" lon="17.976437720003">
        <ele>105.4</ele>
        <time>2018-02-05T18:28:18Z</time>
      </trkpt>
      <trkpt lat="62.630276134658" lon="17.976370329527">
        <ele>105.4</ele>
        <time>2018-02-05T18:28:19Z</time>
      </trkpt>
      <trkpt lat="62.630283175454" lon="17.976311823865">
        <ele>105.4</ele>
        <time>2018-02-05T18:28:20Z</time>
      </trkpt>
      <trkpt lat="62.630291976449" lon="17.97625189328">
        <ele>105.2</ele>
        <time>2018-02-05T18:28:21Z</time>
      </trkpt>
      <trkpt lat="62.630304130204" lon="17.976186263003">
        <ele>105</ele>
        <time>2018-02-05T18:28:22Z</time>
      </trkpt>
      <trkpt lat="62.630315781045" lon="17.97613789944">
        <ele>104.8</ele>
        <time>2018-02-05T18:28:23Z</time>
      </trkpt>
      <trkpt lat="62.630333131578" lon="17.97607922614">
        <ele>104.8</ele>
        <time>2018-02-05T18:28:24Z</time>
      </trkpt>
      <trkpt lat="62.630347296989" lon="17.97602893474">
        <ele>104.6</ele>
        <time>2018-02-05T18:28:25Z</time>
      </trkpt>
      <trkpt lat="62.63035810964" lon="17.975971351087">
        <ele>104.6</ele>
        <time>2018-02-05T18:28:26Z</time>
      </trkpt>
      <trkpt lat="62.630373699974" lon="17.975911252864">
        <ele>104.4</ele>
        <time>2018-02-05T18:28:27Z</time>
      </trkpt>
      <trkpt lat="62.630384847901" lon="17.975855597048">
        <ele>104.4</ele>
        <time>2018-02-05T18:28:28Z</time>
      </trkpt>
      <trkpt lat="62.630399348588" lon="17.975803126354">
        <ele>104.4</ele>
        <time>2018-02-05T18:28:29Z</time>
      </trkpt>
      <trkpt lat="62.630416196207" lon="17.975746632348">
        <ele>104.4</ele>
        <time>2018-02-05T18:28:30Z</time>
      </trkpt>
      <trkpt lat="62.630431199808" lon="17.97569449693">
        <ele>104.2</ele>
        <time>2018-02-05T18:28:31Z</time>
      </trkpt>
      <trkpt lat="62.630446622504" lon="17.975642277693">
        <ele>104.2</ele>
        <time>2018-02-05T18:28:32Z</time>
      </trkpt>
      <trkpt lat="62.630459614449" lon="17.975591567198">
        <ele>104.2</ele>
        <time>2018-02-05T18:28:33Z</time>
      </trkpt>
      <trkpt lat="62.630473528403" lon="17.975535324649">
        <ele>104</ele>
        <time>2018-02-05T18:28:34Z</time>
      </trkpt>
      <trkpt lat="62.630487777633" lon="17.975486541991">
        <ele>103.8</ele>
        <time>2018-02-05T18:28:35Z</time>
      </trkpt>
      <trkpt lat="62.630501607768" lon="17.975428623062">
        <ele>103.8</ele>
        <time>2018-02-05T18:28:36Z</time>
      </trkpt>
      <trkpt lat="62.630517281921" lon="17.975373218703">
        <ele>103.8</ele>
        <time>2018-02-05T18:28:37Z</time>
      </trkpt>
      <trkpt lat="62.630530441504" lon="17.975318820172">
        <ele>103.8</ele>
        <time>2018-02-05T18:28:38Z</time>
      </trkpt>
      <trkpt lat="62.630541254155" lon="17.975266098021">
        <ele>103.6</ele>
        <time>2018-02-05T18:28:39Z</time>
      </trkpt>
      <trkpt lat="62.63055508429" lon="17.97521505225">
        <ele>103.4</ele>
        <time>2018-02-05T18:28:40Z</time>
      </trkpt>
      <trkpt lat="62.630568327692" lon="17.97516392266">
        <ele>103.4</ele>
        <time>2018-02-05T18:28:41Z</time>
      </trkpt>
      <trkpt lat="62.630580816723" lon="17.975102315695">
        <ele>103.2</ele>
        <time>2018-02-05T18:28:42Z</time>
      </trkpt>
      <trkpt lat="62.630595987962" lon="17.975045402594">
        <ele>103.2</ele>
        <time>2018-02-05T18:28:43Z</time>
      </trkpt>
      <trkpt lat="62.630610237192" lon="17.974996619936">
        <ele>103.2</ele>
        <time>2018-02-05T18:28:44Z</time>
      </trkpt>
      <trkpt lat="62.630624989336" lon="17.974945322708">
        <ele>103</ele>
        <time>2018-02-05T18:28:45Z</time>
      </trkpt>
      <trkpt lat="62.630640328213" lon="17.974888661064">
        <ele>103</ele>
        <time>2018-02-05T18:28:46Z</time>
      </trkpt>
      <trkpt lat="62.630651057045" lon="17.974842560614">
        <ele>103</ele>
        <time>2018-02-05T18:28:47Z</time>
      </trkpt>
      <trkpt lat="62.630665809189" lon="17.974790844291">
        <ele>102.8</ele>
        <time>2018-02-05T18:28:48Z</time>
      </trkpt>
      <trkpt lat="62.630676454202" lon="17.974734015009">
        <ele>102.6</ele>
        <time>2018-02-05T18:28:49Z</time>
      </trkpt>
      <trkpt lat="62.630685506654" lon="17.974682717781">
        <ele>102.6</ele>
        <time>2018-02-05T18:28:50Z</time>
      </trkpt>
      <trkpt lat="62.630702270454" lon="17.974623876843">
        <ele>102.4</ele>
        <time>2018-02-05T18:28:51Z</time>
      </trkpt>
      <trkpt lat="62.630714927123" lon="17.97457551328">
        <ele>102.4</ele>
        <time>2018-02-05T18:28:52Z</time>
      </trkpt>
      <trkpt lat="62.630730098362" lon="17.974525892432">
        <ele>102.4</ele>
        <time>2018-02-05T18:28:53Z</time>
      </trkpt>
      <trkpt lat="62.630745521058" lon="17.974462860544">
        <ele>102.4</ele>
        <time>2018-02-05T18:28:54Z</time>
      </trkpt>
      <trkpt lat="62.630755998433" lon="17.974407959099">
        <ele>102.2</ele>
        <time>2018-02-05T18:28:55Z</time>
      </trkpt>
      <trkpt lat="62.630775109165" lon="17.974353979663">
        <ele>102.4</ele>
        <time>2018-02-05T18:28:56Z</time>
      </trkpt>
      <trkpt lat="62.630792375879" lon="17.974303772082">
        <ele>102.4</ele>
        <time>2018-02-05T18:28:57Z</time>
      </trkpt>
      <trkpt lat="62.630808050032" lon="17.974247864809">
        <ele>102.2</ele>
        <time>2018-02-05T18:28:58Z</time>
      </trkpt>
      <trkpt lat="62.63082498147" lon="17.974196399943">
        <ele>102</ele>
        <time>2018-02-05T18:28:59Z</time>
      </trkpt>
      <trkpt lat="62.63083839251" lon="17.974149293665">
        <ele>102.2</ele>
        <time>2018-02-05T18:29:00Z</time>
      </trkpt>
      <trkpt lat="62.630853396111" lon="17.974090452727">
        <ele>102.2</ele>
        <time>2018-02-05T18:29:01Z</time>
      </trkpt>
      <trkpt lat="62.630869908454" lon="17.974039574594">
        <ele>102.2</ele>
        <time>2018-02-05T18:29:02Z</time>
      </trkpt>
      <trkpt lat="62.630881391657" lon="17.973996156352">
        <ele>102</ele>
        <time>2018-02-05T18:29:03Z</time>
      </trkpt>
      <trkpt lat="62.630897317267" lon="17.973946367866">
        <ele>102</ele>
        <time>2018-02-05T18:29:04Z</time>
      </trkpt>
      <trkpt lat="62.630898658371" lon="17.973897585208">
        <ele>102</ele>
        <time>2018-02-05T18:29:05Z</time>
      </trkpt>
      <trkpt lat="62.630896059982" lon="17.973849054007">
        <ele>101.8</ele>
        <time>2018-02-05T18:29:06Z</time>
      </trkpt>
      <trkpt lat="62.630875691965" lon="17.973789710155">
        <ele>101.8</ele>
        <time>2018-02-05T18:29:07Z</time>
      </trkpt>
      <trkpt lat="62.630853815206" lon="17.973728606104">
        <ele>101.6</ele>
        <time>2018-02-05T18:29:08Z</time>
      </trkpt>
      <trkpt lat="62.630837219044" lon="17.973679152894">
        <ele>101.6</ele>
        <time>2018-02-05T18:29:09Z</time>
      </trkpt>
      <trkpt lat="62.630822131624" lon="17.97362835858">
        <ele>101.6</ele>
        <time>2018-02-05T18:29:10Z</time>
      </trkpt>
      <trkpt lat="62.630809726412" lon="17.973580162655">
        <ele>101.6</ele>
        <time>2018-02-05T18:29:11Z</time>
      </trkpt>
      <trkpt lat="62.63079480663" lon="17.973528530151">
        <ele>101.8</ele>
        <time>2018-02-05T18:29:12Z</time>
      </trkpt>
      <trkpt lat="62.630779467753" lon="17.973472203783">
        <ele>101.6</ele>
        <time>2018-02-05T18:29:13Z</time>
      </trkpt>
      <trkpt lat="62.630764464152" lon="17.973428953179">
        <ele>101.4</ele>
        <time>2018-02-05T18:29:14Z</time>
      </trkpt>
      <trkpt lat="62.63075205894" lon="17.973384529109">
        <ele>101.4</ele>
        <time>2018-02-05T18:29:15Z</time>
      </trkpt>
      <trkpt lat="62.630734792226" lon="17.973324430886">
        <ele>101.4</ele>
        <time>2018-02-05T18:29:16Z</time>
      </trkpt>
      <trkpt lat="62.630718112245" lon="17.973287466707">
        <ele>101.4</ele>
        <time>2018-02-05T18:29:17Z</time>
      </trkpt>
      <trkpt lat="62.630699504427" lon="17.973231978529">
        <ele>101.2</ele>
        <time>2018-02-05T18:29:18Z</time>
      </trkpt>
      <trkpt lat="62.630687434491" lon="17.973181351853">
        <ele>101.2</ele>
        <time>2018-02-05T18:29:19Z</time>
      </trkpt>
      <trkpt lat="62.630676202745" lon="17.973142543656">
        <ele>101</ele>
        <time>2018-02-05T18:29:20Z</time>
      </trkpt>
      <trkpt lat="62.630660193316" lon="17.973084457089">
        <ele>101.2</ele>
        <time>2018-02-05T18:29:21Z</time>
      </trkpt>
      <trkpt lat="62.630644351525" lon="17.973040368295">
        <ele>101</ele>
        <time>2018-02-05T18:29:22Z</time>
      </trkpt>
      <trkpt lat="62.630634377064" lon="17.972997033872">
        <ele>100.8</ele>
        <time>2018-02-05T18:29:23Z</time>
      </trkpt>
      <trkpt lat="62.630618283816" lon="17.972938695848">
        <ele>100.8</ele>
        <time>2018-02-05T18:29:24Z</time>
      </trkpt>
      <trkpt lat="62.630604705138" lon="17.97289075138">
        <ele>100.6</ele>
        <time>2018-02-05T18:29:25Z</time>
      </trkpt>
      <trkpt lat="62.630586432596" lon="17.972835598478">
        <ele>100.6</ele>
        <time>2018-02-05T18:29:26Z</time>
      </trkpt>
      <trkpt lat="62.630571764271" lon="17.972784971802">
        <ele>100.4</ele>
        <time>2018-02-05T18:29:27Z</time>
      </trkpt>
      <trkpt lat="62.630558939964" lon="17.972733506936">
        <ele>100.2</ele>
        <time>2018-02-05T18:29:28Z</time>
      </trkpt>
      <trkpt lat="62.630547875856" lon="17.972679359862">
        <ele>100.2</ele>
        <time>2018-02-05T18:29:29Z</time>
      </trkpt>
      <trkpt lat="62.630535722101" lon="17.972627894996">
        <ele>100.2</ele>
        <time>2018-02-05T18:29:30Z</time>
      </trkpt>
      <trkpt lat="62.630526082916" lon="17.972567461497">
        <ele>100.2</ele>
        <time>2018-02-05T18:29:31Z</time>
      </trkpt>
      <trkpt lat="62.630516946645" lon="17.972510129301">
        <ele>100.2</ele>
        <time>2018-02-05T18:29:32Z</time>
      </trkpt>
      <trkpt lat="62.630506050175" lon="17.972463693575">
        <ele>100</ele>
        <time>2018-02-05T18:29:33Z</time>
      </trkpt>
      <trkpt lat="62.630499512293" lon="17.972396386918">
        <ele>100</ele>
        <time>2018-02-05T18:29:34Z</time>
      </trkpt>
      <trkpt lat="62.630496830085" lon="17.972345257328">
        <ele>100</ele>
        <time>2018-02-05T18:29:35Z</time>
      </trkpt>
      <trkpt lat="62.630483754321" lon="17.972277950671">
        <ele>100</ele>
        <time>2018-02-05T18:29:36Z</time>
      </trkpt>
      <trkpt lat="62.630474953326" lon="17.972214415869">
        <ele>99.8</ele>
        <time>2018-02-05T18:29:37Z</time>
      </trkpt>
      <trkpt lat="62.630469253634" lon="17.972163873012">
        <ele>99.8</ele>
        <time>2018-02-05T18:29:38Z</time>
      </trkpt>
      <trkpt lat="62.630462799571" lon="17.972100254391">
        <ele>99.8</ele>
        <time>2018-02-05T18:29:39Z</time>
      </trkpt>
      <trkpt lat="62.630452238377" lon="17.972042838376">
        <ele>99.8</ele>
        <time>2018-02-05T18:29:40Z</time>
      </trkpt>
      <trkpt lat="62.630439833165" lon="17.971990367682">
        <ele>99.6</ele>
        <time>2018-02-05T18:29:41Z</time>
      </trkpt>
      <trkpt lat="62.630432960007" lon="17.97192264193">
        <ele>99.6</ele>
        <time>2018-02-05T18:29:42Z</time>
      </trkpt>
      <trkpt lat="62.630428601419" lon="17.971868411037">
        <ele>99.6</ele>
        <time>2018-02-05T18:29:43Z</time>
      </trkpt>
      <trkpt lat="62.630413765456" lon="17.97180697171">
        <ele>99.8</ele>
        <time>2018-02-05T18:29:44Z</time>
      </trkpt>
      <trkpt lat="62.630408820135" lon="17.971748801324">
        <ele>99.6</ele>
        <time>2018-02-05T18:29:45Z</time>
      </trkpt>
      <trkpt lat="62.630399348588" lon="17.971692558775">
        <ele>99.4</ele>
        <time>2018-02-05T18:29:46Z</time>
      </trkpt>
      <trkpt lat="62.630396163466" lon="17.971640842452">
        <ele>99.4</ele>
        <time>2018-02-05T18:29:47Z</time>
      </trkpt>
      <trkpt lat="62.63038828448" lon="17.971573368157">
        <ele>99.4</ele>
        <time>2018-02-05T18:29:48Z</time>
      </trkpt>
      <trkpt lat="62.630381914236" lon="17.97151947254">
        <ele>99.2</ele>
        <time>2018-02-05T18:29:49Z</time>
      </trkpt>
      <trkpt lat="62.630380992227" lon="17.971466163656">
        <ele>99.2</ele>
        <time>2018-02-05T18:29:50Z</time>
      </trkpt>
      <trkpt lat="62.630373280879" lon="17.971397515895">
        <ele>99.2</ele>
        <time>2018-02-05T18:29:51Z</time>
      </trkpt>
      <trkpt lat="62.630371604499" lon="17.971338172043">
        <ele>99.2</ele>
        <time>2018-02-05T18:29:52Z</time>
      </trkpt>
      <trkpt lat="62.630366910635" lon="17.971276062164">
        <ele>99</ele>
        <time>2018-02-05T18:29:53Z</time>
      </trkpt>
      <trkpt lat="62.630365234255" lon="17.971210934801">
        <ele>99</ele>
        <time>2018-02-05T18:29:54Z</time>
      </trkpt>
      <trkpt lat="62.630366156264" lon="17.971154943709">
        <ele>99</ele>
        <time>2018-02-05T18:29:55Z</time>
      </trkpt>
      <trkpt lat="62.63036565335" lon="17.971089732527">
        <ele>99</ele>
        <time>2018-02-05T18:29:56Z</time>
      </trkpt>
      <trkpt lat="62.630360288934" lon="17.971031394503">
        <ele>98.8</ele>
        <time>2018-02-05T18:29:57Z</time>
      </trkpt>
      <trkpt lat="62.630356265622" lon="17.970966853873">
        <ele>99</ele>
        <time>2018-02-05T18:29:58Z</time>
      </trkpt>
      <trkpt lat="62.630355762708" lon="17.970908012935">
        <ele>98.8</ele>
        <time>2018-02-05T18:29:59Z</time>
      </trkpt>
      <trkpt lat="62.630354086328" lon="17.970849004359">
        <ele>98.6</ele>
        <time>2018-02-05T18:30:00Z</time>
      </trkpt>
      <trkpt lat="62.630357942002" lon="17.970783960815">
        <ele>98.8</ele>
        <time>2018-02-05T18:30:01Z</time>
      </trkpt>
      <trkpt lat="62.630366156264" lon="17.970725874248">
        <ele>98.8</ele>
        <time>2018-02-05T18:30:02Z</time>
      </trkpt>
      <trkpt lat="62.630373280879" lon="17.970674660839">
        <ele>98.6</ele>
        <time>2018-02-05T18:30:03Z</time>
      </trkpt>
      <trkpt lat="62.630391050507" lon="17.970615233168">
        <ele>98.6</ele>
        <time>2018-02-05T18:30:04Z</time>
      </trkpt>
      <trkpt lat="62.630405383556" lon="17.970562427198">
        <ele>98.6</ele>
        <time>2018-02-05T18:30:05Z</time>
      </trkpt>
      <trkpt lat="62.630420722433" lon="17.970535688937">
        <ele>98.6</ele>
        <time>2018-02-05T18:30:06Z</time>
      </trkpt>
      <trkpt lat="62.630451819282" lon="17.97046922047">
        <ele>98.6</ele>
        <time>2018-02-05T18:30:07Z</time>
      </trkpt>
      <trkpt lat="62.630476126792" lon="17.970430999006">
        <ele>98.6</ele>
        <time>2018-02-05T18:30:08Z</time>
      </trkpt>
      <trkpt lat="62.630496159533" lon="17.97039545975">
        <ele>98.2</ele>
        <time>2018-02-05T18:30:09Z</time>
      </trkpt>
      <trkpt lat="62.630519461215" lon="17.970359249942">
        <ele>98</ele>
        <time>2018-02-05T18:30:10Z</time>
      </trkpt>
      <trkpt lat="62.630543433449" lon="17.970333349871">
        <ele>97.4</ele>
        <time>2018-02-05T18:30:11Z</time>
      </trkpt>
      <trkpt lat="62.630571680452" lon="17.970310048189">
        <ele>97</ele>
        <time>2018-02-05T18:30:12Z</time>
      </trkpt>
      <trkpt lat="62.63060034655" lon="17.970292194742">
        <ele>96.6</ele>
        <time>2018-02-05T18:30:13Z</time>
      </trkpt>
      <trkpt lat="62.63062549225" lon="17.970282387919">
        <ele>96.4</ele>
        <time>2018-02-05T18:30:14Z</time>
      </trkpt>
      <trkpt lat="62.630649883579" lon="17.970272078182">
        <ele>96.2</ele>
        <time>2018-02-05T18:30:15Z</time>
      </trkpt>
      <trkpt lat="62.630677376211" lon="17.970258164228">
        <ele>96.2</ele>
        <time>2018-02-05T18:30:16Z</time>
      </trkpt>
      <trkpt lat="62.630705623214" lon="17.970243076808">
        <ele>96</ele>
        <time>2018-02-05T18:30:17Z</time>
      </trkpt>
      <trkpt lat="62.630734792226" lon="17.970227570293">
        <ele>96</ele>
        <time>2018-02-05T18:30:18Z</time>
      </trkpt>
      <trkpt lat="62.630764128876" lon="17.970210806493">
        <ele>96</ele>
        <time>2018-02-05T18:30:19Z</time>
      </trkpt>
      <trkpt lat="62.6307889393" lon="17.970197395453">
        <ele>95.8</ele>
        <time>2018-02-05T18:30:20Z</time>
      </trkpt>
      <trkpt lat="62.630820622882" lon="17.970188175363">
        <ele>95.6</ele>
        <time>2018-02-05T18:30:21Z</time>
      </trkpt>
      <trkpt lat="62.630850294808" lon="17.970176273065">
        <ele>95.6</ele>
        <time>2018-02-05T18:30:22Z</time>
      </trkpt>
      <trkpt lat="62.630897568724" lon="17.970162275292">
        <ele>95.4</ele>
        <time>2018-02-05T18:30:24Z</time>
      </trkpt>
      <trkpt lat="62.630931180143" lon="17.970133441556">
        <ele>95.4</ele>
        <time>2018-02-05T18:30:25Z</time>
      </trkpt>
      <trkpt lat="62.630958337499" lon="17.970115588109">
        <ele>95.2</ele>
        <time>2018-02-05T18:30:26Z</time>
      </trkpt>
      <trkpt lat="62.630984572846" lon="17.970095723006">
        <ele>95.2</ele>
        <time>2018-02-05T18:30:27Z</time>
      </trkpt>
      <trkpt lat="62.631010389098" lon="17.970080970862">
        <ele>95.2</ele>
        <time>2018-02-05T18:30:28Z</time>
      </trkpt>
      <trkpt lat="62.631036959721" lon="17.970071331677">
        <ele>95.2</ele>
        <time>2018-02-05T18:30:29Z</time>
      </trkpt>
      <trkpt lat="62.63106805657" lon="17.970058004456">
        <ele>95.2</ele>
        <time>2018-02-05T18:30:30Z</time>
      </trkpt>
      <trkpt lat="62.631099656333" lon="17.970039899552">
        <ele>95</ele>
        <time>2018-02-05T18:30:31Z</time>
      </trkpt>
      <trkpt lat="62.631130334087" lon="17.97001995063">
        <ele>95.2</ele>
        <time>2018-02-05T18:30:32Z</time>
      </trkpt>
      <trkpt lat="62.63115355195" lon="17.96999815769">
        <ele>95</ele>
        <time>2018-02-05T18:30:33Z</time>
      </trkpt>
      <trkpt lat="62.631181715134" lon="17.969984411374">
        <ele>94.8</ele>
        <time>2018-02-05T18:30:34Z</time>
      </trkpt>
      <trkpt lat="62.631210632689" lon="17.969959181855">
        <ele>94.8</ele>
        <time>2018-02-05T18:30:35Z</time>
      </trkpt>
      <trkpt lat="62.631238292959" lon="17.969934706707">
        <ele>94.6</ele>
        <time>2018-02-05T18:30:36Z</time>
      </trkpt>
      <trkpt lat="62.631269892722" lon="17.969921379486">
        <ele>94.6</ele>
        <time>2018-02-05T18:30:37Z</time>
      </trkpt>
      <trkpt lat="62.631294954603" lon="17.969909644826">
        <ele>94.4</ele>
        <time>2018-02-05T18:30:38Z</time>
      </trkpt>
      <trkpt lat="62.631320770855" lon="17.969897239614">
        <ele>94.6</ele>
        <time>2018-02-05T18:30:39Z</time>
      </trkpt>
      <trkpt lat="62.631347676754" lon="17.969884666764">
        <ele>94.4</ele>
        <time>2018-02-05T18:30:40Z</time>
      </trkpt>
      <trkpt lat="62.631372822454" lon="17.969872261552">
        <ele>94.4</ele>
        <time>2018-02-05T18:30:41Z</time>
      </trkpt>
      <trkpt lat="62.631405176588" lon="17.969861281263">
        <ele>94.2</ele>
        <time>2018-02-05T18:30:42Z</time>
      </trkpt>
      <trkpt lat="62.631431076659" lon="17.969861951815">
        <ele>94.4</ele>
        <time>2018-02-05T18:30:43Z</time>
      </trkpt>
      <trkpt lat="62.631457060549" lon="17.969840158875">
        <ele>94.4</ele>
        <time>2018-02-05T18:30:44Z</time>
      </trkpt>
      <trkpt lat="62.631483212077" lon="17.969824736179">
        <ele>94.2</ele>
        <time>2018-02-05T18:30:45Z</time>
      </trkpt>
      <trkpt lat="62.631524115749" lon="17.969796572995">
        <ele>94.4</ele>
        <time>2018-02-05T18:30:46Z</time>
      </trkpt>
      <trkpt lat="62.631551273105" lon="17.969778132815">
        <ele>94.4</ele>
        <time>2018-02-05T18:30:47Z</time>
      </trkpt>
      <trkpt lat="62.631579771565" lon="17.969758854445">
        <ele>94.4</ele>
        <time>2018-02-05T18:30:48Z</time>
      </trkpt>
      <trkpt lat="62.63160533636" lon="17.969742425921">
        <ele>94.2</ele>
        <time>2018-02-05T18:30:49Z</time>
      </trkpt>
      <trkpt lat="62.631635762657" lon="17.969719459515">
        <ele>94.2</ele>
        <time>2018-02-05T18:30:50Z</time>
      </trkpt>
      <trkpt lat="62.63166233328" lon="17.969695068186">
        <ele>94.2</ele>
        <time>2018-02-05T18:30:51Z</time>
      </trkpt>
      <trkpt lat="62.631688484808" lon="17.969670760676">
        <ele>94.2</ele>
        <time>2018-02-05T18:30:52Z</time>
      </trkpt>
      <trkpt lat="62.631716983268" lon="17.969642597492">
        <ele>94</ele>
        <time>2018-02-05T18:30:53Z</time>
      </trkpt>
      <trkpt lat="62.631740620226" lon="17.969618625258">
        <ele>93.8</ele>
        <time>2018-02-05T18:30:54Z</time>
      </trkpt>
      <trkpt lat="62.631768699591" lon="17.969591886997">
        <ele>93.8</ele>
        <time>2018-02-05T18:30:55Z</time>
      </trkpt>
      <trkpt lat="62.631794264386" lon="17.969575039378">
        <ele>93.4</ele>
        <time>2018-02-05T18:30:56Z</time>
      </trkpt>
      <trkpt lat="62.631821337923" lon="17.969563220899">
        <ele>93.4</ele>
        <time>2018-02-05T18:30:57Z</time>
      </trkpt>
      <trkpt lat="62.631846148347" lon="17.96955810794">
        <ele>93.4</ele>
        <time>2018-02-05T18:30:58Z</time>
      </trkpt>
      <trkpt lat="62.631871210228" lon="17.969553330257">
        <ele>93.4</ele>
        <time>2018-02-05T18:30:59Z</time>
      </trkpt>
      <trkpt lat="62.631900043964" lon="17.969551570058">
        <ele>93.2</ele>
        <time>2018-02-05T18:31:00Z</time>
      </trkpt>
      <trkpt lat="62.63192636313" lon="17.969548552574">
        <ele>93.4</ele>
        <time>2018-02-05T18:31:01Z</time>
      </trkpt>
      <trkpt lat="62.631951005916" lon="17.969539248665">
        <ele>93.6</ele>
        <time>2018-02-05T18:31:02Z</time>
      </trkpt>
      <trkpt lat="62.631981935127" lon="17.969534890077">
        <ele>93.4</ele>
        <time>2018-02-05T18:31:03Z</time>
      </trkpt>
      <trkpt lat="62.632003811886" lon="17.969527849281">
        <ele>93.4</ele>
        <time>2018-02-05T18:31:04Z</time>
      </trkpt>
      <trkpt lat="62.632031388337" lon="17.969516868992">
        <ele>93.6</ele>
        <time>2018-02-05T18:31:05Z</time>
      </trkpt>
      <trkpt lat="62.632059802978" lon="17.969509744377">
        <ele>93.6</ele>
        <time>2018-02-05T18:31:06Z</time>
      </trkpt>
      <trkpt lat="62.632086122144" lon="17.969502871219">
        <ele>93.6</ele>
        <time>2018-02-05T18:31:07Z</time>
      </trkpt>
      <trkpt lat="62.63211244131" lon="17.969498261174">
        <ele>93.8</ele>
        <time>2018-02-05T18:31:08Z</time>
      </trkpt>
      <trkpt lat="62.632138760476" lon="17.969489711636">
        <ele>93.8</ele>
        <time>2018-02-05T18:31:09Z</time>
      </trkpt>
      <trkpt lat="62.632165498737" lon="17.969477893157">
        <ele>93.8</ele>
        <time>2018-02-05T18:31:10Z</time>
      </trkpt>
      <trkpt lat="62.632195170663" lon="17.969470600904">
        <ele>93.8</ele>
        <time>2018-02-05T18:31:11Z</time>
      </trkpt>
      <trkpt lat="62.632222328019" lon="17.969470181809">
        <ele>94</ele>
        <time>2018-02-05T18:31:12Z</time>
      </trkpt>
      <trkpt lat="62.632249569194" lon="17.969470181809">
        <ele>94</ele>
        <time>2018-02-05T18:31:13Z</time>
      </trkpt>
      <trkpt lat="62.632277313283" lon="17.96947596532">
        <ele>94</ele>
        <time>2018-02-05T18:31:14Z</time>
      </trkpt>
      <trkpt lat="62.63231025415" lon="17.969472277284">
        <ele>94</ele>
        <time>2018-02-05T18:31:15Z</time>
      </trkpt>
      <trkpt lat="62.632336405678" lon="17.969471271456">
        <ele>93.8</ele>
        <time>2018-02-05T18:31:16Z</time>
      </trkpt>
      <trkpt lat="62.632364987957" lon="17.96947428894">
        <ele>93.8</ele>
        <time>2018-02-05T18:31:17Z</time>
      </trkpt>
      <trkpt lat="62.632393318779" lon="17.969475713863">
        <ele>93.8</ele>
        <time>2018-02-05T18:31:18Z</time>
      </trkpt>
      <trkpt lat="62.632420224678" lon="17.969475378587">
        <ele>93.8</ele>
        <time>2018-02-05T18:31:19Z</time>
      </trkpt>
      <trkpt lat="62.632449142233" lon="17.969474037483">
        <ele>93.8</ele>
        <time>2018-02-05T18:31:20Z</time>
      </trkpt>
      <trkpt lat="62.63247621577" lon="17.969473199293">
        <ele>94</ele>
        <time>2018-02-05T18:31:21Z</time>
      </trkpt>
      <trkpt lat="62.632502367298" lon="17.969476216777">
        <ele>93.8</ele>
        <time>2018-02-05T18:31:22Z</time>
      </trkpt>
      <trkpt lat="62.632532542138" lon="17.969483592849">
        <ele>93.8</ele>
        <time>2018-02-05T18:31:23Z</time>
      </trkpt>
      <trkpt lat="62.632557352562" lon="17.969485520686">
        <ele>94</ele>
        <time>2018-02-05T18:31:24Z</time>
      </trkpt>
      <trkpt lat="62.632587443583" lon="17.969490046912">
        <ele>94</ele>
        <time>2018-02-05T18:31:25Z</time>
      </trkpt>
      <trkpt lat="62.632615020034" lon="17.969495411328">
        <ele>93.8</ele>
        <time>2018-02-05T18:31:26Z</time>
      </trkpt>
      <trkpt lat="62.632641590657" lon="17.969496668613">
        <ele>93.8</ele>
        <time>2018-02-05T18:31:27Z</time>
      </trkpt>
      <trkpt lat="62.632666736357" lon="17.969501027201">
        <ele>94</ele>
        <time>2018-02-05T18:31:28Z</time>
      </trkpt>
      <trkpt lat="62.632691043867" lon="17.969503793228">
        <ele>94</ele>
        <time>2018-02-05T18:31:29Z</time>
      </trkpt>
      <trkpt lat="62.632716692481" lon="17.96950697835">
        <ele>94</ele>
        <time>2018-02-05T18:31:30Z</time>
      </trkpt>
      <trkpt lat="62.632740832353" lon="17.969512761861">
        <ele>94</ele>
        <time>2018-02-05T18:31:31Z</time>
      </trkpt>
      <trkpt lat="62.632763212026" lon="17.969515946983">
        <ele>94</ele>
        <time>2018-02-05T18:31:32Z</time>
      </trkpt>
      <trkpt lat="62.632789363554" lon="17.969523490693">
        <ele>94.2</ele>
        <time>2018-02-05T18:31:33Z</time>
      </trkpt>
      <trkpt lat="62.632813922521" lon="17.969527262548">
        <ele>94.2</ele>
        <time>2018-02-05T18:31:34Z</time>
      </trkpt>
      <trkpt lat="62.632843845904" lon="17.969526843453">
        <ele>94.2</ele>
        <time>2018-02-05T18:31:35Z</time>
      </trkpt>
      <trkpt lat="62.632870919441" lon="17.969527514005">
        <ele>94.4</ele>
        <time>2018-02-05T18:31:36Z</time>
      </trkpt>
      <trkpt lat="62.632897573883" lon="17.969532626964">
        <ele>94.4</ele>
        <time>2018-02-05T18:31:37Z</time>
      </trkpt>
      <trkpt lat="62.632923976868" lon="17.969531621136">
        <ele>94.6</ele>
        <time>2018-02-05T18:31:38Z</time>
      </trkpt>
      <trkpt lat="62.632950715129" lon="17.969533884249">
        <ele>94.6</ele>
        <time>2018-02-05T18:31:39Z</time>
      </trkpt>
      <trkpt lat="62.632978962132" lon="17.969534722439">
        <ele>94.8</ele>
        <time>2018-02-05T18:31:40Z</time>
      </trkpt>
      <trkpt lat="62.633009136972" lon="17.96953799138">
        <ele>95</ele>
        <time>2018-02-05T18:31:41Z</time>
      </trkpt>
      <trkpt lat="62.633037300156" lon="17.969550396592">
        <ele>95</ele>
        <time>2018-02-05T18:31:42Z</time>
      </trkpt>
      <trkpt lat="62.633063032589" lon="17.969561712157">
        <ele>95</ele>
        <time>2018-02-05T18:31:43Z</time>
      </trkpt>
      <trkpt lat="62.633087172461" lon="17.969574620283">
        <ele>95</ele>
        <time>2018-02-05T18:31:44Z</time>
      </trkpt>
      <trkpt lat="62.633115503283" lon="17.969590964988">
        <ele>95</ele>
        <time>2018-02-05T18:31:45Z</time>
      </trkpt>
      <trkpt lat="62.633138302051" lon="17.969601023268">
        <ele>95</ele>
        <time>2018-02-05T18:31:46Z</time>
      </trkpt>
      <trkpt lat="62.633165794683" lon="17.969611165367">
        <ele>95</ele>
        <time>2018-02-05T18:31:47Z</time>
      </trkpt>
      <trkpt lat="62.633192784401" lon="17.969626671882">
        <ele>95</ele>
        <time>2018-02-05T18:31:48Z</time>
      </trkpt>
      <trkpt lat="62.633216588997" lon="17.969638406542">
        <ele>95</ele>
        <time>2018-02-05T18:31:49Z</time>
      </trkpt>
      <trkpt lat="62.633243327258" lon="17.969658439283">
        <ele>95</ele>
        <time>2018-02-05T18:31:50Z</time>
      </trkpt>
      <trkpt lat="62.633267634768" lon="17.969678388205">
        <ele>95.2</ele>
        <time>2018-02-05T18:31:51Z</time>
      </trkpt>
      <trkpt lat="62.633289595346" lon="17.969702695715">
        <ele>95</ele>
        <time>2018-02-05T18:31:52Z</time>
      </trkpt>
      <trkpt lat="62.633309544268" lon="17.969735720401">
        <ele>95.2</ele>
        <time>2018-02-05T18:31:53Z</time>
      </trkpt>
      <trkpt lat="62.633330499018" lon="17.969777043168">
        <ele>95.2</ele>
        <time>2018-02-05T18:31:54Z</time>
      </trkpt>
      <trkpt lat="62.633348352465" lon="17.969821215781">
        <ele>95.4</ele>
        <time>2018-02-05T18:31:55Z</time>
      </trkpt>
      <trkpt lat="62.633361931143" lon="17.969870166077">
        <ele>95.4</ele>
        <time>2018-02-05T18:31:56Z</time>
      </trkpt>
      <trkpt lat="62.633372492337" lon="17.969917188536">
        <ele>95.4</ele>
        <time>2018-02-05T18:31:57Z</time>
      </trkpt>
      <trkpt lat="62.63337978459" lon="17.96996546828">
        <ele>95.4</ele>
        <time>2018-02-05T18:31:58Z</time>
      </trkpt>
      <trkpt lat="62.633383053531" lon="17.970018693345">
        <ele>95.6</ele>
        <time>2018-02-05T18:31:59Z</time>
      </trkpt>
      <trkpt lat="62.633385232825" lon="17.970072253686">
        <ele>95.6</ele>
        <time>2018-02-05T18:32:00Z</time>
      </trkpt>
      <trkpt lat="62.633389172318" lon="17.970128580054">
        <ele>95.8</ele>
        <time>2018-02-05T18:32:01Z</time>
      </trkpt>
      <trkpt lat="62.633393614725" lon="17.970176524522">
        <ele>96</ele>
        <time>2018-02-05T18:32:02Z</time>
      </trkpt>
      <trkpt lat="62.633398057132" lon="17.97022949813">
        <ele>96.2</ele>
        <time>2018-02-05T18:32:03Z</time>
      </trkpt>
      <trkpt lat="62.633400990797" lon="17.970275514761">
        <ele>96.2</ele>
        <time>2018-02-05T18:32:04Z</time>
      </trkpt>
      <trkpt lat="62.633406355213" lon="17.970335277708">
        <ele>96.2</ele>
        <time>2018-02-05T18:32:05Z</time>
      </trkpt>
      <trkpt lat="62.633409791792" lon="17.970387329307">
        <ele>96.6</ele>
        <time>2018-02-05T18:32:06Z</time>
      </trkpt>
      <trkpt lat="62.633410546163" lon="17.970441476381">
        <ele>96.6</ele>
        <time>2018-02-05T18:32:07Z</time>
      </trkpt>
      <trkpt lat="62.633412976914" lon="17.970493611799">
        <ele>96.6</ele>
        <time>2018-02-05T18:32:08Z</time>
      </trkpt>
      <trkpt lat="62.63341582676" lon="17.97054381938">
        <ele>96.6</ele>
        <time>2018-02-05T18:32:09Z</time>
      </trkpt>
      <trkpt lat="62.633416916407" lon="17.970598972282">
        <ele>96.8</ele>
        <time>2018-02-05T18:32:10Z</time>
      </trkpt>
      <trkpt lat="62.633420269167" lon="17.970654879555">
        <ele>97</ele>
        <time>2018-02-05T18:32:11Z</time>
      </trkpt>
      <trkpt lat="62.633423957203" lon="17.970709613362">
        <ele>97</ele>
        <time>2018-02-05T18:32:12Z</time>
      </trkpt>
      <trkpt lat="62.633427142325" lon="17.970764514807">
        <ele>97</ele>
        <time>2018-02-05T18:32:13Z</time>
      </trkpt>
      <trkpt lat="62.63343007599" lon="17.970813800379">
        <ele>97.2</ele>
        <time>2018-02-05T18:32:14Z</time>
      </trkpt>
      <trkpt lat="62.633432842017" lon="17.970875407344">
        <ele>97.2</ele>
        <time>2018-02-05T18:32:15Z</time>
      </trkpt>
      <trkpt lat="62.633435524225" lon="17.970928464771">
        <ele>97.4</ele>
        <time>2018-02-05T18:32:16Z</time>
      </trkpt>
      <trkpt lat="62.633437703519" lon="17.970982947121">
        <ele>97.4</ele>
        <time>2018-02-05T18:32:17Z</time>
      </trkpt>
      <trkpt lat="62.633438374071" lon="17.971042793887">
        <ele>97.4</ele>
        <time>2018-02-05T18:32:18Z</time>
      </trkpt>
      <trkpt lat="62.633439547537" lon="17.971092917649">
        <ele>97.6</ele>
        <time>2018-02-05T18:32:19Z</time>
      </trkpt>
      <trkpt lat="62.633440553365" lon="17.971148824922">
        <ele>97.6</ele>
        <time>2018-02-05T18:32:20Z</time>
      </trkpt>
      <trkpt lat="62.633440050451" lon="17.97120347491">
        <ele>97.8</ele>
        <time>2018-02-05T18:32:21Z</time>
      </trkpt>
      <trkpt lat="62.633441559193" lon="17.971254017767">
        <ele>98</ele>
        <time>2018-02-05T18:32:22Z</time>
      </trkpt>
      <trkpt lat="62.633441978288" lon="17.971314032171">
        <ele>98.2</ele>
        <time>2018-02-05T18:32:23Z</time>
      </trkpt>
      <trkpt lat="62.633441056279" lon="17.97136692196">
        <ele>98.2</ele>
        <time>2018-02-05T18:32:24Z</time>
      </trkpt>
      <trkpt lat="62.633439379899" lon="17.971424086518">
        <ele>98.4</ele>
        <time>2018-02-05T18:32:25Z</time>
      </trkpt>
      <trkpt lat="62.633436697691" lon="17.971481502533">
        <ele>98.4</ele>
        <time>2018-02-05T18:32:26Z</time>
      </trkpt>
      <trkpt lat="62.633433512569" lon="17.971536320159">
        <ele>98.6</ele>
        <time>2018-02-05T18:32:27Z</time>
      </trkpt>
      <trkpt lat="62.633431333275" lon="17.971584348446">
        <ele>98.8</ele>
        <time>2018-02-05T18:32:28Z</time>
      </trkpt>
      <trkpt lat="62.633427477601" lon="17.97163933371">
        <ele>98.8</ele>
        <time>2018-02-05T18:32:29Z</time>
      </trkpt>
      <trkpt lat="62.633423035194" lon="17.971693061689">
        <ele>98.8</ele>
        <time>2018-02-05T18:32:30Z</time>
      </trkpt>
      <trkpt lat="62.633420101529" lon="17.97174746022">
        <ele>98.8</ele>
        <time>2018-02-05T18:32:31Z</time>
      </trkpt>
      <trkpt lat="62.633416581131" lon="17.97180110438">
        <ele>99</ele>
        <time>2018-02-05T18:32:32Z</time>
      </trkpt>
      <trkpt lat="62.633412306362" lon="17.97185726311">
        <ele>99</ele>
        <time>2018-02-05T18:32:33Z</time>
      </trkpt>
      <trkpt lat="62.633407612498" lon="17.971903782655">
        <ele>99</ele>
        <time>2018-02-05T18:32:34Z</time>
      </trkpt>
      <trkpt lat="62.633399984969" lon="17.971963294145">
        <ele>99.2</ele>
        <time>2018-02-05T18:32:35Z</time>
      </trkpt>
      <trkpt lat="62.633392441259" lon="17.972016100115">
        <ele>99.2</ele>
        <time>2018-02-05T18:32:36Z</time>
      </trkpt>
      <trkpt lat="62.63338565192" lon="17.972069995732">
        <ele>99.4</ele>
        <time>2018-02-05T18:32:37Z</time>
      </trkpt>
      <trkpt lat="62.633378527305" lon="17.972122047331">
        <ele>99.6</ele>
        <time>2018-02-05T18:32:38Z</time>
      </trkpt>
      <trkpt lat="62.633372324699" lon="17.972171249084">
        <ele>99.6</ele>
        <time>2018-02-05T18:32:39Z</time>
      </trkpt>
      <trkpt lat="62.633362769333" lon="17.972223887416">
        <ele>99.6</ele>
        <time>2018-02-05T18:32:40Z</time>
      </trkpt>
      <trkpt lat="62.633352878691" lon="17.972278788861">
        <ele>99.8</ele>
        <time>2018-02-05T18:32:41Z</time>
      </trkpt>
      <trkpt lat="62.633342820411" lon="17.972328661166">
        <ele>99.8</ele>
        <time>2018-02-05T18:32:42Z</time>
      </trkpt>
      <trkpt lat="62.633331253389" lon="17.972378365833">
        <ele>99.8</ele>
        <time>2018-02-05T18:32:43Z</time>
      </trkpt>
      <trkpt lat="62.633322284756" lon="17.972423628093">
        <ele>99.8</ele>
        <time>2018-02-05T18:32:44Z</time>
      </trkpt>
      <trkpt lat="62.633312897028" lon="17.972476517882">
        <ele>100</ele>
        <time>2018-02-05T18:32:45Z</time>
      </trkpt>
      <trkpt lat="62.633303760757" lon="17.972525216721">
        <ele>100.2</ele>
        <time>2018-02-05T18:32:46Z</time>
      </trkpt>
      <trkpt lat="62.63329428921" lon="17.972573580284">
        <ele>100.2</ele>
        <time>2018-02-05T18:32:47Z</time>
      </trkpt>
      <trkpt lat="62.633284650025" lon="17.972626470073">
        <ele>100.2</ele>
        <time>2018-02-05T18:32:48Z</time>
      </trkpt>
      <trkpt lat="62.633275346116" lon="17.972674246903">
        <ele>100.4</ele>
        <time>2018-02-05T18:32:49Z</time>
      </trkpt>
      <trkpt lat="62.633265623112" lon="17.972726969054">
        <ele>100.4</ele>
        <time>2018-02-05T18:32:50Z</time>
      </trkpt>
      <trkpt lat="62.633255397194" lon="17.972778350101">
        <ele>100.4</ele>
        <time>2018-02-05T18:32:51Z</time>
      </trkpt>
      <trkpt lat="62.633245171276" lon="17.972825959293">
        <ele>100.6</ele>
        <time>2018-02-05T18:32:52Z</time>
      </trkpt>
      <trkpt lat="62.63323393953" lon="17.972878849082">
        <ele>100.6</ele>
        <time>2018-02-05T18:32:53Z</time>
      </trkpt>
      <trkpt lat="62.633222875422" lon="17.972925200989">
        <ele>100.8</ele>
        <time>2018-02-05T18:32:54Z</time>
      </trkpt>
      <trkpt lat="62.633212481866" lon="17.972975995303">
        <ele>100.8</ele>
        <time>2018-02-05T18:32:55Z</time>
      </trkpt>
      <trkpt lat="62.633204267604" lon="17.973027124893">
        <ele>100.8</ele>
        <time>2018-02-05T18:32:56Z</time>
      </trkpt>
      <trkpt lat="62.633194460781" lon="17.973079511768">
        <ele>101</ele>
        <time>2018-02-05T18:32:57Z</time>
      </trkpt>
      <trkpt lat="62.633185911243" lon="17.97312628277">
        <ele>101</ele>
        <time>2018-02-05T18:32:58Z</time>
      </trkpt>
      <trkpt lat="62.63317526623" lon="17.973175400704">
        <ele>101.2</ele>
        <time>2018-02-05T18:32:59Z</time>
      </trkpt>
      <trkpt lat="62.633160681724" lon="17.973226362656">
        <ele>101.2</ele>
        <time>2018-02-05T18:33:00Z</time>
      </trkpt>
      <trkpt lat="62.633148695607" lon="17.973274055667">
        <ele>101.2</ele>
        <time>2018-02-05T18:33:01Z</time>
      </trkpt>
      <trkpt lat="62.633136793309" lon="17.973320826669">
        <ele>101.4</ele>
        <time>2018-02-05T18:33:02Z</time>
      </trkpt>
      <trkpt lat="62.633123633726" lon="17.973374051734">
        <ele>101.6</ele>
        <time>2018-02-05T18:33:03Z</time>
      </trkpt>
      <trkpt lat="62.633113743084" lon="17.973417805252">
        <ele>101.8</ele>
        <time>2018-02-05T18:33:04Z</time>
      </trkpt>
      <trkpt lat="62.633102427519" lon="17.973465162987">
        <ele>101.8</ele>
        <time>2018-02-05T18:33:05Z</time>
      </trkpt>
      <trkpt lat="62.633089100298" lon="17.973525428848">
        <ele>101.8</ele>
        <time>2018-02-05T18:33:06Z</time>
      </trkpt>
      <trkpt lat="62.633078455285" lon="17.973571194022">
        <ele>101.8</ele>
        <time>2018-02-05T18:33:07Z</time>
      </trkpt>
      <trkpt lat="62.63306713972" lon="17.973620647232">
        <ele>101.8</ele>
        <time>2018-02-05T18:33:08Z</time>
      </trkpt>
      <trkpt lat="62.633057249078" lon="17.973667585872">
        <ele>102</ele>
        <time>2018-02-05T18:33:09Z</time>
      </trkpt>
      <trkpt lat="62.633046604065" lon="17.97371720672">
        <ele>102</ele>
        <time>2018-02-05T18:33:10Z</time>
      </trkpt>
      <trkpt lat="62.633035707595" lon="17.973776047658">
        <ele>102.2</ele>
        <time>2018-02-05T18:33:11Z</time>
      </trkpt>
      <trkpt lat="62.633027074238" lon="17.97383371513">
        <ele>102.4</ele>
        <time>2018-02-05T18:33:12Z</time>
      </trkpt>
      <trkpt lat="62.633017435053" lon="17.973888281299">
        <ele>102.4</ele>
        <time>2018-02-05T18:33:13Z</time>
      </trkpt>
      <trkpt lat="62.633006706221" lon="17.973934968482">
        <ele>102.6</ele>
        <time>2018-02-05T18:33:14Z</time>
      </trkpt>
      <trkpt lat="62.632993798095" lon="17.973985008425">
        <ele>102.6</ele>
        <time>2018-02-05T18:33:15Z</time>
      </trkpt>
      <trkpt lat="62.632981560521" lon="17.97402817521">
        <ele>102.8</ele>
        <time>2018-02-05T18:33:16Z</time>
      </trkpt>
      <trkpt lat="62.632968903852" lon="17.97407511385">
        <ele>102.8</ele>
        <time>2018-02-05T18:33:17Z</time>
      </trkpt>
      <trkpt lat="62.632955911907" lon="17.974123225956">
        <ele>102.8</ele>
        <time>2018-02-05T18:33:18Z</time>
      </trkpt>
      <trkpt lat="62.632942752324" lon="17.97416731475">
        <ele>103</ele>
        <time>2018-02-05T18:33:19Z</time>
      </trkpt>
      <trkpt lat="62.632929089827" lon="17.974219701625">
        <ele>103</ele>
        <time>2018-02-05T18:33:20Z</time>
      </trkpt>
      <trkpt lat="62.632917271348" lon="17.974271920862">
        <ele>103</ele>
        <time>2018-02-05T18:33:21Z</time>
      </trkpt>
      <trkpt lat="62.632904782317" lon="17.974322966633">
        <ele>103</ele>
        <time>2018-02-05T18:33:22Z</time>
      </trkpt>
      <trkpt lat="62.632891455096" lon="17.97437686225">
        <ele>103.2</ele>
        <time>2018-02-05T18:33:23Z</time>
      </trkpt>
      <trkpt lat="62.632880055712" lon="17.974425644908">
        <ele>103.2</ele>
        <time>2018-02-05T18:33:24Z</time>
      </trkpt>
      <trkpt lat="62.632866728491" lon="17.974481719819">
        <ele>103.2</ele>
        <time>2018-02-05T18:33:25Z</time>
      </trkpt>
      <trkpt lat="62.632855748202" lon="17.974536369807">
        <ele>103.2</ele>
        <time>2018-02-05T18:33:26Z</time>
      </trkpt>
      <trkpt lat="62.632841582791" lon="17.974588672863">
        <ele>103.2</ele>
        <time>2018-02-05T18:33:27Z</time>
      </trkpt>
      <trkpt lat="62.632827585018" lon="17.974637036426">
        <ele>103.2</ele>
        <time>2018-02-05T18:33:28Z</time>
      </trkpt>
      <trkpt lat="62.632815263625" lon="17.974690010034">
        <ele>103.4</ele>
        <time>2018-02-05T18:33:29Z</time>
      </trkpt>
      <trkpt lat="62.632802439318" lon="17.974749186248">
        <ele>103.4</ele>
        <time>2018-02-05T18:33:30Z</time>
      </trkpt>
      <trkpt lat="62.632789363554" lon="17.974803920055">
        <ele>103.4</ele>
        <time>2018-02-05T18:33:31Z</time>
      </trkpt>
      <trkpt lat="62.632776958342" lon="17.974850355781">
        <ele>103.4</ele>
        <time>2018-02-05T18:33:32Z</time>
      </trkpt>
      <trkpt lat="62.632761619465" lon="17.974903329389">
        <ele>103.6</ele>
        <time>2018-02-05T18:33:33Z</time>
      </trkpt>
      <trkpt lat="62.632747873149" lon="17.974951776771">
        <ele>103.6</ele>
        <time>2018-02-05T18:33:34Z</time>
      </trkpt>
      <trkpt lat="62.632736809041" lon="17.975004247465">
        <ele>103.6</ele>
        <time>2018-02-05T18:33:35Z</time>
      </trkpt>
      <trkpt lat="62.63272432001" lon="17.975058143082">
        <ele>103.6</ele>
        <time>2018-02-05T18:33:36Z</time>
      </trkpt>
      <trkpt lat="62.63271174716" lon="17.975112290156">
        <ele>103.6</ele>
        <time>2018-02-05T18:33:37Z</time>
      </trkpt>
      <trkpt lat="62.632699006672" lon="17.975161659547">
        <ele>103.6</ele>
        <time>2018-02-05T18:33:38Z</time>
      </trkpt>
      <trkpt lat="62.632686014727" lon="17.97521169949">
        <ele>103.6</ele>
        <time>2018-02-05T18:33:39Z</time>
      </trkpt>
      <trkpt lat="62.632673609515" lon="17.975264002546">
        <ele>103.8</ele>
        <time>2018-02-05T18:33:40Z</time>
      </trkpt>
      <trkpt lat="62.632661288122" lon="17.975317646706">
        <ele>103.8</ele>
        <time>2018-02-05T18:33:41Z</time>
      </trkpt>
      <trkpt lat="62.632648296177" lon="17.975370620314">
        <ele>103.6</ele>
        <time>2018-02-05T18:33:42Z</time>
      </trkpt>
      <trkpt lat="62.632636980612" lon="17.975420827895">
        <ele>103.6</ele>
        <time>2018-02-05T18:33:43Z</time>
      </trkpt>
      <trkpt lat="62.632626084142" lon="17.975467598897">
        <ele>103.8</ele>
        <time>2018-02-05T18:33:44Z</time>
      </trkpt>
      <trkpt lat="62.63261116436" lon="17.975522248885">
        <ele>103.8</ele>
        <time>2018-02-05T18:33:45Z</time>
      </trkpt>
      <trkpt lat="62.6325994297" lon="17.975571534457">
        <ele>104</ele>
        <time>2018-02-05T18:33:46Z</time>
      </trkpt>
      <trkpt lat="62.632587611221" lon="17.975624256608">
        <ele>104</ele>
        <time>2018-02-05T18:33:47Z</time>
      </trkpt>
      <trkpt lat="62.632574703095" lon="17.975682259356">
        <ele>104</ele>
        <time>2018-02-05T18:33:48Z</time>
      </trkpt>
      <trkpt lat="62.632566069738" lon="17.975736071154">
        <ele>104</ele>
        <time>2018-02-05T18:33:49Z</time>
      </trkpt>
      <trkpt lat="62.632555424725" lon="17.975794995911">
        <ele>104.2</ele>
        <time>2018-02-05T18:33:50Z</time>
      </trkpt>
      <trkpt lat="62.632542181323" lon="17.975852244288">
        <ele>104.2</ele>
        <time>2018-02-05T18:33:51Z</time>
      </trkpt>
      <trkpt lat="62.632531703948" lon="17.975904714982">
        <ele>104.2</ele>
        <time>2018-02-05T18:33:52Z</time>
      </trkpt>
      <trkpt lat="62.632518544365" lon="17.975962633911">
        <ele>104.2</ele>
        <time>2018-02-05T18:33:53Z</time>
      </trkpt>
      <trkpt lat="62.632504798049" lon="17.976011416569">
        <ele>104.2</ele>
        <time>2018-02-05T18:33:54Z</time>
      </trkpt>
      <trkpt lat="62.632492560475" lon="17.976066401833">
        <ele>104.2</ele>
        <time>2018-02-05T18:33:55Z</time>
      </trkpt>
      <trkpt lat="62.632482418376" lon="17.97612197383">
        <ele>104.2</ele>
        <time>2018-02-05T18:33:56Z</time>
      </trkpt>
      <trkpt lat="62.63247118663" lon="17.976176372361">
        <ele>104.2</ele>
        <time>2018-02-05T18:33:57Z</time>
      </trkpt>
      <trkpt lat="62.632460876893" lon="17.97622423301">
        <ele>104.4</ele>
        <time>2018-02-05T18:33:58Z</time>
      </trkpt>
      <trkpt lat="62.632448052586" lon="17.976277206618">
        <ele>104.4</ele>
        <time>2018-02-05T18:33:59Z</time>
      </trkpt>
      <trkpt lat="62.632434557727" lon="17.976332527158">
        <ele>104.4</ele>
        <time>2018-02-05T18:34:00Z</time>
      </trkpt>
      <trkpt lat="62.632423325981" lon="17.976385416947">
        <ele>104.4</ele>
        <time>2018-02-05T18:34:01Z</time>
      </trkpt>
      <trkpt lat="62.632410920769" lon="17.976437720003">
        <ele>104.6</ele>
        <time>2018-02-05T18:34:02Z</time>
      </trkpt>
      <trkpt lat="62.632398515557" lon="17.976493208181">
        <ele>104.6</ele>
        <time>2018-02-05T18:34:03Z</time>
      </trkpt>
      <trkpt lat="62.632389630743" lon="17.976539308631">
        <ele>104.6</ele>
        <time>2018-02-05T18:34:04Z</time>
      </trkpt>
      <trkpt lat="62.632374962418" lon="17.976599574492">
        <ele>104.6</ele>
        <time>2018-02-05T18:34:05Z</time>
      </trkpt>
      <trkpt lat="62.632362724844" lon="17.976649111521">
        <ele>104.6</ele>
        <time>2018-02-05T18:34:06Z</time>
      </trkpt>
      <trkpt lat="62.632351828374" lon="17.976703342414">
        <ele>104.6</ele>
        <time>2018-02-05T18:34:07Z</time>
      </trkpt>
      <trkpt lat="62.632339506981" lon="17.976756651298">
        <ele>104.8</ele>
        <time>2018-02-05T18:34:08Z</time>
      </trkpt>
      <trkpt lat="62.632328191416" lon="17.976804092852">
        <ele>104.8</ele>
        <time>2018-02-05T18:34:09Z</time>
      </trkpt>
      <trkpt lat="62.632315031833" lon="17.976855892994">
        <ele>104.8</ele>
        <time>2018-02-05T18:34:10Z</time>
      </trkpt>
      <trkpt lat="62.632300447327" lon="17.976910040068">
        <ele>105</ele>
        <time>2018-02-05T18:34:11Z</time>
      </trkpt>
      <trkpt lat="62.632288293572" lon="17.976959409459">
        <ele>105.2</ele>
        <time>2018-02-05T18:34:12Z</time>
      </trkpt>
      <trkpt lat="62.632274882532" lon="17.977011544877">
        <ele>105.2</ele>
        <time>2018-02-05T18:34:13Z</time>
      </trkpt>
      <trkpt lat="62.632262644958" lon="17.977062674467">
        <ele>105.2</ele>
        <time>2018-02-05T18:34:14Z</time>
      </trkpt>
      <trkpt lat="62.63225074266" lon="17.977115480437">
        <ele>105.4</ele>
        <time>2018-02-05T18:34:15Z</time>
      </trkpt>
      <trkpt lat="62.632239343276" lon="17.977160910335">
        <ele>105.4</ele>
        <time>2018-02-05T18:34:16Z</time>
      </trkpt>
      <trkpt lat="62.632227692435" lon="17.977210950278">
        <ele>105.4</ele>
        <time>2018-02-05T18:34:17Z</time>
      </trkpt>
      <trkpt lat="62.632215706318" lon="17.977262163687">
        <ele>105.4</ele>
        <time>2018-02-05T18:34:18Z</time>
      </trkpt>
      <trkpt lat="62.632204474572" lon="17.97731220363">
        <ele>105.4</ele>
        <time>2018-02-05T18:34:19Z</time>
      </trkpt>
      <trkpt lat="62.632192739912" lon="17.977369368188">
        <ele>105.4</ele>
        <time>2018-02-05T18:34:20Z</time>
      </trkpt>
      <trkpt lat="62.632182346356" lon="17.977421084511">
        <ele>105.4</ele>
        <time>2018-02-05T18:34:21Z</time>
      </trkpt>
      <trkpt lat="62.632170695515" lon="17.977468442246">
        <ele>105.6</ele>
        <time>2018-02-05T18:34:22Z</time>
      </trkpt>
      <trkpt lat="62.632158457941" lon="17.977520996759">
        <ele>105.6</ele>
        <time>2018-02-05T18:34:23Z</time>
      </trkpt>
      <trkpt lat="62.632147729109" lon="17.977568019218">
        <ele>105.8</ele>
        <time>2018-02-05T18:34:24Z</time>
      </trkpt>
      <trkpt lat="62.632133815155" lon="17.977621831016">
        <ele>105.8</ele>
        <time>2018-02-05T18:34:25Z</time>
      </trkpt>
      <trkpt lat="62.632122415771" lon="17.977674217891">
        <ele>106</ele>
        <time>2018-02-05T18:34:26Z</time>
      </trkpt>
      <trkpt lat="62.632111854577" lon="17.977727862051">
        <ele>106</ele>
        <time>2018-02-05T18:34:27Z</time>
      </trkpt>
      <trkpt lat="62.632099700822" lon="17.97777739908">
        <ele>106</ele>
        <time>2018-02-05T18:34:28Z</time>
      </trkpt>
      <trkpt lat="62.632087211791" lon="17.977831210878">
        <ele>106</ele>
        <time>2018-02-05T18:34:29Z</time>
      </trkpt>
      <trkpt lat="62.632074387484" lon="17.977890470911">
        <ele>106.2</ele>
        <time>2018-02-05T18:34:30Z</time>
      </trkpt>
      <trkpt lat="62.632061144082" lon="17.977946294365">
        <ele>106.2</ele>
        <time>2018-02-05T18:34:31Z</time>
      </trkpt>
      <trkpt lat="62.632049744698" lon="17.977995160842">
        <ele>106.2</ele>
        <time>2018-02-05T18:34:32Z</time>
      </trkpt>
      <trkpt lat="62.632037088029" lon="17.9780523254">
        <ele>106.2</ele>
        <time>2018-02-05T18:34:33Z</time>
      </trkpt>
      <trkpt lat="62.632027281206" lon="17.978101610972">
        <ele>106.2</ele>
        <time>2018-02-05T18:34:34Z</time>
      </trkpt>
      <trkpt lat="62.632016300917" lon="17.978166486878">
        <ele>106.4</ele>
        <time>2018-02-05T18:34:35Z</time>
      </trkpt>
      <trkpt lat="62.632004147162" lon="17.978225411635">
        <ele>106.4</ele>
        <time>2018-02-05T18:34:36Z</time>
      </trkpt>
      <trkpt lat="62.631994172701" lon="17.978281067451">
        <ele>106.4</ele>
        <time>2018-02-05T18:34:37Z</time>
      </trkpt>
      <trkpt lat="62.631983611507" lon="17.978335885077">
        <ele>106.6</ele>
        <time>2018-02-05T18:34:38Z</time>
      </trkpt>
      <trkpt lat="62.631972295942" lon="17.978387936676">
        <ele>106.6</ele>
        <time>2018-02-05T18:34:39Z</time>
      </trkpt>
      <trkpt lat="62.631960226006" lon="17.978441077922">
        <ele>106.6</ele>
        <time>2018-02-05T18:34:40Z</time>
      </trkpt>
      <trkpt lat="62.631947904613" lon="17.978499499765">
        <ele>106.8</ele>
        <time>2018-02-05T18:34:41Z</time>
      </trkpt>
      <trkpt lat="62.631934661211" lon="17.978551970459">
        <ele>107</ele>
        <time>2018-02-05T18:34:42Z</time>
      </trkpt>
      <trkpt lat="62.631923932379" lon="17.978603100049">
        <ele>107</ele>
        <time>2018-02-05T18:34:43Z</time>
      </trkpt>
      <trkpt lat="62.631913957918" lon="17.97864911668">
        <ele>107</ele>
        <time>2018-02-05T18:34:44Z</time>
      </trkpt>
      <trkpt lat="62.631902390896" lon="17.978705443048">
        <ele>107</ele>
        <time>2018-02-05T18:34:45Z</time>
      </trkpt>
      <trkpt lat="62.631891745883" lon="17.978751794955">
        <ele>107</ele>
        <time>2018-02-05T18:34:46Z</time>
      </trkpt>
      <trkpt lat="62.631877496653" lon="17.978800745251">
        <ele>107.2</ele>
        <time>2018-02-05T18:34:47Z</time>
      </trkpt>
      <trkpt lat="62.631862995966" lon="17.978855479058">
        <ele>107.2</ele>
        <time>2018-02-05T18:34:48Z</time>
      </trkpt>
      <trkpt lat="62.631851596582" lon="17.978904010259">
        <ele>107.2</ele>
        <time>2018-02-05T18:34:49Z</time>
      </trkpt>
      <trkpt lat="62.631837934085" lon="17.978957235324">
        <ele>107.4</ele>
        <time>2018-02-05T18:34:50Z</time>
      </trkpt>
      <trkpt lat="62.631826115606" lon="17.979007862">
        <ele>107.4</ele>
        <time>2018-02-05T18:34:51Z</time>
      </trkpt>
      <trkpt lat="62.631816224964" lon="17.979055806468">
        <ele>107.4</ele>
        <time>2018-02-05T18:34:52Z</time>
      </trkpt>
      <trkpt lat="62.631803568295" lon="17.979113390121">
        <ele>107.6</ele>
        <time>2018-02-05T18:34:53Z</time>
      </trkpt>
      <trkpt lat="62.631793510015" lon="17.979162005141">
        <ele>107.6</ele>
        <time>2018-02-05T18:34:54Z</time>
      </trkpt>
      <trkpt lat="62.63178135626" lon="17.979212045084">
        <ele>107.8</ele>
        <time>2018-02-05T18:34:55Z</time>
      </trkpt>
      <trkpt lat="62.631766436478" lon="17.979261330656">
        <ele>107.8</ele>
        <time>2018-02-05T18:34:56Z</time>
      </trkpt>
      <trkpt lat="62.631752354886" lon="17.979310867685">
        <ele>108</ele>
        <time>2018-02-05T18:34:57Z</time>
      </trkpt>
      <trkpt lat="62.631740201131" lon="17.979358979791">
        <ele>108</ele>
        <time>2018-02-05T18:34:58Z</time>
      </trkpt>
      <trkpt lat="62.631726538634" lon="17.979411618123">
        <ele>108</ele>
        <time>2018-02-05T18:34:59Z</time>
      </trkpt>
      <trkpt lat="62.631714636336" lon="17.979469201776">
        <ele>108</ele>
        <time>2018-02-05T18:35:00Z</time>
      </trkpt>
      <trkpt lat="62.63170089002" lon="17.979522091565">
        <ele>108.2</ele>
        <time>2018-02-05T18:35:01Z</time>
      </trkpt>
      <trkpt lat="62.63168747898" lon="17.979569281662">
        <ele>108</ele>
        <time>2018-02-05T18:35:02Z</time>
      </trkpt>
      <trkpt lat="62.631673062112" lon="17.979622590546">
        <ele>108.2</ele>
        <time>2018-02-05T18:35:03Z</time>
      </trkpt>
      <trkpt lat="62.631659315796" lon="17.97966667934">
        <ele>108.2</ele>
        <time>2018-02-05T18:35:04Z</time>
      </trkpt>
      <trkpt lat="62.631641294711" lon="17.979723843898">
        <ele>108.2</ele>
        <time>2018-02-05T18:35:05Z</time>
      </trkpt>
      <trkpt lat="62.631625704377" lon="17.979771285452">
        <ele>108</ele>
        <time>2018-02-05T18:35:06Z</time>
      </trkpt>
      <trkpt lat="62.631609192034" lon="17.979819146101">
        <ele>108.2</ele>
        <time>2018-02-05T18:35:07Z</time>
      </trkpt>
      <trkpt lat="62.631593936976" lon="17.97986784494">
        <ele>108.2</ele>
        <time>2018-02-05T18:35:08Z</time>
      </trkpt>
      <trkpt lat="62.631579855384" lon="17.979915370313">
        <ele>108.2</ele>
        <time>2018-02-05T18:35:09Z</time>
      </trkpt>
      <trkpt lat="62.631561499023" lon="17.979963817695">
        <ele>108.4</ele>
        <time>2018-02-05T18:35:10Z</time>
      </trkpt>
      <trkpt lat="62.631540376635" lon="17.980006816842">
        <ele>108.4</ele>
        <time>2018-02-05T18:35:11Z</time>
      </trkpt>
      <trkpt lat="62.631515566211" lon="17.980044870668">
        <ele>108.6</ele>
        <time>2018-02-05T18:35:12Z</time>
      </trkpt>
      <trkpt lat="62.631487235389" lon="17.980068591445">
        <ele>108.6</ele>
        <time>2018-02-05T18:35:13Z</time>
      </trkpt>
      <trkpt lat="62.631461419137" lon="17.98008325977">
        <ele>108.6</ele>
        <time>2018-02-05T18:35:14Z</time>
      </trkpt>
      <trkpt lat="62.631429735555" lon="17.980091138756">
        <ele>108.6</ele>
        <time>2018-02-05T18:35:15Z</time>
      </trkpt>
      <trkpt lat="62.631402913475" lon="17.980092647498">
        <ele>108.6</ele>
        <time>2018-02-05T18:35:16Z</time>
      </trkpt>
      <trkpt lat="62.631377683956" lon="17.980089043281">
        <ele>108.6</ele>
        <time>2018-02-05T18:35:17Z</time>
      </trkpt>
      <trkpt lat="62.631349520772" lon="17.980078565906">
        <ele>108.6</ele>
        <time>2018-02-05T18:35:18Z</time>
      </trkpt>
      <trkpt lat="62.631326889642" lon="17.98006565778">
        <ele>108.6</ele>
        <time>2018-02-05T18:35:19Z</time>
      </trkpt>
      <trkpt lat="62.631300067562" lon="17.980051995283">
        <ele>108.6</ele>
        <time>2018-02-05T18:35:20Z</time>
      </trkpt>
      <trkpt lat="62.631273916034" lon="17.980035734397">
        <ele>108.6</ele>
        <time>2018-02-05T18:35:21Z</time>
      </trkpt>
      <trkpt lat="62.631252542189" lon="17.980019305873">
        <ele>108.6</ele>
        <time>2018-02-05T18:35:22Z</time>
      </trkpt>
      <trkpt lat="62.631228067041" lon="17.980003966996">
        <ele>108.8</ele>
        <time>2018-02-05T18:35:23Z</time>
      </trkpt>
      <trkpt lat="62.631205352092" lon="17.979987035558">
        <ele>108.8</ele>
        <time>2018-02-05T18:35:24Z</time>
      </trkpt>
      <trkpt lat="62.631179703478" lon="17.979962895686">
        <ele>109</ele>
        <time>2018-02-05T18:35:25Z</time>
      </trkpt>
      <trkpt lat="62.63115606652" lon="17.979950490474">
        <ele>109</ele>
        <time>2018-02-05T18:35:26Z</time>
      </trkpt>
      <trkpt lat="62.631131256096" lon="17.979930206276">
        <ele>109.2</ele>
        <time>2018-02-05T18:35:27Z</time>
      </trkpt>
      <trkpt lat="62.631109295518" lon="17.979914196847">
        <ele>109.2</ele>
        <time>2018-02-05T18:35:28Z</time>
      </trkpt>
      <trkpt lat="62.631084652732" lon="17.979896259581">
        <ele>109.4</ele>
        <time>2018-02-05T18:35:29Z</time>
      </trkpt>
      <trkpt lat="62.63105967467" lon="17.979871365338">
        <ele>109.4</ele>
        <time>2018-02-05T18:35:30Z</time>
      </trkpt>
      <trkpt lat="62.63103788173" lon="17.979846638733">
        <ele>109.4</ele>
        <time>2018-02-05T18:35:31Z</time>
      </trkpt>
      <trkpt lat="62.631015502057" lon="17.979825600164">
        <ele>109.6</ele>
        <time>2018-02-05T18:35:32Z</time>
      </trkpt>
      <trkpt lat="62.630989518167" lon="17.979807746717">
        <ele>109.6</ele>
        <time>2018-02-05T18:35:33Z</time>
      </trkpt>
      <trkpt lat="62.630970323616" lon="17.979794670953">
        <ele>109.8</ele>
        <time>2018-02-05T18:35:34Z</time>
      </trkpt>
      <trkpt lat="62.630941741337" lon="17.979776901325">
        <ele>109.8</ele>
        <time>2018-02-05T18:35:35Z</time>
      </trkpt>
      <trkpt lat="62.630915086895" lon="17.979754102557">
        <ele>109.8</ele>
        <time>2018-02-05T18:35:36Z</time>
      </trkpt>
      <trkpt lat="62.630887761901" lon="17.979732644893">
        <ele>110</ele>
        <time>2018-02-05T18:35:37Z</time>
      </trkpt>
      <trkpt lat="62.63086018545" lon="17.979711019591">
        <ele>110</ele>
        <time>2018-02-05T18:35:38Z</time>
      </trkpt>
      <trkpt lat="62.630835375026" lon="17.979692998506">
        <ele>110.2</ele>
        <time>2018-02-05T18:35:39Z</time>
      </trkpt>
      <trkpt lat="62.630812660077" lon="17.979668858634">
        <ele>110.4</ele>
        <time>2018-02-05T18:35:40Z</time>
      </trkpt>
      <trkpt lat="62.630786760006" lon="17.979644299667">
        <ele>110.4</ele>
        <time>2018-02-05T18:35:41Z</time>
      </trkpt>
      <trkpt lat="62.630761111392" lon="17.979621249442">
        <ele>110.6</ele>
        <time>2018-02-05T18:35:42Z</time>
      </trkpt>
      <trkpt lat="62.63073697152" lon="17.979596019923">
        <ele>110.8</ele>
        <time>2018-02-05T18:35:43Z</time>
      </trkpt>
      <trkpt lat="62.630716687322" lon="17.979570538947">
        <ele>110.8</ele>
        <time>2018-02-05T18:35:44Z</time>
      </trkpt>
      <trkpt lat="62.630695816391" lon="17.979542375763">
        <ele>111</ele>
        <time>2018-02-05T18:35:45Z</time>
      </trkpt>
      <trkpt lat="62.630674526365" lon="17.979517984434">
        <ele>110.8</ele>
        <time>2018-02-05T18:35:46Z</time>
      </trkpt>
      <trkpt lat="62.630650386493" lon="17.979485546481">
        <ele>111</ele>
        <time>2018-02-05T18:35:47Z</time>
      </trkpt>
      <trkpt lat="62.630625827526" lon="17.979451599786">
        <ele>111</ele>
        <time>2018-02-05T18:35:48Z</time>
      </trkpt>
      <trkpt lat="62.630604286043" lon="17.979420838213">
        <ele>111.2</ele>
        <time>2018-02-05T18:35:49Z</time>
      </trkpt>
      <trkpt lat="62.630579810895" lon="17.97938253293">
        <ele>111</ele>
        <time>2018-02-05T18:35:50Z</time>
      </trkpt>
      <trkpt lat="62.630558353231" lon="17.979347077493">
        <ele>111</ele>
        <time>2018-02-05T18:35:51Z</time>
      </trkpt>
      <trkpt lat="62.630538152852" lon="17.979312208789">
        <ele>111.2</ele>
        <time>2018-02-05T18:35:52Z</time>
      </trkpt>
      <trkpt lat="62.630515605541" lon="17.979268203814">
        <ele>111.2</ele>
        <time>2018-02-05T18:35:53Z</time>
      </trkpt>
      <trkpt lat="62.630496075714" lon="17.979229563255">
        <ele>111.2</ele>
        <time>2018-02-05T18:35:54Z</time>
      </trkpt>
      <trkpt lat="62.630474869507" lon="17.979184217176">
        <ele>111</ele>
        <time>2018-02-05T18:35:55Z</time>
      </trkpt>
      <trkpt lat="62.630455926413" lon="17.979140044563">
        <ele>111.2</ele>
        <time>2018-02-05T18:35:56Z</time>
      </trkpt>
      <trkpt lat="62.630438156785" lon="17.979096039588">
        <ele>111</ele>
        <time>2018-02-05T18:35:57Z</time>
      </trkpt>
      <trkpt lat="62.630420554795" lon="17.979053794812">
        <ele>111</ele>
        <time>2018-02-05T18:35:58Z</time>
      </trkpt>
      <trkpt lat="62.630400941149" lon="17.979004090145">
        <ele>111</ele>
        <time>2018-02-05T18:35:59Z</time>
      </trkpt>
      <trkpt lat="62.630380992227" lon="17.978956397134">
        <ele>111</ele>
        <time>2018-02-05T18:36:00Z</time>
      </trkpt>
      <trkpt lat="62.630361210943" lon="17.97891398472">
        <ele>110.8</ele>
        <time>2018-02-05T18:36:01Z</time>
      </trkpt>
      <trkpt lat="62.630342519306" lon="17.978868638641">
        <ele>110.8</ele>
        <time>2018-02-05T18:36:02Z</time>
      </trkpt>
      <trkpt lat="62.630323995307" lon="17.978819101612">
        <ele>110.8</ele>
        <time>2018-02-05T18:36:03Z</time>
      </trkpt>
      <trkpt lat="62.630309075525" lon="17.978778533216">
        <ele>110.6</ele>
        <time>2018-02-05T18:36:04Z</time>
      </trkpt>
      <trkpt lat="62.630288707508" lon="17.978717596803">
        <ele>110.4</ele>
        <time>2018-02-05T18:36:05Z</time>
      </trkpt>
      <trkpt lat="62.630272195165" lon="17.978668562688">
        <ele>110.4</ele>
        <time>2018-02-05T18:36:06Z</time>
      </trkpt>
      <trkpt lat="62.630255766641" lon="17.97861978003">
        <ele>110.4</ele>
        <time>2018-02-05T18:36:07Z</time>
      </trkpt>
      <trkpt lat="62.630241852687" lon="17.978566303508">
        <ele>110.2</ele>
        <time>2018-02-05T18:36:08Z</time>
      </trkpt>
      <trkpt lat="62.630230118027" lon="17.978517269393">
        <ele>110.2</ele>
        <time>2018-02-05T18:36:09Z</time>
      </trkpt>
      <trkpt lat="62.630218467186" lon="17.978464044328">
        <ele>110</ele>
        <time>2018-02-05T18:36:10Z</time>
      </trkpt>
      <trkpt lat="62.630203966499" lon="17.978401934449">
        <ele>110</ele>
        <time>2018-02-05T18:36:11Z</time>
      </trkpt>
      <trkpt lat="62.630192483296" lon="17.978341752407">
        <ele>109.8</ele>
        <time>2018-02-05T18:36:12Z</time>
      </trkpt>
      <trkpt lat="62.630183933758" lon="17.978284336392">
        <ele>109.8</ele>
        <time>2018-02-05T18:36:13Z</time>
      </trkpt>
      <trkpt lat="62.63017957517" lon="17.978227255653">
        <ele>109.6</ele>
        <time>2018-02-05T18:36:14Z</time>
      </trkpt>
      <trkpt lat="62.630176390048" lon="17.978163553213">
        <ele>109.6</ele>
        <time>2018-02-05T18:36:15Z</time>
      </trkpt>
      <trkpt lat="62.630177144419" lon="17.978109573777">
        <ele>109.4</ele>
        <time>2018-02-05T18:36:16Z</time>
      </trkpt>
      <trkpt lat="62.630177479695" lon="17.97804981083">
        <ele>109.2</ele>
        <time>2018-02-05T18:36:17Z</time>
      </trkpt>
      <trkpt lat="62.630178820799" lon="17.977986024571">
        <ele>109</ele>
        <time>2018-02-05T18:36:18Z</time>
      </trkpt>
      <trkpt lat="62.63017873698" lon="17.977928189461">
        <ele>108.8</ele>
        <time>2018-02-05T18:36:19Z</time>
      </trkpt>
      <trkpt lat="62.630178988437" lon="17.977858200596">
        <ele>108.6</ele>
        <time>2018-02-05T18:36:20Z</time>
      </trkpt>
      <trkpt lat="62.630179239894" lon="17.977794917251">
        <ele>108.4</ele>
        <time>2018-02-05T18:36:21Z</time>
      </trkpt>
      <trkpt lat="62.630177647333" lon="17.977734316114">
        <ele>108.4</ele>
        <time>2018-02-05T18:36:22Z</time>
      </trkpt>
      <trkpt lat="62.630176976781" lon="17.977662818507">
        <ele>108.2</ele>
        <time>2018-02-05T18:36:23Z</time>
      </trkpt>
      <trkpt lat="62.6301770606" lon="17.977601630637">
        <ele>108.2</ele>
        <time>2018-02-05T18:36:24Z</time>
      </trkpt>
      <trkpt lat="62.630178401704" lon="17.97752845665">
        <ele>108</ele>
        <time>2018-02-05T18:36:25Z</time>
      </trkpt>
      <trkpt lat="62.630178317885" lon="17.977462323459">
        <ele>107.8</ele>
        <time>2018-02-05T18:36:26Z</time>
      </trkpt>
      <trkpt lat="62.630180245722" lon="17.977397950467">
        <ele>107.8</ele>
        <time>2018-02-05T18:36:27Z</time>
      </trkpt>
      <trkpt lat="62.630181922102" lon="17.977334918579">
        <ele>107.8</ele>
        <time>2018-02-05T18:36:28Z</time>
      </trkpt>
      <trkpt lat="62.630186113052" lon="17.977272724881">
        <ele>107.6</ele>
        <time>2018-02-05T18:36:29Z</time>
      </trkpt>
      <trkpt lat="62.630188208527" lon="17.977204831491">
        <ele>107.6</ele>
        <time>2018-02-05T18:36:30Z</time>
      </trkpt>
      <trkpt lat="62.630190220183" lon="17.977139033576">
        <ele>107.4</ele>
        <time>2018-02-05T18:36:31Z</time>
      </trkpt>
      <trkpt lat="62.63019047164" lon="17.977078683896">
        <ele>107.2</ele>
        <time>2018-02-05T18:36:32Z</time>
      </trkpt>
      <trkpt lat="62.630193489124" lon="17.977011712515">
        <ele>107.2</ele>
        <time>2018-02-05T18:36:33Z</time>
      </trkpt>
      <trkpt lat="62.630197260979" lon="17.976950608464">
        <ele>107.2</ele>
        <time>2018-02-05T18:36:34Z</time>
      </trkpt>
      <trkpt lat="62.630203547404" lon="17.97688221216">
        <ele>107</ele>
        <time>2018-02-05T18:36:35Z</time>
      </trkpt>
      <trkpt lat="62.630210755838" lon="17.97681767153">
        <ele>106.8</ele>
        <time>2018-02-05T18:36:36Z</time>
      </trkpt>
      <trkpt lat="62.630219640652" lon="17.976755142556">
        <ele>106.8</ele>
        <time>2018-02-05T18:36:37Z</time>
      </trkpt>
      <trkpt lat="62.630228693104" lon="17.976694289962">
        <ele>106.6</ele>
        <time>2018-02-05T18:36:38Z</time>
      </trkpt>
      <trkpt lat="62.630235063348" lon="17.976633353549">
        <ele>106.4</ele>
        <time>2018-02-05T18:36:39Z</time>
      </trkpt>
      <trkpt lat="62.630241349773" lon="17.976568058548">
        <ele>106.2</ele>
        <time>2018-02-05T18:36:40Z</time>
      </trkpt>
      <trkpt lat="62.63024746856" lon="17.976503434099">
        <ele>106</ele>
        <time>2018-02-05T18:36:41Z</time>
      </trkpt>
      <trkpt lat="62.630253084433" lon="17.97643797146">
        <ele>105.8</ele>
        <time>2018-02-05T18:36:42Z</time>
      </trkpt>
      <trkpt lat="62.630260711962" lon="17.976375861581">
        <ele>105.8</ele>
        <time>2018-02-05T18:36:43Z</time>
      </trkpt>
      <trkpt lat="62.630266998387" lon="17.976317691195">
        <ele>105.6</ele>
        <time>2018-02-05T18:36:44Z</time>
      </trkpt>
      <trkpt lat="62.630278062495" lon="17.976254826945">
        <ele>105.6</ele>
        <time>2018-02-05T18:36:45Z</time>
      </trkpt>
      <trkpt lat="62.630286528214" lon="17.976206044287">
        <ele>105.4</ele>
        <time>2018-02-05T18:36:46Z</time>
      </trkpt>
      <trkpt lat="62.630298262874" lon="17.976140665467">
        <ele>105.4</ele>
        <time>2018-02-05T18:36:47Z</time>
      </trkpt>
      <trkpt lat="62.630311925371" lon="17.976079309959">
        <ele>105.2</ele>
        <time>2018-02-05T18:36:48Z</time>
      </trkpt>
      <trkpt lat="62.630324330583" lon="17.976026923084">
        <ele>105.2</ele>
        <time>2018-02-05T18:36:49Z</time>
      </trkpt>
      <trkpt lat="62.630335729967" lon="17.975966824861">
        <ele>105.2</ele>
        <time>2018-02-05T18:36:50Z</time>
      </trkpt>
      <trkpt lat="62.63035056593" lon="17.975912258692">
        <ele>105</ele>
        <time>2018-02-05T18:36:51Z</time>
      </trkpt>
      <trkpt lat="62.630366575359" lon="17.975865152414">
        <ele>105</ele>
        <time>2018-02-05T18:36:52Z</time>
      </trkpt>
      <trkpt lat="62.630384177349" lon="17.975814274281">
        <ele>104.8</ele>
        <time>2018-02-05T18:36:53Z</time>
      </trkpt>
      <trkpt lat="62.630399013312" lon="17.975764653433">
        <ele>104.8</ele>
        <time>2018-02-05T18:36:54Z</time>
      </trkpt>
      <trkpt lat="62.630416447664" lon="17.975707237418">
        <ele>104.8</ele>
        <time>2018-02-05T18:36:55Z</time>
      </trkpt>
      <trkpt lat="62.630429271971" lon="17.975650324317">
        <ele>104.8</ele>
        <time>2018-02-05T18:36:56Z</time>
      </trkpt>
      <trkpt lat="62.630443269744" lon="17.975591902474">
        <ele>104.6</ele>
        <time>2018-02-05T18:36:57Z</time>
      </trkpt>
      <trkpt lat="62.630456764603" lon="17.975540437608">
        <ele>104.6</ele>
        <time>2018-02-05T18:36:58Z</time>
      </trkpt>
      <trkpt lat="62.630469505091" lon="17.975485200887">
        <ele>104.4</ele>
        <time>2018-02-05T18:36:59Z</time>
      </trkpt>
      <trkpt lat="62.63048467633" lon="17.975425102664">
        <ele>104.4</ele>
        <time>2018-02-05T18:37:00Z</time>
      </trkpt>
      <trkpt lat="62.630498590284" lon="17.975370452676">
        <ele>104.2</ele>
        <time>2018-02-05T18:37:01Z</time>
      </trkpt>
      <trkpt lat="62.630512588057" lon="17.975317730525">
        <ele>104</ele>
        <time>2018-02-05T18:37:02Z</time>
      </trkpt>
      <trkpt lat="62.630528848943" lon="17.975258051397">
        <ele>104</ele>
        <time>2018-02-05T18:37:03Z</time>
      </trkpt>
      <trkpt lat="62.630540918879" lon="17.975211364214">
        <ele>103.8</ele>
        <time>2018-02-05T18:37:04Z</time>
      </trkpt>
      <trkpt lat="62.630559526697" lon="17.975152690914">
        <ele>103.6</ele>
        <time>2018-02-05T18:37:05Z</time>
      </trkpt>
      <trkpt lat="62.630576541954" lon="17.975098460021">
        <ele>103.6</ele>
        <time>2018-02-05T18:37:06Z</time>
      </trkpt>
      <trkpt lat="62.630591713193" lon="17.975048000983">
        <ele>103.6</ele>
        <time>2018-02-05T18:37:07Z</time>
      </trkpt>
      <trkpt lat="62.630606130061" lon="17.974993937728">
        <ele>103.4</ele>
        <time>2018-02-05T18:37:08Z</time>
      </trkpt>
      <trkpt lat="62.630620798386" lon="17.974940712663">
        <ele>103.4</ele>
        <time>2018-02-05T18:37:09Z</time>
      </trkpt>
      <trkpt lat="62.630636472539" lon="17.974885978856">
        <ele>103.2</ele>
        <time>2018-02-05T18:37:10Z</time>
      </trkpt>
      <trkpt lat="62.630651895235" lon="17.974828981936">
        <ele>103.2</ele>
        <time>2018-02-05T18:37:11Z</time>
      </trkpt>
      <trkpt lat="62.63066656356" lon="17.974773074663">
        <ele>103</ele>
        <time>2018-02-05T18:37:12Z</time>
      </trkpt>
      <trkpt lat="62.630678549677" lon="17.974718089399">
        <ele>103</ele>
        <time>2018-02-05T18:37:13Z</time>
      </trkpt>
      <trkpt lat="62.630689865242" lon="17.974668217094">
        <ele>103</ele>
        <time>2018-02-05T18:37:14Z</time>
      </trkpt>
      <trkpt lat="62.630702773368" lon="17.974610298165">
        <ele>102.8</ele>
        <time>2018-02-05T18:37:15Z</time>
      </trkpt>
      <trkpt lat="62.630716184408" lon="17.974563359525">
        <ele>102.8</ele>
        <time>2018-02-05T18:37:16Z</time>
      </trkpt>
      <trkpt lat="62.630731020371" lon="17.974512732849">
        <ele>102.8</ele>
        <time>2018-02-05T18:37:17Z</time>
      </trkpt>
      <trkpt lat="62.630746359248" lon="17.974450371513">
        <ele>102.8</ele>
        <time>2018-02-05T18:37:18Z</time>
      </trkpt>
      <trkpt lat="62.63075624989" lon="17.974395470068">
        <ele>102.8</ele>
        <time>2018-02-05T18:37:19Z</time>
      </trkpt>
      <trkpt lat="62.630770415301" lon="17.974334533655">
        <ele>102.8</ele>
        <time>2018-02-05T18:37:20Z</time>
      </trkpt>
      <trkpt lat="62.630784329255" lon="17.974278039649">
        <ele>102.8</ele>
        <time>2018-02-05T18:37:21Z</time>
      </trkpt>
      <trkpt lat="62.630798075571" lon="17.974230346638">
        <ele>102.8</ele>
        <time>2018-02-05T18:37:22Z</time>
      </trkpt>
      <trkpt lat="62.630815426104" lon="17.974172092433">
        <ele>102.8</ele>
        <time>2018-02-05T18:37:23Z</time>
      </trkpt>
      <trkpt lat="62.630831184076" lon="17.974122387766">
        <ele>102.6</ele>
        <time>2018-02-05T18:37:24Z</time>
      </trkpt>
      <trkpt lat="62.630845181849" lon="17.974069665615">
        <ele>102.6</ele>
        <time>2018-02-05T18:37:25Z</time>
      </trkpt>
      <trkpt lat="62.630859095803" lon="17.974016859645">
        <ele>102.4</ele>
        <time>2018-02-05T18:37:26Z</time>
      </trkpt>
      <trkpt lat="62.630876027241" lon="17.973971010652">
        <ele>102.4</ele>
        <time>2018-02-05T18:37:27Z</time>
      </trkpt>
      <trkpt lat="62.630889438281" lon="17.973926502763">
        <ele>102.4</ele>
        <time>2018-02-05T18:37:28Z</time>
      </trkpt>
      <trkpt lat="62.630899915656" lon="17.973878055381">
        <ele>102.4</ele>
        <time>2018-02-05T18:37:29Z</time>
      </trkpt>
      <trkpt lat="62.630905866805" lon="17.973832625483">
        <ele>102.4</ele>
        <time>2018-02-05T18:37:30Z</time>
      </trkpt>
      <trkpt lat="62.630902849321" lon="17.973791554173">
        <ele>102.4</ele>
        <time>2018-02-05T18:37:31Z</time>
      </trkpt>
      <trkpt lat="62.630892204308" lon="17.97374570518">
        <ele>102.4</ele>
        <time>2018-02-05T18:37:32Z</time>
      </trkpt>
      <trkpt lat="62.630878541811" lon="17.973699017997">
        <ele>102.4</ele>
        <time>2018-02-05T18:37:33Z</time>
      </trkpt>
      <trkpt lat="62.630866555694" lon="17.973662137637">
        <ele>102.2</ele>
        <time>2018-02-05T18:37:34Z</time>
      </trkpt>
      <trkpt lat="62.630853312292" lon="17.973607571468">
        <ele>102.2</ele>
        <time>2018-02-05T18:37:35Z</time>
      </trkpt>
      <trkpt lat="62.630842248184" lon="17.973562476846">
        <ele>102.2</ele>
        <time>2018-02-05T18:37:36Z</time>
      </trkpt>
      <trkpt lat="62.630826322574" lon="17.973517298405">
        <ele>102.2</ele>
        <time>2018-02-05T18:37:37Z</time>
      </trkpt>
      <trkpt lat="62.630807295661" lon="17.973466168815">
        <ele>102</ele>
        <time>2018-02-05T18:37:38Z</time>
      </trkpt>
      <trkpt lat="62.630789945128" lon="17.973423337306">
        <ele>102</ele>
        <time>2018-02-05T18:37:39Z</time>
      </trkpt>
      <trkpt lat="62.630772594595" lon="17.973373800277">
        <ele>102</ele>
        <time>2018-02-05T18:37:40Z</time>
      </trkpt>
      <trkpt lat="62.630754070596" lon="17.973318647375">
        <ele>102</ele>
        <time>2018-02-05T18:37:41Z</time>
      </trkpt>
      <trkpt lat="62.630738228805" lon="17.97327212783">
        <ele>101.8</ele>
        <time>2018-02-05T18:37:42Z</time>
      </trkpt>
      <trkpt lat="62.6307218841" lon="17.973224770095">
        <ele>101.8</ele>
        <time>2018-02-05T18:37:43Z</time>
      </trkpt>
      <trkpt lat="62.630706712861" lon="17.973179424016">
        <ele>101.8</ele>
        <time>2018-02-05T18:37:44Z</time>
      </trkpt>
      <trkpt lat="62.630689362328" lon="17.973130892815">
        <ele>101.6</ele>
        <time>2018-02-05T18:37:45Z</time>
      </trkpt>
      <trkpt lat="62.630674610184" lon="17.973085798193">
        <ele>101.6</ele>
        <time>2018-02-05T18:37:46Z</time>
      </trkpt>
      <trkpt lat="62.630657511108" lon="17.973036009707">
        <ele>101.4</ele>
        <time>2018-02-05T18:37:47Z</time>
      </trkpt>
      <trkpt lat="62.630638232738" lon="17.972987478506">
        <ele>101.4</ele>
        <time>2018-02-05T18:37:48Z</time>
      </trkpt>
      <trkpt lat="62.630622810042" lon="17.972938779667">
        <ele>101.4</ele>
        <time>2018-02-05T18:37:49Z</time>
      </trkpt>
      <trkpt lat="62.63060621388" lon="17.972884381136">
        <ele>101.2</ele>
        <time>2018-02-05T18:37:50Z</time>
      </trkpt>
      <trkpt lat="62.630589533899" lon="17.972836604306">
        <ele>101</ele>
        <time>2018-02-05T18:37:51Z</time>
      </trkpt>
      <trkpt lat="62.630575368488" lon="17.972788156924">
        <ele>101</ele>
        <time>2018-02-05T18:37:52Z</time>
      </trkpt>
      <trkpt lat="62.630559694335" lon="17.972730154176">
        <ele>101</ele>
        <time>2018-02-05T18:37:53Z</time>
      </trkpt>
      <trkpt lat="62.630545445105" lon="17.972680617147">
        <ele>101</ele>
        <time>2018-02-05T18:37:54Z</time>
      </trkpt>
      <trkpt lat="62.630530273866" lon="17.972618088173">
        <ele>101</ele>
        <time>2018-02-05T18:37:55Z</time>
      </trkpt>
      <trkpt lat="62.630518455387" lon="17.972559833968">
        <ele>101</ele>
        <time>2018-02-05T18:37:56Z</time>
      </trkpt>
      <trkpt lat="62.630506972184" lon="17.972506944179">
        <ele>100.8</ele>
        <time>2018-02-05T18:37:57Z</time>
      </trkpt>
      <trkpt lat="62.630496327171" lon="17.972458999711">
        <ele>100.8</ele>
        <time>2018-02-05T18:37:58Z</time>
      </trkpt>
      <trkpt lat="62.630486687986" lon="17.972407199569">
        <ele>100.8</ele>
        <time>2018-02-05T18:37:59Z</time>
      </trkpt>
      <trkpt lat="62.630479395733" lon="17.972353639228">
        <ele>100.8</ele>
        <time>2018-02-05T18:38:00Z</time>
      </trkpt>
      <trkpt lat="62.630471600566" lon="17.97229982743">
        <ele>100.6</ele>
        <time>2018-02-05T18:38:01Z</time>
      </trkpt>
      <trkpt lat="62.630463553942" lon="17.972246099451">
        <ele>100.6</ele>
        <time>2018-02-05T18:38:02Z</time>
      </trkpt>
      <trkpt lat="62.630456094051" lon="17.972190778911">
        <ele>100.6</ele>
        <time>2018-02-05T18:38:03Z</time>
      </trkpt>
      <trkpt lat="62.63044947235" lon="17.972142080072">
        <ele>100.6</ele>
        <time>2018-02-05T18:38:04Z</time>
      </trkpt>
      <trkpt lat="62.630438911156" lon="17.97207267794">
        <ele>100.4</ele>
        <time>2018-02-05T18:38:05Z</time>
      </trkpt>
      <trkpt lat="62.630430864532" lon="17.972016100115">
        <ele>100.4</ele>
        <time>2018-02-05T18:38:06Z</time>
      </trkpt>
      <trkpt lat="62.630422482632" lon="17.971959438471">
        <ele>100.4</ele>
        <time>2018-02-05T18:38:07Z</time>
      </trkpt>
      <trkpt lat="62.630413933094" lon="17.971900346076">
        <ele>100.2</ele>
        <time>2018-02-05T18:38:08Z</time>
      </trkpt>
      <trkpt lat="62.630406054108" lon="17.971848713572">
        <ele>100.2</ele>
        <time>2018-02-05T18:38:09Z</time>
      </trkpt>
      <trkpt lat="62.630399348588" lon="17.971790627005">
        <ele>100.2</ele>
        <time>2018-02-05T18:38:10Z</time>
      </trkpt>
      <trkpt lat="62.630393062163" lon="17.971731199334">
        <ele>100.2</ele>
        <time>2018-02-05T18:38:11Z</time>
      </trkpt>
      <trkpt lat="62.63038576991" lon="17.971678812459">
        <ele>100</ele>
        <time>2018-02-05T18:38:12Z</time>
      </trkpt>
      <trkpt lat="62.630378477657" lon="17.971624497747">
        <ele>100</ele>
        <time>2018-02-05T18:38:13Z</time>
      </trkpt>
      <trkpt lat="62.63037068249" lon="17.971569177207">
        <ele>100</ele>
        <time>2018-02-05T18:38:14Z</time>
      </trkpt>
      <trkpt lat="62.630363557875" lon="17.971506396776">
        <ele>100</ele>
        <time>2018-02-05T18:38:15Z</time>
      </trkpt>
      <trkpt lat="62.630357858183" lon="17.971447891114">
        <ele>100</ele>
        <time>2018-02-05T18:38:16Z</time>
      </trkpt>
      <trkpt lat="62.630352745224" lon="17.971387122339">
        <ele>99.8</ele>
        <time>2018-02-05T18:38:17Z</time>
      </trkpt>
      <trkpt lat="62.630346039704" lon="17.971326605021">
        <ele>99.8</ele>
        <time>2018-02-05T18:38:18Z</time>
      </trkpt>
      <trkpt lat="62.630341429659" lon="17.971269859558">
        <ele>99.8</ele>
        <time>2018-02-05T18:38:19Z</time>
      </trkpt>
      <trkpt lat="62.630338244537" lon="17.971203977824">
        <ele>99.8</ele>
        <time>2018-02-05T18:38:20Z</time>
      </trkpt>
      <trkpt lat="62.630334556501" lon="17.971147819094">
        <ele>99.6</ele>
        <time>2018-02-05T18:38:21Z</time>
      </trkpt>
      <trkpt lat="62.630333466854" lon="17.971092163278">
        <ele>99.6</ele>
        <time>2018-02-05T18:38:22Z</time>
      </trkpt>
      <trkpt lat="62.630331371379" lon="17.971027874105">
        <ele>99.6</ele>
        <time>2018-02-05T18:38:23Z</time>
      </trkpt>
      <trkpt lat="62.630330868465" lon="17.970977331248">
        <ele>99.6</ele>
        <time>2018-02-05T18:38:24Z</time>
      </trkpt>
      <trkpt lat="62.630333885949" lon="17.970919831414">
        <ele>99.6</ele>
        <time>2018-02-05T18:38:25Z</time>
      </trkpt>
      <trkpt lat="62.630338495994" lon="17.970866354892">
        <ele>99.6</ele>
        <time>2018-02-05T18:38:26Z</time>
      </trkpt>
      <trkpt lat="62.630339753279" lon="17.970810950533">
        <ele>99.6</ele>
        <time>2018-02-05T18:38:27Z</time>
      </trkpt>
      <trkpt lat="62.63034134584" lon="17.970756132907">
        <ele>99.4</ele>
        <time>2018-02-05T18:38:28Z</time>
      </trkpt>
      <trkpt lat="62.630344447143" lon="17.970694861218">
        <ele>99.6</ele>
        <time>2018-02-05T18:38:29Z</time>
      </trkpt>
      <trkpt lat="62.630353415776" lon="17.970640630325">
        <ele>99.4</ele>
        <time>2018-02-05T18:38:30Z</time>
      </trkpt>
      <trkpt lat="62.630366994454" lon="17.970592182943">
        <ele>99.4</ele>
        <time>2018-02-05T18:38:31Z</time>
      </trkpt>
      <trkpt lat="62.630382920064" lon="17.970544909027">
        <ele>99.2</ele>
        <time>2018-02-05T18:38:32Z</time>
      </trkpt>
      <trkpt lat="62.630401946977" lon="17.970495623455">
        <ele>99.2</ele>
        <time>2018-02-05T18:38:33Z</time>
      </trkpt>
      <trkpt lat="62.630416866759" lon="17.970454803602">
        <ele>99</ele>
        <time>2018-02-05T18:38:34Z</time>
      </trkpt>
      <trkpt lat="62.630440922812" lon="17.970407278229">
        <ele>99</ele>
        <time>2018-02-05T18:38:35Z</time>
      </trkpt>
      <trkpt lat="62.630464140675" lon="17.970369978774">
        <ele>98.8</ele>
        <time>2018-02-05T18:38:36Z</time>
      </trkpt>
      <trkpt lat="62.630486185072" lon="17.970335193889">
        <ele>98.6</ele>
        <time>2018-02-05T18:38:37Z</time>
      </trkpt>
      <trkpt lat="62.63051317479" lon="17.970307533619">
        <ele>98.4</ele>
        <time>2018-02-05T18:38:38Z</time>
      </trkpt>
      <trkpt lat="62.630537566119" lon="17.970284399575">
        <ele>98.2</ele>
        <time>2018-02-05T18:38:39Z</time>
      </trkpt>
      <trkpt lat="62.630562041267" lon="17.97026721668">
        <ele>98</ele>
        <time>2018-02-05T18:38:40Z</time>
      </trkpt>
      <trkpt lat="62.630588360433" lon="17.970253302726">
        <ele>97.8</ele>
        <time>2018-02-05T18:38:41Z</time>
      </trkpt>
      <trkpt lat="62.630615517789" lon="17.970243579722">
        <ele>97.6</ele>
        <time>2018-02-05T18:38:42Z</time>
      </trkpt>
      <trkpt lat="62.630642507507" lon="17.970235868374">
        <ele>97.4</ele>
        <time>2018-02-05T18:38:43Z</time>
      </trkpt>
      <trkpt lat="62.63066907813" lon="17.970223966076">
        <ele>97.2</ele>
        <time>2018-02-05T18:38:44Z</time>
      </trkpt>
      <trkpt lat="62.630698666237" lon="17.970209549208">
        <ele>97</ele>
        <time>2018-02-05T18:38:45Z</time>
      </trkpt>
      <trkpt lat="62.630724650127" lon="17.970196976358">
        <ele>96.8</ele>
        <time>2018-02-05T18:38:46Z</time>
      </trkpt>
      <trkpt lat="62.630754824967" lon="17.970186079888">
        <ele>96.6</ele>
        <time>2018-02-05T18:38:47Z</time>
      </trkpt>
      <trkpt lat="62.630785251264" lon="17.970178200902">
        <ele>96.6</ele>
        <time>2018-02-05T18:38:48Z</time>
      </trkpt>
      <trkpt lat="62.630810145507" lon="17.970170405735">
        <ele>96.4</ele>
        <time>2018-02-05T18:38:49Z</time>
      </trkpt>
      <trkpt lat="62.63084174527" lon="17.970156324143">
        <ele>96.2</ele>
        <time>2018-02-05T18:38:50Z</time>
      </trkpt>
      <trkpt lat="62.630894467421" lon="17.970135285574">
        <ele>96</ele>
        <time>2018-02-05T18:38:52Z</time>
      </trkpt>
      <trkpt lat="62.630923468795" lon="17.970127658045">
        <ele>96</ele>
        <time>2018-02-05T18:38:53Z</time>
      </trkpt>
      <trkpt lat="62.630944591183" lon="17.970116677756">
        <ele>95.8</ele>
        <time>2018-02-05T18:38:54Z</time>
      </trkpt>
      <trkpt lat="62.630969569245" lon="17.970097650843">
        <ele>95.8</ele>
        <time>2018-02-05T18:38:55Z</time>
      </trkpt>
      <trkpt lat="62.630999073533" lon="17.970074097704">
        <ele>95.8</ele>
        <time>2018-02-05T18:38:56Z</time>
      </trkpt>
      <trkpt lat="62.63103117621" lon="17.970057417723">
        <ele>95.8</ele>
        <time>2018-02-05T18:38:57Z</time>
      </trkpt>
      <trkpt lat="62.631060261403" lon="17.970044006683">
        <ele>95.8</ele>
        <time>2018-02-05T18:38:58Z</time>
      </trkpt>
      <trkpt lat="62.631091442071" lon="17.970029925091">
        <ele>96</ele>
        <time>2018-02-05T18:38:59Z</time>
      </trkpt>
      <trkpt lat="62.63112337711" lon="17.970012323101">
        <ele>96</ele>
        <time>2018-02-05T18:39:00Z</time>
      </trkpt>
      <trkpt lat="62.631148019896" lon="17.969995726939">
        <ele>96</ele>
        <time>2018-02-05T18:39:01Z</time>
      </trkpt>
      <trkpt lat="62.631179284383" lon="17.969973682542">
        <ele>95.8</ele>
        <time>2018-02-05T18:39:02Z</time>
      </trkpt>
      <trkpt lat="62.631206693196" lon="17.969949207394">
        <ele>95.6</ele>
        <time>2018-02-05T18:39:03Z</time>
      </trkpt>
      <trkpt lat="62.631229156688" lon="17.969930515757">
        <ele>95.6</ele>
        <time>2018-02-05T18:39:04Z</time>
      </trkpt>
      <trkpt lat="62.631262935745" lon="17.969909896283">
        <ele>95.6</ele>
        <time>2018-02-05T18:39:05Z</time>
      </trkpt>
      <trkpt lat="62.631290260739" lon="17.969891372284">
        <ele>95.4</ele>
        <time>2018-02-05T18:39:06Z</time>
      </trkpt>
      <trkpt lat="62.631316328448" lon="17.969874692303">
        <ele>95.2</ele>
        <time>2018-02-05T18:39:07Z</time>
      </trkpt>
      <trkpt lat="62.631344072537" lon="17.969861113625">
        <ele>95.2</ele>
        <time>2018-02-05T18:39:08Z</time>
      </trkpt>
      <trkpt lat="62.631367793314" lon="17.969851222983">
        <ele>95.2</ele>
        <time>2018-02-05T18:39:09Z</time>
      </trkpt>
      <trkpt lat="62.631397213783" lon="17.969837141391">
        <ele>95</ele>
        <time>2018-02-05T18:39:10Z</time>
      </trkpt>
      <trkpt lat="62.631425376967" lon="17.969831525518">
        <ele>95</ele>
        <time>2018-02-05T18:39:11Z</time>
      </trkpt>
      <trkpt lat="62.631453204875" lon="17.969819707039">
        <ele>95</ele>
        <time>2018-02-05T18:39:12Z</time>
      </trkpt>
      <trkpt lat="62.631480194593" lon="17.969803529972">
        <ele>95</ele>
        <time>2018-02-05T18:39:13Z</time>
      </trkpt>
      <trkpt lat="62.631506178483" lon="17.969785927982">
        <ele>95</ele>
        <time>2018-02-05T18:39:14Z</time>
      </trkpt>
      <trkpt lat="62.631534844581" lon="17.969768242173">
        <ele>94.8</ele>
        <time>2018-02-05T18:39:15Z</time>
      </trkpt>
      <trkpt lat="62.631557978625" lon="17.96975256802">
        <ele>94.8</ele>
        <time>2018-02-05T18:39:16Z</time>
      </trkpt>
      <trkpt lat="62.631586728542" lon="17.969735636582">
        <ele>94.8</ele>
        <time>2018-02-05T18:39:17Z</time>
      </trkpt>
      <trkpt lat="62.631615646097" lon="17.969716944945">
        <ele>94.6</ele>
        <time>2018-02-05T18:39:18Z</time>
      </trkpt>
      <trkpt lat="62.631640959435" lon="17.969700684059">
        <ele>94.6</ele>
        <time>2018-02-05T18:39:19Z</time>
      </trkpt>
      <trkpt lat="62.631671301913" lon="17.969675370721">
        <ele>94.6</ele>
        <time>2018-02-05T18:39:20Z</time>
      </trkpt>
      <trkpt lat="62.631697872536" lon="17.969648381003">
        <ele>94.6</ele>
        <time>2018-02-05T18:39:21Z</time>
      </trkpt>
      <trkpt lat="62.631720084571" lon="17.969622397113">
        <ele>94.6</ele>
        <time>2018-02-05T18:39:22Z</time>
      </trkpt>
      <trkpt lat="62.631749421221" lon="17.969593563377">
        <ele>94.4</ele>
        <time>2018-02-05T18:39:23Z</time>
      </trkpt>
      <trkpt lat="62.631772890541" lon="17.969575039378">
        <ele>94.4</ele>
        <time>2018-02-05T18:39:24Z</time>
      </trkpt>
      <trkpt lat="62.631802730105" lon="17.969553330257">
        <ele>94.2</ele>
        <time>2018-02-05T18:39:25Z</time>
      </trkpt>
      <trkpt lat="62.631830893289" lon="17.969546792375">
        <ele>94.2</ele>
        <time>2018-02-05T18:39:26Z</time>
      </trkpt>
      <trkpt lat="62.63185763155" lon="17.969549642221">
        <ele>94</ele>
        <time>2018-02-05T18:39:27Z</time>
      </trkpt>
      <trkpt lat="62.631882022879" lon="17.969552408248">
        <ele>94</ele>
        <time>2018-02-05T18:39:28Z</time>
      </trkpt>
      <trkpt lat="62.631908006769" lon="17.969554168447">
        <ele>93.8</ele>
        <time>2018-02-05T18:39:29Z</time>
      </trkpt>
      <trkpt lat="62.631936505229" lon="17.969553414076">
        <ele>93.8</ele>
        <time>2018-02-05T18:39:30Z</time>
      </trkpt>
      <trkpt lat="62.63196324349" lon="17.969547965841">
        <ele>93.8</ele>
        <time>2018-02-05T18:39:31Z</time>
      </trkpt>
      <trkpt lat="62.631990484665" lon="17.96954385871">
        <ele>93.6</ele>
        <time>2018-02-05T18:39:32Z</time>
      </trkpt>
      <trkpt lat="62.63202024041" lon="17.969538578113">
        <ele>93.8</ele>
        <time>2018-02-05T18:39:33Z</time>
      </trkpt>
      <trkpt lat="62.632043290635" lon="17.969531537317">
        <ele>93.8</ele>
        <time>2018-02-05T18:39:34Z</time>
      </trkpt>
      <trkpt lat="62.632066843774" lon="17.969523323055">
        <ele>94</ele>
        <time>2018-02-05T18:39:35Z</time>
      </trkpt>
      <trkpt lat="62.632099533184" lon="17.969514857336">
        <ele>94.2</ele>
        <time>2018-02-05T18:39:36Z</time>
      </trkpt>
      <trkpt lat="62.632123589237" lon="17.969506391617">
        <ele>94.2</ele>
        <time>2018-02-05T18:39:37Z</time>
      </trkpt>
      <trkpt lat="62.632151081869" lon="17.969498680269">
        <ele>94.2</ele>
        <time>2018-02-05T18:39:38Z</time>
      </trkpt>
      <trkpt lat="62.63217530556" lon="17.969491136559">
        <ele>94.2</ele>
        <time>2018-02-05T18:39:39Z</time>
      </trkpt>
      <trkpt lat="62.632204809848" lon="17.969482084107">
        <ele>94.4</ele>
        <time>2018-02-05T18:39:40Z</time>
      </trkpt>
      <trkpt lat="62.632235152326" lon="17.969473869845">
        <ele>94.4</ele>
        <time>2018-02-05T18:39:41Z</time>
      </trkpt>
      <trkpt lat="62.63226247732" lon="17.96946842161">
        <ele>94.4</ele>
        <time>2018-02-05T18:39:42Z</time>
      </trkpt>
      <trkpt lat="62.632289047943" lon="17.96946423066">
        <ele>94.4</ele>
        <time>2018-02-05T18:39:43Z</time>
      </trkpt>
      <trkpt lat="62.632314026005" lon="17.969463643927">
        <ele>94.4</ele>
        <time>2018-02-05T18:39:44Z</time>
      </trkpt>
      <trkpt lat="62.632342021551" lon="17.969465655583">
        <ele>94.4</ele>
        <time>2018-02-05T18:39:45Z</time>
      </trkpt>
      <trkpt lat="62.632366999613" lon="17.969461296995">
        <ele>94.4</ele>
        <time>2018-02-05T18:39:46Z</time>
      </trkpt>
      <trkpt lat="62.632395498073" lon="17.96946003971">
        <ele>94.4</ele>
        <time>2018-02-05T18:39:47Z</time>
      </trkpt>
      <trkpt lat="62.632423745076" lon="17.969463643927">
        <ele>94.4</ele>
        <time>2018-02-05T18:39:48Z</time>
      </trkpt>
      <trkpt lat="62.632448136405" lon="17.969464649755">
        <ele>94.4</ele>
        <time>2018-02-05T18:39:49Z</time>
      </trkpt>
      <trkpt lat="62.632476802503" lon="17.96946423066">
        <ele>94.4</ele>
        <time>2018-02-05T18:39:50Z</time>
      </trkpt>
      <trkpt lat="62.632503792221" lon="17.969465739402">
        <ele>94.4</ele>
        <time>2018-02-05T18:39:51Z</time>
      </trkpt>
      <trkpt lat="62.632527848274" lon="17.969469427438">
        <ele>94.4</ele>
        <time>2018-02-05T18:39:52Z</time>
      </trkpt>
      <trkpt lat="62.632556598191" lon="17.969476887329">
        <ele>94.4</ele>
        <time>2018-02-05T18:39:53Z</time>
      </trkpt>
      <trkpt lat="62.632579899873" lon="17.969482251745">
        <ele>94.4</ele>
        <time>2018-02-05T18:39:54Z</time>
      </trkpt>
      <trkpt lat="62.63260948798" lon="17.969487197066">
        <ele>94.4</ele>
        <time>2018-02-05T18:39:55Z</time>
      </trkpt>
      <trkpt lat="62.632636561517" lon="17.969492058568">
        <ele>94.4</ele>
        <time>2018-02-05T18:39:56Z</time>
      </trkpt>
      <trkpt lat="62.632663299778" lon="17.969495998061">
        <ele>94.4</ele>
        <time>2018-02-05T18:39:57Z</time>
      </trkpt>
      <trkpt lat="62.632688361659" lon="17.969501194839">
        <ele>94.6</ele>
        <time>2018-02-05T18:39:58Z</time>
      </trkpt>
      <trkpt lat="62.632715519015" lon="17.969506391617">
        <ele>94.4</ele>
        <time>2018-02-05T18:39:59Z</time>
      </trkpt>
      <trkpt lat="62.632743849837" lon="17.969511923671">
        <ele>94.4</ele>
        <time>2018-02-05T18:40:00Z</time>
      </trkpt>
      <trkpt lat="62.632768995537" lon="17.969516952811">
        <ele>94.6</ele>
        <time>2018-02-05T18:40:01Z</time>
      </trkpt>
      <trkpt lat="62.63279305159" lon="17.969521981951">
        <ele>94.6</ele>
        <time>2018-02-05T18:40:02Z</time>
      </trkpt>
      <trkpt lat="62.632818867842" lon="17.969528016919">
        <ele>94.6</ele>
        <time>2018-02-05T18:40:03Z</time>
      </trkpt>
      <trkpt lat="62.632838146212" lon="17.969531704955">
        <ele>94.8</ele>
        <time>2018-02-05T18:40:04Z</time>
      </trkpt>
      <trkpt lat="62.632866225577" lon="17.969533046059">
        <ele>94.8</ele>
        <time>2018-02-05T18:40:05Z</time>
      </trkpt>
      <trkpt lat="62.632891287458" lon="17.969536650276">
        <ele>94.8</ele>
        <time>2018-02-05T18:40:06Z</time>
      </trkpt>
      <trkpt lat="62.632915678787" lon="17.969537320828">
        <ele>94.8</ele>
        <time>2018-02-05T18:40:07Z</time>
      </trkpt>
      <trkpt lat="62.632940321573" lon="17.969538242837">
        <ele>95</ele>
        <time>2018-02-05T18:40:08Z</time>
      </trkpt>
      <trkpt lat="62.632962868884" lon="17.969538410475">
        <ele>95.2</ele>
        <time>2018-02-05T18:40:09Z</time>
      </trkpt>
      <trkpt lat="62.632991283525" lon="17.969538494294">
        <ele>95</ele>
        <time>2018-02-05T18:40:10Z</time>
      </trkpt>
      <trkpt lat="62.633020703994" lon="17.969546960013">
        <ele>95.2</ele>
        <time>2018-02-05T18:40:11Z</time>
      </trkpt>
      <trkpt lat="62.633047693712" lon="17.969555761008">
        <ele>95.2</ele>
        <time>2018-02-05T18:40:12Z</time>
      </trkpt>
      <trkpt lat="62.633072336498" lon="17.969567244211">
        <ele>95.2</ele>
        <time>2018-02-05T18:40:13Z</time>
      </trkpt>
      <trkpt lat="62.633096224913" lon="17.969578978871">
        <ele>95.2</ele>
        <time>2018-02-05T18:40:14Z</time>
      </trkpt>
      <trkpt lat="62.633124052821" lon="17.969591719359">
        <ele>95.4</ele>
        <time>2018-02-05T18:40:15Z</time>
      </trkpt>
      <trkpt lat="62.633147186865" lon="17.969601023268">
        <ele>95.4</ele>
        <time>2018-02-05T18:40:16Z</time>
      </trkpt>
      <trkpt lat="62.633171829651" lon="17.969611081548">
        <ele>95.6</ele>
        <time>2018-02-05T18:40:17Z</time>
      </trkpt>
      <trkpt lat="62.633198819369" lon="17.969623235303">
        <ele>95.6</ele>
        <time>2018-02-05T18:40:18Z</time>
      </trkpt>
      <trkpt lat="62.633222456327" lon="17.969631533384">
        <ele>95.8</ele>
        <time>2018-02-05T18:40:19Z</time>
      </trkpt>
      <trkpt lat="62.633250787149" lon="17.969641843121">
        <ele>95.8</ele>
        <time>2018-02-05T18:40:20Z</time>
      </trkpt>
      <trkpt lat="62.633277357772" lon="17.969657349636">
        <ele>95.8</ele>
        <time>2018-02-05T18:40:21Z</time>
      </trkpt>
      <trkpt lat="62.633300575635" lon="17.969671682685">
        <ele>95.8</ele>
        <time>2018-02-05T18:40:22Z</time>
      </trkpt>
      <trkpt lat="62.633326559525" lon="17.969693391806">
        <ele>95.8</ele>
        <time>2018-02-05T18:40:23Z</time>
      </trkpt>
      <trkpt lat="62.633346759904" lon="17.969724740112">
        <ele>95.8</ele>
        <time>2018-02-05T18:40:24Z</time>
      </trkpt>
      <trkpt lat="62.633367798473" lon="17.969772349304">
        <ele>95.8</ele>
        <time>2018-02-05T18:40:25Z</time>
      </trkpt>
      <trkpt lat="62.633381880065" lon="17.969817276288">
        <ele>95.8</ele>
        <time>2018-02-05T18:40:26Z</time>
      </trkpt>
      <trkpt lat="62.633391351612" lon="17.969867064774">
        <ele>95.8</ele>
        <time>2018-02-05T18:40:27Z</time>
      </trkpt>
      <trkpt lat="62.633396296933" lon="17.96991266231">
        <ele>95.8</ele>
        <time>2018-02-05T18:40:28Z</time>
      </trkpt>
      <trkpt lat="62.63340073934" lon="17.969962031701">
        <ele>96</ele>
        <time>2018-02-05T18:40:29Z</time>
      </trkpt>
      <trkpt lat="62.633403421548" lon="17.970018860983">
        <ele>96.2</ele>
        <time>2018-02-05T18:40:30Z</time>
      </trkpt>
      <trkpt lat="62.633407025765" lon="17.970069320021">
        <ele>96.2</ele>
        <time>2018-02-05T18:40:31Z</time>
      </trkpt>
      <trkpt lat="62.63340912124" lon="17.970119359964">
        <ele>96.2</ele>
        <time>2018-02-05T18:40:32Z</time>
      </trkpt>
      <trkpt lat="62.63341163581" lon="17.970176943617">
        <ele>96.4</ele>
        <time>2018-02-05T18:40:33Z</time>
      </trkpt>
      <trkpt lat="62.633413228371" lon="17.970221283868">
        <ele>96.4</ele>
        <time>2018-02-05T18:40:34Z</time>
      </trkpt>
      <trkpt lat="62.633415240027" lon="17.970277526417">
        <ele>96.6</ele>
        <time>2018-02-05T18:40:35Z</time>
      </trkpt>
      <trkpt lat="62.633417670778" lon="17.970328069274">
        <ele>96.8</ele>
        <time>2018-02-05T18:40:36Z</time>
      </trkpt>
      <trkpt lat="62.633419933891" lon="17.970377103389">
        <ele>96.8</ele>
        <time>2018-02-05T18:40:37Z</time>
      </trkpt>
      <trkpt lat="62.633422783737" lon="17.970429238807">
        <ele>97</ele>
        <time>2018-02-05T18:40:38Z</time>
      </trkpt>
      <trkpt lat="62.633423202832" lon="17.970475423076">
        <ele>97.2</ele>
        <time>2018-02-05T18:40:39Z</time>
      </trkpt>
      <trkpt lat="62.633424376298" lon="17.970532671453">
        <ele>97.4</ele>
        <time>2018-02-05T18:40:40Z</time>
      </trkpt>
      <trkpt lat="62.633426387954" lon="17.970589249278">
        <ele>97.4</ele>
        <time>2018-02-05T18:40:41Z</time>
      </trkpt>
      <trkpt lat="62.633427477601" lon="17.97064524037">
        <ele>97.4</ele>
        <time>2018-02-05T18:40:42Z</time>
      </trkpt>
      <trkpt lat="62.633428567248" lon="17.97069888453">
        <ele>97.6</ele>
        <time>2018-02-05T18:40:43Z</time>
      </trkpt>
      <trkpt lat="62.633430327447" lon="17.970747918645">
        <ele>97.6</ele>
        <time>2018-02-05T18:40:44Z</time>
      </trkpt>
      <trkpt lat="62.633432171465" lon="17.970805418479">
        <ele>97.8</ele>
        <time>2018-02-05T18:40:45Z</time>
      </trkpt>
      <trkpt lat="62.633434434578" lon="17.970853865861">
        <ele>97.8</ele>
        <time>2018-02-05T18:40:46Z</time>
      </trkpt>
      <trkpt lat="62.633436613872" lon="17.97090843203">
        <ele>97.8</ele>
        <time>2018-02-05T18:40:47Z</time>
      </trkpt>
      <trkpt lat="62.633438038795" lon="17.970967692063">
        <ele>98</ele>
        <time>2018-02-05T18:40:48Z</time>
      </trkpt>
      <trkpt lat="62.633439463718" lon="17.971019659843">
        <ele>98.2</ele>
        <time>2018-02-05T18:40:49Z</time>
      </trkpt>
      <trkpt lat="62.633442062107" lon="17.971074812745">
        <ele>98.2</ele>
        <time>2018-02-05T18:40:50Z</time>
      </trkpt>
      <trkpt lat="62.633444576677" lon="17.971129378914">
        <ele>98.4</ele>
        <time>2018-02-05T18:40:51Z</time>
      </trkpt>
      <trkpt lat="62.633446923609" lon="17.971180424685">
        <ele>98.4</ele>
        <time>2018-02-05T18:40:52Z</time>
      </trkpt>
      <trkpt lat="62.633449941093" lon="17.971237253967">
        <ele>98.6</ele>
        <time>2018-02-05T18:40:53Z</time>
      </trkpt>
      <trkpt lat="62.633449521998" lon="17.97128561753">
        <ele>98.6</ele>
        <time>2018-02-05T18:40:54Z</time>
      </trkpt>
      <trkpt lat="62.633449605817" lon="17.971347056857">
        <ele>98.8</ele>
        <time>2018-02-05T18:40:55Z</time>
      </trkpt>
      <trkpt lat="62.633449186722" lon="17.971398689361">
        <ele>98.8</ele>
        <time>2018-02-05T18:40:56Z</time>
      </trkpt>
      <trkpt lat="62.633446085419" lon="17.971454345177">
        <ele>98.8</ele>
        <time>2018-02-05T18:40:57Z</time>
      </trkpt>
      <trkpt lat="62.633443235573" lon="17.971504720396">
        <ele>99</ele>
        <time>2018-02-05T18:40:58Z</time>
      </trkpt>
      <trkpt lat="62.633441307736" lon="17.971558448375">
        <ele>99.2</ele>
        <time>2018-02-05T18:40:59Z</time>
      </trkpt>
      <trkpt lat="62.633439128442" lon="17.971616786399">
        <ele>99.4</ele>
        <time>2018-02-05T18:41:00Z</time>
      </trkpt>
      <trkpt lat="62.633435272768" lon="17.971669843826">
        <ele>99.4</ele>
        <time>2018-02-05T18:41:01Z</time>
      </trkpt>
      <trkpt lat="62.633432171465" lon="17.971719632312">
        <ele>99.6</ele>
        <time>2018-02-05T18:41:02Z</time>
      </trkpt>
      <trkpt lat="62.633427477601" lon="17.971776461594">
        <ele>99.6</ele>
        <time>2018-02-05T18:41:03Z</time>
      </trkpt>
      <trkpt lat="62.633423538108" lon="17.971821472397">
        <ele>99.6</ele>
        <time>2018-02-05T18:41:04Z</time>
      </trkpt>
      <trkpt lat="62.633417670778" lon="17.971881738258">
        <ele>99.8</ele>
        <time>2018-02-05T18:41:05Z</time>
      </trkpt>
      <trkpt lat="62.633410965258" lon="17.971936555884">
        <ele>100</ele>
        <time>2018-02-05T18:41:06Z</time>
      </trkpt>
      <trkpt lat="62.633404343557" lon="17.971992882252">
        <ele>100</ele>
        <time>2018-02-05T18:41:07Z</time>
      </trkpt>
      <trkpt lat="62.633398643865" lon="17.972045436765">
        <ele>100.2</ele>
        <time>2018-02-05T18:41:08Z</time>
      </trkpt>
      <trkpt lat="62.633391854526" lon="17.972094219423">
        <ele>100.2</ele>
        <time>2018-02-05T18:41:09Z</time>
      </trkpt>
      <trkpt lat="62.633382215341" lon="17.972151803076">
        <ele>100.2</ele>
        <time>2018-02-05T18:41:10Z</time>
      </trkpt>
      <trkpt lat="62.633373833441" lon="17.972205195779">
        <ele>100.4</ele>
        <time>2018-02-05T18:41:11Z</time>
      </trkpt>
      <trkpt lat="62.633364864808" lon="17.9722604325">
        <ele>100.4</ele>
        <time>2018-02-05T18:41:12Z</time>
      </trkpt>
      <trkpt lat="62.633354806528" lon="17.972308712244">
        <ele>100.6</ele>
        <time>2018-02-05T18:41:13Z</time>
      </trkpt>
      <trkpt lat="62.633345670257" lon="17.972355902341">
        <ele>100.6</ele>
        <time>2018-02-05T18:41:14Z</time>
      </trkpt>
      <trkpt lat="62.633335276701" lon="17.972408456854">
        <ele>100.6</ele>
        <time>2018-02-05T18:41:15Z</time>
      </trkpt>
      <trkpt lat="62.633326475706" lon="17.972452042734">
        <ele>100.8</ele>
        <time>2018-02-05T18:41:16Z</time>
      </trkpt>
      <trkpt lat="62.633317674711" lon="17.972496382985">
        <ele>100.8</ele>
        <time>2018-02-05T18:41:17Z</time>
      </trkpt>
      <trkpt lat="62.633305772413" lon="17.972549272774">
        <ele>101</ele>
        <time>2018-02-05T18:41:18Z</time>
      </trkpt>
      <trkpt lat="62.633295043581" lon="17.972596462871">
        <ele>101</ele>
        <time>2018-02-05T18:41:19Z</time>
      </trkpt>
      <trkpt lat="62.633284147111" lon="17.972648849746">
        <ele>101.2</ele>
        <time>2018-02-05T18:41:20Z</time>
      </trkpt>
      <trkpt lat="62.633273502098" lon="17.97270132044">
        <ele>101.2</ele>
        <time>2018-02-05T18:41:21Z</time>
      </trkpt>
      <trkpt lat="62.633264617284" lon="17.972747756166">
        <ele>101.4</ele>
        <time>2018-02-05T18:41:22Z</time>
      </trkpt>
      <trkpt lat="62.633256151565" lon="17.972797293195">
        <ele>101.4</ele>
        <time>2018-02-05T18:41:23Z</time>
      </trkpt>
      <trkpt lat="62.633247182932" lon="17.972839789428">
        <ele>101.4</ele>
        <time>2018-02-05T18:41:24Z</time>
      </trkpt>
      <trkpt lat="62.633234358625" lon="17.972896534891">
        <ele>101.6</ele>
        <time>2018-02-05T18:41:25Z</time>
      </trkpt>
      <trkpt lat="62.633224216526" lon="17.97294188097">
        <ele>101.6</ele>
        <time>2018-02-05T18:41:26Z</time>
      </trkpt>
      <trkpt lat="62.633214242065" lon="17.97299384875">
        <ele>101.8</ele>
        <time>2018-02-05T18:41:27Z</time>
      </trkpt>
      <trkpt lat="62.633204854337" lon="17.973040200657">
        <ele>101.8</ele>
        <time>2018-02-05T18:41:28Z</time>
      </trkpt>
      <trkpt lat="62.633195718066" lon="17.973088648039">
        <ele>101.8</ele>
        <time>2018-02-05T18:41:29Z</time>
      </trkpt>
      <trkpt lat="62.633184653958" lon="17.973140029086">
        <ele>102</ele>
        <time>2018-02-05T18:41:30Z</time>
      </trkpt>
      <trkpt lat="62.633173925126" lon="17.973186464812">
        <ele>102</ele>
        <time>2018-02-05T18:41:31Z</time>
      </trkpt>
      <trkpt lat="62.633164705036" lon="17.973231391796">
        <ele>102</ele>
        <time>2018-02-05T18:41:32Z</time>
      </trkpt>
      <trkpt lat="62.6331526351" lon="17.973285455051">
        <ele>102.2</ele>
        <time>2018-02-05T18:41:33Z</time>
      </trkpt>
      <trkpt lat="62.633141822449" lon="17.973328705655">
        <ele>102.2</ele>
        <time>2018-02-05T18:41:34Z</time>
      </trkpt>
      <trkpt lat="62.633128411409" lon="17.97338276891">
        <ele>102.4</ele>
        <time>2018-02-05T18:41:35Z</time>
      </trkpt>
      <trkpt lat="62.63311575474" lon="17.973435323423">
        <ele>102.4</ele>
        <time>2018-02-05T18:41:36Z</time>
      </trkpt>
      <trkpt lat="62.633104355356" lon="17.973484944271">
        <ele>102.4</ele>
        <time>2018-02-05T18:41:37Z</time>
      </trkpt>
      <trkpt lat="62.633092704515" lon="17.973532302006">
        <ele>102.4</ele>
        <time>2018-02-05T18:41:38Z</time>
      </trkpt>
      <trkpt lat="62.633082981511" lon="17.973572786583">
        <ele>102.6</ele>
        <time>2018-02-05T18:41:39Z</time>
      </trkpt>
      <trkpt lat="62.633071163032" lon="17.97362500582">
        <ele>102.8</ele>
        <time>2018-02-05T18:41:40Z</time>
      </trkpt>
      <trkpt lat="62.6330604342" lon="17.973675716315">
        <ele>102.8</ele>
        <time>2018-02-05T18:41:41Z</time>
      </trkpt>
      <trkpt lat="62.633048448083" lon="17.973725337163">
        <ele>103</ele>
        <time>2018-02-05T18:41:42Z</time>
      </trkpt>
      <trkpt lat="62.633037300156" lon="17.973779148961">
        <ele>103.2</ele>
        <time>2018-02-05T18:41:43Z</time>
      </trkpt>
      <trkpt lat="62.63302774479" lon="17.973825081773">
        <ele>103.4</ele>
        <time>2018-02-05T18:41:44Z</time>
      </trkpt>
      <trkpt lat="62.633014752845" lon="17.973877384829">
        <ele>103.4</ele>
        <time>2018-02-05T18:41:45Z</time>
      </trkpt>
      <trkpt lat="62.633001677081" lon="17.973923066184">
        <ele>103.4</ele>
        <time>2018-02-05T18:41:46Z</time>
      </trkpt>
      <trkpt lat="62.632989271869" lon="17.973972687032">
        <ele>103.6</ele>
        <time>2018-02-05T18:41:47Z</time>
      </trkpt>
      <trkpt lat="62.632976196105" lon="17.974026079735">
        <ele>103.6</ele>
        <time>2018-02-05T18:41:48Z</time>
      </trkpt>
      <trkpt lat="62.632963874712" lon="17.974072850737">
        <ele>103.6</ele>
        <time>2018-02-05T18:41:49Z</time>
      </trkpt>
      <trkpt lat="62.632950798948" lon="17.974124064146">
        <ele>103.8</ele>
        <time>2018-02-05T18:41:50Z</time>
      </trkpt>
      <trkpt lat="62.632939315745" lon="17.974172176252">
        <ele>103.8</ele>
        <time>2018-02-05T18:41:51Z</time>
      </trkpt>
      <trkpt lat="62.632928251637" lon="17.97422263529">
        <ele>104</ele>
        <time>2018-02-05T18:41:52Z</time>
      </trkpt>
      <trkpt lat="62.632916768434" lon="17.974276447088">
        <ele>104</ele>
        <time>2018-02-05T18:41:53Z</time>
      </trkpt>
      <trkpt lat="62.632906039602" lon="17.974320032968">
        <ele>104</ele>
        <time>2018-02-05T18:41:54Z</time>
      </trkpt>
      <trkpt lat="62.632890952182" lon="17.974378706268">
        <ele>104</ele>
        <time>2018-02-05T18:41:55Z</time>
      </trkpt>
      <trkpt lat="62.632878966065" lon="17.974431931333">
        <ele>104</ele>
        <time>2018-02-05T18:41:56Z</time>
      </trkpt>
      <trkpt lat="62.632866309396" lon="17.97448415057">
        <ele>104</ele>
        <time>2018-02-05T18:41:57Z</time>
      </trkpt>
      <trkpt lat="62.632852982175" lon="17.974535783074">
        <ele>104.2</ele>
        <time>2018-02-05T18:41:58Z</time>
      </trkpt>
      <trkpt lat="62.632838984402" lon="17.974585487741">
        <ele>104.2</ele>
        <time>2018-02-05T18:41:59Z</time>
      </trkpt>
      <trkpt lat="62.632823561706" lon="17.974638461349">
        <ele>104.2</ele>
        <time>2018-02-05T18:42:00Z</time>
      </trkpt>
      <trkpt lat="62.632808725743" lon="17.97469202169">
        <ele>104.2</ele>
        <time>2018-02-05T18:42:01Z</time>
      </trkpt>
      <trkpt lat="62.632797577816" lon="17.974738205959">
        <ele>104.4</ele>
        <time>2018-02-05T18:42:02Z</time>
      </trkpt>
      <trkpt lat="62.632785256423" lon="17.97479763363">
        <ele>104.4</ele>
        <time>2018-02-05T18:42:03Z</time>
      </trkpt>
      <trkpt lat="62.632774108496" lon="17.974843314985">
        <ele>104.4</ele>
        <time>2018-02-05T18:42:04Z</time>
      </trkpt>
      <trkpt lat="62.632761116551" lon="17.974900982457">
        <ele>104.4</ele>
        <time>2018-02-05T18:42:05Z</time>
      </trkpt>
      <trkpt lat="62.632748962796" lon="17.974947334364">
        <ele>104.4</ele>
        <time>2018-02-05T18:42:06Z</time>
      </trkpt>
      <trkpt lat="62.632736809041" lon="17.974999218325">
        <ele>104.6</ele>
        <time>2018-02-05T18:42:07Z</time>
      </trkpt>
      <trkpt lat="62.632727002218" lon="17.975048168621">
        <ele>104.6</ele>
        <time>2018-02-05T18:42:08Z</time>
      </trkpt>
      <trkpt lat="62.632718117404" lon="17.975092005958">
        <ele>104.6</ele>
        <time>2018-02-05T18:42:09Z</time>
      </trkpt>
      <trkpt lat="62.632706131287" lon="17.975152942371">
        <ele>104.6</ele>
        <time>2018-02-05T18:42:10Z</time>
      </trkpt>
      <trkpt lat="62.632693558437" lon="17.97521253768">
        <ele>104.6</ele>
        <time>2018-02-05T18:42:11Z</time>
      </trkpt>
      <trkpt lat="62.632680147397" lon="17.975265259831">
        <ele>104.6</ele>
        <time>2018-02-05T18:42:12Z</time>
      </trkpt>
      <trkpt lat="62.632664473244" lon="17.975315551231">
        <ele>104.6</ele>
        <time>2018-02-05T18:42:13Z</time>
      </trkpt>
      <trkpt lat="62.632651900394" lon="17.975362992785">
        <ele>104.6</ele>
        <time>2018-02-05T18:42:14Z</time>
      </trkpt>
      <trkpt lat="62.632639411363" lon="17.975417726592">
        <ele>104.8</ele>
        <time>2018-02-05T18:42:15Z</time>
      </trkpt>
      <trkpt lat="62.632627844341" lon="17.975467431259">
        <ele>104.8</ele>
        <time>2018-02-05T18:42:16Z</time>
      </trkpt>
      <trkpt lat="62.632617283147" lon="17.975516549193">
        <ele>104.8</ele>
        <time>2018-02-05T18:42:17Z</time>
      </trkpt>
      <trkpt lat="62.632606805772" lon="17.975569355163">
        <ele>104.8</ele>
        <time>2018-02-05T18:42:18Z</time>
      </trkpt>
      <trkpt lat="62.632596747492" lon="17.975621825857">
        <ele>104.8</ele>
        <time>2018-02-05T18:42:19Z</time>
      </trkpt>
      <trkpt lat="62.632586605393" lon="17.975674967103">
        <ele>104.8</ele>
        <time>2018-02-05T18:42:20Z</time>
      </trkpt>
      <trkpt lat="62.632577301484" lon="17.975727353978">
        <ele>105</ele>
        <time>2018-02-05T18:42:21Z</time>
      </trkpt>
      <trkpt lat="62.632566153557" lon="17.975780159948">
        <ele>105</ele>
        <time>2018-02-05T18:42:22Z</time>
      </trkpt>
      <trkpt lat="62.632553664526" lon="17.975838162696">
        <ele>105</ele>
        <time>2018-02-05T18:42:23Z</time>
      </trkpt>
      <trkpt lat="62.632543606246" lon="17.97588560425">
        <ele>105</ele>
        <time>2018-02-05T18:42:24Z</time>
      </trkpt>
      <trkpt lat="62.632528770283" lon="17.975947378853">
        <ele>105</ele>
        <time>2018-02-05T18:42:25Z</time>
      </trkpt>
      <trkpt lat="62.632515359243" lon="17.975998173167">
        <ele>105</ele>
        <time>2018-02-05T18:42:26Z</time>
      </trkpt>
      <trkpt lat="62.632503708402" lon="17.976051062956">
        <ele>105</ele>
        <time>2018-02-05T18:42:27Z</time>
      </trkpt>
      <trkpt lat="62.632493398665" lon="17.976103366012">
        <ele>105</ele>
        <time>2018-02-05T18:42:28Z</time>
      </trkpt>
      <trkpt lat="62.632484262394" lon="17.976157596905">
        <ele>105.2</ele>
        <time>2018-02-05T18:42:29Z</time>
      </trkpt>
      <trkpt lat="62.632473365924" lon="17.976212246893">
        <ele>105.2</ele>
        <time>2018-02-05T18:42:30Z</time>
      </trkpt>
      <trkpt lat="62.632462385635" lon="17.976266645424">
        <ele>105.2</ele>
        <time>2018-02-05T18:42:31Z</time>
      </trkpt>
      <trkpt lat="62.632451740622" lon="17.97631559572">
        <ele>105.4</ele>
        <time>2018-02-05T18:42:32Z</time>
      </trkpt>
      <trkpt lat="62.632440089781" lon="17.976370245708">
        <ele>105.4</ele>
        <time>2018-02-05T18:42:33Z</time>
      </trkpt>
      <trkpt lat="62.632429025673" lon="17.976415759425">
        <ele>105.4</ele>
        <time>2018-02-05T18:42:34Z</time>
      </trkpt>
      <trkpt lat="62.632414692624" lon="17.976476276743">
        <ele>105.6</ele>
        <time>2018-02-05T18:42:35Z</time>
      </trkpt>
      <trkpt lat="62.632406981276" lon="17.976514665845">
        <ele>105.6</ele>
        <time>2018-02-05T18:42:36Z</time>
      </trkpt>
      <trkpt lat="62.632392732046" lon="17.976582475416">
        <ele>105.6</ele>
        <time>2018-02-05T18:42:37Z</time>
      </trkpt>
      <trkpt lat="62.632382757585" lon="17.976637209223">
        <ele>105.6</ele>
        <time>2018-02-05T18:42:38Z</time>
      </trkpt>
      <trkpt lat="62.632374375685" lon="17.976684566958">
        <ele>105.8</ele>
        <time>2018-02-05T18:42:39Z</time>
      </trkpt>
      <trkpt lat="62.632362557206" lon="17.976741480059">
        <ele>105.8</ele>
        <time>2018-02-05T18:42:40Z</time>
      </trkpt>
      <trkpt lat="62.632350654908" lon="17.97679587859">
        <ele>106</ele>
        <time>2018-02-05T18:42:41Z</time>
      </trkpt>
      <trkpt lat="62.63233875261" lon="17.976848265465">
        <ele>105.8</ele>
        <time>2018-02-05T18:42:42Z</time>
      </trkpt>
      <trkpt lat="62.63232450338" lon="17.976901993444">
        <ele>106</ele>
        <time>2018-02-05T18:42:43Z</time>
      </trkpt>
      <trkpt lat="62.632314864195" lon="17.976949183541">
        <ele>106</ele>
        <time>2018-02-05T18:42:44Z</time>
      </trkpt>
      <trkpt lat="62.632303297173" lon="17.977002240968">
        <ele>106</ele>
        <time>2018-02-05T18:42:45Z</time>
      </trkpt>
      <trkpt lat="62.632291730151" lon="17.977052783825">
        <ele>106</ele>
        <time>2018-02-05T18:42:46Z</time>
      </trkpt>
      <trkpt lat="62.6322809175" lon="17.977106763261">
        <ele>106.2</ele>
        <time>2018-02-05T18:42:47Z</time>
      </trkpt>
      <trkpt lat="62.632270691582" lon="17.977161580887">
        <ele>106.2</ele>
        <time>2018-02-05T18:42:48Z</time>
      </trkpt>
      <trkpt lat="62.632260381845" lon="17.977209190079">
        <ele>106.2</ele>
        <time>2018-02-05T18:42:49Z</time>
      </trkpt>
      <trkpt lat="62.632248311909" lon="17.97726358861">
        <ele>106.2</ele>
        <time>2018-02-05T18:42:50Z</time>
      </trkpt>
      <trkpt lat="62.63223733162" lon="17.977314466743">
        <ele>106.4</ele>
        <time>2018-02-05T18:42:51Z</time>
      </trkpt>
      <trkpt lat="62.632226016055" lon="17.977362997944">
        <ele>106.4</ele>
        <time>2018-02-05T18:42:52Z</time>
      </trkpt>
      <trkpt lat="62.632212772653" lon="17.977417228837">
        <ele>106.4</ele>
        <time>2018-02-05T18:42:53Z</time>
      </trkpt>
      <trkpt lat="62.632202379097" lon="17.977459641251">
        <ele>106.4</ele>
        <time>2018-02-05T18:42:54Z</time>
      </trkpt>
      <trkpt lat="62.632187962229" lon="17.977517476361">
        <ele>106.6</ele>
        <time>2018-02-05T18:42:55Z</time>
      </trkpt>
      <trkpt lat="62.632176059931" lon="17.9775661752">
        <ele>106.6</ele>
        <time>2018-02-05T18:42:56Z</time>
      </trkpt>
      <trkpt lat="62.632165163461" lon="17.977615209315">
        <ele>106.8</ele>
        <time>2018-02-05T18:42:57Z</time>
      </trkpt>
      <trkpt lat="62.632152171516" lon="17.977661393584">
        <ele>106.8</ele>
        <time>2018-02-05T18:42:58Z</time>
      </trkpt>
      <trkpt lat="62.632139850123" lon="17.977712104079">
        <ele>106.8</ele>
        <time>2018-02-05T18:42:59Z</time>
      </trkpt>
      <trkpt lat="62.632127109635" lon="17.977766418791">
        <ele>106.8</ele>
        <time>2018-02-05T18:43:00Z</time>
      </trkpt>
      <trkpt lat="62.632113363319" lon="17.977817548381">
        <ele>106.8</ele>
        <time>2018-02-05T18:43:01Z</time>
      </trkpt>
      <trkpt lat="62.632101041926" lon="17.977865157573">
        <ele>107</ele>
        <time>2018-02-05T18:43:02Z</time>
      </trkpt>
      <trkpt lat="62.632088301438" lon="17.977920897208">
        <ele>107</ele>
        <time>2018-02-05T18:43:03Z</time>
      </trkpt>
      <trkpt lat="62.632076315321" lon="17.977967584391">
        <ele>107</ele>
        <time>2018-02-05T18:43:04Z</time>
      </trkpt>
      <trkpt lat="62.632062317548" lon="17.978025168044">
        <ele>107</ele>
        <time>2018-02-05T18:43:05Z</time>
      </trkpt>
      <trkpt lat="62.632051421078" lon="17.978076800548">
        <ele>107.2</ele>
        <time>2018-02-05T18:43:06Z</time>
      </trkpt>
      <trkpt lat="62.632038764409" lon="17.978127008129">
        <ele>107.2</ele>
        <time>2018-02-05T18:43:07Z</time>
      </trkpt>
      <trkpt lat="62.632027532663" lon="17.978177550986">
        <ele>107.2</ele>
        <time>2018-02-05T18:43:08Z</time>
      </trkpt>
      <trkpt lat="62.632018396392" lon="17.978221136866">
        <ele>107.4</ele>
        <time>2018-02-05T18:43:09Z</time>
      </trkpt>
      <trkpt lat="62.632008254293" lon="17.978272098818">
        <ele>107.4</ele>
        <time>2018-02-05T18:43:10Z</time>
      </trkpt>
      <trkpt lat="62.631995597624" lon="17.978331610308">
        <ele>107.4</ele>
        <time>2018-02-05T18:43:11Z</time>
      </trkpt>
      <trkpt lat="62.631984784973" lon="17.978384332459">
        <ele>107.6</ele>
        <time>2018-02-05T18:43:12Z</time>
      </trkpt>
      <trkpt lat="62.631971793028" lon="17.9784378928">
        <ele>107.6</ele>
        <time>2018-02-05T18:43:13Z</time>
      </trkpt>
      <trkpt lat="62.631961818567" lon="17.978482484508">
        <ele>107.8</ele>
        <time>2018-02-05T18:43:14Z</time>
      </trkpt>
      <trkpt lat="62.631952179382" lon="17.978536631582">
        <ele>107.8</ele>
        <time>2018-02-05T18:43:15Z</time>
      </trkpt>
      <trkpt lat="62.631941702007" lon="17.978583905498">
        <ele>107.6</ele>
        <time>2018-02-05T18:43:16Z</time>
      </trkpt>
      <trkpt lat="62.631930386442" lon="17.978632855794">
        <ele>107.8</ele>
        <time>2018-02-05T18:43:17Z</time>
      </trkpt>
      <trkpt lat="62.631918400325" lon="17.978685494126">
        <ele>107.8</ele>
        <time>2018-02-05T18:43:18Z</time>
      </trkpt>
      <trkpt lat="62.63190792295" lon="17.978732684223">
        <ele>107.8</ele>
        <time>2018-02-05T18:43:19Z</time>
      </trkpt>
      <trkpt lat="62.6318953501" lon="17.978787585668">
        <ele>107.8</ele>
        <time>2018-02-05T18:43:20Z</time>
      </trkpt>
      <trkpt lat="62.631883699259" lon="17.97883770943">
        <ele>108</ele>
        <time>2018-02-05T18:43:21Z</time>
      </trkpt>
      <trkpt lat="62.63187188078" lon="17.978884396613">
        <ele>108</ele>
        <time>2018-02-05T18:43:22Z</time>
      </trkpt>
      <trkpt lat="62.631858385921" lon="17.978939046601">
        <ele>108</ele>
        <time>2018-02-05T18:43:23Z</time>
      </trkpt>
      <trkpt lat="62.631848998193" lon="17.978980872282">
        <ele>108</ele>
        <time>2018-02-05T18:43:24Z</time>
      </trkpt>
      <trkpt lat="62.631835754791" lon="17.979036695736">
        <ele>108.2</ele>
        <time>2018-02-05T18:43:25Z</time>
      </trkpt>
      <trkpt lat="62.631823852493" lon="17.979085981308">
        <ele>108.2</ele>
        <time>2018-02-05T18:43:26Z</time>
      </trkpt>
      <trkpt lat="62.631813458937" lon="17.979131411206">
        <ele>108.4</ele>
        <time>2018-02-05T18:43:27Z</time>
      </trkpt>
      <trkpt lat="62.631802897743" lon="17.979175919095">
        <ele>108.6</ele>
        <time>2018-02-05T18:43:28Z</time>
      </trkpt>
      <trkpt lat="62.631790408712" lon="17.979224450296">
        <ele>108.6</ele>
        <time>2018-02-05T18:43:29Z</time>
      </trkpt>
      <trkpt lat="62.631777668224" lon="17.979274657877">
        <ele>108.8</ele>
        <time>2018-02-05T18:43:30Z</time>
      </trkpt>
      <trkpt lat="62.631765263012" lon="17.979323105259">
        <ele>108.8</ele>
        <time>2018-02-05T18:43:31Z</time>
      </trkpt>
      <trkpt lat="62.631753863628" lon="17.979369205709">
        <ele>109</ele>
        <time>2018-02-05T18:43:32Z</time>
      </trkpt>
      <trkpt lat="62.631742548063" lon="17.979417569272">
        <ele>109</ele>
        <time>2018-02-05T18:43:33Z</time>
      </trkpt>
      <trkpt lat="62.631733495611" lon="17.979462077161">
        <ele>109</ele>
        <time>2018-02-05T18:43:34Z</time>
      </trkpt>
      <trkpt lat="62.631721677132" lon="17.979524522316">
        <ele>109</ele>
        <time>2018-02-05T18:43:35Z</time>
      </trkpt>
      <trkpt lat="62.631711283576" lon="17.979575148992">
        <ele>109</ele>
        <time>2018-02-05T18:43:36Z</time>
      </trkpt>
      <trkpt lat="62.631698710726" lon="17.979626530039">
        <ele>109</ele>
        <time>2018-02-05T18:43:37Z</time>
      </trkpt>
      <trkpt lat="62.63168496441" lon="17.979678330181">
        <ele>109</ele>
        <time>2018-02-05T18:43:38Z</time>
      </trkpt>
      <trkpt lat="62.631674487035" lon="17.979720574957">
        <ele>109.2</ele>
        <time>2018-02-05T18:43:39Z</time>
      </trkpt>
      <trkpt lat="62.631660153986" lon="17.979772710375">
        <ele>109.2</ele>
        <time>2018-02-05T18:43:40Z</time>
      </trkpt>
      <trkpt lat="62.631643976919" lon="17.979821828309">
        <ele>109.2</ele>
        <time>2018-02-05T18:43:41Z</time>
      </trkpt>
      <trkpt lat="62.631630565879" lon="17.979867342026">
        <ele>109.2</ele>
        <time>2018-02-05T18:43:42Z</time>
      </trkpt>
      <trkpt lat="62.631613299165" lon="17.979916543779">
        <ele>109.2</ele>
        <time>2018-02-05T18:43:43Z</time>
      </trkpt>
      <trkpt lat="62.631595948632" lon="17.979961135487">
        <ele>109.4</ele>
        <time>2018-02-05T18:43:44Z</time>
      </trkpt>
      <trkpt lat="62.631575245339" lon="17.980005894833">
        <ele>109.4</ele>
        <time>2018-02-05T18:43:45Z</time>
      </trkpt>
      <trkpt lat="62.631554625865" lon="17.980041098813">
        <ele>109.4</ele>
        <time>2018-02-05T18:43:46Z</time>
      </trkpt>
      <trkpt lat="62.631529480165" lon="17.980071106015">
        <ele>109.4</ele>
        <time>2018-02-05T18:43:47Z</time>
      </trkpt>
      <trkpt lat="62.631501233162" lon="17.980090132928">
        <ele>109.6</ele>
        <time>2018-02-05T18:43:48Z</time>
      </trkpt>
      <trkpt lat="62.631475333091" lon="17.980095748801">
        <ele>109.6</ele>
        <time>2018-02-05T18:43:49Z</time>
      </trkpt>
      <trkpt lat="62.631445912622" lon="17.980094407697">
        <ele>109.4</ele>
        <time>2018-02-05T18:43:50Z</time>
      </trkpt>
      <trkpt lat="62.631420180189" lon="17.980091725489">
        <ele>109.6</ele>
        <time>2018-02-05T18:43:51Z</time>
      </trkpt>
      <trkpt lat="62.631396291774" lon="17.980080829019">
        <ele>109.4</ele>
        <time>2018-02-05T18:43:52Z</time>
      </trkpt>
      <trkpt lat="62.631372151902" lon="17.980061047735">
        <ele>109.4</ele>
        <time>2018-02-05T18:43:53Z</time>
      </trkpt>
      <trkpt lat="62.631351197152" lon="17.98004805579">
        <ele>109.6</ele>
        <time>2018-02-05T18:43:54Z</time>
      </trkpt>
      <trkpt lat="62.631322614873" lon="17.980028023049">
        <ele>109.4</ele>
        <time>2018-02-05T18:43:55Z</time>
      </trkpt>
      <trkpt lat="62.631297552992" lon="17.980013019448">
        <ele>109.6</ele>
        <time>2018-02-05T18:43:56Z</time>
      </trkpt>
      <trkpt lat="62.631274335129" lon="17.980004050815">
        <ele>109.6</ele>
        <time>2018-02-05T18:43:57Z</time>
      </trkpt>
      <trkpt lat="62.631252709827" lon="17.979989969223">
        <ele>109.8</ele>
        <time>2018-02-05T18:43:58Z</time>
      </trkpt>
      <trkpt lat="62.631228737593" lon="17.979969601206">
        <ele>109.8</ele>
        <time>2018-02-05T18:43:59Z</time>
      </trkpt>
      <trkpt lat="62.631204849178" lon="17.979949819922">
        <ele>109.8</ele>
        <time>2018-02-05T18:44:00Z</time>
      </trkpt>
      <trkpt lat="62.631180876944" lon="17.979930876828">
        <ele>110</ele>
        <time>2018-02-05T18:44:01Z</time>
      </trkpt>
      <trkpt lat="62.631157826719" lon="17.979909922078">
        <ele>110.2</ele>
        <time>2018-02-05T18:44:02Z</time>
      </trkpt>
      <trkpt lat="62.631131256096" lon="17.979884524921">
        <ele>110.2</ele>
        <time>2018-02-05T18:44:03Z</time>
      </trkpt>
      <trkpt lat="62.631110468984" lon="17.979866755293">
        <ele>110.2</ele>
        <time>2018-02-05T18:44:04Z</time>
      </trkpt>
      <trkpt lat="62.631082557257" lon="17.979839681756">
        <ele>110.4</ele>
        <time>2018-02-05T18:44:05Z</time>
      </trkpt>
      <trkpt lat="62.631058501204" lon="17.979824510517">
        <ele>110.4</ele>
        <time>2018-02-05T18:44:06Z</time>
      </trkpt>
      <trkpt lat="62.631033187866" lon="17.979808081993">
        <ele>110.4</ele>
        <time>2018-02-05T18:44:07Z</time>
      </trkpt>
      <trkpt lat="62.631008377442" lon="17.979789977089">
        <ele>110.6</ele>
        <time>2018-02-05T18:44:08Z</time>
      </trkpt>
      <trkpt lat="62.630987757968" lon="17.979775560221">
        <ele>110.6</ele>
        <time>2018-02-05T18:44:09Z</time>
      </trkpt>
      <trkpt lat="62.630960935888" lon="17.979752258539">
        <ele>110.8</ele>
        <time>2018-02-05T18:44:10Z</time>
      </trkpt>
      <trkpt lat="62.630935203455" lon="17.979729459771">
        <ele>111</ele>
        <time>2018-02-05T18:44:11Z</time>
      </trkpt>
      <trkpt lat="62.63091215323" lon="17.979714539989">
        <ele>111</ele>
        <time>2018-02-05T18:44:12Z</time>
      </trkpt>
      <trkpt lat="62.630887761901" lon="17.979695010162">
        <ele>111.2</ele>
        <time>2018-02-05T18:44:13Z</time>
      </trkpt>
      <trkpt lat="62.630864627857" lon="17.979677491991">
        <ele>111.2</ele>
        <time>2018-02-05T18:44:14Z</time>
      </trkpt>
      <trkpt lat="62.630839649795" lon="17.979658213621">
        <ele>111.2</ele>
        <time>2018-02-05T18:44:15Z</time>
      </trkpt>
      <trkpt lat="62.630818611226" lon="17.979639941079">
        <ele>111.2</ele>
        <time>2018-02-05T18:44:16Z</time>
      </trkpt>
      <trkpt lat="62.630795058087" lon="17.979616220302">
        <ele>111.2</ele>
        <time>2018-02-05T18:44:17Z</time>
      </trkpt>
      <trkpt lat="62.630770080025" lon="17.979592834801">
        <ele>111.4</ele>
        <time>2018-02-05T18:44:18Z</time>
      </trkpt>
      <trkpt lat="62.630746778343" lon="17.979566347997">
        <ele>111.4</ele>
        <time>2018-02-05T18:44:19Z</time>
      </trkpt>
      <trkpt lat="62.630720878272" lon="17.979544219781">
        <ele>111.6</ele>
        <time>2018-02-05T18:44:20Z</time>
      </trkpt>
      <trkpt lat="62.630695145839" lon="17.979521085737">
        <ele>111.8</ele>
        <time>2018-02-05T18:44:21Z</time>
      </trkpt>
      <trkpt lat="62.630670335415" lon="17.979495772399">
        <ele>111.8</ele>
        <time>2018-02-05T18:44:22Z</time>
      </trkpt>
      <trkpt lat="62.630644686801" lon="17.979463082989">
        <ele>112</ele>
        <time>2018-02-05T18:44:23Z</time>
      </trkpt>
      <trkpt lat="62.630625073155" lon="17.979434584529">
        <ele>112</ele>
        <time>2018-02-05T18:44:24Z</time>
      </trkpt>
      <trkpt lat="62.630600430369" lon="17.979393345581">
        <ele>112</ele>
        <time>2018-02-05T18:44:25Z</time>
      </trkpt>
      <trkpt lat="62.630579224162" lon="17.979352190452">
        <ele>112</ele>
        <time>2018-02-05T18:44:26Z</time>
      </trkpt>
      <trkpt lat="62.630559023783" lon="17.979315393911">
        <ele>112</ele>
        <time>2018-02-05T18:44:27Z</time>
      </trkpt>
      <trkpt lat="62.630539661594" lon="17.979275328429">
        <ele>112</ele>
        <time>2018-02-05T18:44:28Z</time>
      </trkpt>
      <trkpt lat="62.630520550862" lon="17.979231071997">
        <ele>112</ele>
        <time>2018-02-05T18:44:29Z</time>
      </trkpt>
      <trkpt lat="62.630499931388" lon="17.979186564108">
        <ele>112</ele>
        <time>2018-02-05T18:44:30Z</time>
      </trkpt>
      <trkpt lat="62.630481155932" lon="17.979142223857">
        <ele>112</ele>
        <time>2018-02-05T18:44:31Z</time>
      </trkpt>
      <trkpt lat="62.63046455977" lon="17.97909922471">
        <ele>112</ele>
        <time>2018-02-05T18:44:32Z</time>
      </trkpt>
      <trkpt lat="62.630446203409" lon="17.979053794812">
        <ele>112</ele>
        <time>2018-02-05T18:44:33Z</time>
      </trkpt>
      <trkpt lat="62.630430361618" lon="17.979015070434">
        <ele>112</ele>
        <time>2018-02-05T18:44:34Z</time>
      </trkpt>
      <trkpt lat="62.630408568678" lon="17.978959330799">
        <ele>111.8</ele>
        <time>2018-02-05T18:44:35Z</time>
      </trkpt>
      <trkpt lat="62.630390044679" lon="17.978915493462">
        <ele>111.8</ele>
        <time>2018-02-05T18:44:36Z</time>
      </trkpt>
      <trkpt lat="62.630368335558" lon="17.978878026369">
        <ele>111.6</ele>
        <time>2018-02-05T18:44:37Z</time>
      </trkpt>
      <trkpt lat="62.630346207342" lon="17.978832261195">
        <ele>111.6</ele>
        <time>2018-02-05T18:44:38Z</time>
      </trkpt>
      <trkpt lat="62.630328437714" lon="17.978795045559">
        <ele>111.6</ele>
        <time>2018-02-05T18:44:39Z</time>
      </trkpt>
      <trkpt lat="62.630308740249" lon="17.978748945109">
        <ele>111.4</ele>
        <time>2018-02-05T18:44:40Z</time>
      </trkpt>
      <trkpt lat="62.630290132431" lon="17.978695049492">
        <ele>111.4</ele>
        <time>2018-02-05T18:44:41Z</time>
      </trkpt>
      <trkpt lat="62.630273200993" lon="17.978641321513">
        <ele>111.4</ele>
        <time>2018-02-05T18:44:42Z</time>
      </trkpt>
      <trkpt lat="62.630256269555" lon="17.978586839163">
        <ele>111.2</ele>
        <time>2018-02-05T18:44:43Z</time>
      </trkpt>
      <trkpt lat="62.63024327761" lon="17.978531602442">
        <ele>111</ele>
        <time>2018-02-05T18:44:44Z</time>
      </trkpt>
      <trkpt lat="62.630233386968" lon="17.978474521703">
        <ele>111</ele>
        <time>2018-02-05T18:44:45Z</time>
      </trkpt>
      <trkpt lat="62.630225927077" lon="17.978423895027">
        <ele>110.8</ele>
        <time>2018-02-05T18:44:46Z</time>
      </trkpt>
      <trkpt lat="62.630219053919" lon="17.97836077932">
        <ele>110.8</ele>
        <time>2018-02-05T18:44:47Z</time>
      </trkpt>
      <trkpt lat="62.630212180761" lon="17.978294729948">
        <ele>110.6</ele>
        <time>2018-02-05T18:44:48Z</time>
      </trkpt>
      <trkpt lat="62.630207654535" lon="17.978238487399">
        <ele>110.6</ele>
        <time>2018-02-05T18:44:49Z</time>
      </trkpt>
      <trkpt lat="62.630205475241" lon="17.97816883381">
        <ele>110.4</ele>
        <time>2018-02-05T18:44:50Z</time>
      </trkpt>
      <trkpt lat="62.63020304449" lon="17.978104125542">
        <ele>110.2</ele>
        <time>2018-02-05T18:44:51Z</time>
      </trkpt>
      <trkpt lat="62.630200613739" lon="17.978044446414">
        <ele>110</ele>
        <time>2018-02-05T18:44:52Z</time>
      </trkpt>
      <trkpt lat="62.630195584599" lon="17.977971775341">
        <ele>109.8</ele>
        <time>2018-02-05T18:44:53Z</time>
      </trkpt>
      <trkpt lat="62.630191728925" lon="17.977912850584">
        <ele>109.6</ele>
        <time>2018-02-05T18:44:54Z</time>
      </trkpt>
      <trkpt lat="62.630185191043" lon="17.977837078208">
        <ele>109.6</ele>
        <time>2018-02-05T18:44:55Z</time>
      </trkpt>
      <trkpt lat="62.630180161903" lon="17.977768598085">
        <ele>109.4</ele>
        <time>2018-02-05T18:44:56Z</time>
      </trkpt>
      <trkpt lat="62.630181167731" lon="17.977705063283">
        <ele>109.2</ele>
        <time>2018-02-05T18:44:57Z</time>
      </trkpt>
      <trkpt lat="62.63018125155" lon="17.977647898725">
        <ele>109</ele>
        <time>2018-02-05T18:44:58Z</time>
      </trkpt>
      <trkpt lat="62.630181335369" lon="17.977584363923">
        <ele>109</ele>
        <time>2018-02-05T18:44:59Z</time>
      </trkpt>
      <trkpt lat="62.630181000093" lon="17.977514877972">
        <ele>108.8</ele>
        <time>2018-02-05T18:45:00Z</time>
      </trkpt>
      <trkpt lat="62.63017957517" lon="17.977453187188">
        <ele>108.8</ele>
        <time>2018-02-05T18:45:01Z</time>
      </trkpt>
      <trkpt lat="62.630182844111" lon="17.977394513888">
        <ele>108.6</ele>
        <time>2018-02-05T18:45:02Z</time>
      </trkpt>
      <trkpt lat="62.630186029233" lon="17.977330476172">
        <ele>108.6</ele>
        <time>2018-02-05T18:45:03Z</time>
      </trkpt>
      <trkpt lat="62.630183514663" lon="17.977272473424">
        <ele>108.4</ele>
        <time>2018-02-05T18:45:04Z</time>
      </trkpt>
      <trkpt lat="62.630181922102" lon="17.977198796523">
        <ele>108.4</ele>
        <time>2018-02-05T18:45:05Z</time>
      </trkpt>
      <trkpt lat="62.630185526319" lon="17.977133585341">
        <ele>108.4</ele>
        <time>2018-02-05T18:45:06Z</time>
      </trkpt>
      <trkpt lat="62.630189968726" lon="17.977072984204">
        <ele>108.4</ele>
        <time>2018-02-05T18:45:07Z</time>
      </trkpt>
      <trkpt lat="62.630192315658" lon="17.97701045523">
        <ele>108.2</ele>
        <time>2018-02-05T18:45:08Z</time>
      </trkpt>
      <trkpt lat="62.630191728925" lon="17.976954212681">
        <ele>108.2</ele>
        <time>2018-02-05T18:45:09Z</time>
      </trkpt>
      <trkpt lat="62.630192567115" lon="17.976885397282">
        <ele>108</ele>
        <time>2018-02-05T18:45:10Z</time>
      </trkpt>
      <trkpt lat="62.630195836056" lon="17.976817922987">
        <ele>107.8</ele>
        <time>2018-02-05T18:45:11Z</time>
      </trkpt>
      <trkpt lat="62.630198685902" lon="17.976752627986">
        <ele>107.8</ele>
        <time>2018-02-05T18:45:12Z</time>
      </trkpt>
      <trkpt lat="62.630203463585" lon="17.976692948858">
        <ele>107.6</ele>
        <time>2018-02-05T18:45:13Z</time>
      </trkpt>
      <trkpt lat="62.630209582372" lon="17.976634191739">
        <ele>107.4</ele>
        <time>2018-02-05T18:45:14Z</time>
      </trkpt>
      <trkpt lat="62.630216287892" lon="17.976568393824">
        <ele>107.2</ele>
        <time>2018-02-05T18:45:15Z</time>
      </trkpt>
      <trkpt lat="62.630222490498" lon="17.976514330569">
        <ele>107</ele>
        <time>2018-02-05T18:45:16Z</time>
      </trkpt>
      <trkpt lat="62.630229615113" lon="17.976456746916">
        <ele>106.8</ele>
        <time>2018-02-05T18:45:17Z</time>
      </trkpt>
      <trkpt lat="62.630236404452" lon="17.97640444386">
        <ele>106.8</ele>
        <time>2018-02-05T18:45:18Z</time>
      </trkpt>
      <trkpt lat="62.630245875999" lon="17.97634157961">
        <ele>106.8</ele>
        <time>2018-02-05T18:45:19Z</time>
      </trkpt>
      <trkpt lat="62.630254509356" lon="17.976281732844">
        <ele>106.8</ele>
        <time>2018-02-05T18:45:20Z</time>
      </trkpt>
      <trkpt lat="62.630266579292" lon="17.976224149191">
        <ele>106.8</ele>
        <time>2018-02-05T18:45:21Z</time>
      </trkpt>
      <trkpt lat="62.630276889029" lon="17.976169247746">
        <ele>106.8</ele>
        <time>2018-02-05T18:45:22Z</time>
      </trkpt>
      <trkpt lat="62.630287617861" lon="17.97610437184">
        <ele>106.6</ele>
        <time>2018-02-05T18:45:23Z</time>
      </trkpt>
      <trkpt lat="62.630296754132" lon="17.976052236422">
        <ele>106.6</ele>
        <time>2018-02-05T18:45:24Z</time>
      </trkpt>
      <trkpt lat="62.630310416629" lon="17.975984175394">
        <ele>106.6</ele>
        <time>2018-02-05T18:45:25Z</time>
      </trkpt>
      <trkpt lat="62.630321732194" lon="17.975928854854">
        <ele>106.4</ele>
        <time>2018-02-05T18:45:26Z</time>
      </trkpt>
      <trkpt lat="62.630335897605" lon="17.975872947581">
        <ele>106.4</ele>
        <time>2018-02-05T18:45:27Z</time>
      </trkpt>
      <trkpt lat="62.63035056593" lon="17.975822823819">
        <ele>106.2</ele>
        <time>2018-02-05T18:45:28Z</time>
      </trkpt>
      <trkpt lat="62.630362887323" lon="17.975767503279">
        <ele>106</ele>
        <time>2018-02-05T18:45:29Z</time>
      </trkpt>
      <trkpt lat="62.6303782262" lon="17.97570958435">
        <ele>106</ele>
        <time>2018-02-05T18:45:30Z</time>
      </trkpt>
      <trkpt lat="62.630394067991" lon="17.975656107828">
        <ele>106</ele>
        <time>2018-02-05T18:45:31Z</time>
      </trkpt>
      <trkpt lat="62.63040504828" lon="17.975603385677">
        <ele>105.8</ele>
        <time>2018-02-05T18:45:32Z</time>
      </trkpt>
      <trkpt lat="62.630418543139" lon="17.975543119816">
        <ele>105.6</ele>
        <time>2018-02-05T18:45:33Z</time>
      </trkpt>
      <trkpt lat="62.630430613075" lon="17.975493834244">
        <ele>105.6</ele>
        <time>2018-02-05T18:45:34Z</time>
      </trkpt>
      <trkpt lat="62.63044611959" lon="17.975433065469">
        <ele>105.6</ele>
        <time>2018-02-05T18:45:35Z</time>
      </trkpt>
      <trkpt lat="62.630454836766" lon="17.975389731046">
        <ele>105.4</ele>
        <time>2018-02-05T18:45:36Z</time>
      </trkpt>
      <trkpt lat="62.630474534231" lon="17.975322927303">
        <ele>105.2</ele>
        <time>2018-02-05T18:45:37Z</time>
      </trkpt>
      <trkpt lat="62.630489873108" lon="17.975275988663">
        <ele>105.2</ele>
        <time>2018-02-05T18:45:38Z</time>
      </trkpt>
      <trkpt lat="62.630502026863" lon="17.975234246801">
        <ele>105</ele>
        <time>2018-02-05T18:45:39Z</time>
      </trkpt>
      <trkpt lat="62.630518539206" lon="17.975180351184">
        <ele>104.8</ele>
        <time>2018-02-05T18:45:40Z</time>
      </trkpt>
      <trkpt lat="62.630534632454" lon="17.975127712852">
        <ele>104.6</ele>
        <time>2018-02-05T18:45:41Z</time>
      </trkpt>
      <trkpt lat="62.630547792037" lon="17.975079684565">
        <ele>104.6</ele>
        <time>2018-02-05T18:45:42Z</time>
      </trkpt>
      <trkpt lat="62.630560783982" lon="17.975024699301">
        <ele>104.6</ele>
        <time>2018-02-05T18:45:43Z</time>
      </trkpt>
      <trkpt lat="62.630572853918" lon="17.974970049313">
        <ele>104.6</ele>
        <time>2018-02-05T18:45:44Z</time>
      </trkpt>
      <trkpt lat="62.630585929682" lon="17.974914728773">
        <ele>104.6</ele>
        <time>2018-02-05T18:45:45Z</time>
      </trkpt>
      <trkpt lat="62.630598334894" lon="17.974867538676">
        <ele>104.6</ele>
        <time>2018-02-05T18:45:46Z</time>
      </trkpt>
      <trkpt lat="62.630612165029" lon="17.974814145973">
        <ele>104.6</ele>
        <time>2018-02-05T18:45:47Z</time>
      </trkpt>
      <trkpt lat="62.630623480594" lon="17.974758322519">
        <ele>104.4</ele>
        <time>2018-02-05T18:45:48Z</time>
      </trkpt>
      <trkpt lat="62.630636053444" lon="17.974708617852">
        <ele>104.4</ele>
        <time>2018-02-05T18:45:49Z</time>
      </trkpt>
      <trkpt lat="62.630652062873" lon="17.974651118018">
        <ele>104.4</ele>
        <time>2018-02-05T18:45:50Z</time>
      </trkpt>
      <trkpt lat="62.630666060646" lon="17.97459730622">
        <ele>104.2</ele>
        <time>2018-02-05T18:45:51Z</time>
      </trkpt>
      <trkpt lat="62.630680645152" lon="17.974549697028">
        <ele>104</ele>
        <time>2018-02-05T18:45:52Z</time>
      </trkpt>
      <trkpt lat="62.630698666237" lon="17.974498483619">
        <ele>104</ele>
        <time>2018-02-05T18:45:53Z</time>
      </trkpt>
      <trkpt lat="62.630710903811" lon="17.974454730101">
        <ele>103.8</ele>
        <time>2018-02-05T18:45:54Z</time>
      </trkpt>
      <trkpt lat="62.630725572136" lon="17.974393877507">
        <ele>103.8</ele>
        <time>2018-02-05T18:45:55Z</time>
      </trkpt>
      <trkpt lat="62.630741497746" lon="17.97434165827">
        <ele>103.8</ele>
        <time>2018-02-05T18:45:56Z</time>
      </trkpt>
      <trkpt lat="62.630754824967" lon="17.974290444861">
        <ele>103.8</ele>
        <time>2018-02-05T18:45:57Z</time>
      </trkpt>
      <trkpt lat="62.630767900731" lon="17.974251469026">
        <ele>103.8</ele>
        <time>2018-02-05T18:45:58Z</time>
      </trkpt>
      <trkpt lat="62.630789106938" lon="17.974191538441">
        <ele>103.8</ele>
        <time>2018-02-05T18:45:59Z</time>
      </trkpt>
      <trkpt lat="62.630807547118" lon="17.97413881629">
        <ele>103.6</ele>
        <time>2018-02-05T18:46:00Z</time>
      </trkpt>
      <trkpt lat="62.630824227099" lon="17.974093805487">
        <ele>103.6</ele>
        <time>2018-02-05T18:46:01Z</time>
      </trkpt>
      <trkpt lat="62.630839565976" lon="17.974046866847">
        <ele>103.6</ele>
        <time>2018-02-05T18:46:02Z</time>
      </trkpt>
      <trkpt lat="62.630856078319" lon="17.973998503284">
        <ele>103.4</ele>
        <time>2018-02-05T18:46:03Z</time>
      </trkpt>
      <trkpt lat="62.630869237902" lon="17.973956677603">
        <ele>103.4</ele>
        <time>2018-02-05T18:46:04Z</time>
      </trkpt>
      <trkpt lat="62.630886672254" lon="17.973902195253">
        <ele>103.4</ele>
        <time>2018-02-05T18:46:05Z</time>
      </trkpt>
      <trkpt lat="62.63089874219" lon="17.973860621029">
        <ele>103.4</ele>
        <time>2018-02-05T18:46:06Z</time>
      </trkpt>
      <trkpt lat="62.630901843493" lon="17.97381359857">
        <ele>103.4</ele>
        <time>2018-02-05T18:46:07Z</time>
      </trkpt>
      <trkpt lat="62.630895305611" lon="17.973768923043">
        <ele>103.2</ele>
        <time>2018-02-05T18:46:08Z</time>
      </trkpt>
      <trkpt lat="62.630880804924" lon="17.973729109018">
        <ele>103.2</ele>
        <time>2018-02-05T18:46:09Z</time>
      </trkpt>
      <trkpt lat="62.630859933993" lon="17.973684768767">
        <ele>103</ele>
        <time>2018-02-05T18:46:10Z</time>
      </trkpt>
      <trkpt lat="62.630839565976" lon="17.973630454055">
        <ele>103</ele>
        <time>2018-02-05T18:46:11Z</time>
      </trkpt>
      <trkpt lat="62.630821209615" lon="17.973580833207">
        <ele>103</ele>
        <time>2018-02-05T18:46:12Z</time>
      </trkpt>
      <trkpt lat="62.630804697272" lon="17.973535654766">
        <ele>102.8</ele>
        <time>2018-02-05T18:46:13Z</time>
      </trkpt>
      <trkpt lat="62.630789190757" lon="17.973486453013">
        <ele>102.8</ele>
        <time>2018-02-05T18:46:14Z</time>
      </trkpt>
      <trkpt lat="62.63077301369" lon="17.973432054482">
        <ele>102.8</ele>
        <time>2018-02-05T18:46:15Z</time>
      </trkpt>
      <trkpt lat="62.630757423356" lon="17.973388887697">
        <ele>102.8</ele>
        <time>2018-02-05T18:46:16Z</time>
      </trkpt>
      <trkpt lat="62.630741581565" lon="17.973341194686">
        <ele>102.8</ele>
        <time>2018-02-05T18:46:17Z</time>
      </trkpt>
      <trkpt lat="62.630725488317" lon="17.973290232734">
        <ele>102.8</ele>
        <time>2018-02-05T18:46:18Z</time>
      </trkpt>
      <trkpt lat="62.630711909639" lon="17.973249831976">
        <ele>102.8</ele>
        <time>2018-02-05T18:46:19Z</time>
      </trkpt>
      <trkpt lat="62.630694559106" lon="17.973197612739">
        <ele>102.6</ele>
        <time>2018-02-05T18:46:20Z</time>
      </trkpt>
      <trkpt lat="62.630677879125" lon="17.973143968579">
        <ele>102.6</ele>
        <time>2018-02-05T18:46:21Z</time>
      </trkpt>
      <trkpt lat="62.630663546076" lon="17.973097616672">
        <ele>102.4</ele>
        <time>2018-02-05T18:46:22Z</time>
      </trkpt>
      <trkpt lat="62.630647788104" lon="17.973043553417">
        <ele>102.4</ele>
        <time>2018-02-05T18:46:23Z</time>
      </trkpt>
      <trkpt lat="62.630633203598" lon="17.973000889546">
        <ele>102.4</ele>
        <time>2018-02-05T18:46:24Z</time>
      </trkpt>
      <trkpt lat="62.630613003219" lon="17.972945485187">
        <ele>102.2</ele>
        <time>2018-02-05T18:46:25Z</time>
      </trkpt>
      <trkpt lat="62.630597161428" lon="17.972901061117">
        <ele>102.2</ele>
        <time>2018-02-05T18:46:26Z</time>
      </trkpt>
      <trkpt lat="62.630583750388" lon="17.972849260975">
        <ele>102</ele>
        <time>2018-02-05T18:46:27Z</time>
      </trkpt>
      <trkpt lat="62.630570674624" lon="17.972799556308">
        <ele>102</ele>
        <time>2018-02-05T18:46:28Z</time>
      </trkpt>
      <trkpt lat="62.630558604688" lon="17.972748929632">
        <ele>101.8</ele>
        <time>2018-02-05T18:46:29Z</time>
      </trkpt>
      <trkpt lat="62.630544942191" lon="17.972691765074">
        <ele>101.8</ele>
        <time>2018-02-05T18:46:30Z</time>
      </trkpt>
      <trkpt lat="62.630532620798" lon="17.972642228045">
        <ele>101.8</ele>
        <time>2018-02-05T18:46:31Z</time>
      </trkpt>
      <trkpt lat="62.630520802319" lon="17.972595624681">
        <ele>101.8</ele>
        <time>2018-02-05T18:46:32Z</time>
      </trkpt>
      <trkpt lat="62.630509319116" lon="17.972539130675">
        <ele>101.8</ele>
        <time>2018-02-05T18:46:33Z</time>
      </trkpt>
      <trkpt lat="62.630500853397" lon="17.972494371329">
        <ele>101.8</ele>
        <time>2018-02-05T18:46:34Z</time>
      </trkpt>
      <trkpt lat="62.630487861452" lon="17.97243477602">
        <ele>101.6</ele>
        <time>2018-02-05T18:46:35Z</time>
      </trkpt>
      <trkpt lat="62.630476713525" lon="17.972378198195">
        <ele>101.6</ele>
        <time>2018-02-05T18:46:36Z</time>
      </trkpt>
      <trkpt lat="62.630464056856" lon="17.9723191058">
        <ele>101.4</ele>
        <time>2018-02-05T18:46:37Z</time>
      </trkpt>
      <trkpt lat="62.630454250033" lon="17.972263449984">
        <ele>101.4</ele>
        <time>2018-02-05T18:46:38Z</time>
      </trkpt>
      <trkpt lat="62.630446371047" lon="17.972214164412">
        <ele>101.2</ele>
        <time>2018-02-05T18:46:39Z</time>
      </trkpt>
      <trkpt lat="62.630436815681" lon="17.972150378153">
        <ele>101.2</ele>
        <time>2018-02-05T18:46:40Z</time>
      </trkpt>
      <trkpt lat="62.630429020514" lon="17.972090363749">
        <ele>101.2</ele>
        <time>2018-02-05T18:46:41Z</time>
      </trkpt>
      <trkpt lat="62.630420554795" lon="17.97203244482">
        <ele>101.2</ele>
        <time>2018-02-05T18:46:42Z</time>
      </trkpt>
      <trkpt lat="62.630412256714" lon="17.97197293333">
        <ele>101.2</ele>
        <time>2018-02-05T18:46:43Z</time>
      </trkpt>
      <trkpt lat="62.63040421009" lon="17.97192096555">
        <ele>101.2</ele>
        <time>2018-02-05T18:46:44Z</time>
      </trkpt>
      <trkpt lat="62.630391972516" lon="17.971851982513">
        <ele>101</ele>
        <time>2018-02-05T18:46:45Z</time>
      </trkpt>
      <trkpt lat="62.630384764082" lon="17.971796410516">
        <ele>101</ele>
        <time>2018-02-05T18:46:46Z</time>
      </trkpt>
      <trkpt lat="62.630376801277" lon="17.971740670881">
        <ele>101</ele>
        <time>2018-02-05T18:46:47Z</time>
      </trkpt>
      <trkpt lat="62.630369676662" lon="17.971685685617">
        <ele>100.8</ele>
        <time>2018-02-05T18:46:48Z</time>
      </trkpt>
      <trkpt lat="62.630363557875" lon="17.971631203267">
        <ele>100.8</ele>
        <time>2018-02-05T18:46:49Z</time>
      </trkpt>
      <trkpt lat="62.630357019993" lon="17.971569177207">
        <ele>100.8</ele>
        <time>2018-02-05T18:46:50Z</time>
      </trkpt>
      <trkpt lat="62.63035140412" lon="17.971511593554">
        <ele>100.6</ele>
        <time>2018-02-05T18:46:51Z</time>
      </trkpt>
      <trkpt lat="62.630346458799" lon="17.971459374317">
        <ele>100.8</ele>
        <time>2018-02-05T18:46:52Z</time>
      </trkpt>
      <trkpt lat="62.630341010564" lon="17.971400784836">
        <ele>100.6</ele>
        <time>2018-02-05T18:46:53Z</time>
      </trkpt>
      <trkpt lat="62.630341262021" lon="17.97134931997">
        <ele>100.6</ele>
        <time>2018-02-05T18:46:54Z</time>
      </trkpt>
      <trkpt lat="62.630341681116" lon="17.971276481259">
        <ele>100.6</ele>
        <time>2018-02-05T18:46:55Z</time>
      </trkpt>
      <trkpt lat="62.630341681116" lon="17.971217891778">
        <ele>100.6</ele>
        <time>2018-02-05T18:46:56Z</time>
      </trkpt>
      <trkpt lat="62.630339837098" lon="17.971157458279">
        <ele>100.6</ele>
        <time>2018-02-05T18:46:57Z</time>
      </trkpt>
      <trkpt lat="62.63033380213" lon="17.971098114427">
        <ele>100.4</ele>
        <time>2018-02-05T18:46:58Z</time>
      </trkpt>
      <trkpt lat="62.630330197913" lon="17.971037345652">
        <ele>100.4</ele>
        <time>2018-02-05T18:46:59Z</time>
      </trkpt>
      <trkpt lat="62.630330030275" lon="17.970972888841">
        <ele>100.2</ele>
        <time>2018-02-05T18:47:00Z</time>
      </trkpt>
      <trkpt lat="62.63032961118" lon="17.97090843203">
        <ele>100.2</ele>
        <time>2018-02-05T18:47:01Z</time>
      </trkpt>
      <trkpt lat="62.630328270076" lon="17.970847830893">
        <ele>100.2</ele>
        <time>2018-02-05T18:47:02Z</time>
      </trkpt>
      <trkpt lat="62.63032877299" lon="17.970786559204">
        <ele>100.2</ele>
        <time>2018-02-05T18:47:03Z</time>
      </trkpt>
      <trkpt lat="62.630331119922" lon="17.970734172329">
        <ele>100.2</ele>
        <time>2018-02-05T18:47:04Z</time>
      </trkpt>
      <trkpt lat="62.63033296394" lon="17.970660830704">
        <ele>100.2</ele>
        <time>2018-02-05T18:47:05Z</time>
      </trkpt>
      <trkpt lat="62.630338663632" lon="17.970603666146">
        <ele>100.2</ele>
        <time>2018-02-05T18:47:06Z</time>
      </trkpt>
      <trkpt lat="62.630353331957" lon="17.97055303947">
        <ele>100</ele>
        <time>2018-02-05T18:47:07Z</time>
      </trkpt>
      <trkpt lat="62.63037235887" lon="17.970502412794">
        <ele>100</ele>
        <time>2018-02-05T18:47:08Z</time>
      </trkpt>
      <trkpt lat="62.630388200661" lon="17.970461509122">
        <ele>100</ele>
        <time>2018-02-05T18:47:09Z</time>
      </trkpt>
      <trkpt lat="62.630410412696" lon="17.970411720636">
        <ele>99.8</ele>
        <time>2018-02-05T18:47:10Z</time>
      </trkpt>
      <trkpt lat="62.630433965835" lon="17.97036528491">
        <ele>99.8</ele>
        <time>2018-02-05T18:47:11Z</time>
      </trkpt>
      <trkpt lat="62.630456010232" lon="17.970326476713">
        <ele>99.6</ele>
        <time>2018-02-05T18:47:12Z</time>
      </trkpt>
      <trkpt lat="62.630479982466" lon="17.970293535846">
        <ele>99.2</ele>
        <time>2018-02-05T18:47:13Z</time>
      </trkpt>
      <trkpt lat="62.630505547261" lon="17.970270485621">
        <ele>99</ele>
        <time>2018-02-05T18:47:14Z</time>
      </trkpt>
      <trkpt lat="62.630531950246" lon="17.970249111776">
        <ele>98.8</ele>
        <time>2018-02-05T18:47:15Z</time>
      </trkpt>
      <trkpt lat="62.630556844489" lon="17.970235449279">
        <ele>98.4</ele>
        <time>2018-02-05T18:47:16Z</time>
      </trkpt>
      <trkpt lat="62.63058693551" lon="17.970223798438">
        <ele>98.2</ele>
        <time>2018-02-05T18:47:17Z</time>
      </trkpt>
      <trkpt lat="62.630613422314" lon="17.970212147597">
        <ele>98</ele>
        <time>2018-02-05T18:47:18Z</time>
      </trkpt>
      <trkpt lat="62.630638400376" lon="17.970200245299">
        <ele>98</ele>
        <time>2018-02-05T18:47:19Z</time>
      </trkpt>
      <trkpt lat="62.630667653207" lon="17.970187672449">
        <ele>97.8</ele>
        <time>2018-02-05T18:47:20Z</time>
      </trkpt>
      <trkpt lat="62.630695564934" lon="17.97017501578">
        <ele>97.6</ele>
        <time>2018-02-05T18:47:21Z</time>
      </trkpt>
      <trkpt lat="62.630721800281" lon="17.970162778206">
        <ele>97.4</ele>
        <time>2018-02-05T18:47:22Z</time>
      </trkpt>
      <trkpt lat="62.630751472207" lon="17.970152133193">
        <ele>97.2</ele>
        <time>2018-02-05T18:47:23Z</time>
      </trkpt>
      <trkpt lat="62.630775025346" lon="17.970143835112">
        <ele>97</ele>
        <time>2018-02-05T18:47:24Z</time>
      </trkpt>
      <trkpt lat="62.630807128023" lon="17.970133609194">
        <ele>96.8</ele>
        <time>2018-02-05T18:47:25Z</time>
      </trkpt>
      <trkpt lat="62.630838141053" lon="17.970132184271">
        <ele>96.8</ele>
        <time>2018-02-05T18:47:26Z</time>
      </trkpt>
      <trkpt lat="62.630867896798" lon="17.970128663873">
        <ele>96.6</ele>
        <time>2018-02-05T18:47:27Z</time>
      </trkpt>
      <trkpt lat="62.630905363891" lon="17.970121706896">
        <ele>96.6</ele>
        <time>2018-02-05T18:47:29Z</time>
      </trkpt>
      <trkpt lat="62.630916260361" lon="17.970115336652">
        <ele>96.4</ele>
        <time>2018-02-05T18:47:30Z</time>
      </trkpt>
      <trkpt lat="62.63092556427" lon="17.970108882589">
        <ele>96.4</ele>
        <time>2018-02-05T18:47:31Z</time>
      </trkpt>
      <trkpt lat="62.630932102152" lon="17.970101757974">
        <ele>96.4</ele>
        <time>2018-02-05T18:47:32Z</time>
      </trkpt>
      <trkpt lat="62.630934029989" lon="17.970091699694">
        <ele>96.4</ele>
        <time>2018-02-05T18:47:33Z</time>
      </trkpt>
      <trkpt lat="62.630930761048" lon="17.970094800997">
        <ele>96.4</ele>
        <time>2018-02-05T18:47:34Z</time>
      </trkpt>
      <trkpt lat="62.630927575926" lon="17.970087927839">
        <ele>96.6</ele>
        <time>2018-02-05T18:47:35Z</time>
      </trkpt>
      <trkpt lat="62.630918942569" lon="17.9700811385">
        <ele>96.6</ele>
        <time>2018-02-05T18:47:36Z</time>
      </trkpt>
      <trkpt lat="62.630912656144" lon="17.970078959206">
        <ele>96.6</ele>
        <time>2018-02-05T18:47:37Z</time>
      </trkpt>
      <trkpt lat="62.630907794642" lon="17.970079126844">
        <ele>96.6</ele>
        <time>2018-02-05T18:47:38Z</time>
      </trkpt>
      <trkpt lat="62.63090209495" lon="17.970085916183">
        <ele>96.6</ele>
        <time>2018-02-05T18:47:39Z</time>
      </trkpt>
      <trkpt lat="62.6308895221" lon="17.970105781286">
        <ele>96.6</ele>
        <time>2018-02-05T18:47:40Z</time>
      </trkpt>
      <trkpt lat="62.630877284526" lon="17.970125897846">
        <ele>96.4</ele>
        <time>2018-02-05T18:47:41Z</time>
      </trkpt>
      <trkpt lat="62.630864292581" lon="17.970137883963">
        <ele>96.4</ele>
        <time>2018-02-05T18:47:42Z</time>
      </trkpt>
      <trkpt lat="62.63085096536" lon="17.970145260035">
        <ele>96.2</ele>
        <time>2018-02-05T18:47:43Z</time>
      </trkpt>
      <trkpt lat="62.630838308691" lon="17.970151043546">
        <ele>96</ele>
        <time>2018-02-05T18:47:44Z</time>
      </trkpt>
      <trkpt lat="62.630823808004" lon="17.970154815401">
        <ele>96.2</ele>
        <time>2018-02-05T18:47:45Z</time>
      </trkpt>
      <trkpt lat="62.630810899878" lon="17.970161353283">
        <ele>96.2</ele>
        <time>2018-02-05T18:47:46Z</time>
      </trkpt>
      <trkpt lat="62.630793549345" lon="17.970163113482">
        <ele>96.2</ele>
        <time>2018-02-05T18:47:47Z</time>
      </trkpt>
      <trkpt lat="62.630775779717" lon="17.970161101826">
        <ele>96.4</ele>
        <time>2018-02-05T18:47:48Z</time>
      </trkpt>
      <trkpt lat="62.630763206867" lon="17.970166298604">
        <ele>96.4</ele>
        <time>2018-02-05T18:47:49Z</time>
      </trkpt>
      <trkpt lat="62.630737642072" lon="17.970180296377">
        <ele>96.6</ele>
        <time>2018-02-05T18:47:50Z</time>
      </trkpt>
      <trkpt lat="62.630715849132" lon="17.970190689933">
        <ele>96.6</ele>
        <time>2018-02-05T18:47:51Z</time>
      </trkpt>
      <trkpt lat="62.630696654581" lon="17.97020099967">
        <ele>96.6</ele>
        <time>2018-02-05T18:47:52Z</time>
      </trkpt>
      <trkpt lat="62.630675532193" lon="17.970207537552">
        <ele>96.8</ele>
        <time>2018-02-05T18:47:53Z</time>
      </trkpt>
      <trkpt lat="62.630656672918" lon="17.9702152489">
        <ele>96.8</ele>
        <time>2018-02-05T18:47:54Z</time>
      </trkpt>
      <trkpt lat="62.63063387415" lon="17.970228911397">
        <ele>96.8</ele>
        <time>2018-02-05T18:47:55Z</time>
      </trkpt>
      <trkpt lat="62.630613673771" lon="17.970248441224">
        <ele>97</ele>
        <time>2018-02-05T18:47:56Z</time>
      </trkpt>
      <trkpt lat="62.630593221935" lon="17.970260427341">
        <ele>97</ele>
        <time>2018-02-05T18:47:57Z</time>
      </trkpt>
      <trkpt lat="62.630576458135" lon="17.970271575268">
        <ele>97.2</ele>
        <time>2018-02-05T18:47:58Z</time>
      </trkpt>
      <trkpt lat="62.630556844489" lon="17.970282555557">
        <ele>97.2</ele>
        <time>2018-02-05T18:47:59Z</time>
      </trkpt>
      <trkpt lat="62.630531950246" lon="17.970292697656">
        <ele>97.2</ele>
        <time>2018-02-05T18:48:00Z</time>
      </trkpt>
      <trkpt lat="62.630517617197" lon="17.970313233311">
        <ele>97.2</ele>
        <time>2018-02-05T18:48:01Z</time>
      </trkpt>
      <trkpt lat="62.630498171189" lon="17.970343408151">
        <ele>97.4</ele>
        <time>2018-02-05T18:48:02Z</time>
      </trkpt>
      <trkpt lat="62.630483419045" lon="17.970369224403">
        <ele>97.4</ele>
        <time>2018-02-05T18:48:03Z</time>
      </trkpt>
      <trkpt lat="62.630471852023" lon="17.970391855533">
        <ele>97.6</ele>
        <time>2018-02-05T18:48:04Z</time>
      </trkpt>
      <trkpt lat="62.630454166214" lon="17.970416582138">
        <ele>97.6</ele>
        <time>2018-02-05T18:48:05Z</time>
      </trkpt>
      <trkpt lat="62.630439916984" lon="17.970444577684">
        <ele>97.8</ele>
        <time>2018-02-05T18:48:06Z</time>
      </trkpt>
      <trkpt lat="62.630429691066" lon="17.97047341142">
        <ele>98</ele>
        <time>2018-02-05T18:48:07Z</time>
      </trkpt>
      <trkpt lat="62.630417788768" lon="17.970507274296">
        <ele>98.2</ele>
        <time>2018-02-05T18:48:08Z</time>
      </trkpt>
      <trkpt lat="62.630409071592" lon="17.970539544611">
        <ele>98.2</ele>
        <time>2018-02-05T18:48:09Z</time>
      </trkpt>
      <trkpt lat="62.630400354416" lon="17.970580029188">
        <ele>98.4</ele>
        <time>2018-02-05T18:48:10Z</time>
      </trkpt>
      <trkpt lat="62.630393229801" lon="17.970624369439">
        <ele>98.6</ele>
        <time>2018-02-05T18:48:11Z</time>
      </trkpt>
      <trkpt lat="62.630390966688" lon="17.970671810993">
        <ele>98.8</ele>
        <time>2018-02-05T18:48:12Z</time>
      </trkpt>
      <trkpt lat="62.630390631412" lon="17.970720342194">
        <ele>98.8</ele>
        <time>2018-02-05T18:48:13Z</time>
      </trkpt>
      <trkpt lat="62.630389038851" lon="17.970768957214">
        <ele>99</ele>
        <time>2018-02-05T18:48:14Z</time>
      </trkpt>
      <trkpt lat="62.630388368299" lon="17.970822433736">
        <ele>99.2</ele>
        <time>2018-02-05T18:48:15Z</time>
      </trkpt>
      <trkpt lat="62.630388871213" lon="17.970865516702">
        <ele>99.4</ele>
        <time>2018-02-05T18:48:16Z</time>
      </trkpt>
      <trkpt lat="62.630387949204" lon="17.970922010708">
        <ele>99.4</ele>
        <time>2018-02-05T18:48:17Z</time>
      </trkpt>
      <trkpt lat="62.630389290308" lon="17.970968949348">
        <ele>99.6</ele>
        <time>2018-02-05T18:48:18Z</time>
      </trkpt>
      <trkpt lat="62.630391301964" lon="17.971012535228">
        <ele>99.8</ele>
        <time>2018-02-05T18:48:19Z</time>
      </trkpt>
      <trkpt lat="62.630392056335" lon="17.971070370338">
        <ele>99.8</ele>
        <time>2018-02-05T18:48:20Z</time>
      </trkpt>
      <trkpt lat="62.630392726887" lon="17.971123763041">
        <ele>100</ele>
        <time>2018-02-05T18:48:21Z</time>
      </trkpt>
      <trkpt lat="62.630394570905" lon="17.97116910912">
        <ele>100</ele>
        <time>2018-02-05T18:48:22Z</time>
      </trkpt>
      <trkpt lat="62.630399013312" lon="17.971223926746">
        <ele>100</ele>
        <time>2018-02-05T18:48:23Z</time>
      </trkpt>
      <trkpt lat="62.63040253371" lon="17.971262818762">
        <ele>100</ele>
        <time>2018-02-05T18:48:24Z</time>
      </trkpt>
      <trkpt lat="62.630406389384" lon="17.971313864533">
        <ele>100.2</ele>
        <time>2018-02-05T18:48:25Z</time>
      </trkpt>
      <trkpt lat="62.630413178723" lon="17.971368263064">
        <ele>100.2</ele>
        <time>2018-02-05T18:48:26Z</time>
      </trkpt>
      <trkpt lat="62.630419213691" lon="17.971415788437">
        <ele>100.2</ele>
        <time>2018-02-05T18:48:27Z</time>
      </trkpt>
      <trkpt lat="62.630425248659" lon="17.971458619946">
        <ele>100.4</ele>
        <time>2018-02-05T18:48:28Z</time>
      </trkpt>
      <trkpt lat="62.630430529256" lon="17.971510503907">
        <ele>100.2</ele>
        <time>2018-02-05T18:48:29Z</time>
      </trkpt>
      <trkpt lat="62.630436228948" lon="17.971559370384">
        <ele>100.4</ele>
        <time>2018-02-05T18:48:30Z</time>
      </trkpt>
      <trkpt lat="62.630441677183" lon="17.97160496792">
        <ele>100.4</ele>
        <time>2018-02-05T18:48:31Z</time>
      </trkpt>
      <trkpt lat="62.630448131246" lon="17.971653666759">
        <ele>100.4</ele>
        <time>2018-02-05T18:48:32Z</time>
      </trkpt>
      <trkpt lat="62.630455172042" lon="17.971699851028">
        <ele>100.4</ele>
        <time>2018-02-05T18:48:33Z</time>
      </trkpt>
      <trkpt lat="62.630460620277" lon="17.971743856003">
        <ele>100.4</ele>
        <time>2018-02-05T18:48:34Z</time>
      </trkpt>
      <trkpt lat="62.630467493435" lon="17.971804205683">
        <ele>100.6</ele>
        <time>2018-02-05T18:48:35Z</time>
      </trkpt>
      <trkpt lat="62.630473109308" lon="17.971838739111">
        <ele>100.6</ele>
        <time>2018-02-05T18:48:36Z</time>
      </trkpt>
      <trkpt lat="62.630483083769" lon="17.971899424067">
        <ele>100.6</ele>
        <time>2018-02-05T18:48:37Z</time>
      </trkpt>
      <trkpt lat="62.630489956927" lon="17.971948961096">
        <ele>100.6</ele>
        <time>2018-02-05T18:48:38Z</time>
      </trkpt>
      <trkpt lat="62.630494902248" lon="17.971987266379">
        <ele>100.6</ele>
        <time>2018-02-05T18:48:39Z</time>
      </trkpt>
      <trkpt lat="62.630503619424" lon="17.972038647426">
        <ele>100.8</ele>
        <time>2018-02-05T18:48:40Z</time>
      </trkpt>
      <trkpt lat="62.630510324944" lon="17.972092962138">
        <ele>100.8</ele>
        <time>2018-02-05T18:48:41Z</time>
      </trkpt>
      <trkpt lat="62.630514515894" lon="17.972137889122">
        <ele>100.8</ele>
        <time>2018-02-05T18:48:42Z</time>
      </trkpt>
      <trkpt lat="62.630524657993" lon="17.972183821934">
        <ele>101</ele>
        <time>2018-02-05T18:48:43Z</time>
      </trkpt>
      <trkpt lat="62.630531028237" lon="17.972227826909">
        <ele>101</ele>
        <time>2018-02-05T18:48:44Z</time>
      </trkpt>
      <trkpt lat="62.630538152852" lon="17.972275100825">
        <ele>101</ele>
        <time>2018-02-05T18:48:45Z</time>
      </trkpt>
      <trkpt lat="62.630545528924" lon="17.972321033637">
        <ele>101</ele>
        <time>2018-02-05T18:48:46Z</time>
      </trkpt>
      <trkpt lat="62.630555419566" lon="17.972375599806">
        <ele>101.2</ele>
        <time>2018-02-05T18:48:47Z</time>
      </trkpt>
      <trkpt lat="62.630565645484" lon="17.972419437143">
        <ele>101.2</ele>
        <time>2018-02-05T18:48:48Z</time>
      </trkpt>
      <trkpt lat="62.630573189194" lon="17.972464028851">
        <ele>101.2</ele>
        <time>2018-02-05T18:48:49Z</time>
      </trkpt>
      <trkpt lat="62.630580816723" lon="17.97251691864">
        <ele>101.2</ele>
        <time>2018-02-05T18:48:50Z</time>
      </trkpt>
      <trkpt lat="62.630590455908" lon="17.972560085425">
        <ele>101.2</ele>
        <time>2018-02-05T18:48:51Z</time>
      </trkpt>
      <trkpt lat="62.630599005446" lon="17.972602916934">
        <ele>101.2</ele>
        <time>2018-02-05T18:48:52Z</time>
      </trkpt>
      <trkpt lat="62.630609818097" lon="17.972652453963">
        <ele>101.4</ele>
        <time>2018-02-05T18:48:53Z</time>
      </trkpt>
      <trkpt lat="62.630617864721" lon="17.972688077038">
        <ele>101.4</ele>
        <time>2018-02-05T18:48:54Z</time>
      </trkpt>
      <trkpt lat="62.630629767019" lon="17.972742559388">
        <ele>101.4</ele>
        <time>2018-02-05T18:48:55Z</time>
      </trkpt>
      <trkpt lat="62.630640076756" lon="17.972786648182">
        <ele>101.4</ele>
        <time>2018-02-05T18:48:56Z</time>
      </trkpt>
      <trkpt lat="62.630654577443" lon="17.972827719492">
        <ele>101.4</ele>
        <time>2018-02-05T18:48:57Z</time>
      </trkpt>
      <trkpt lat="62.630667737026" lon="17.972867952612">
        <ele>101.4</ele>
        <time>2018-02-05T18:48:58Z</time>
      </trkpt>
      <trkpt lat="62.630680728971" lon="17.972912628139">
        <ele>101.4</ele>
        <time>2018-02-05T18:48:59Z</time>
      </trkpt>
      <trkpt lat="62.630695564934" lon="17.972953447992">
        <ele>101.4</ele>
        <time>2018-02-05T18:49:00Z</time>
      </trkpt>
      <trkpt lat="62.630708389241" lon="17.97299720151">
        <ele>101.4</ele>
        <time>2018-02-05T18:49:01Z</time>
      </trkpt>
      <trkpt lat="62.630719285711" lon="17.973036261164">
        <ele>101.6</ele>
        <time>2018-02-05T18:49:02Z</time>
      </trkpt>
      <trkpt lat="62.630731774742" lon="17.973072135696">
        <ele>101.6</ele>
        <time>2018-02-05T18:49:03Z</time>
      </trkpt>
      <trkpt lat="62.630743509402" lon="17.973110776255">
        <ele>101.8</ele>
        <time>2018-02-05T18:49:04Z</time>
      </trkpt>
      <trkpt lat="62.630758093908" lon="17.973156541429">
        <ele>101.8</ele>
        <time>2018-02-05T18:49:05Z</time>
      </trkpt>
      <trkpt lat="62.630770666758" lon="17.973196103997">
        <ele>102</ele>
        <time>2018-02-05T18:49:06Z</time>
      </trkpt>
      <trkpt lat="62.630784161617" lon="17.973240192791">
        <ele>102</ele>
        <time>2018-02-05T18:49:07Z</time>
      </trkpt>
      <trkpt lat="62.630796399191" lon="17.973279420083">
        <ele>102.2</ele>
        <time>2018-02-05T18:49:08Z</time>
      </trkpt>
      <trkpt lat="62.630808469127" lon="17.973313869692">
        <ele>102.2</ele>
        <time>2018-02-05T18:49:09Z</time>
      </trkpt>
      <trkpt lat="62.630823891823" lon="17.973360053961">
        <ele>102.2</ele>
        <time>2018-02-05T18:49:10Z</time>
      </trkpt>
      <trkpt lat="62.630837219044" lon="17.973400622357">
        <ele>102.2</ele>
        <time>2018-02-05T18:49:11Z</time>
      </trkpt>
      <trkpt lat="62.630851887369" lon="17.973439179097">
        <ele>102.4</ele>
        <time>2018-02-05T18:49:12Z</time>
      </trkpt>
      <trkpt lat="62.630863705848" lon="17.973485111909">
        <ele>102.4</ele>
        <time>2018-02-05T18:49:13Z</time>
      </trkpt>
      <trkpt lat="62.630873680309" lon="17.973522243726">
        <ele>102.6</ele>
        <time>2018-02-05T18:49:14Z</time>
      </trkpt>
      <trkpt lat="62.630885834064" lon="17.973564404683">
        <ele>102.6</ele>
        <time>2018-02-05T18:49:15Z</time>
      </trkpt>
      <trkpt lat="62.630894635059" lon="17.973606230364">
        <ele>102.6</ele>
        <time>2018-02-05T18:49:16Z</time>
      </trkpt>
      <trkpt lat="62.630905615348" lon="17.973648642778">
        <ele>102.8</ele>
        <time>2018-02-05T18:49:17Z</time>
      </trkpt>
      <trkpt lat="62.630919864578" lon="17.973686612785">
        <ele>102.8</ele>
        <time>2018-02-05T18:49:18Z</time>
      </trkpt>
      <trkpt lat="62.63093310798" lon="17.973723493145">
        <ele>102.8</ele>
        <time>2018-02-05T18:49:19Z</time>
      </trkpt>
      <trkpt lat="62.630949620323" lon="17.973758445668">
        <ele>102.8</ele>
        <time>2018-02-05T18:49:20Z</time>
      </trkpt>
      <trkpt lat="62.63096160644" lon="17.973796499494">
        <ele>103</ele>
        <time>2018-02-05T18:49:21Z</time>
      </trkpt>
      <trkpt lat="62.630967976684" lon="17.97384209703">
        <ele>103</ele>
        <time>2018-02-05T18:49:22Z</time>
      </trkpt>
      <trkpt lat="62.630967557589" lon="17.973886269643">
        <ele>103</ele>
        <time>2018-02-05T18:49:23Z</time>
      </trkpt>
      <trkpt lat="62.630959343327" lon="17.973924826383">
        <ele>103</ele>
        <time>2018-02-05T18:49:24Z</time>
      </trkpt>
      <trkpt lat="62.63094316626" lon="17.973965813874">
        <ele>103</ele>
        <time>2018-02-05T18:49:25Z</time>
      </trkpt>
      <trkpt lat="62.630929839039" lon="17.974000934035">
        <ele>103.2</ele>
        <time>2018-02-05T18:49:26Z</time>
      </trkpt>
      <trkpt lat="62.630917014732" lon="17.97404326263">
        <ele>103.2</ele>
        <time>2018-02-05T18:49:27Z</time>
      </trkpt>
      <trkpt lat="62.630903687511" lon="17.974083663388">
        <ele>103.2</ele>
        <time>2018-02-05T18:49:28Z</time>
      </trkpt>
      <trkpt lat="62.630893042498" lon="17.974126327259">
        <ele>103.4</ele>
        <time>2018-02-05T18:49:29Z</time>
      </trkpt>
      <trkpt lat="62.630880553467" lon="17.974168823492">
        <ele>103.4</ele>
        <time>2018-02-05T18:49:30Z</time>
      </trkpt>
      <trkpt lat="62.630867477703" lon="17.974213918114">
        <ele>103.4</ele>
        <time>2018-02-05T18:49:31Z</time>
      </trkpt>
      <trkpt lat="62.630855743043" lon="17.974256330528">
        <ele>103.4</ele>
        <time>2018-02-05T18:49:32Z</time>
      </trkpt>
      <trkpt lat="62.630845014211" lon="17.974298407666">
        <ele>103.6</ele>
        <time>2018-02-05T18:49:33Z</time>
      </trkpt>
      <trkpt lat="62.630834453017" lon="17.974336796768">
        <ele>103.6</ele>
        <time>2018-02-05T18:49:34Z</time>
      </trkpt>
      <trkpt lat="62.630820958158" lon="17.974377951897">
        <ele>103.4</ele>
        <time>2018-02-05T18:49:35Z</time>
      </trkpt>
      <trkpt lat="62.630809391136" lon="17.974413910248">
        <ele>103.6</ele>
        <time>2018-02-05T18:49:36Z</time>
      </trkpt>
      <trkpt lat="62.630796399191" lon="17.974453556635">
        <ele>103.6</ele>
        <time>2018-02-05T18:49:37Z</time>
      </trkpt>
      <trkpt lat="62.63078474835" lon="17.974495969049">
        <ele>103.8</ele>
        <time>2018-02-05T18:49:38Z</time>
      </trkpt>
      <trkpt lat="62.630775025346" lon="17.974530586296">
        <ele>103.8</ele>
        <time>2018-02-05T18:49:39Z</time>
      </trkpt>
      <trkpt lat="62.630762368677" lon="17.974575010366">
        <ele>103.8</ele>
        <time>2018-02-05T18:49:40Z</time>
      </trkpt>
      <trkpt lat="62.630749460551" lon="17.97461658459">
        <ele>103.8</ele>
        <time>2018-02-05T18:49:41Z</time>
      </trkpt>
      <trkpt lat="62.630736049511" lon="17.974653297312">
        <ele>103.8</ele>
        <time>2018-02-05T18:49:42Z</time>
      </trkpt>
      <trkpt lat="62.630720040082" lon="17.974693195156">
        <ele>104</ele>
        <time>2018-02-05T18:49:43Z</time>
      </trkpt>
      <trkpt lat="62.630707467232" lon="17.974722364168">
        <ele>104</ele>
        <time>2018-02-05T18:49:44Z</time>
      </trkpt>
      <trkpt lat="62.63069925297" lon="17.97475656232">
        <ele>104</ele>
        <time>2018-02-05T18:49:45Z</time>
      </trkpt>
      <trkpt lat="62.630692715088" lon="17.974786820979">
        <ele>104</ele>
        <time>2018-02-05T18:49:46Z</time>
      </trkpt>
      <trkpt lat="62.630686512482" lon="17.974822276416">
        <ele>104</ele>
        <time>2018-02-05T18:49:47Z</time>
      </trkpt>
      <trkpt lat="62.630684081731" lon="17.97484289589">
        <ele>104</ele>
        <time>2018-02-05T18:49:48Z</time>
      </trkpt>
      <trkpt lat="62.630690787251" lon="17.974841554786">
        <ele>104</ele>
        <time>2018-02-05T18:49:49Z</time>
      </trkpt>
      <trkpt lat="62.630705707033" lon="17.974812134317">
        <ele>104</ele>
        <time>2018-02-05T18:49:50Z</time>
      </trkpt>
      <trkpt lat="62.630713837476" lon="17.974770643912">
        <ele>104</ele>
        <time>2018-02-05T18:49:51Z</time>
      </trkpt>
      <trkpt lat="62.630717860788" lon="17.974727644765">
        <ele>104.2</ele>
        <time>2018-02-05T18:49:52Z</time>
      </trkpt>
      <trkpt lat="62.630725320679" lon="17.974671150759">
        <ele>104.2</ele>
        <time>2018-02-05T18:49:53Z</time>
      </trkpt>
      <trkpt lat="62.630734708407" lon="17.974630330906">
        <ele>104.2</ele>
        <time>2018-02-05T18:49:54Z</time>
      </trkpt>
      <trkpt lat="62.630745688696" lon="17.974582805533">
        <ele>104.2</ele>
        <time>2018-02-05T18:49:55Z</time>
      </trkpt>
      <trkpt lat="62.630756333709" lon="17.974538213825">
        <ele>104.2</ele>
        <time>2018-02-05T18:49:56Z</time>
      </trkpt>
      <trkpt lat="62.630767733093" lon="17.974493705936">
        <ele>104.2</ele>
        <time>2018-02-05T18:49:57Z</time>
      </trkpt>
      <trkpt lat="62.630776701726" lon="17.974451125884">
        <ele>104.2</ele>
        <time>2018-02-05T18:49:58Z</time>
      </trkpt>
      <trkpt lat="62.630788604024" lon="17.974402762321">
        <ele>104.2</ele>
        <time>2018-02-05T18:49:59Z</time>
      </trkpt>
      <trkpt lat="62.630799081399" lon="17.974352638559">
        <ele>104.2</ele>
        <time>2018-02-05T18:50:00Z</time>
      </trkpt>
      <trkpt lat="62.630811235154" lon="17.974309723231">
        <ele>104.2</ele>
        <time>2018-02-05T18:50:01Z</time>
      </trkpt>
      <trkpt lat="62.630820622882" lon="17.974259599469">
        <ele>104.2</ele>
        <time>2018-02-05T18:50:02Z</time>
      </trkpt>
      <trkpt lat="62.630835961759" lon="17.974216851779">
        <ele>104.2</ele>
        <time>2018-02-05T18:50:03Z</time>
      </trkpt>
      <trkpt lat="62.630846355315" lon="17.974182150713">
        <ele>104.2</ele>
        <time>2018-02-05T18:50:04Z</time>
      </trkpt>
      <trkpt lat="62.630858676708" lon="17.974132446046">
        <ele>104</ele>
        <time>2018-02-05T18:50:05Z</time>
      </trkpt>
      <trkpt lat="62.630871752472" lon="17.974085339768">
        <ele>104</ele>
        <time>2018-02-05T18:50:06Z</time>
      </trkpt>
      <trkpt lat="62.63088449296" lon="17.974042675897">
        <ele>104</ele>
        <time>2018-02-05T18:50:07Z</time>
      </trkpt>
      <trkpt lat="62.63089287486" lon="17.97399716218">
        <ele>104</ele>
        <time>2018-02-05T18:50:08Z</time>
      </trkpt>
      <trkpt lat="62.63090293314" lon="17.973958521621">
        <ele>103.8</ele>
        <time>2018-02-05T18:50:09Z</time>
      </trkpt>
      <trkpt lat="62.630918439655" lon="17.973913426999">
        <ele>103.8</ele>
        <time>2018-02-05T18:50:10Z</time>
      </trkpt>
      <trkpt lat="62.630926905374" lon="17.973869422024">
        <ele>103.8</ele>
        <time>2018-02-05T18:50:11Z</time>
      </trkpt>
      <trkpt lat="62.630929084668" lon="17.973828937447">
        <ele>103.6</ele>
        <time>2018-02-05T18:50:12Z</time>
      </trkpt>
      <trkpt lat="62.630919529302" lon="17.973793062915">
        <ele>103.6</ele>
        <time>2018-02-05T18:50:13Z</time>
      </trkpt>
      <trkpt lat="62.630901508217" lon="17.973765737921">
        <ele>103.6</ele>
        <time>2018-02-05T18:50:14Z</time>
      </trkpt>
      <trkpt lat="62.630880721105" lon="17.973731958864">
        <ele>103.4</ele>
        <time>2018-02-05T18:50:15Z</time>
      </trkpt>
      <trkpt lat="62.630867477703" lon="17.973691977201">
        <ele>103.4</ele>
        <time>2018-02-05T18:50:16Z</time>
      </trkpt>
      <trkpt lat="62.630856162138" lon="17.973649397149">
        <ele>103.4</ele>
        <time>2018-02-05T18:50:17Z</time>
      </trkpt>
      <trkpt lat="62.630851384455" lon="17.97360572745">
        <ele>103.4</ele>
        <time>2018-02-05T18:50:18Z</time>
      </trkpt>
      <trkpt lat="62.630844343659" lon="17.973561890113">
        <ele>103.4</ele>
        <time>2018-02-05T18:50:19Z</time>
      </trkpt>
      <trkpt lat="62.630833866284" lon="17.973518890966">
        <ele>103.2</ele>
        <time>2018-02-05T18:50:20Z</time>
      </trkpt>
      <trkpt lat="62.630818443588" lon="17.973474466896">
        <ele>103.2</ele>
        <time>2018-02-05T18:50:21Z</time>
      </trkpt>
      <trkpt lat="62.630804781091" lon="17.973435993975">
        <ele>103.2</ele>
        <time>2018-02-05T18:50:22Z</time>
      </trkpt>
      <trkpt lat="62.630789693671" lon="17.973394168294">
        <ele>103.2</ele>
        <time>2018-02-05T18:50:23Z</time>
      </trkpt>
      <trkpt lat="62.630777372278" lon="17.973358293762">
        <ele>103.2</ele>
        <time>2018-02-05T18:50:24Z</time>
      </trkpt>
      <trkpt lat="62.630761446668" lon="17.973302973222">
        <ele>103</ele>
        <time>2018-02-05T18:50:25Z</time>
      </trkpt>
      <trkpt lat="62.630747784171" lon="17.973259135885">
        <ele>103</ele>
        <time>2018-02-05T18:50:26Z</time>
      </trkpt>
      <trkpt lat="62.630733786398" lon="17.973219489498">
        <ele>103</ele>
        <time>2018-02-05T18:50:27Z</time>
      </trkpt>
      <trkpt lat="62.630719201892" lon="17.97317489779">
        <ele>103</ele>
        <time>2018-02-05T18:50:28Z</time>
      </trkpt>
      <trkpt lat="62.630703946834" lon="17.973130054625">
        <ele>102.8</ele>
        <time>2018-02-05T18:50:29Z</time>
      </trkpt>
      <trkpt lat="62.630687099215" lon="17.973084624727">
        <ele>102.8</ele>
        <time>2018-02-05T18:50:30Z</time>
      </trkpt>
      <trkpt lat="62.630671927976" lon="17.973039362467">
        <ele>102.6</ele>
        <time>2018-02-05T18:50:31Z</time>
      </trkpt>
      <trkpt lat="62.630656840556" lon="17.972997369148">
        <ele>102.6</ele>
        <time>2018-02-05T18:50:32Z</time>
      </trkpt>
      <trkpt lat="62.630643010421" lon="17.972957638942">
        <ele>102.6</ele>
        <time>2018-02-05T18:50:33Z</time>
      </trkpt>
      <trkpt lat="62.630629096467" lon="17.972922099686">
        <ele>102.6</ele>
        <time>2018-02-05T18:50:34Z</time>
      </trkpt>
      <trkpt lat="62.63061040483" lon="17.972874658132">
        <ele>102.6</ele>
        <time>2018-02-05T18:50:35Z</time>
      </trkpt>
      <trkpt lat="62.630590455908" lon="17.972847416957">
        <ele>102.6</ele>
        <time>2018-02-05T18:50:36Z</time>
      </trkpt>
      <trkpt lat="62.630571764271" lon="17.972809111674">
        <ele>102.4</ele>
        <time>2018-02-05T18:50:37Z</time>
      </trkpt>
      <trkpt lat="62.630557263584" lon="17.972768627097">
        <ele>102.4</ele>
        <time>2018-02-05T18:50:38Z</time>
      </trkpt>
      <trkpt lat="62.630546115657" lon="17.972737027334">
        <ele>102.4</ele>
        <time>2018-02-05T18:50:39Z</time>
      </trkpt>
      <trkpt lat="62.630532788436" lon="17.972692770902">
        <ele>102.2</ele>
        <time>2018-02-05T18:50:40Z</time>
      </trkpt>
      <trkpt lat="62.630524155079" lon="17.972649520298">
        <ele>102.2</ele>
        <time>2018-02-05T18:50:41Z</time>
      </trkpt>
      <trkpt lat="62.630513677704" lon="17.972611215015">
        <ele>102.2</ele>
        <time>2018-02-05T18:50:42Z</time>
      </trkpt>
      <trkpt lat="62.630504457614" lon="17.972567712954">
        <ele>102.2</ele>
        <time>2018-02-05T18:50:43Z</time>
      </trkpt>
      <trkpt lat="62.630497332999" lon="17.972522869789">
        <ele>102</ele>
        <time>2018-02-05T18:50:44Z</time>
      </trkpt>
      <trkpt lat="62.630490711298" lon="17.972477272253">
        <ele>102</ele>
        <time>2018-02-05T18:50:45Z</time>
      </trkpt>
      <trkpt lat="62.630480904475" lon="17.972439469884">
        <ele>101.8</ele>
        <time>2018-02-05T18:50:46Z</time>
      </trkpt>
      <trkpt lat="62.630470343281" lon="17.972388340294">
        <ele>101.8</ele>
        <time>2018-02-05T18:50:47Z</time>
      </trkpt>
      <trkpt lat="62.630462129019" lon="17.972338970903">
        <ele>101.8</ele>
        <time>2018-02-05T18:50:48Z</time>
      </trkpt>
      <trkpt lat="62.630456596965" lon="17.972297061403">
        <ele>101.8</ele>
        <time>2018-02-05T18:50:49Z</time>
      </trkpt>
      <trkpt lat="62.630452070739" lon="17.972245764175">
        <ele>101.6</ele>
        <time>2018-02-05T18:50:50Z</time>
      </trkpt>
      <trkpt lat="62.630443688839" lon="17.972197987345">
        <ele>101.8</ele>
        <time>2018-02-05T18:50:51Z</time>
      </trkpt>
      <trkpt lat="62.63043941407" lon="17.972156999854">
        <ele>101.6</ele>
        <time>2018-02-05T18:50:52Z</time>
      </trkpt>
      <trkpt lat="62.630431283627" lon="17.972107295187">
        <ele>101.6</ele>
        <time>2018-02-05T18:50:53Z</time>
      </trkpt>
      <trkpt lat="62.63042600303" lon="17.972065720963">
        <ele>101.6</ele>
        <time>2018-02-05T18:50:54Z</time>
      </trkpt>
      <trkpt lat="62.630418878415" lon="17.972011992984">
        <ele>101.6</ele>
        <time>2018-02-05T18:50:55Z</time>
      </trkpt>
      <trkpt lat="62.630412340533" lon="17.971967066">
        <ele>101.6</ele>
        <time>2018-02-05T18:50:56Z</time>
      </trkpt>
      <trkpt lat="62.630407898126" lon="17.971918702437">
        <ele>101.4</ele>
        <time>2018-02-05T18:50:57Z</time>
      </trkpt>
      <trkpt lat="62.630405467375" lon="17.971891042167">
        <ele>101.4</ele>
        <time>2018-02-05T18:50:58Z</time>
      </trkpt>
      <trkpt lat="62.630394654724" lon="17.971835553989">
        <ele>101.4</ele>
        <time>2018-02-05T18:50:59Z</time>
      </trkpt>
      <trkpt lat="62.630387278652" lon="17.971788196254">
        <ele>101.4</ele>
        <time>2018-02-05T18:51:00Z</time>
      </trkpt>
      <trkpt lat="62.630381914236" lon="17.971747208763">
        <ele>101.2</ele>
        <time>2018-02-05T18:51:01Z</time>
      </trkpt>
      <trkpt lat="62.630374454345" lon="17.971706556548">
        <ele>101.2</ele>
        <time>2018-02-05T18:51:02Z</time>
      </trkpt>
      <trkpt lat="62.630368754653" lon="17.971668837998">
        <ele>101.2</ele>
        <time>2018-02-05T18:51:03Z</time>
      </trkpt>
      <trkpt lat="62.630363390237" lon="17.971627431412">
        <ele>101.2</ele>
        <time>2018-02-05T18:51:04Z</time>
      </trkpt>
      <trkpt lat="62.630355343613" lon="17.971555095615">
        <ele>101.2</ele>
        <time>2018-02-05T18:51:06Z</time>
      </trkpt>
      <trkpt lat="62.630345369152" lon="17.9715060615">
        <ele>101.2</ele>
        <time>2018-02-05T18:51:07Z</time>
      </trkpt>
      <trkpt lat="62.630338747451" lon="17.971461972706">
        <ele>101.2</ele>
        <time>2018-02-05T18:51:08Z</time>
      </trkpt>
      <trkpt lat="62.630333383035" lon="17.971422326319">
        <ele>101.2</ele>
        <time>2018-02-05T18:51:09Z</time>
      </trkpt>
      <trkpt lat="62.630326845153" lon="17.971382596113">
        <ele>101.2</ele>
        <time>2018-02-05T18:51:10Z</time>
      </trkpt>
      <trkpt lat="62.630319301443" lon="17.97133507074">
        <ele>101.2</ele>
        <time>2018-02-05T18:51:11Z</time>
      </trkpt>
      <trkpt lat="62.630312679742" lon="17.971292406869">
        <ele>101.2</ele>
        <time>2018-02-05T18:51:12Z</time>
      </trkpt>
      <trkpt lat="62.63030865643" lon="17.9712462226">
        <ele>101</ele>
        <time>2018-02-05T18:51:13Z</time>
      </trkpt>
      <trkpt lat="62.630303962566" lon="17.971198361951">
        <ele>101</ele>
        <time>2018-02-05T18:51:14Z</time>
      </trkpt>
      <trkpt lat="62.630298849607" lon="17.971149076379">
        <ele>100.8</ele>
        <time>2018-02-05T18:51:15Z</time>
      </trkpt>
      <trkpt lat="62.630295580666" lon="17.971104819947">
        <ele>100.8</ele>
        <time>2018-02-05T18:51:16Z</time>
      </trkpt>
      <trkpt lat="62.630293820467" lon="17.971053690357">
        <ele>100.6</ele>
        <time>2018-02-05T18:51:17Z</time>
      </trkpt>
      <trkpt lat="62.630294239562" lon="17.971008679554">
        <ele>100.6</ele>
        <time>2018-02-05T18:51:18Z</time>
      </trkpt>
      <trkpt lat="62.630294574838" lon="17.97096794352">
        <ele>100.6</ele>
        <time>2018-02-05T18:51:19Z</time>
      </trkpt>
      <trkpt lat="62.630295077752" lon="17.970919747595">
        <ele>100.6</ele>
        <time>2018-02-05T18:51:20Z</time>
      </trkpt>
      <trkpt lat="62.630296502675" lon="17.970876664629">
        <ele>100.6</ele>
        <time>2018-02-05T18:51:21Z</time>
      </trkpt>
      <trkpt lat="62.630297340865" lon="17.970841293011">
        <ele>100.6</ele>
        <time>2018-02-05T18:51:22Z</time>
      </trkpt>
      <trkpt lat="62.630300023073" lon="17.970798964416">
        <ele>100.6</ele>
        <time>2018-02-05T18:51:23Z</time>
      </trkpt>
      <trkpt lat="62.630302537643" lon="17.970758479839">
        <ele>100.6</ele>
        <time>2018-02-05T18:51:24Z</time>
      </trkpt>
      <trkpt lat="62.630307650602" lon="17.970714474864">
        <ele>100.4</ele>
        <time>2018-02-05T18:51:25Z</time>
      </trkpt>
      <trkpt lat="62.630310500448" lon="17.970673152097">
        <ele>100.4</ele>
        <time>2018-02-05T18:51:26Z</time>
      </trkpt>
      <trkpt lat="62.630317373606" lon="17.970628560389">
        <ele>100.4</ele>
        <time>2018-02-05T18:51:27Z</time>
      </trkpt>
      <trkpt lat="62.630325923144" lon="17.970584974509">
        <ele>100.4</ele>
        <time>2018-02-05T18:51:28Z</time>
      </trkpt>
      <trkpt lat="62.630342351668" lon="17.970560499361">
        <ele>100.4</ele>
        <time>2018-02-05T18:51:29Z</time>
      </trkpt>
      <trkpt lat="62.630354086328" lon="17.970521691164">
        <ele>100.2</ele>
        <time>2018-02-05T18:51:30Z</time>
      </trkpt>
      <trkpt lat="62.630368838472" lon="17.9704834697">
        <ele>100.2</ele>
        <time>2018-02-05T18:51:31Z</time>
      </trkpt>
      <trkpt lat="62.630384596444" lon="17.970448852453">
        <ele>100</ele>
        <time>2018-02-05T18:51:32Z</time>
      </trkpt>
      <trkpt lat="62.63040169552" lon="17.970414319025">
        <ele>99.8</ele>
        <time>2018-02-05T18:51:33Z</time>
      </trkpt>
      <trkpt lat="62.630419884243" lon="17.970382300167">
        <ele>99.6</ele>
        <time>2018-02-05T18:51:34Z</time>
      </trkpt>
      <trkpt lat="62.630439078794" lon="17.970356316277">
        <ele>99.2</ele>
        <time>2018-02-05T18:51:35Z</time>
      </trkpt>
      <trkpt lat="62.630458776259" lon="17.970329326559">
        <ele>99</ele>
        <time>2018-02-05T18:51:36Z</time>
      </trkpt>
      <trkpt lat="62.630479898647" lon="17.97030493523">
        <ele>98.8</ele>
        <time>2018-02-05T18:51:37Z</time>
      </trkpt>
      <trkpt lat="62.630502697415" lon="17.970285992136">
        <ele>98.6</ele>
        <time>2018-02-05T18:51:38Z</time>
      </trkpt>
      <trkpt lat="62.63052490945" lon="17.970269395974">
        <ele>98.4</ele>
        <time>2018-02-05T18:51:39Z</time>
      </trkpt>
      <trkpt lat="62.6305458642" lon="17.97026134935">
        <ele>98.2</ele>
        <time>2018-02-05T18:51:40Z</time>
      </trkpt>
      <trkpt lat="62.630571093719" lon="17.97025212926">
        <ele>98.2</ele>
        <time>2018-02-05T18:51:41Z</time>
      </trkpt>
      <trkpt lat="62.630592719021" lon="17.970244837007">
        <ele>98</ele>
        <time>2018-02-05T18:51:42Z</time>
      </trkpt>
      <trkpt lat="62.630615182513" lon="17.97023620365">
        <ele>98</ele>
        <time>2018-02-05T18:51:43Z</time>
      </trkpt>
      <trkpt lat="62.63063722691" lon="17.970224720447">
        <ele>98</ele>
        <time>2018-02-05T18:51:44Z</time>
      </trkpt>
      <trkpt lat="62.630662121153" lon="17.970209549208">
        <ele>97.8</ele>
        <time>2018-02-05T18:51:45Z</time>
      </trkpt>
      <trkpt lat="62.630684836102" lon="17.970197982186">
        <ele>97.8</ele>
        <time>2018-02-05T18:51:46Z</time>
      </trkpt>
      <trkpt lat="62.630708892155" lon="17.970182727128">
        <ele>97.6</ele>
        <time>2018-02-05T18:51:47Z</time>
      </trkpt>
      <trkpt lat="62.630732864389" lon="17.970173087943">
        <ele>97.6</ele>
        <time>2018-02-05T18:51:48Z</time>
      </trkpt>
      <trkpt lat="62.630752142759" lon="17.970163616396">
        <ele>97.6</ele>
        <time>2018-02-05T18:51:49Z</time>
      </trkpt>
      <trkpt lat="62.630773348966" lon="17.97015406103">
        <ele>97.4</ele>
        <time>2018-02-05T18:51:50Z</time>
      </trkpt>
      <trkpt lat="62.630794303716" lon="17.97015070827">
        <ele>97.4</ele>
        <time>2018-02-05T18:51:51Z</time>
      </trkpt>
      <trkpt lat="62.630813330629" lon="17.970149450985">
        <ele>97.2</ele>
        <time>2018-02-05T18:51:52Z</time>
      </trkpt>
      <trkpt lat="62.630834285379" lon="17.970145092397">
        <ele>97.2</ele>
        <time>2018-02-05T18:51:53Z</time>
      </trkpt>
      <trkpt lat="62.630853144654" lon="17.970141236723">
        <ele>97</ele>
        <time>2018-02-05T18:51:54Z</time>
      </trkpt>
      <trkpt lat="62.630877116888" lon="17.970136039945">
        <ele>96.8</ele>
        <time>2018-02-05T18:51:55Z</time>
      </trkpt>
      <trkpt lat="62.630899496561" lon="17.970129082968">
        <ele>96.8</ele>
        <time>2018-02-05T18:51:56Z</time>
      </trkpt>
      <trkpt lat="62.630921121863" lon="17.970119527602">
        <ele>96.8</ele>
        <time>2018-02-05T18:51:57Z</time>
      </trkpt>
      <trkpt lat="62.630941573699" lon="17.970110558969">
        <ele>96.8</ele>
        <time>2018-02-05T18:51:58Z</time>
      </trkpt>
      <trkpt lat="62.630965294476" lon="17.970100919784">
        <ele>96.8</ele>
        <time>2018-02-05T18:51:59Z</time>
      </trkpt>
      <trkpt lat="62.630992368013" lon="17.970087676382">
        <ele>96.8</ele>
        <time>2018-02-05T18:52:00Z</time>
      </trkpt>
      <trkpt lat="62.63101860336" lon="17.970073762428">
        <ele>96.8</ele>
        <time>2018-02-05T18:52:01Z</time>
      </trkpt>
      <trkpt lat="62.631044754888" lon="17.970059764655">
        <ele>96.8</ele>
        <time>2018-02-05T18:52:02Z</time>
      </trkpt>
      <trkpt lat="62.631068727122" lon="17.970047862357">
        <ele>96.8</ele>
        <time>2018-02-05T18:52:03Z</time>
      </trkpt>
      <trkpt lat="62.631091861166" lon="17.970039061362">
        <ele>96.8</ele>
        <time>2018-02-05T18:52:04Z</time>
      </trkpt>
      <trkpt lat="62.631119689074" lon="17.970017016965">
        <ele>96.6</ele>
        <time>2018-02-05T18:52:05Z</time>
      </trkpt>
      <trkpt lat="62.631147014068" lon="17.969997235681">
        <ele>96.6</ele>
        <time>2018-02-05T18:52:06Z</time>
      </trkpt>
      <trkpt lat="62.631171740673" lon="17.969976700026">
        <ele>96.4</ele>
        <time>2018-02-05T18:52:07Z</time>
      </trkpt>
      <trkpt lat="62.63119462326" lon="17.969956332009">
        <ele>96.4</ele>
        <time>2018-02-05T18:52:08Z</time>
      </trkpt>
      <trkpt lat="62.631217002933" lon="17.969938897657">
        <ele>96.2</ele>
        <time>2018-02-05T18:52:09Z</time>
      </trkpt>
      <trkpt lat="62.631239298787" lon="17.96993277887">
        <ele>96.2</ele>
        <time>2018-02-05T18:52:10Z</time>
      </trkpt>
      <trkpt lat="62.631266037048" lon="17.969917272355">
        <ele>96</ele>
        <time>2018-02-05T18:52:11Z</time>
      </trkpt>
      <trkpt lat="62.631291182748" lon="17.969904783324">
        <ele>96</ele>
        <time>2018-02-05T18:52:12Z</time>
      </trkpt>
      <trkpt lat="62.631316663724" lon="17.969891204646">
        <ele>96</ele>
        <time>2018-02-05T18:52:13Z</time>
      </trkpt>
      <trkpt lat="62.631340049225" lon="17.969878464158">
        <ele>95.8</ele>
        <time>2018-02-05T18:52:14Z</time>
      </trkpt>
      <trkpt lat="62.631367374219" lon="17.969865304575">
        <ele>95.8</ele>
        <time>2018-02-05T18:52:15Z</time>
      </trkpt>
      <trkpt lat="62.631390089168" lon="17.969850887707">
        <ele>95.8</ele>
        <time>2018-02-05T18:52:16Z</time>
      </trkpt>
      <trkpt lat="62.63141506723" lon="17.969832698984">
        <ele>95.8</ele>
        <time>2018-02-05T18:52:17Z</time>
      </trkpt>
      <trkpt lat="62.631438620369" lon="17.969817863021">
        <ele>95.6</ele>
        <time>2018-02-05T18:52:18Z</time>
      </trkpt>
      <trkpt lat="62.631460580947" lon="17.969804284343">
        <ele>95.6</ele>
        <time>2018-02-05T18:52:19Z</time>
      </trkpt>
      <trkpt lat="62.631485223733" lon="17.969788358733">
        <ele>95.6</ele>
        <time>2018-02-05T18:52:20Z</time>
      </trkpt>
      <trkpt lat="62.631507854863" lon="17.969775534426">
        <ele>95.4</ele>
        <time>2018-02-05T18:52:21Z</time>
      </trkpt>
      <trkpt lat="62.631529144889" lon="17.969765057051">
        <ele>95.4</ele>
        <time>2018-02-05T18:52:22Z</time>
      </trkpt>
      <trkpt lat="62.631552781847" lon="17.969749801993">
        <ele>95.4</ele>
        <time>2018-02-05T18:52:23Z</time>
      </trkpt>
      <trkpt lat="62.63157432333" lon="17.969734211659">
        <ele>95.4</ele>
        <time>2018-02-05T18:52:24Z</time>
      </trkpt>
      <trkpt lat="62.631599552849" lon="17.969714765651">
        <ele>95.4</ele>
        <time>2018-02-05T18:52:25Z</time>
      </trkpt>
      <trkpt lat="62.631621932522" lon="17.969695487281">
        <ele>95.2</ele>
        <time>2018-02-05T18:52:26Z</time>
      </trkpt>
      <trkpt lat="62.631643809281" lon="17.96966874902">
        <ele>95.2</ele>
        <time>2018-02-05T18:52:27Z</time>
      </trkpt>
      <trkpt lat="62.631663674384" lon="17.969640921112">
        <ele>95</ele>
        <time>2018-02-05T18:52:28Z</time>
      </trkpt>
      <trkpt lat="62.631683539487" lon="17.96961259029">
        <ele>95</ele>
        <time>2018-02-05T18:52:29Z</time>
      </trkpt>
      <trkpt lat="62.631703907504" lon="17.969583756554">
        <ele>95</ele>
        <time>2018-02-05T18:52:30Z</time>
      </trkpt>
      <trkpt lat="62.631725281349" lon="17.969561879795">
        <ele>95</ele>
        <time>2018-02-05T18:52:31Z</time>
      </trkpt>
      <trkpt lat="62.631746822832" lon="17.969548468755">
        <ele>95</ele>
        <time>2018-02-05T18:52:32Z</time>
      </trkpt>
      <trkpt lat="62.63176878341" lon="17.969540925045">
        <ele>94.8</ele>
        <time>2018-02-05T18:52:33Z</time>
      </trkpt>
      <trkpt lat="62.631790743988" lon="17.969535057715">
        <ele>94.8</ele>
        <time>2018-02-05T18:52:34Z</time>
      </trkpt>
      <trkpt lat="62.631815554412" lon="17.96954302052">
        <ele>94.8</ele>
        <time>2018-02-05T18:52:35Z</time>
      </trkpt>
      <trkpt lat="62.631837179714" lon="17.969543271977">
        <ele>94.8</ele>
        <time>2018-02-05T18:52:36Z</time>
      </trkpt>
      <trkpt lat="62.631859727025" lon="17.969542936701">
        <ele>94.6</ele>
        <time>2018-02-05T18:52:37Z</time>
      </trkpt>
      <trkpt lat="62.631882274336" lon="17.9695446969">
        <ele>94.8</ele>
        <time>2018-02-05T18:52:38Z</time>
      </trkpt>
      <trkpt lat="62.631904737828" lon="17.969548384936">
        <ele>94.8</ele>
        <time>2018-02-05T18:52:39Z</time>
      </trkpt>
      <trkpt lat="62.631928458605" lon="17.969543523434">
        <ele>94.8</ele>
        <time>2018-02-05T18:52:40Z</time>
      </trkpt>
      <trkpt lat="62.631953604305" lon="17.969538410475">
        <ele>94.8</ele>
        <time>2018-02-05T18:52:41Z</time>
      </trkpt>
      <trkpt lat="62.631976235435" lon="17.969531369679">
        <ele>94.8</ele>
        <time>2018-02-05T18:52:42Z</time>
      </trkpt>
      <trkpt lat="62.631999620936" lon="17.96952625672">
        <ele>94.8</ele>
        <time>2018-02-05T18:52:43Z</time>
      </trkpt>
      <trkpt lat="62.632018731668" lon="17.96951619844">
        <ele>95</ele>
        <time>2018-02-05T18:52:44Z</time>
      </trkpt>
      <trkpt lat="62.632039099685" lon="17.969500608106">
        <ele>95</ele>
        <time>2018-02-05T18:52:45Z</time>
      </trkpt>
      <trkpt lat="62.632067262869" lon="17.969481078279">
        <ele>95</ele>
        <time>2018-02-05T18:52:46Z</time>
      </trkpt>
      <trkpt lat="62.632081931194" lon="17.969470852361">
        <ele>95</ele>
        <time>2018-02-05T18:52:47Z</time>
      </trkpt>
      <trkpt lat="62.63210741217" lon="17.969473366931">
        <ele>95</ele>
        <time>2018-02-05T18:52:48Z</time>
      </trkpt>
      <trkpt lat="62.632128869834" lon="17.969464565936">
        <ele>95</ele>
        <time>2018-02-05T18:52:49Z</time>
      </trkpt>
      <trkpt lat="62.632154602267" lon="17.969454675294">
        <ele>95</ele>
        <time>2018-02-05T18:52:50Z</time>
      </trkpt>
      <trkpt lat="62.63217614375" lon="17.969441180435">
        <ele>95</ele>
        <time>2018-02-05T18:52:51Z</time>
      </trkpt>
      <trkpt lat="62.63219961307" lon="17.969432966173">
        <ele>95</ele>
        <time>2018-02-05T18:52:52Z</time>
      </trkpt>
      <trkpt lat="62.632225680779" lon="17.969426176834">
        <ele>95.2</ele>
        <time>2018-02-05T18:52:53Z</time>
      </trkpt>
      <trkpt lat="62.632247222262" lon="17.969424248997">
        <ele>95.2</ele>
        <time>2018-02-05T18:52:54Z</time>
      </trkpt>
      <trkpt lat="62.632272451781" lon="17.969431708888">
        <ele>95</ele>
        <time>2018-02-05T18:52:55Z</time>
      </trkpt>
      <trkpt lat="62.632296424015" lon="17.969437827675">
        <ele>95</ele>
        <time>2018-02-05T18:52:56Z</time>
      </trkpt>
      <trkpt lat="62.632319055145" lon="17.969433469087">
        <ele>95</ele>
        <time>2018-02-05T18:52:57Z</time>
      </trkpt>
      <trkpt lat="62.632339171705" lon="17.969427517938">
        <ele>95</ele>
        <time>2018-02-05T18:52:58Z</time>
      </trkpt>
      <trkpt lat="62.632362892482" lon="17.969426679748">
        <ele>95</ele>
        <time>2018-02-05T18:52:59Z</time>
      </trkpt>
      <trkpt lat="62.632386445621" lon="17.969428523766">
        <ele>95</ele>
        <time>2018-02-05T18:53:00Z</time>
      </trkpt>
      <trkpt lat="62.632409244389" lon="17.969424416635">
        <ele>95</ele>
        <time>2018-02-05T18:53:01Z</time>
      </trkpt>
      <trkpt lat="62.632433551899" lon="17.969425506282">
        <ele>95</ele>
        <time>2018-02-05T18:53:02Z</time>
      </trkpt>
      <trkpt lat="62.632459787246" lon="17.969427182662">
        <ele>95.2</ele>
        <time>2018-02-05T18:53:03Z</time>
      </trkpt>
      <trkpt lat="62.632484010937" lon="17.969428942861">
        <ele>95</ele>
        <time>2018-02-05T18:53:04Z</time>
      </trkpt>
      <trkpt lat="62.632485771136" lon="17.969432966173">
        <ele>95.2</ele>
        <time>2018-02-05T18:53:05Z</time>
      </trkpt>
      <trkpt lat="62.632531871586" lon="17.969440845159">
        <ele>95.2</ele>
        <time>2018-02-05T18:53:06Z</time>
      </trkpt>
      <trkpt lat="62.632556095277" lon="17.96944243772">
        <ele>95.2</ele>
        <time>2018-02-05T18:53:07Z</time>
      </trkpt>
      <trkpt lat="62.632581576253" lon="17.969445455204">
        <ele>95.2</ele>
        <time>2018-02-05T18:53:08Z</time>
      </trkpt>
      <trkpt lat="62.632604207383" lon="17.96944914324">
        <ele>95.4</ele>
        <time>2018-02-05T18:53:09Z</time>
      </trkpt>
      <trkpt lat="62.632628095798" lon="17.969452412181">
        <ele>95.4</ele>
        <time>2018-02-05T18:53:10Z</time>
      </trkpt>
      <trkpt lat="62.632655504611" lon="17.969453753285">
        <ele>95.2</ele>
        <time>2018-02-05T18:53:11Z</time>
      </trkpt>
      <trkpt lat="62.632679979759" lon="17.969457189864">
        <ele>95.2</ele>
        <time>2018-02-05T18:53:12Z</time>
      </trkpt>
      <trkpt lat="62.632703197622" lon="17.969459704434">
        <ele>95.2</ele>
        <time>2018-02-05T18:53:13Z</time>
      </trkpt>
      <trkpt lat="62.632725493476" lon="17.969465404126">
        <ele>95.2</ele>
        <time>2018-02-05T18:53:14Z</time>
      </trkpt>
      <trkpt lat="62.632747956968" lon="17.969471355275">
        <ele>95.4</ele>
        <time>2018-02-05T18:53:15Z</time>
      </trkpt>
      <trkpt lat="62.632765307501" lon="17.969475378587">
        <ele>95.4</ele>
        <time>2018-02-05T18:53:16Z</time>
      </trkpt>
      <trkpt lat="62.632790034106" lon="17.969481581193">
        <ele>95.4</ele>
        <time>2018-02-05T18:53:17Z</time>
      </trkpt>
      <trkpt lat="62.632814173978" lon="17.969482922297">
        <ele>95.4</ele>
        <time>2018-02-05T18:53:18Z</time>
      </trkpt>
      <trkpt lat="62.632834458176" lon="17.969482587021">
        <ele>95.4</ele>
        <time>2018-02-05T18:53:19Z</time>
      </trkpt>
      <trkpt lat="62.632857340763" lon="17.969483173754">
        <ele>95.6</ele>
        <time>2018-02-05T18:53:20Z</time>
      </trkpt>
      <trkpt lat="62.63287687059" lon="17.969482251745">
        <ele>95.6</ele>
        <time>2018-02-05T18:53:21Z</time>
      </trkpt>
      <trkpt lat="62.63289614896" lon="17.969483006116">
        <ele>95.6</ele>
        <time>2018-02-05T18:53:22Z</time>
      </trkpt>
      <trkpt lat="62.632920624108" lon="17.969483257573">
        <ele>95.8</ele>
        <time>2018-02-05T18:53:23Z</time>
      </trkpt>
      <trkpt lat="62.632940992125" lon="17.969480072451">
        <ele>95.8</ele>
        <time>2018-02-05T18:53:24Z</time>
      </trkpt>
      <trkpt lat="62.632966892196" lon="17.96948015627">
        <ele>96</ele>
        <time>2018-02-05T18:53:25Z</time>
      </trkpt>
      <trkpt lat="62.632989607145" lon="17.969488119075">
        <ele>96</ele>
        <time>2018-02-05T18:53:26Z</time>
      </trkpt>
      <trkpt lat="62.633010645714" lon="17.969498764088">
        <ele>96</ele>
        <time>2018-02-05T18:53:27Z</time>
      </trkpt>
      <trkpt lat="62.63303109755" lon="17.969506475436">
        <ele>96</ele>
        <time>2018-02-05T18:53:28Z</time>
      </trkpt>
      <trkpt lat="62.633055991793" lon="17.969514857336">
        <ele>96</ele>
        <time>2018-02-05T18:53:29Z</time>
      </trkpt>
      <trkpt lat="62.633080969855" lon="17.969526843453">
        <ele>96.2</ele>
        <time>2018-02-05T18:53:30Z</time>
      </trkpt>
      <trkpt lat="62.633104522994" lon="17.969537488466">
        <ele>96.2</ele>
        <time>2018-02-05T18:53:31Z</time>
      </trkpt>
      <trkpt lat="62.633127908495" lon="17.969543355796">
        <ele>96.2</ele>
        <time>2018-02-05T18:53:32Z</time>
      </trkpt>
      <trkpt lat="62.633153724747" lon="17.969550983325">
        <ele>96.2</ele>
        <time>2018-02-05T18:53:33Z</time>
      </trkpt>
      <trkpt lat="62.63317275166" lon="17.969556934474">
        <ele>96.4</ele>
        <time>2018-02-05T18:53:34Z</time>
      </trkpt>
      <trkpt lat="62.633197226808" lon="17.96957151898">
        <ele>96.2</ele>
        <time>2018-02-05T18:53:35Z</time>
      </trkpt>
      <trkpt lat="62.63321885211" lon="17.969586271124">
        <ele>96.2</ele>
        <time>2018-02-05T18:53:36Z</time>
      </trkpt>
      <trkpt lat="62.633239890679" lon="17.969596916137">
        <ele>96.2</ele>
        <time>2018-02-05T18:53:37Z</time>
      </trkpt>
      <trkpt lat="62.633263611456" lon="17.969603789295">
        <ele>96.4</ele>
        <time>2018-02-05T18:53:38Z</time>
      </trkpt>
      <trkpt lat="62.633285320577" lon="17.969600687992">
        <ele>96.4</ele>
        <time>2018-02-05T18:53:39Z</time>
      </trkpt>
      <trkpt lat="62.633307616431" lon="17.969581074346">
        <ele>96.4</ele>
        <time>2018-02-05T18:53:40Z</time>
      </trkpt>
      <trkpt lat="62.633325050783" lon="17.969544864538">
        <ele>96.4</ele>
        <time>2018-02-05T18:53:41Z</time>
      </trkpt>
      <trkpt lat="62.633338545642" lon="17.969504631418">
        <ele>96.4</ele>
        <time>2018-02-05T18:53:42Z</time>
      </trkpt>
      <trkpt lat="62.633353046329" lon="17.969464063022">
        <ele>96.6</ele>
        <time>2018-02-05T18:53:43Z</time>
      </trkpt>
      <trkpt lat="62.633366541188" lon="17.969422237341">
        <ele>96.6</ele>
        <time>2018-02-05T18:53:44Z</time>
      </trkpt>
      <trkpt lat="62.633375090726" lon="17.969372448855">
        <ele>96.6</ele>
        <time>2018-02-05T18:53:45Z</time>
      </trkpt>
      <trkpt lat="62.633378024391" lon="17.969328611518">
        <ele>96.6</ele>
        <time>2018-02-05T18:53:46Z</time>
      </trkpt>
      <trkpt lat="62.633383304988" lon="17.969278403937">
        <ele>96.6</ele>
        <time>2018-02-05T18:53:47Z</time>
      </trkpt>
      <trkpt lat="62.633389675232" lon="17.969226519976">
        <ele>96.4</ele>
        <time>2018-02-05T18:53:48Z</time>
      </trkpt>
      <trkpt lat="62.633391854526" lon="17.969177737318">
        <ele>96.4</ele>
        <time>2018-02-05T18:53:49Z</time>
      </trkpt>
      <trkpt lat="62.633393782363" lon="17.969124093158">
        <ele>96.2</ele>
        <time>2018-02-05T18:53:50Z</time>
      </trkpt>
      <trkpt lat="62.633397973313" lon="17.969074723767">
        <ele>96.2</ele>
        <time>2018-02-05T18:53:51Z</time>
      </trkpt>
      <trkpt lat="62.633401996625" lon="17.969029461507">
        <ele>96.2</ele>
        <time>2018-02-05T18:53:52Z</time>
      </trkpt>
      <trkpt lat="62.633406522851" lon="17.968978415736">
        <ele>96</ele>
        <time>2018-02-05T18:53:53Z</time>
      </trkpt>
      <trkpt lat="62.633410965258" lon="17.96893365639">
        <ele>96</ele>
        <time>2018-02-05T18:53:54Z</time>
      </trkpt>
      <trkpt lat="62.633417000226" lon="17.96887665947">
        <ele>95.8</ele>
        <time>2018-02-05T18:53:55Z</time>
      </trkpt>
      <trkpt lat="62.633420520624" lon="17.968829637011">
        <ele>95.6</ele>
        <time>2018-02-05T18:53:56Z</time>
      </trkpt>
      <trkpt lat="62.633425465945" lon="17.968778339783">
        <ele>95.4</ele>
        <time>2018-02-05T18:53:57Z</time>
      </trkpt>
      <trkpt lat="62.633430327447" lon="17.968731987876">
        <ele>95.2</ele>
        <time>2018-02-05T18:53:58Z</time>
      </trkpt>
      <trkpt lat="62.633434769854" lon="17.96868303758">
        <ele>95</ele>
        <time>2018-02-05T18:53:59Z</time>
      </trkpt>
      <trkpt lat="62.633441140098" lon="17.968631153619">
        <ele>94.8</ele>
        <time>2018-02-05T18:54:00Z</time>
      </trkpt>
      <trkpt lat="62.633448180894" lon="17.96858413116">
        <ele>94.8</ele>
        <time>2018-02-05T18:54:01Z</time>
      </trkpt>
      <trkpt lat="62.633452790939" lon="17.968539371814">
        <ele>94.4</ele>
        <time>2018-02-05T18:54:02Z</time>
      </trkpt>
      <trkpt lat="62.633457484803" lon="17.9684885775">
        <ele>94.2</ele>
        <time>2018-02-05T18:54:03Z</time>
      </trkpt>
      <trkpt lat="62.633462849219" lon="17.968445075439">
        <ele>94.2</ele>
        <time>2018-02-05T18:54:04Z</time>
      </trkpt>
      <trkpt lat="62.633469638558" lon="17.968392772383">
        <ele>94</ele>
        <time>2018-02-05T18:54:05Z</time>
      </trkpt>
      <trkpt lat="62.633474919155" lon="17.968350946702">
        <ele>93.6</ele>
        <time>2018-02-05T18:54:06Z</time>
      </trkpt>
      <trkpt lat="62.633480618847" lon="17.968306019718">
        <ele>93.4</ele>
        <time>2018-02-05T18:54:07Z</time>
      </trkpt>
      <trkpt lat="62.63348707291" lon="17.968261260372">
        <ele>93.2</ele>
        <time>2018-02-05T18:54:08Z</time>
      </trkpt>
      <trkpt lat="62.633490928584" lon="17.968227313677">
        <ele>93</ele>
        <time>2018-02-05T18:54:09Z</time>
      </trkpt>
      <trkpt lat="62.633496460638" lon="17.968186326186">
        <ele>92.8</ele>
        <time>2018-02-05T18:54:10Z</time>
      </trkpt>
      <trkpt lat="62.633503166158" lon="17.968155983708">
        <ele>92.8</ele>
        <time>2018-02-05T18:54:11Z</time>
      </trkpt>
      <trkpt lat="62.633514649361" lon="17.968145003419">
        <ele>92.6</ele>
        <time>2018-02-05T18:54:12Z</time>
      </trkpt>
      <trkpt lat="62.633526132564" lon="17.968128323438">
        <ele>92.4</ele>
        <time>2018-02-05T18:54:13Z</time>
      </trkpt>
      <trkpt lat="62.633543650735" lon="17.968101166082">
        <ele>92.2</ele>
        <time>2018-02-05T18:54:14Z</time>
      </trkpt>
      <trkpt lat="62.633566198046" lon="17.968062609342">
        <ele>92.2</ele>
        <time>2018-02-05T18:54:15Z</time>
      </trkpt>
      <trkpt lat="62.633580698733" lon="17.968018436729">
        <ele>92</ele>
        <time>2018-02-05T18:54:16Z</time>
      </trkpt>
      <trkpt lat="62.633593103945" lon="17.967964205836">
        <ele>92</ele>
        <time>2018-02-05T18:54:17Z</time>
      </trkpt>
      <trkpt lat="62.633601402026" lon="17.967903437061">
        <ele>91.8</ele>
        <time>2018-02-05T18:54:18Z</time>
      </trkpt>
      <trkpt lat="62.633607269356" lon="17.96784736215">
        <ele>91.6</ele>
        <time>2018-02-05T18:54:19Z</time>
      </trkpt>
      <trkpt lat="62.633612549953" lon="17.967786006642">
        <ele>91.6</ele>
        <time>2018-02-05T18:54:20Z</time>
      </trkpt>
      <trkpt lat="62.633617662912" lon="17.967734038862">
        <ele>91.6</ele>
        <time>2018-02-05T18:54:21Z</time>
      </trkpt>
      <trkpt lat="62.633623446423" lon="17.96768559148">
        <ele>91.4</ele>
        <time>2018-02-05T18:54:22Z</time>
      </trkpt>
      <trkpt lat="62.633631576866" lon="17.967628175465">
        <ele>91.2</ele>
        <time>2018-02-05T18:54:23Z</time>
      </trkpt>
      <trkpt lat="62.633637025101" lon="17.967582326472">
        <ele>91</ele>
        <time>2018-02-05T18:54:24Z</time>
      </trkpt>
      <trkpt lat="62.633644987906" lon="17.967523317896">
        <ele>90.8</ele>
        <time>2018-02-05T18:54:25Z</time>
      </trkpt>
      <trkpt lat="62.633652447797" lon="17.967469087003">
        <ele>90.6</ele>
        <time>2018-02-05T18:54:26Z</time>
      </trkpt>
      <trkpt lat="62.633658398946" lon="17.967417035404">
        <ele>90.2</ele>
        <time>2018-02-05T18:54:27Z</time>
      </trkpt>
      <trkpt lat="62.633662925172" lon="17.967364480891">
        <ele>89.8</ele>
        <time>2018-02-05T18:54:28Z</time>
      </trkpt>
      <trkpt lat="62.633671726167" lon="17.967309579446">
        <ele>89.8</ele>
        <time>2018-02-05T18:54:29Z</time>
      </trkpt>
      <trkpt lat="62.633680862438" lon="17.967250906146">
        <ele>89.4</ele>
        <time>2018-02-05T18:54:30Z</time>
      </trkpt>
      <trkpt lat="62.633687903234" lon="17.967197345805">
        <ele>89.2</ele>
        <time>2018-02-05T18:54:31Z</time>
      </trkpt>
      <trkpt lat="62.63369494403" lon="17.967149485156">
        <ele>89</ele>
        <time>2018-02-05T18:54:32Z</time>
      </trkpt>
      <trkpt lat="62.633700392265" lon="17.967094751349">
        <ele>88.8</ele>
        <time>2018-02-05T18:54:33Z</time>
      </trkpt>
      <trkpt lat="62.633704918491" lon="17.967052338935">
        <ele>88.6</ele>
        <time>2018-02-05T18:54:34Z</time>
      </trkpt>
      <trkpt lat="62.633712210744" lon="17.966993581816">
        <ele>88.6</ele>
        <time>2018-02-05T18:54:35Z</time>
      </trkpt>
      <trkpt lat="62.633719083902" lon="17.966941865493">
        <ele>88.4</ele>
        <time>2018-02-05T18:54:36Z</time>
      </trkpt>
      <trkpt lat="62.633724448318" lon="17.96689014917">
        <ele>88.2</ele>
        <time>2018-02-05T18:54:37Z</time>
      </trkpt>
      <trkpt lat="62.633730650924" lon="17.966838097571">
        <ele>88</ele>
        <time>2018-02-05T18:54:38Z</time>
      </trkpt>
      <trkpt lat="62.633735428607" lon="17.96679124275">
        <ele>88</ele>
        <time>2018-02-05T18:54:39Z</time>
      </trkpt>
      <trkpt lat="62.633740709204" lon="17.966734162011">
        <ele>87.6</ele>
        <time>2018-02-05T18:54:40Z</time>
      </trkpt>
      <trkpt lat="62.633747330905" lon="17.966676243082">
        <ele>87.4</ele>
        <time>2018-02-05T18:54:41Z</time>
      </trkpt>
      <trkpt lat="62.63375529371" lon="17.966623940026">
        <ele>87.2</ele>
        <time>2018-02-05T18:54:42Z</time>
      </trkpt>
      <trkpt lat="62.63376199923" lon="17.966576079377">
        <ele>87</ele>
        <time>2018-02-05T18:54:43Z</time>
      </trkpt>
      <trkpt lat="62.633767447465" lon="17.96652888928">
        <ele>86.8</ele>
        <time>2018-02-05T18:54:44Z</time>
      </trkpt>
      <trkpt lat="62.633774069166" lon="17.966473401102">
        <ele>86.6</ele>
        <time>2018-02-05T18:54:45Z</time>
      </trkpt>
      <trkpt lat="62.63378043941" lon="17.966428641756">
        <ele>86.4</ele>
        <time>2018-02-05T18:54:46Z</time>
      </trkpt>
      <trkpt lat="62.633786893473" lon="17.966376841614">
        <ele>86.2</ele>
        <time>2018-02-05T18:54:47Z</time>
      </trkpt>
      <trkpt lat="62.633793431355" lon="17.966321521074">
        <ele>85.8</ele>
        <time>2018-02-05T18:54:48Z</time>
      </trkpt>
      <trkpt lat="62.633797119391" lon="17.966273995701">
        <ele>85.6</ele>
        <time>2018-02-05T18:54:49Z</time>
      </trkpt>
      <trkpt lat="62.63380055597" lon="17.966218423704">
        <ele>85.4</ele>
        <time>2018-02-05T18:54:50Z</time>
      </trkpt>
      <trkpt lat="62.633806171843" lon="17.966165366277">
        <ele>85.2</ele>
        <time>2018-02-05T18:54:51Z</time>
      </trkpt>
      <trkpt lat="62.633809943698" lon="17.966118679094">
        <ele>85</ele>
        <time>2018-02-05T18:54:52Z</time>
      </trkpt>
      <trkpt lat="62.633814553743" lon="17.966069477341">
        <ele>84.8</ele>
        <time>2018-02-05T18:54:53Z</time>
      </trkpt>
      <trkpt lat="62.633818241779" lon="17.966028741307">
        <ele>84.6</ele>
        <time>2018-02-05T18:54:54Z</time>
      </trkpt>
      <trkpt lat="62.633819750521" lon="17.965970319464">
        <ele>84.4</ele>
        <time>2018-02-05T18:54:55Z</time>
      </trkpt>
      <trkpt lat="62.633820588711" lon="17.965922710272">
        <ele>84.2</ele>
        <time>2018-02-05T18:54:56Z</time>
      </trkpt>
      <trkpt lat="62.633823019462" lon="17.965870155759">
        <ele>84</ele>
        <time>2018-02-05T18:54:57Z</time>
      </trkpt>
      <trkpt lat="62.633825785489" lon="17.965823384757">
        <ele>84</ele>
        <time>2018-02-05T18:54:58Z</time>
      </trkpt>
      <trkpt lat="62.633826791317" lon="17.965774099185">
        <ele>83.8</ele>
        <time>2018-02-05T18:54:59Z</time>
      </trkpt>
      <trkpt lat="62.633826456041" lon="17.965719616835">
        <ele>83.6</ele>
        <time>2018-02-05T18:55:00Z</time>
      </trkpt>
      <trkpt lat="62.633827713326" lon="17.965667397598">
        <ele>83.4</ele>
        <time>2018-02-05T18:55:01Z</time>
      </trkpt>
      <trkpt lat="62.63382821624" lon="17.96561693856">
        <ele>83.2</ele>
        <time>2018-02-05T18:55:02Z</time>
      </trkpt>
      <trkpt lat="62.63382570167" lon="17.965560696011">
        <ele>83.2</ele>
        <time>2018-02-05T18:55:03Z</time>
      </trkpt>
      <trkpt lat="62.633825031118" lon="17.965514092647">
        <ele>82.8</ele>
        <time>2018-02-05T18:55:04Z</time>
      </trkpt>
      <trkpt lat="62.633824612023" lon="17.965455000252">
        <ele>82.6</ele>
        <time>2018-02-05T18:55:05Z</time>
      </trkpt>
      <trkpt lat="62.633822265091" lon="17.965406971965">
        <ele>82.4</ele>
        <time>2018-02-05T18:55:06Z</time>
      </trkpt>
      <trkpt lat="62.633821426901" lon="17.965355842375">
        <ele>82.2</ele>
        <time>2018-02-05T18:55:07Z</time>
      </trkpt>
      <trkpt lat="62.633819750521" lon="17.965305048061">
        <ele>81.8</ele>
        <time>2018-02-05T18:55:08Z</time>
      </trkpt>
      <trkpt lat="62.633817068313" lon="17.965266156045">
        <ele>81.6</ele>
        <time>2018-02-05T18:55:09Z</time>
      </trkpt>
      <trkpt lat="62.633813631734" lon="17.965213350075">
        <ele>81.4</ele>
        <time>2018-02-05T18:55:10Z</time>
      </trkpt>
      <trkpt lat="62.633811787716" lon="17.965161466114">
        <ele>81.4</ele>
        <time>2018-02-05T18:55:11Z</time>
      </trkpt>
      <trkpt lat="62.633809021689" lon="17.965115449483">
        <ele>81</ele>
        <time>2018-02-05T18:55:12Z</time>
      </trkpt>
      <trkpt lat="62.633807010033" lon="17.96507043868">
        <ele>80.8</ele>
        <time>2018-02-05T18:55:13Z</time>
      </trkpt>
      <trkpt lat="62.6338064233" lon="17.965023667678">
        <ele>80.8</ele>
        <time>2018-02-05T18:55:14Z</time>
      </trkpt>
      <trkpt lat="62.633808267318" lon="17.964969520604">
        <ele>80.6</ele>
        <time>2018-02-05T18:55:15Z</time>
      </trkpt>
      <trkpt lat="62.633810446612" lon="17.964922414326">
        <ele>80.4</ele>
        <time>2018-02-05T18:55:16Z</time>
      </trkpt>
      <trkpt lat="62.633817990322" lon="17.964868770166">
        <ele>80.2</ele>
        <time>2018-02-05T18:55:17Z</time>
      </trkpt>
      <trkpt lat="62.63383073081" lon="17.964814958368">
        <ele>80.2</ele>
        <time>2018-02-05T18:55:18Z</time>
      </trkpt>
      <trkpt lat="62.633844728583" lon="17.964773887058">
        <ele>80</ele>
        <time>2018-02-05T18:55:19Z</time>
      </trkpt>
      <trkpt lat="62.633865515695" lon="17.964732899567">
        <ele>79.8</ele>
        <time>2018-02-05T18:55:20Z</time>
      </trkpt>
      <trkpt lat="62.633888649739" lon="17.964703227641">
        <ele>79.6</ele>
        <time>2018-02-05T18:55:21Z</time>
      </trkpt>
      <trkpt lat="62.633908850118" lon="17.964681267063">
        <ele>79.4</ele>
        <time>2018-02-05T18:55:22Z</time>
      </trkpt>
      <trkpt lat="62.633933660542" lon="17.964655953725">
        <ele>79.2</ele>
        <time>2018-02-05T18:55:23Z</time>
      </trkpt>
      <trkpt lat="62.633955788758" lon="17.964640950124">
        <ele>79.2</ele>
        <time>2018-02-05T18:55:24Z</time>
      </trkpt>
      <trkpt lat="62.6339824432" lon="17.964630472749">
        <ele>79</ele>
        <time>2018-02-05T18:55:25Z</time>
      </trkpt>
      <trkpt lat="62.634005828701" lon="17.964626114161">
        <ele>78.8</ele>
        <time>2018-02-05T18:55:26Z</time>
      </trkpt>
      <trkpt lat="62.634030303849" lon="17.964625611247">
        <ele>78.8</ele>
        <time>2018-02-05T18:55:27Z</time>
      </trkpt>
      <trkpt lat="62.634051593875" lon="17.964626449437">
        <ele>78.6</ele>
        <time>2018-02-05T18:55:28Z</time>
      </trkpt>
      <trkpt lat="62.634076404299" lon="17.964628461093">
        <ele>78.6</ele>
        <time>2018-02-05T18:55:29Z</time>
      </trkpt>
      <trkpt lat="62.634104735121" lon="17.964630640387">
        <ele>78.6</ele>
        <time>2018-02-05T18:55:30Z</time>
      </trkpt>
      <trkpt lat="62.634127785346" lon="17.964632484405">
        <ele>78.4</ele>
        <time>2018-02-05T18:55:31Z</time>
      </trkpt>
      <trkpt lat="62.634150500295" lon="17.964633154957">
        <ele>78.4</ele>
        <time>2018-02-05T18:55:32Z</time>
      </trkpt>
      <trkpt lat="62.634176316547" lon="17.964634915156">
        <ele>78.4</ele>
        <time>2018-02-05T18:55:33Z</time>
      </trkpt>
      <trkpt lat="62.634196600745" lon="17.964634915156">
        <ele>78.4</ele>
        <time>2018-02-05T18:55:34Z</time>
      </trkpt>
      <trkpt lat="62.634221914083" lon="17.964633406414">
        <ele>78.2</ele>
        <time>2018-02-05T18:55:35Z</time>
      </trkpt>
      <trkpt lat="62.634246808326" lon="17.964634663699">
        <ele>78.2</ele>
        <time>2018-02-05T18:55:36Z</time>
      </trkpt>
      <trkpt lat="62.634270612922" lon="17.964640531029">
        <ele>78.2</ele>
        <time>2018-02-05T18:55:37Z</time>
      </trkpt>
      <trkpt lat="62.634293746966" lon="17.964639525201">
        <ele>78</ele>
        <time>2018-02-05T18:55:38Z</time>
      </trkpt>
      <trkpt lat="62.634314785535" lon="17.96463877083">
        <ele>78</ele>
        <time>2018-02-05T18:55:39Z</time>
      </trkpt>
      <trkpt lat="62.634341439977" lon="17.9646412854">
        <ele>78</ele>
        <time>2018-02-05T18:55:40Z</time>
      </trkpt>
      <trkpt lat="62.634366920953" lon="17.964643967608">
        <ele>78</ele>
        <time>2018-02-05T18:55:41Z</time>
      </trkpt>
      <trkpt lat="62.634390557911" lon="17.964647404187">
        <ele>78</ele>
        <time>2018-02-05T18:55:42Z</time>
      </trkpt>
      <trkpt lat="62.634415284516" lon="17.96465134368">
        <ele>78</ele>
        <time>2018-02-05T18:55:43Z</time>
      </trkpt>
      <trkpt lat="62.634437328913" lon="17.964656791915">
        <ele>77.8</ele>
        <time>2018-02-05T18:55:44Z</time>
      </trkpt>
      <trkpt lat="62.634462139337" lon="17.964659138847">
        <ele>77.8</ele>
        <time>2018-02-05T18:55:45Z</time>
      </trkpt>
      <trkpt lat="62.634485021924" lon="17.964659306485">
        <ele>77.8</ele>
        <time>2018-02-05T18:55:46Z</time>
      </trkpt>
      <trkpt lat="62.634507317778" lon="17.964658803571">
        <ele>77.6</ele>
        <time>2018-02-05T18:55:47Z</time>
      </trkpt>
      <trkpt lat="62.634530535641" lon="17.964658384476">
        <ele>77.6</ele>
        <time>2018-02-05T18:55:48Z</time>
      </trkpt>
      <trkpt lat="62.634552244762" lon="17.964658300657">
        <ele>77.6</ele>
        <time>2018-02-05T18:55:49Z</time>
      </trkpt>
      <trkpt lat="62.634576552272" lon="17.964658133019">
        <ele>77.6</ele>
        <time>2018-02-05T18:55:50Z</time>
      </trkpt>
      <trkpt lat="62.634600105411" lon="17.964652517146">
        <ele>77.6</ele>
        <time>2018-02-05T18:55:51Z</time>
      </trkpt>
      <trkpt lat="62.634622568903" lon="17.964650924585">
        <ele>77.6</ele>
        <time>2018-02-05T18:55:52Z</time>
      </trkpt>
      <trkpt lat="62.634648720431" lon="17.964648074739">
        <ele>77.6</ele>
        <time>2018-02-05T18:55:53Z</time>
      </trkpt>
      <trkpt lat="62.634669926638" lon="17.964648912929">
        <ele>77.4</ele>
        <time>2018-02-05T18:55:54Z</time>
      </trkpt>
      <trkpt lat="62.634699514745" lon="17.964653271517">
        <ele>77.4</ele>
        <time>2018-02-05T18:55:55Z</time>
      </trkpt>
      <trkpt lat="62.634723654617" lon="17.964652517146">
        <ele>77.2</ele>
        <time>2018-02-05T18:55:56Z</time>
      </trkpt>
      <trkpt lat="62.634746453385" lon="17.964654025888">
        <ele>77.2</ele>
        <time>2018-02-05T18:55:57Z</time>
      </trkpt>
      <trkpt lat="62.634768497782" lon="17.96465385825">
        <ele>77.2</ele>
        <time>2018-02-05T18:55:58Z</time>
      </trkpt>
      <trkpt lat="62.634791799464" lon="17.964654109707">
        <ele>77.2</ele>
        <time>2018-02-05T18:55:59Z</time>
      </trkpt>
      <trkpt lat="62.634816609888" lon="17.964652600965">
        <ele>77.2</ele>
        <time>2018-02-05T18:56:00Z</time>
      </trkpt>
      <trkpt lat="62.634839241018" lon="17.964650840766">
        <ele>77</ele>
        <time>2018-02-05T18:56:01Z</time>
      </trkpt>
      <trkpt lat="62.634867990935" lon="17.964653271517">
        <ele>77</ele>
        <time>2018-02-05T18:56:02Z</time>
      </trkpt>
      <trkpt lat="62.634893052816" lon="17.96465050549">
        <ele>77</ele>
        <time>2018-02-05T18:56:03Z</time>
      </trkpt>
      <trkpt lat="62.634916019222" lon="17.964651176042">
        <ele>76.8</ele>
        <time>2018-02-05T18:56:04Z</time>
      </trkpt>
      <trkpt lat="62.634939404723" lon="17.964651511318">
        <ele>76.8</ele>
        <time>2018-02-05T18:56:05Z</time>
      </trkpt>
      <trkpt lat="62.634967232631" lon="17.964650254033">
        <ele>76.8</ele>
        <time>2018-02-05T18:56:06Z</time>
      </trkpt>
      <trkpt lat="62.634991791598" lon="17.964646398359">
        <ele>76.8</ele>
        <time>2018-02-05T18:56:07Z</time>
      </trkpt>
      <trkpt lat="62.635016602022" lon="17.96463877083">
        <ele>76.6</ele>
        <time>2018-02-05T18:56:08Z</time>
      </trkpt>
      <trkpt lat="62.635038227324" lon="17.964630221292">
        <ele>76.6</ele>
        <time>2018-02-05T18:56:09Z</time>
      </trkpt>
      <trkpt lat="62.635064295033" lon="17.964621252659">
        <ele>76.4</ele>
        <time>2018-02-05T18:56:10Z</time>
      </trkpt>
      <trkpt lat="62.635089776009" lon="17.964614798596">
        <ele>76.6</ele>
        <time>2018-02-05T18:56:11Z</time>
      </trkpt>
      <trkpt lat="62.635112658596" lon="17.964604907954">
        <ele>76.4</ele>
        <time>2018-02-05T18:56:12Z</time>
      </trkpt>
      <trkpt lat="62.635135541183" lon="17.964594849674">
        <ele>76.4</ele>
        <time>2018-02-05T18:56:13Z</time>
      </trkpt>
      <trkpt lat="62.635154065182" lon="17.964587222145">
        <ele>76.4</ele>
        <time>2018-02-05T18:56:14Z</time>
      </trkpt>
      <trkpt lat="62.635176277217" lon="17.964579678435">
        <ele>76.4</ele>
        <time>2018-02-05T18:56:15Z</time>
      </trkpt>
      <trkpt lat="62.635196309958" lon="17.964571296535">
        <ele>76.2</ele>
        <time>2018-02-05T18:56:16Z</time>
      </trkpt>
      <trkpt lat="62.635221036563" lon="17.964560902979">
        <ele>76.2</ele>
        <time>2018-02-05T18:56:17Z</time>
      </trkpt>
      <trkpt lat="62.635244422064" lon="17.964551431432">
        <ele>76.2</ele>
        <time>2018-02-05T18:56:18Z</time>
      </trkpt>
      <trkpt lat="62.635267220832" lon="17.964541876066">
        <ele>76.2</ele>
        <time>2018-02-05T18:56:19Z</time>
      </trkpt>
      <trkpt lat="62.635293539998" lon="17.964531147234">
        <ele>76.2</ele>
        <time>2018-02-05T18:56:20Z</time>
      </trkpt>
      <trkpt lat="62.635315249119" lon="17.964525112266">
        <ele>76</ele>
        <time>2018-02-05T18:56:21Z</time>
      </trkpt>
      <trkpt lat="62.635338969896" lon="17.964514299615">
        <ele>76</ele>
        <time>2018-02-05T18:56:22Z</time>
      </trkpt>
      <trkpt lat="62.635368306546" lon="17.964506420629">
        <ele>76</ele>
        <time>2018-02-05T18:56:23Z</time>
      </trkpt>
      <trkpt lat="62.635389345115" lon="17.964498038729">
        <ele>76</ele>
        <time>2018-02-05T18:56:24Z</time>
      </trkpt>
      <trkpt lat="62.635416334833" lon="17.96448789663">
        <ele>75.8</ele>
        <time>2018-02-05T18:56:25Z</time>
      </trkpt>
      <trkpt lat="62.635442318723" lon="17.964485046784">
        <ele>75.8</ele>
        <time>2018-02-05T18:56:26Z</time>
      </trkpt>
      <trkpt lat="62.6354660395" lon="17.964479263273">
        <ele>75.8</ele>
        <time>2018-02-05T18:56:27Z</time>
      </trkpt>
      <trkpt lat="62.635487245707" lon="17.964469540269">
        <ele>75.8</ele>
        <time>2018-02-05T18:56:28Z</time>
      </trkpt>
      <trkpt lat="62.635512642864" lon="17.964459230532">
        <ele>75.6</ele>
        <time>2018-02-05T18:56:29Z</time>
      </trkpt>
      <trkpt lat="62.635539045849" lon="17.964450345718">
        <ele>75.6</ele>
        <time>2018-02-05T18:56:30Z</time>
      </trkpt>
      <trkpt lat="62.635562682807" lon="17.964438778696">
        <ele>75.6</ele>
        <time>2018-02-05T18:56:31Z</time>
      </trkpt>
      <trkpt lat="62.635588750516" lon="17.964423188362">
        <ele>75.4</ele>
        <time>2018-02-05T18:56:32Z</time>
      </trkpt>
      <trkpt lat="62.635612052198" lon="17.964406927476">
        <ele>75.4</ele>
        <time>2018-02-05T18:56:33Z</time>
      </trkpt>
      <trkpt lat="62.635632168758" lon="17.964393264979">
        <ele>75.2</ele>
        <time>2018-02-05T18:56:34Z</time>
      </trkpt>
      <trkpt lat="62.635659745209" lon="17.964374238066">
        <ele>75.2</ele>
        <time>2018-02-05T18:56:35Z</time>
      </trkpt>
      <trkpt lat="62.635683717443" lon="17.964353870049">
        <ele>75.2</ele>
        <time>2018-02-05T18:56:36Z</time>
      </trkpt>
      <trkpt lat="62.635705175107" lon="17.964332915299">
        <ele>75.2</ele>
        <time>2018-02-05T18:56:37Z</time>
      </trkpt>
      <trkpt lat="62.635728895884" lon="17.964311289997">
        <ele>75.2</ele>
        <time>2018-02-05T18:56:38Z</time>
      </trkpt>
      <trkpt lat="62.635748844806" lon="17.964291089618">
        <ele>75.2</ele>
        <time>2018-02-05T18:56:39Z</time>
      </trkpt>
      <trkpt lat="62.63577030247" lon="17.96426661447">
        <ele>75.2</ele>
        <time>2018-02-05T18:56:40Z</time>
      </trkpt>
      <trkpt lat="62.635794945256" lon="17.9642473361">
        <ele>75.2</ele>
        <time>2018-02-05T18:56:41Z</time>
      </trkpt>
      <trkpt lat="62.63581891749" lon="17.964234344155">
        <ele>75</ele>
        <time>2018-02-05T18:56:42Z</time>
      </trkpt>
      <trkpt lat="62.635843057362" lon="17.964219340554">
        <ele>75</ele>
        <time>2018-02-05T18:56:43Z</time>
      </trkpt>
      <trkpt lat="62.635868286881" lon="17.96420794117">
        <ele>75</ele>
        <time>2018-02-05T18:56:44Z</time>
      </trkpt>
      <trkpt lat="62.635896366246" lon="17.964200900374">
        <ele>74.8</ele>
        <time>2018-02-05T18:56:45Z</time>
      </trkpt>
      <trkpt lat="62.635918159186" lon="17.964201906202">
        <ele>74.8</ele>
        <time>2018-02-05T18:56:46Z</time>
      </trkpt>
      <trkpt lat="62.635945316542" lon="17.96420123565">
        <ele>74.6</ele>
        <time>2018-02-05T18:56:47Z</time>
      </trkpt>
      <trkpt lat="62.635971719527" lon="17.964199643089">
        <ele>74.4</ele>
        <time>2018-02-05T18:56:48Z</time>
      </trkpt>
      <trkpt lat="62.635995607942" lon="17.964199140175">
        <ele>74.4</ele>
        <time>2018-02-05T18:56:49Z</time>
      </trkpt>
      <trkpt lat="62.636023603488" lon="17.964190087723">
        <ele>74.4</ele>
        <time>2018-02-05T18:56:50Z</time>
      </trkpt>
      <trkpt lat="62.636049000645" lon="17.96417106081">
        <ele>74.2</ele>
        <time>2018-02-05T18:56:51Z</time>
      </trkpt>
      <trkpt lat="62.636069955395" lon="17.964150776612">
        <ele>74.4</ele>
        <time>2018-02-05T18:56:52Z</time>
      </trkpt>
      <trkpt lat="62.636098370036" lon="17.964134012812">
        <ele>74.4</ele>
        <time>2018-02-05T18:56:53Z</time>
      </trkpt>
      <trkpt lat="62.63612150408" lon="17.964129235129">
        <ele>74.2</ele>
        <time>2018-02-05T18:56:54Z</time>
      </trkpt>
      <trkpt lat="62.636147236513" lon="17.964135521554">
        <ele>74.4</ele>
        <time>2018-02-05T18:56:55Z</time>
      </trkpt>
      <trkpt lat="62.636167772168" lon="17.964153291182">
        <ele>74.2</ele>
        <time>2018-02-05T18:56:56Z</time>
      </trkpt>
      <trkpt lat="62.636190570936" lon="17.964171228448">
        <ele>74.4</ele>
        <time>2018-02-05T18:56:57Z</time>
      </trkpt>
      <trkpt lat="62.636212699152" lon="17.964185393859">
        <ele>74.2</ele>
        <time>2018-02-05T18:56:58Z</time>
      </trkpt>
      <trkpt lat="62.636235833196" lon="17.964201319469">
        <ele>74.2</ele>
        <time>2018-02-05T18:56:59Z</time>
      </trkpt>
      <trkpt lat="62.636260559801" lon="17.964211545387">
        <ele>74</ele>
        <time>2018-02-05T18:57:00Z</time>
      </trkpt>
      <trkpt lat="62.636281933646" lon="17.964216071613">
        <ele>74</ele>
        <time>2018-02-05T18:57:01Z</time>
      </trkpt>
      <trkpt lat="62.636306408794" lon="17.964217664174">
        <ele>74</ele>
        <time>2018-02-05T18:57:02Z</time>
      </trkpt>
      <trkpt lat="62.636332308865" lon="17.964215987794">
        <ele>74</ele>
        <time>2018-02-05T18:57:03Z</time>
      </trkpt>
      <trkpt lat="62.636358208936" lon="17.964214059957">
        <ele>74</ele>
        <time>2018-02-05T18:57:04Z</time>
      </trkpt>
      <trkpt lat="62.636379331324" lon="17.964198888718">
        <ele>74</ele>
        <time>2018-02-05T18:57:05Z</time>
      </trkpt>
      <trkpt lat="62.636404560843" lon="17.964187070239">
        <ele>74.2</ele>
        <time>2018-02-05T18:57:06Z</time>
      </trkpt>
      <trkpt lat="62.636428784534" lon="17.96417106081">
        <ele>74.2</ele>
        <time>2018-02-05T18:57:07Z</time>
      </trkpt>
      <trkpt lat="62.636453259682" lon="17.964159996702">
        <ele>74.2</ele>
        <time>2018-02-05T18:57:08Z</time>
      </trkpt>
      <trkpt lat="62.636474884984" lon="17.964151530983">
        <ele>74.2</ele>
        <time>2018-02-05T18:57:09Z</time>
      </trkpt>
      <trkpt lat="62.636499779227" lon="17.964140131599">
        <ele>74.2</ele>
        <time>2018-02-05T18:57:10Z</time>
      </trkpt>
      <trkpt lat="62.636525763117" lon="17.964129570405">
        <ele>74</ele>
        <time>2018-02-05T18:57:11Z</time>
      </trkpt>
      <trkpt lat="62.636550238265" lon="17.964128396939">
        <ele>74</ele>
        <time>2018-02-05T18:57:12Z</time>
      </trkpt>
      <trkpt lat="62.636574545775" lon="17.964128480758">
        <ele>74</ele>
        <time>2018-02-05T18:57:13Z</time>
      </trkpt>
      <trkpt lat="62.636596673991" lon="17.964133006984">
        <ele>74</ele>
        <time>2018-02-05T18:57:14Z</time>
      </trkpt>
      <trkpt lat="62.636620897682" lon="17.964151530983">
        <ele>73.8</ele>
        <time>2018-02-05T18:57:15Z</time>
      </trkpt>
      <trkpt lat="62.636637745301" lon="17.964173240104">
        <ele>73.8</ele>
        <time>2018-02-05T18:57:16Z</time>
      </trkpt>
      <trkpt lat="62.636661466078" lon="17.964188411343">
        <ele>73.6</ele>
        <time>2018-02-05T18:57:17Z</time>
      </trkpt>
      <trkpt lat="62.63668728233" lon="17.964198469623">
        <ele>73.6</ele>
        <time>2018-02-05T18:57:18Z</time>
      </trkpt>
      <trkpt lat="62.636711254564" lon="17.964206767704">
        <ele>73.6</ele>
        <time>2018-02-05T18:57:19Z</time>
      </trkpt>
      <trkpt lat="62.636739417748" lon="17.964216825984">
        <ele>73.6</ele>
        <time>2018-02-05T18:57:20Z</time>
      </trkpt>
      <trkpt lat="62.636764060534" lon="17.964237780734">
        <ele>73.6</ele>
        <time>2018-02-05T18:57:21Z</time>
      </trkpt>
      <trkpt lat="62.636784093275" lon="17.964263513167">
        <ele>73.8</ele>
        <time>2018-02-05T18:57:22Z</time>
      </trkpt>
      <trkpt lat="62.636805048025" lon="17.964298633328">
        <ele>73.8</ele>
        <time>2018-02-05T18:57:23Z</time>
      </trkpt>
      <trkpt lat="62.63682055454" lon="17.964332244747">
        <ele>73.8</ele>
        <time>2018-02-05T18:57:24Z</time>
      </trkpt>
      <trkpt lat="62.636839497634" lon="17.964371891134">
        <ele>73.6</ele>
        <time>2018-02-05T18:57:25Z</time>
      </trkpt>
      <trkpt lat="62.636859781832" lon="17.964403071802">
        <ele>73.6</ele>
        <time>2018-02-05T18:57:26Z</time>
      </trkpt>
      <trkpt lat="62.636880485125" lon="17.964436683221">
        <ele>73.6</ele>
        <time>2018-02-05T18:57:27Z</time>
      </trkpt>
      <trkpt lat="62.636900098771" lon="17.96446442731">
        <ele>73.6</ele>
        <time>2018-02-05T18:57:28Z</time>
      </trkpt>
      <trkpt lat="62.636922646082" lon="17.964485633517">
        <ele>73.4</ele>
        <time>2018-02-05T18:57:29Z</time>
      </trkpt>
      <trkpt lat="62.636949719619" lon="17.964501559127">
        <ele>73.4</ele>
        <time>2018-02-05T18:57:30Z</time>
      </trkpt>
      <trkpt lat="62.636975452052" lon="17.964513545244">
        <ele>73.4</ele>
        <time>2018-02-05T18:57:31Z</time>
      </trkpt>
      <trkpt lat="62.636999843381" lon="17.964527207741">
        <ele>73.4</ele>
        <time>2018-02-05T18:57:32Z</time>
      </trkpt>
      <trkpt lat="62.637023899434" lon="17.964549335957">
        <ele>73.4</ele>
        <time>2018-02-05T18:57:33Z</time>
      </trkpt>
      <trkpt lat="62.637042339614" lon="17.964569284879">
        <ele>73.4</ele>
        <time>2018-02-05T18:57:34Z</time>
      </trkpt>
      <trkpt lat="62.637064216373" lon="17.964597364244">
        <ele>73.4</ele>
        <time>2018-02-05T18:57:35Z</time>
      </trkpt>
      <trkpt lat="62.637082991829" lon="17.964635585708">
        <ele>73.2</ele>
        <time>2018-02-05T18:57:36Z</time>
      </trkpt>
      <trkpt lat="62.637097241059" lon="17.9646664311">
        <ele>73.2</ele>
        <time>2018-02-05T18:57:37Z</time>
      </trkpt>
      <trkpt lat="62.637114423954" lon="17.964679925959">
        <ele>73</ele>
        <time>2018-02-05T18:57:38Z</time>
      </trkpt>
      <trkpt lat="62.63713319941" lon="17.964671627878">
        <ele>73</ele>
        <time>2018-02-05T18:57:39Z</time>
      </trkpt>
      <trkpt lat="62.637156081997" lon="17.964649248205">
        <ele>73</ele>
        <time>2018-02-05T18:57:40Z</time>
      </trkpt>
      <trkpt lat="62.637177204385" lon="17.964622258487">
        <ele>73</ele>
        <time>2018-02-05T18:57:41Z</time>
      </trkpt>
      <trkpt lat="62.637198494411" lon="17.964597112787">
        <ele>73</ele>
        <time>2018-02-05T18:57:42Z</time>
      </trkpt>
      <trkpt lat="62.637218024238" lon="17.964573643467">
        <ele>73</ele>
        <time>2018-02-05T18:57:43Z</time>
      </trkpt>
      <trkpt lat="62.637234788038" lon="17.9645490845">
        <ele>73</ele>
        <time>2018-02-05T18:57:44Z</time>
      </trkpt>
      <trkpt lat="62.637256329521" lon="17.964520921316">
        <ele>73</ele>
        <time>2018-02-05T18:57:45Z</time>
      </trkpt>
      <trkpt lat="62.637276781357" lon="17.964494685969">
        <ele>72.8</ele>
        <time>2018-02-05T18:57:46Z</time>
      </trkpt>
      <trkpt lat="62.637297987564" lon="17.964469540269">
        <ele>72.6</ele>
        <time>2018-02-05T18:57:47Z</time>
      </trkpt>
      <trkpt lat="62.6373184394" lon="17.964447076777">
        <ele>72.6</ele>
        <time>2018-02-05T18:57:48Z</time>
      </trkpt>
      <trkpt lat="62.637337214856" lon="17.96442000324">
        <ele>72.6</ele>
        <time>2018-02-05T18:57:49Z</time>
      </trkpt>
      <trkpt lat="62.637355487398" lon="17.964387900563">
        <ele>72.4</ele>
        <time>2018-02-05T18:57:50Z</time>
      </trkpt>
      <trkpt lat="62.637374514311" lon="17.964357809542">
        <ele>72.4</ele>
        <time>2018-02-05T18:57:51Z</time>
      </trkpt>
      <trkpt lat="62.637392619215" lon="17.964324952494">
        <ele>72.4</ele>
        <time>2018-02-05T18:57:52Z</time>
      </trkpt>
      <trkpt lat="62.637410724119" lon="17.964296537853">
        <ele>72.2</ele>
        <time>2018-02-05T18:57:53Z</time>
      </trkpt>
      <trkpt lat="62.637427236462" lon="17.96427331999">
        <ele>72.2</ele>
        <time>2018-02-05T18:57:54Z</time>
      </trkpt>
    </trkseg>
  </trk>
</gpx>